<?xml version="1.0" encoding="UTF-8"?>
<gpx version="1.1" creator="https://www.youtrack.es" xsi:schemaLocation="http://www.topografix.com/GPX/1/1 http://www.topografix.com/GPX/1/1/gpx.xsd http://www.garmin.com/xmlschemas/GpxExtensions/v3 http://www.garmin.com/xmlschemas/GpxExtensionsv3.xsd http://www.garmin.com/xmlschemas/TrackPointExtension/v1 http://www.garmin.com/xmlschemas/TrackPointExtensionv1.xsd" xmlns:gpxtpx="http://www.garmin.com/xmlschemas/TrackPointExtension/v1" xmlns:gpxx="http://www.garmin.com/xmlschemas/GpxExtensions/v3" xmlns:xsi="http://www.w3.org/2001/XMLSchema-instance">
  <metadata>
    <link href="https://www.youtrack.es">
      <text>YouTrack.es</text>
    </link>
    <time>2026-05-08T16:34:25Z</time>
  </metadata>
  <trk>
    <src>https://www.youtrack.es</src>
    <link href="https://www.youtrack.es/ruta/6359-costa">
      <text>YouTrack.es</text>
    </link>
    <trkseg>
      <trkpt lat="38.46609680" lon="-8.86403943">
        <ele>8.0000000</ele>
        <time>2010-01-01T00:00:00Z</time>
      </trkpt>
      <trkpt lat="38.46563120" lon="-8.86465536">
        <ele>11.000000</ele>
        <time>2010-01-01T00:00:26Z</time>
      </trkpt>
      <trkpt lat="38.46526780" lon="-8.86594148">
        <ele>11.000000</ele>
        <time>2010-01-01T00:01:09Z</time>
      </trkpt>
      <trkpt lat="38.46504870" lon="-8.86609411">
        <ele>11.000000</ele>
        <time>2010-01-01T00:01:19Z</time>
      </trkpt>
      <trkpt lat="38.46462040" lon="-8.86619713">
        <ele>8.0000000</ele>
        <time>2010-01-01T00:01:37Z</time>
      </trkpt>
      <trkpt lat="38.46438740" lon="-8.86652855">
        <ele>8.0000000</ele>
        <time>2010-01-01T00:01:51Z</time>
      </trkpt>
      <trkpt lat="38.46424500" lon="-8.86698603">
        <ele>9.0000000</ele>
        <time>2010-01-01T00:02:06Z</time>
      </trkpt>
      <trkpt lat="38.46391090" lon="-8.86734821">
        <ele>10.000000</ele>
        <time>2010-01-01T00:02:24Z</time>
      </trkpt>
      <trkpt lat="38.46408440" lon="-8.86810611">
        <ele>7.0000000</ele>
        <time>2010-01-01T00:02:48Z</time>
      </trkpt>
      <trkpt lat="38.46395890" lon="-8.86822965">
        <ele>7.0000000</ele>
        <time>2010-01-01T00:02:55Z</time>
      </trkpt>
      <trkpt lat="38.46350310" lon="-8.86688528">
        <ele>7.0000000</ele>
        <time>2010-01-01T00:03:41Z</time>
      </trkpt>
      <trkpt lat="38.46339340" lon="-8.86614994">
        <ele>6.0000000</ele>
        <time>2010-01-01T00:04:04Z</time>
      </trkpt>
      <trkpt lat="38.46306810" lon="-8.86516766">
        <ele>7.0000000</ele>
        <time>2010-01-01T00:04:37Z</time>
      </trkpt>
      <trkpt lat="38.46244710" lon="-8.86334560">
        <ele>13.000000</ele>
        <time>2010-01-01T00:05:40Z</time>
      </trkpt>
      <trkpt lat="38.46178200" lon="-8.86166579">
        <ele>9.0000000</ele>
        <time>2010-01-01T00:06:39Z</time>
      </trkpt>
      <trkpt lat="38.46133680" lon="-8.86077697">
        <ele>9.0000000</ele>
        <time>2010-01-01T00:07:12Z</time>
      </trkpt>
      <trkpt lat="38.46085350" lon="-8.85997122">
        <ele>11.000000</ele>
        <time>2010-01-01T00:07:44Z</time>
      </trkpt>
      <trkpt lat="38.45915080" lon="-8.85743561">
        <ele>13.000000</ele>
        <time>2010-01-01T00:09:28Z</time>
      </trkpt>
      <trkpt lat="38.45847040" lon="-8.85661074">
        <ele>10.000000</ele>
        <time>2010-01-01T00:10:06Z</time>
      </trkpt>
      <trkpt lat="38.45763280" lon="-8.85581019">
        <ele>10.000000</ele>
        <time>2010-01-01T00:10:48Z</time>
      </trkpt>
      <trkpt lat="38.45274760" lon="-8.85209877">
        <ele>12.000000</ele>
        <time>2010-01-01T00:14:35Z</time>
      </trkpt>
      <trkpt lat="38.45199400" lon="-8.85142888">
        <ele>12.000000</ele>
        <time>2010-01-01T00:15:12Z</time>
      </trkpt>
      <trkpt lat="38.45127330" lon="-8.85064777">
        <ele>14.000000</ele>
        <time>2010-01-01T00:15:50Z</time>
      </trkpt>
      <trkpt lat="38.45063650" lon="-8.84979818">
        <ele>13.000000</ele>
        <time>2010-01-01T00:16:27Z</time>
      </trkpt>
      <trkpt lat="38.44051630" lon="-8.83488125">
        <ele>8.0000000</ele>
        <time>2010-01-01T00:26:46Z</time>
      </trkpt>
      <trkpt lat="38.43967670" lon="-8.83381096">
        <ele>9.0000000</ele>
        <time>2010-01-01T00:27:33Z</time>
      </trkpt>
      <trkpt lat="38.43884070" lon="-8.83297110">
        <ele>9.0000000</ele>
        <time>2010-01-01T00:28:16Z</time>
      </trkpt>
      <trkpt lat="38.43367940" lon="-8.82879540">
        <ele>15.000000</ele>
        <time>2010-01-01T00:32:20Z</time>
      </trkpt>
      <trkpt lat="38.43278060" lon="-8.82815351">
        <ele>16.000000</ele>
        <time>2010-01-01T00:33:01Z</time>
      </trkpt>
      <trkpt lat="38.42047230" lon="-8.82075439">
        <ele>14.000000</ele>
        <time>2010-01-01T00:42:06Z</time>
      </trkpt>
      <trkpt lat="38.41957850" lon="-8.82004167">
        <ele>13.000000</ele>
        <time>2010-01-01T00:42:48Z</time>
      </trkpt>
      <trkpt lat="38.41904000" lon="-8.81920608">
        <ele>13.000000</ele>
        <time>2010-01-01T00:43:22Z</time>
      </trkpt>
      <trkpt lat="38.41850840" lon="-8.81816480">
        <ele>13.000000</ele>
        <time>2010-01-01T00:44:01Z</time>
      </trkpt>
      <trkpt lat="38.41791060" lon="-8.81717858">
        <ele>10.000000</ele>
        <time>2010-01-01T00:44:40Z</time>
      </trkpt>
      <trkpt lat="38.41721810" lon="-8.81648314">
        <ele>12.000000</ele>
        <time>2010-01-01T00:45:16Z</time>
      </trkpt>
      <trkpt lat="38.41642390" lon="-8.81605759">
        <ele>13.000000</ele>
        <time>2010-01-01T00:45:50Z</time>
      </trkpt>
      <trkpt lat="38.41274130" lon="-8.81461196">
        <ele>23.000000</ele>
        <time>2010-01-01T00:48:24Z</time>
      </trkpt>
      <trkpt lat="38.41188590" lon="-8.81408365">
        <ele>20.000000</ele>
        <time>2010-01-01T00:49:02Z</time>
      </trkpt>
      <trkpt lat="38.40819960" lon="-8.81122986">
        <ele>22.000000</ele>
        <time>2010-01-01T00:51:55Z</time>
      </trkpt>
      <trkpt lat="38.40289650" lon="-8.80762288">
        <ele>22.000000</ele>
        <time>2010-01-01T00:55:55Z</time>
      </trkpt>
      <trkpt lat="38.40202280" lon="-8.80715190">
        <ele>24.000000</ele>
        <time>2010-01-01T00:56:33Z</time>
      </trkpt>
      <trkpt lat="38.39766710" lon="-8.80546714">
        <ele>21.000000</ele>
        <time>2010-01-01T00:59:36Z</time>
      </trkpt>
      <trkpt lat="38.39653070" lon="-8.80497185">
        <ele>20.000000</ele>
        <time>2010-01-01T01:00:24Z</time>
      </trkpt>
      <trkpt lat="38.39285690" lon="-8.80315658">
        <ele>19.000000</ele>
        <time>2010-01-01T01:03:01Z</time>
      </trkpt>
      <trkpt lat="38.39201180" lon="-8.80271888">
        <ele>22.000000</ele>
        <time>2010-01-01T01:03:38Z</time>
      </trkpt>
      <trkpt lat="38.39126330" lon="-8.80208881">
        <ele>20.000000</ele>
        <time>2010-01-01T01:04:14Z</time>
      </trkpt>
      <trkpt lat="38.39056760" lon="-8.80136629">
        <ele>18.000000</ele>
        <time>2010-01-01T01:04:50Z</time>
      </trkpt>
      <trkpt lat="38.38982580" lon="-8.80070337">
        <ele>18.000000</ele>
        <time>2010-01-01T01:05:26Z</time>
      </trkpt>
      <trkpt lat="38.38904840" lon="-8.80036574">
        <ele>18.000000</ele>
        <time>2010-01-01T01:05:59Z</time>
      </trkpt>
      <trkpt lat="38.38711220" lon="-8.80002795">
        <ele>15.000000</ele>
        <time>2010-01-01T01:07:17Z</time>
      </trkpt>
      <trkpt lat="38.38631070" lon="-8.79966535">
        <ele>15.000000</ele>
        <time>2010-01-01T01:07:51Z</time>
      </trkpt>
      <trkpt lat="38.38363190" lon="-8.79785972">
        <ele>16.000000</ele>
        <time>2010-01-01T01:09:52Z</time>
      </trkpt>
      <trkpt lat="38.38276160" lon="-8.79717249">
        <ele>13.000000</ele>
        <time>2010-01-01T01:10:33Z</time>
      </trkpt>
      <trkpt lat="38.38205970" lon="-8.79606046">
        <ele>5.0000000</ele>
        <time>2010-01-01T01:11:18Z</time>
      </trkpt>
      <trkpt lat="38.38181790" lon="-8.79501868">
        <ele>5.0000000</ele>
        <time>2010-01-01T01:11:52Z</time>
      </trkpt>
      <trkpt lat="38.38169900" lon="-8.79373868">
        <ele>6.0000000</ele>
        <time>2010-01-01T01:12:33Z</time>
      </trkpt>
      <trkpt lat="38.38161700" lon="-8.79179843">
        <ele>4.0000000</ele>
        <time>2010-01-01T01:13:34Z</time>
      </trkpt>
      <trkpt lat="38.38148580" lon="-8.79158587">
        <ele>3.0000000</ele>
        <time>2010-01-01T01:13:42Z</time>
      </trkpt>
      <trkpt lat="38.38132470" lon="-8.79158352">
        <ele>3.0000000</ele>
        <time>2010-01-01T01:13:49Z</time>
      </trkpt>
      <trkpt lat="38.38133600" lon="-8.79293485">
        <ele>2.0000000</ele>
        <time>2010-01-01T01:14:31Z</time>
      </trkpt>
      <trkpt lat="38.38115010" lon="-8.79298741">
        <ele>2.0000000</ele>
        <time>2010-01-01T01:14:39Z</time>
      </trkpt>
      <trkpt lat="38.37676410" lon="-8.79234611">
        <ele>1.0000000</ele>
        <time>2010-01-01T01:17:35Z</time>
      </trkpt>
      <trkpt lat="38.37065960" lon="-8.79131857">
        <ele>2.0000000</ele>
        <time>2010-01-01T01:21:42Z</time>
      </trkpt>
      <trkpt lat="38.36679340" lon="-8.79010973">
        <ele>3.0000000</ele>
        <time>2010-01-01T01:24:21Z</time>
      </trkpt>
      <trkpt lat="38.36674780" lon="-8.78989490">
        <ele>3.0000000</ele>
        <time>2010-01-01T01:24:28Z</time>
      </trkpt>
      <trkpt lat="38.36693570" lon="-8.78848984">
        <ele>1.0000000</ele>
        <time>2010-01-01T01:25:13Z</time>
      </trkpt>
      <trkpt lat="38.36681560" lon="-8.78830720">
        <ele>1.0000000</ele>
        <time>2010-01-01T01:25:20Z</time>
      </trkpt>
      <trkpt lat="38.36389620" lon="-8.78765266">
        <ele>2.0000000</ele>
        <time>2010-01-01T01:27:19Z</time>
      </trkpt>
      <trkpt lat="38.36197650" lon="-8.78714128">
        <ele>2.0000000</ele>
        <time>2010-01-01T01:28:38Z</time>
      </trkpt>
      <trkpt lat="38.34979670" lon="-8.78348677">
        <ele>1.0000000</ele>
        <time>2010-01-01T01:36:58Z</time>
      </trkpt>
      <trkpt lat="38.34498720" lon="-8.78211390">
        <ele>2.0000000</ele>
        <time>2010-01-01T01:40:16Z</time>
      </trkpt>
      <trkpt lat="38.33303020" lon="-8.77902030">
        <ele>2.0000000</ele>
        <time>2010-01-01T01:48:24Z</time>
      </trkpt>
      <trkpt lat="38.32345450" lon="-8.77640155">
        <ele>3.0000000</ele>
        <time>2010-01-01T01:54:56Z</time>
      </trkpt>
      <trkpt lat="38.32172310" lon="-8.77584222">
        <ele>3.0000000</ele>
        <time>2010-01-01T01:56:08Z</time>
      </trkpt>
      <trkpt lat="38.32097450" lon="-8.77549932">
        <ele>2.0000000</ele>
        <time>2010-01-01T01:56:39Z</time>
      </trkpt>
      <trkpt lat="38.32027020" lon="-8.77498760">
        <ele>1.0000000</ele>
        <time>2010-01-01T01:57:12Z</time>
      </trkpt>
      <trkpt lat="38.31684800" lon="-8.77192410">
        <ele>2.0000000</ele>
        <time>2010-01-01T01:59:59Z</time>
      </trkpt>
      <trkpt lat="38.31473630" lon="-8.76988453">
        <ele>2.0000000</ele>
        <time>2010-01-01T02:01:45Z</time>
      </trkpt>
      <trkpt lat="38.31403720" lon="-8.76907216">
        <ele>2.0000000</ele>
        <time>2010-01-01T02:02:23Z</time>
      </trkpt>
      <trkpt lat="38.31352330" lon="-8.76828376">
        <ele>1.0000000</ele>
        <time>2010-01-01T02:02:55Z</time>
      </trkpt>
      <trkpt lat="38.31310180" lon="-8.76745998">
        <ele>2.0000000</ele>
        <time>2010-01-01T02:03:26Z</time>
      </trkpt>
      <trkpt lat="38.31264900" lon="-8.76638148">
        <ele>2.0000000</ele>
        <time>2010-01-01T02:04:05Z</time>
      </trkpt>
      <trkpt lat="38.31211810" lon="-8.76447821">
        <ele>1.0000000</ele>
        <time>2010-01-01T02:05:08Z</time>
      </trkpt>
      <trkpt lat="38.31137970" lon="-8.76119862">
        <ele>0.0000000</ele>
        <time>2010-01-01T02:06:55Z</time>
      </trkpt>
      <trkpt lat="38.31115290" lon="-8.75995793">
        <ele>2.0000000</ele>
        <time>2010-01-01T02:07:35Z</time>
      </trkpt>
      <trkpt lat="38.31105020" lon="-8.75882746">
        <ele>3.0000000</ele>
        <time>2010-01-01T02:08:11Z</time>
      </trkpt>
      <trkpt lat="38.31105200" lon="-8.75770764">
        <ele>3.0000000</ele>
        <time>2010-01-01T02:08:46Z</time>
      </trkpt>
      <trkpt lat="38.31147990" lon="-8.75241447">
        <ele>4.0000000</ele>
        <time>2010-01-01T02:11:33Z</time>
      </trkpt>
      <trkpt lat="38.31165080" lon="-8.75229653">
        <ele>4.0000000</ele>
        <time>2010-01-01T02:11:41Z</time>
      </trkpt>
      <trkpt lat="38.31179540" lon="-8.75204969">
        <ele>3.0000000</ele>
        <time>2010-01-01T02:11:51Z</time>
      </trkpt>
      <trkpt lat="38.31165660" lon="-8.75122340">
        <ele>5.0000000</ele>
        <time>2010-01-01T02:12:17Z</time>
      </trkpt>
      <trkpt lat="38.31145600" lon="-8.75097999">
        <ele>6.0000000</ele>
        <time>2010-01-01T02:12:29Z</time>
      </trkpt>
      <trkpt lat="38.31109570" lon="-8.74999218">
        <ele>7.0000000</ele>
        <time>2010-01-01T02:13:03Z</time>
      </trkpt>
      <trkpt lat="38.31046760" lon="-8.74882165">
        <ele>7.0000000</ele>
        <time>2010-01-01T02:13:47Z</time>
      </trkpt>
      <trkpt lat="38.31039550" lon="-8.74858469">
        <ele>8.0000000</ele>
        <time>2010-01-01T02:13:55Z</time>
      </trkpt>
      <trkpt lat="38.30776520" lon="-8.74323511">
        <ele>18.000000</ele>
        <time>2010-01-01T02:17:14Z</time>
      </trkpt>
      <trkpt lat="38.30751440" lon="-8.74309010">
        <ele>17.000000</ele>
        <time>2010-01-01T02:17:25Z</time>
      </trkpt>
      <trkpt lat="38.30744610" lon="-8.74275340">
        <ele>16.000000</ele>
        <time>2010-01-01T02:17:35Z</time>
      </trkpt>
      <trkpt lat="38.30745390" lon="-8.74238024">
        <ele>15.000000</ele>
        <time>2010-01-01T02:17:47Z</time>
      </trkpt>
      <trkpt lat="38.30675140" lon="-8.74053639">
        <ele>17.000000</ele>
        <time>2010-01-01T02:18:52Z</time>
      </trkpt>
      <trkpt lat="38.30686060" lon="-8.74002291">
        <ele>17.000000</ele>
        <time>2010-01-01T02:19:08Z</time>
      </trkpt>
      <trkpt lat="38.30681360" lon="-8.73965009">
        <ele>17.000000</ele>
        <time>2010-01-01T02:19:20Z</time>
      </trkpt>
      <trkpt lat="38.30430450" lon="-8.73651249">
        <ele>24.000000</ele>
        <time>2010-01-01T02:21:41Z</time>
      </trkpt>
      <trkpt lat="38.30222340" lon="-8.73455565">
        <ele>27.000000</ele>
        <time>2010-01-01T02:23:24Z</time>
      </trkpt>
      <trkpt lat="38.30158850" lon="-8.73359148">
        <ele>28.000000</ele>
        <time>2010-01-01T02:24:04Z</time>
      </trkpt>
      <trkpt lat="38.30118360" lon="-8.73263988">
        <ele>24.000000</ele>
        <time>2010-01-01T02:24:38Z</time>
      </trkpt>
      <trkpt lat="38.29983210" lon="-8.72832119">
        <ele>20.000000</ele>
        <time>2010-01-01T02:27:04Z</time>
      </trkpt>
      <trkpt lat="38.29938960" lon="-8.72720304">
        <ele>20.000000</ele>
        <time>2010-01-01T02:27:43Z</time>
      </trkpt>
      <trkpt lat="38.29889640" lon="-8.72637013">
        <ele>25.000000</ele>
        <time>2010-01-01T02:28:16Z</time>
      </trkpt>
      <trkpt lat="38.29826850" lon="-8.72568072">
        <ele>23.000000</ele>
        <time>2010-01-01T02:28:49Z</time>
      </trkpt>
      <trkpt lat="38.29724830" lon="-8.72481261">
        <ele>18.000000</ele>
        <time>2010-01-01T02:29:38Z</time>
      </trkpt>
      <trkpt lat="38.29697920" lon="-8.72486927">
        <ele>18.000000</ele>
        <time>2010-01-01T02:29:49Z</time>
      </trkpt>
      <trkpt lat="38.29630940" lon="-8.72608264">
        <ele>24.000000</ele>
        <time>2010-01-01T02:30:36Z</time>
      </trkpt>
      <trkpt lat="38.29592450" lon="-8.72656669">
        <ele>27.000000</ele>
        <time>2010-01-01T02:30:58Z</time>
      </trkpt>
      <trkpt lat="38.29550130" lon="-8.72680566">
        <ele>32.000000</ele>
        <time>2010-01-01T02:31:16Z</time>
      </trkpt>
      <trkpt lat="38.29464300" lon="-8.72683047">
        <ele>30.000000</ele>
        <time>2010-01-01T02:31:50Z</time>
      </trkpt>
      <trkpt lat="38.29263580" lon="-8.72667021">
        <ele>25.000000</ele>
        <time>2010-01-01T02:33:11Z</time>
      </trkpt>
      <trkpt lat="38.28519240" lon="-8.72626259">
        <ele>38.000000</ele>
        <time>2010-01-01T02:38:09Z</time>
      </trkpt>
      <trkpt lat="38.28176370" lon="-8.72590703">
        <ele>43.000000</ele>
        <time>2010-01-01T02:40:27Z</time>
      </trkpt>
      <trkpt lat="38.27918410" lon="-8.72586144">
        <ele>58.000000</ele>
        <time>2010-01-01T02:42:10Z</time>
      </trkpt>
      <trkpt lat="38.27850060" lon="-8.72589513">
        <ele>57.000000</ele>
        <time>2010-01-01T02:42:38Z</time>
      </trkpt>
      <trkpt lat="38.27676250" lon="-8.72629554">
        <ele>54.000000</ele>
        <time>2010-01-01T02:43:48Z</time>
      </trkpt>
      <trkpt lat="38.27639400" lon="-8.72631456">
        <ele>56.000000</ele>
        <time>2010-01-01T02:44:03Z</time>
      </trkpt>
      <trkpt lat="38.27599490" lon="-8.72646468">
        <ele>55.000000</ele>
        <time>2010-01-01T02:44:20Z</time>
      </trkpt>
      <trkpt lat="38.27242020" lon="-8.72725987">
        <ele>58.000000</ele>
        <time>2010-01-01T02:46:45Z</time>
      </trkpt>
      <trkpt lat="38.27154820" lon="-8.72735241">
        <ele>57.000000</ele>
        <time>2010-01-01T02:47:20Z</time>
      </trkpt>
      <trkpt lat="38.26956970" lon="-8.72728242">
        <ele>59.000000</ele>
        <time>2010-01-01T02:48:39Z</time>
      </trkpt>
      <trkpt lat="38.26845600" lon="-8.72735057">
        <ele>58.000000</ele>
        <time>2010-01-01T02:49:24Z</time>
      </trkpt>
      <trkpt lat="38.26771110" lon="-8.72772205">
        <ele>59.000000</ele>
        <time>2010-01-01T02:49:56Z</time>
      </trkpt>
      <trkpt lat="38.26355640" lon="-8.73013277">
        <ele>66.000000</ele>
        <time>2010-01-01T02:52:59Z</time>
      </trkpt>
      <trkpt lat="38.26197570" lon="-8.73154001">
        <ele>68.000000</ele>
        <time>2010-01-01T02:54:16Z</time>
      </trkpt>
      <trkpt lat="38.25612010" lon="-8.73711666">
        <ele>69.000000</ele>
        <time>2010-01-01T02:59:09Z</time>
      </trkpt>
      <trkpt lat="38.25562260" lon="-8.73743416">
        <ele>69.000000</ele>
        <time>2010-01-01T02:59:31Z</time>
      </trkpt>
      <trkpt lat="38.25503390" lon="-8.73757188">
        <ele>65.000000</ele>
        <time>2010-01-01T02:59:55Z</time>
      </trkpt>
      <trkpt lat="38.24217000" lon="-8.73741027">
        <ele>72.000000</ele>
        <time>2010-01-01T03:08:30Z</time>
      </trkpt>
      <trkpt lat="38.24120990" lon="-8.73736342">
        <ele>71.000000</ele>
        <time>2010-01-01T03:09:08Z</time>
      </trkpt>
      <trkpt lat="38.23708660" lon="-8.73688607">
        <ele>67.000000</ele>
        <time>2010-01-01T03:11:54Z</time>
      </trkpt>
      <trkpt lat="38.22614550" lon="-8.73440830">
        <ele>70.000000</ele>
        <time>2010-01-01T03:19:19Z</time>
      </trkpt>
      <trkpt lat="38.21348390" lon="-8.73352292">
        <ele>72.000000</ele>
        <time>2010-01-01T03:27:46Z</time>
      </trkpt>
      <trkpt lat="38.18826660" lon="-8.73046218">
        <ele>78.000000</ele>
        <time>2010-01-01T03:44:40Z</time>
      </trkpt>
      <trkpt lat="38.18796450" lon="-8.73040468">
        <ele>77.000000</ele>
        <time>2010-01-01T03:44:53Z</time>
      </trkpt>
      <trkpt lat="38.18714450" lon="-8.73008307">
        <ele>82.000000</ele>
        <time>2010-01-01T03:45:27Z</time>
      </trkpt>
      <trkpt lat="38.18416170" lon="-8.72862839">
        <ele>74.000000</ele>
        <time>2010-01-01T03:47:35Z</time>
      </trkpt>
      <trkpt lat="38.18359670" lon="-8.72852931">
        <ele>69.000000</ele>
        <time>2010-01-01T03:47:58Z</time>
      </trkpt>
      <trkpt lat="38.18261000" lon="-8.72862344">
        <ele>61.000000</ele>
        <time>2010-01-01T03:48:37Z</time>
      </trkpt>
      <trkpt lat="38.17975820" lon="-8.72969021">
        <ele>60.000000</ele>
        <time>2010-01-01T03:50:36Z</time>
      </trkpt>
      <trkpt lat="38.17814790" lon="-8.73045665">
        <ele>66.000000</ele>
        <time>2010-01-01T03:51:45Z</time>
      </trkpt>
      <trkpt lat="38.17739870" lon="-8.73061180">
        <ele>65.000000</ele>
        <time>2010-01-01T03:52:16Z</time>
      </trkpt>
      <trkpt lat="38.17080940" lon="-8.73035464">
        <ele>72.000000</ele>
        <time>2010-01-01T03:56:39Z</time>
      </trkpt>
      <trkpt lat="38.16979150" lon="-8.73037928">
        <ele>69.000000</ele>
        <time>2010-01-01T03:57:20Z</time>
      </trkpt>
      <trkpt lat="38.16878550" lon="-8.73055916">
        <ele>70.000000</ele>
        <time>2010-01-01T03:58:01Z</time>
      </trkpt>
      <trkpt lat="38.16794340" lon="-8.73059646">
        <ele>72.000000</ele>
        <time>2010-01-01T03:58:35Z</time>
      </trkpt>
      <trkpt lat="38.16408400" lon="-8.73005993">
        <ele>78.000000</ele>
        <time>2010-01-01T04:01:10Z</time>
      </trkpt>
      <trkpt lat="38.16318180" lon="-8.73003898">
        <ele>76.000000</ele>
        <time>2010-01-01T04:01:46Z</time>
      </trkpt>
      <trkpt lat="38.16131920" lon="-8.73064675">
        <ele>72.000000</ele>
        <time>2010-01-01T04:03:03Z</time>
      </trkpt>
      <trkpt lat="38.16023160" lon="-8.73091028">
        <ele>69.000000</ele>
        <time>2010-01-01T04:03:47Z</time>
      </trkpt>
      <trkpt lat="38.15603040" lon="-8.73095336">
        <ele>61.000000</ele>
        <time>2010-01-01T04:06:36Z</time>
      </trkpt>
      <trkpt lat="38.15505800" lon="-8.73109837">
        <ele>62.000000</ele>
        <time>2010-01-01T04:07:15Z</time>
      </trkpt>
      <trkpt lat="38.15367730" lon="-8.73161251">
        <ele>60.000000</ele>
        <time>2010-01-01T04:08:12Z</time>
      </trkpt>
      <trkpt lat="38.15288490" lon="-8.73182893">
        <ele>61.000000</ele>
        <time>2010-01-01T04:08:45Z</time>
      </trkpt>
      <trkpt lat="38.15202340" lon="-8.73193647">
        <ele>59.000000</ele>
        <time>2010-01-01T04:09:19Z</time>
      </trkpt>
      <trkpt lat="38.15050410" lon="-8.73197143">
        <ele>53.000000</ele>
        <time>2010-01-01T04:10:20Z</time>
      </trkpt>
      <trkpt lat="38.15024950" lon="-8.73187294">
        <ele>52.000000</ele>
        <time>2010-01-01T04:10:31Z</time>
      </trkpt>
      <trkpt lat="38.14966980" lon="-8.73139961">
        <ele>51.000000</ele>
        <time>2010-01-01T04:10:59Z</time>
      </trkpt>
      <trkpt lat="38.14728310" lon="-8.72913868">
        <ele>44.000000</ele>
        <time>2010-01-01T04:12:58Z</time>
      </trkpt>
      <trkpt lat="38.14720620" lon="-8.72903055">
        <ele>43.000000</ele>
        <time>2010-01-01T04:13:02Z</time>
      </trkpt>
      <trkpt lat="38.14714260" lon="-8.72824559">
        <ele>43.000000</ele>
        <time>2010-01-01T04:13:27Z</time>
      </trkpt>
      <trkpt lat="38.14670580" lon="-8.72792699">
        <ele>39.000000</ele>
        <time>2010-01-01T04:13:47Z</time>
      </trkpt>
      <trkpt lat="38.14668100" lon="-8.72827140">
        <ele>37.000000</ele>
        <time>2010-01-01T04:13:58Z</time>
      </trkpt>
      <trkpt lat="38.14658390" lon="-8.72831122">
        <ele>35.000000</ele>
        <time>2010-01-01T04:14:02Z</time>
      </trkpt>
      <trkpt lat="38.14569010" lon="-8.72754201">
        <ele>30.000000</ele>
        <time>2010-01-01T04:14:45Z</time>
      </trkpt>
      <trkpt lat="38.14535880" lon="-8.72667406">
        <ele>25.000000</ele>
        <time>2010-01-01T04:15:16Z</time>
      </trkpt>
      <trkpt lat="38.14380260" lon="-8.72690557">
        <ele>42.000000</ele>
        <time>2010-01-01T04:16:19Z</time>
      </trkpt>
      <trkpt lat="38.14273840" lon="-8.72676760">
        <ele>52.000000</ele>
        <time>2010-01-01T04:17:01Z</time>
      </trkpt>
      <trkpt lat="38.14217920" lon="-8.72686718">
        <ele>59.000000</ele>
        <time>2010-01-01T04:17:24Z</time>
      </trkpt>
      <trkpt lat="38.14163730" lon="-8.72675914">
        <ele>62.000000</ele>
        <time>2010-01-01T04:17:46Z</time>
      </trkpt>
      <trkpt lat="38.14025790" lon="-8.72678093">
        <ele>62.000000</ele>
        <time>2010-01-01T04:18:41Z</time>
      </trkpt>
      <trkpt lat="38.13858840" lon="-8.72630358">
        <ele>65.000000</ele>
        <time>2010-01-01T04:19:50Z</time>
      </trkpt>
      <trkpt lat="38.13767470" lon="-8.72574728">
        <ele>62.000000</ele>
        <time>2010-01-01T04:20:30Z</time>
      </trkpt>
      <trkpt lat="38.13764990" lon="-8.72534411">
        <ele>63.000000</ele>
        <time>2010-01-01T04:20:43Z</time>
      </trkpt>
      <trkpt lat="38.13753110" lon="-8.72486491">
        <ele>65.000000</ele>
        <time>2010-01-01T04:20:59Z</time>
      </trkpt>
      <trkpt lat="38.13682770" lon="-8.72369522">
        <ele>73.000000</ele>
        <time>2010-01-01T04:21:45Z</time>
      </trkpt>
      <trkpt lat="38.13677430" lon="-8.72331644">
        <ele>74.000000</ele>
        <time>2010-01-01T04:21:57Z</time>
      </trkpt>
      <trkpt lat="38.13685950" lon="-8.72253927">
        <ele>75.000000</ele>
        <time>2010-01-01T04:22:22Z</time>
      </trkpt>
      <trkpt lat="38.13640310" lon="-8.72089399">
        <ele>78.000000</ele>
        <time>2010-01-01T04:23:17Z</time>
      </trkpt>
      <trkpt lat="38.13616910" lon="-8.72081209">
        <ele>79.000000</ele>
        <time>2010-01-01T04:23:27Z</time>
      </trkpt>
      <trkpt lat="38.13543050" lon="-8.72071931">
        <ele>85.000000</ele>
        <time>2010-01-01T04:23:56Z</time>
      </trkpt>
      <trkpt lat="38.13434600" lon="-8.71990006">
        <ele>101.00000</ele>
        <time>2010-01-01T04:24:47Z</time>
      </trkpt>
      <trkpt lat="38.13382260" lon="-8.71906556">
        <ele>109.00000</ele>
        <time>2010-01-01T04:25:20Z</time>
      </trkpt>
      <trkpt lat="38.13369230" lon="-8.71767869">
        <ele>109.00000</ele>
        <time>2010-01-01T04:26:04Z</time>
      </trkpt>
      <trkpt lat="38.13372580" lon="-8.71694175">
        <ele>112.00000</ele>
        <time>2010-01-01T04:26:28Z</time>
      </trkpt>
      <trkpt lat="38.13336170" lon="-8.71564943">
        <ele>116.00000</ele>
        <time>2010-01-01T04:27:11Z</time>
      </trkpt>
      <trkpt lat="38.13321290" lon="-8.71535673">
        <ele>117.00000</ele>
        <time>2010-01-01T04:27:22Z</time>
      </trkpt>
      <trkpt lat="38.13287450" lon="-8.71500503">
        <ele>118.00000</ele>
        <time>2010-01-01T04:27:39Z</time>
      </trkpt>
      <trkpt lat="38.13217020" lon="-8.71443246">
        <ele>117.00000</ele>
        <time>2010-01-01T04:28:13Z</time>
      </trkpt>
      <trkpt lat="38.13174870" lon="-8.71422425">
        <ele>119.00000</ele>
        <time>2010-01-01T04:28:31Z</time>
      </trkpt>
      <trkpt lat="38.13051050" lon="-8.71425946">
        <ele>122.00000</ele>
        <time>2010-01-01T04:29:20Z</time>
      </trkpt>
      <trkpt lat="38.12988400" lon="-8.71450580">
        <ele>125.00000</ele>
        <time>2010-01-01T04:29:47Z</time>
      </trkpt>
      <trkpt lat="38.12870400" lon="-8.71509530">
        <ele>127.00000</ele>
        <time>2010-01-01T04:30:37Z</time>
      </trkpt>
      <trkpt lat="38.12777810" lon="-8.71533352">
        <ele>127.00000</ele>
        <time>2010-01-01T04:31:15Z</time>
      </trkpt>
      <trkpt lat="38.12704110" lon="-8.71582537">
        <ele>127.00000</ele>
        <time>2010-01-01T04:31:49Z</time>
      </trkpt>
      <trkpt lat="38.12671500" lon="-8.71608839">
        <ele>129.00000</ele>
        <time>2010-01-01T04:32:04Z</time>
      </trkpt>
      <trkpt lat="38.12646820" lon="-8.71652768">
        <ele>129.00000</ele>
        <time>2010-01-01T04:32:21Z</time>
      </trkpt>
      <trkpt lat="38.12589810" lon="-8.71710210">
        <ele>123.00000</ele>
        <time>2010-01-01T04:32:50Z</time>
      </trkpt>
      <trkpt lat="38.12594420" lon="-8.71780961">
        <ele>116.00000</ele>
        <time>2010-01-01T04:33:13Z</time>
      </trkpt>
      <trkpt lat="38.12581500" lon="-8.71820390">
        <ele>115.00000</ele>
        <time>2010-01-01T04:33:26Z</time>
      </trkpt>
      <trkpt lat="38.12593490" lon="-8.71903044">
        <ele>111.00000</ele>
        <time>2010-01-01T04:33:52Z</time>
      </trkpt>
      <trkpt lat="38.12592040" lon="-8.71930872">
        <ele>109.00000</ele>
        <time>2010-01-01T04:34:01Z</time>
      </trkpt>
      <trkpt lat="38.12539700" lon="-8.71954710">
        <ele>113.00000</ele>
        <time>2010-01-01T04:34:23Z</time>
      </trkpt>
      <trkpt lat="38.12490670" lon="-8.71991959">
        <ele>117.00000</ele>
        <time>2010-01-01T04:34:46Z</time>
      </trkpt>
      <trkpt lat="38.12309520" lon="-8.72169404">
        <ele>114.00000</ele>
        <time>2010-01-01T04:36:18Z</time>
      </trkpt>
      <trkpt lat="38.12282370" lon="-8.72178792">
        <ele>114.00000</ele>
        <time>2010-01-01T04:36:29Z</time>
      </trkpt>
      <trkpt lat="38.12214450" lon="-8.72122935">
        <ele>115.00000</ele>
        <time>2010-01-01T04:37:02Z</time>
      </trkpt>
      <trkpt lat="38.12169740" lon="-8.72043332">
        <ele>117.00000</ele>
        <time>2010-01-01T04:37:32Z</time>
      </trkpt>
      <trkpt lat="38.12173300" lon="-8.71851570">
        <ele>126.00000</ele>
        <time>2010-01-01T04:38:33Z</time>
      </trkpt>
      <trkpt lat="38.12161520" lon="-8.71797365">
        <ele>128.00000</ele>
        <time>2010-01-01T04:38:50Z</time>
      </trkpt>
      <trkpt lat="38.12170390" lon="-8.71717326">
        <ele>130.00000</ele>
        <time>2010-01-01T04:39:16Z</time>
      </trkpt>
      <trkpt lat="38.12151520" lon="-8.71684796">
        <ele>131.00000</ele>
        <time>2010-01-01T04:39:29Z</time>
      </trkpt>
      <trkpt lat="38.12114380" lon="-8.71641847">
        <ele>137.00000</ele>
        <time>2010-01-01T04:39:49Z</time>
      </trkpt>
      <trkpt lat="38.11993320" lon="-8.71541800">
        <ele>139.00000</ele>
        <time>2010-01-01T04:40:47Z</time>
      </trkpt>
      <trkpt lat="38.11952730" lon="-8.71503361">
        <ele>139.00000</ele>
        <time>2010-01-01T04:41:07Z</time>
      </trkpt>
      <trkpt lat="38.11918580" lon="-8.71458627">
        <ele>143.00000</ele>
        <time>2010-01-01T04:41:26Z</time>
      </trkpt>
      <trkpt lat="38.11879040" lon="-8.71368052">
        <ele>144.00000</ele>
        <time>2010-01-01T04:41:59Z</time>
      </trkpt>
      <trkpt lat="38.11783250" lon="-8.71266857">
        <ele>147.00000</ele>
        <time>2010-01-01T04:42:49Z</time>
      </trkpt>
      <trkpt lat="38.11754710" lon="-8.71226775">
        <ele>149.00000</ele>
        <time>2010-01-01T04:43:06Z</time>
      </trkpt>
      <trkpt lat="38.11689470" lon="-8.71077879">
        <ele>156.00000</ele>
        <time>2010-01-01T04:44:00Z</time>
      </trkpt>
      <trkpt lat="38.11630910" lon="-8.70845759">
        <ele>161.00000</ele>
        <time>2010-01-01T04:45:16Z</time>
      </trkpt>
      <trkpt lat="38.11587010" lon="-8.70743357">
        <ele>161.00000</ele>
        <time>2010-01-01T04:45:53Z</time>
      </trkpt>
      <trkpt lat="38.11581840" lon="-8.70695069">
        <ele>162.00000</ele>
        <time>2010-01-01T04:46:08Z</time>
      </trkpt>
      <trkpt lat="38.11585170" lon="-8.70550422">
        <ele>164.00000</ele>
        <time>2010-01-01T04:46:54Z</time>
      </trkpt>
      <trkpt lat="38.11566280" lon="-8.70476645">
        <ele>162.00000</ele>
        <time>2010-01-01T04:47:18Z</time>
      </trkpt>
      <trkpt lat="38.11534940" lon="-8.70419036">
        <ele>162.00000</ele>
        <time>2010-01-01T04:47:41Z</time>
      </trkpt>
      <trkpt lat="38.11503380" lon="-8.70376490">
        <ele>160.00000</ele>
        <time>2010-01-01T04:47:59Z</time>
      </trkpt>
      <trkpt lat="38.11497440" lon="-8.70312603">
        <ele>162.00000</ele>
        <time>2010-01-01T04:48:19Z</time>
      </trkpt>
      <trkpt lat="38.11481380" lon="-8.70272805">
        <ele>164.00000</ele>
        <time>2010-01-01T04:48:33Z</time>
      </trkpt>
      <trkpt lat="38.11435150" lon="-8.70193680">
        <ele>168.00000</ele>
        <time>2010-01-01T04:49:04Z</time>
      </trkpt>
      <trkpt lat="38.11433070" lon="-8.70117900">
        <ele>177.00000</ele>
        <time>2010-01-01T04:49:28Z</time>
      </trkpt>
      <trkpt lat="38.11445350" lon="-8.70044264">
        <ele>177.00000</ele>
        <time>2010-01-01T04:49:52Z</time>
      </trkpt>
      <trkpt lat="38.11440710" lon="-8.69998214">
        <ele>180.00000</ele>
        <time>2010-01-01T04:50:07Z</time>
      </trkpt>
      <trkpt lat="38.11390450" lon="-8.69889375">
        <ele>179.00000</ele>
        <time>2010-01-01T04:50:46Z</time>
      </trkpt>
      <trkpt lat="38.11369880" lon="-8.69817626">
        <ele>181.00000</ele>
        <time>2010-01-01T04:51:10Z</time>
      </trkpt>
      <trkpt lat="38.11350060" lon="-8.69771366">
        <ele>184.00000</ele>
        <time>2010-01-01T04:51:27Z</time>
      </trkpt>
      <trkpt lat="38.11329640" lon="-8.69689324">
        <ele>191.00000</ele>
        <time>2010-01-01T04:51:54Z</time>
      </trkpt>
      <trkpt lat="38.11310740" lon="-8.69650793">
        <ele>191.00000</ele>
        <time>2010-01-01T04:52:08Z</time>
      </trkpt>
      <trkpt lat="38.11262980" lon="-8.69605816">
        <ele>188.00000</ele>
        <time>2010-01-01T04:52:32Z</time>
      </trkpt>
      <trkpt lat="38.11256560" lon="-8.69568902">
        <ele>194.00000</ele>
        <time>2010-01-01T04:52:44Z</time>
      </trkpt>
      <trkpt lat="38.11253020" lon="-8.69573998">
        <ele>192.00000</ele>
        <time>2010-01-01T04:52:46Z</time>
      </trkpt>
      <trkpt lat="38.11204450" lon="-8.69584492">
        <ele>190.00000</ele>
        <time>2010-01-01T04:53:06Z</time>
      </trkpt>
      <trkpt lat="38.11177850" lon="-8.69573210">
        <ele>190.00000</ele>
        <time>2010-01-01T04:53:17Z</time>
      </trkpt>
      <trkpt lat="38.11134150" lon="-8.69524830">
        <ele>195.00000</ele>
        <time>2010-01-01T04:53:40Z</time>
      </trkpt>
      <trkpt lat="38.11120430" lon="-8.69467430">
        <ele>198.00000</ele>
        <time>2010-01-01T04:53:59Z</time>
      </trkpt>
      <trkpt lat="38.11117380" lon="-8.69345507">
        <ele>201.00000</ele>
        <time>2010-01-01T04:54:38Z</time>
      </trkpt>
      <trkpt lat="38.11109000" lon="-8.69299365">
        <ele>203.00000</ele>
        <time>2010-01-01T04:54:53Z</time>
      </trkpt>
      <trkpt lat="38.11049100" lon="-8.69098467">
        <ele>206.00000</ele>
        <time>2010-01-01T04:56:00Z</time>
      </trkpt>
      <trkpt lat="38.11018190" lon="-8.68950644">
        <ele>209.00000</ele>
        <time>2010-01-01T04:56:48Z</time>
      </trkpt>
      <trkpt lat="38.11013480" lon="-8.68903990">
        <ele>210.00000</ele>
        <time>2010-01-01T04:57:03Z</time>
      </trkpt>
      <trkpt lat="38.11036380" lon="-8.68822895">
        <ele>219.00000</ele>
        <time>2010-01-01T04:57:30Z</time>
      </trkpt>
      <trkpt lat="38.11026240" lon="-8.68785990">
        <ele>222.00000</ele>
        <time>2010-01-01T04:57:43Z</time>
      </trkpt>
      <trkpt lat="38.11004110" lon="-8.68750073">
        <ele>222.00000</ele>
        <time>2010-01-01T04:57:57Z</time>
      </trkpt>
      <trkpt lat="38.10927950" lon="-8.68629894">
        <ele>216.00000</ele>
        <time>2010-01-01T04:58:46Z</time>
      </trkpt>
      <trkpt lat="38.10905290" lon="-8.68611202">
        <ele>215.00000</ele>
        <time>2010-01-01T04:58:56Z</time>
      </trkpt>
      <trkpt lat="38.10877900" lon="-8.68615167">
        <ele>210.00000</ele>
        <time>2010-01-01T04:59:07Z</time>
      </trkpt>
      <trkpt lat="38.10857010" lon="-8.68651368">
        <ele>206.00000</ele>
        <time>2010-01-01T04:59:22Z</time>
      </trkpt>
      <trkpt lat="38.10853170" lon="-8.68687813">
        <ele>204.00000</ele>
        <time>2010-01-01T04:59:33Z</time>
      </trkpt>
      <trkpt lat="38.10829910" lon="-8.68719488">
        <ele>202.00000</ele>
        <time>2010-01-01T04:59:47Z</time>
      </trkpt>
      <trkpt lat="38.10746160" lon="-8.68688701">
        <ele>195.00000</ele>
        <time>2010-01-01T05:00:22Z</time>
      </trkpt>
      <trkpt lat="38.10687630" lon="-8.68655802">
        <ele>185.00000</ele>
        <time>2010-01-01T05:00:47Z</time>
      </trkpt>
      <trkpt lat="38.10656870" lon="-8.68649365">
        <ele>183.00000</ele>
        <time>2010-01-01T05:01:00Z</time>
      </trkpt>
      <trkpt lat="38.10616520" lon="-8.68673186">
        <ele>179.00000</ele>
        <time>2010-01-01T05:01:18Z</time>
      </trkpt>
      <trkpt lat="38.10547450" lon="-8.68696211">
        <ele>167.00000</ele>
        <time>2010-01-01T05:01:46Z</time>
      </trkpt>
      <trkpt lat="38.10530710" lon="-8.68682482">
        <ele>166.00000</ele>
        <time>2010-01-01T05:01:54Z</time>
      </trkpt>
      <trkpt lat="38.10520930" lon="-8.68650815">
        <ele>171.00000</ele>
        <time>2010-01-01T05:02:05Z</time>
      </trkpt>
      <trkpt lat="38.10509320" lon="-8.68663103">
        <ele>169.00000</ele>
        <time>2010-01-01T05:02:11Z</time>
      </trkpt>
      <trkpt lat="38.10503890" lon="-8.68693848">
        <ele>165.00000</ele>
        <time>2010-01-01T05:02:21Z</time>
      </trkpt>
      <trkpt lat="38.10440770" lon="-8.68765714">
        <ele>158.00000</ele>
        <time>2010-01-01T05:02:55Z</time>
      </trkpt>
      <trkpt lat="38.10423660" lon="-8.68774750">
        <ele>157.00000</ele>
        <time>2010-01-01T05:03:02Z</time>
      </trkpt>
      <trkpt lat="38.10282380" lon="-8.68787859">
        <ele>149.00000</ele>
        <time>2010-01-01T05:03:59Z</time>
      </trkpt>
      <trkpt lat="38.10249460" lon="-8.68770123">
        <ele>152.00000</ele>
        <time>2010-01-01T05:04:13Z</time>
      </trkpt>
      <trkpt lat="38.10240640" lon="-8.68757919">
        <ele>151.00000</ele>
        <time>2010-01-01T05:04:18Z</time>
      </trkpt>
      <trkpt lat="38.10272290" lon="-8.68703378">
        <ele>150.00000</ele>
        <time>2010-01-01T05:04:40Z</time>
      </trkpt>
      <trkpt lat="38.10273940" lon="-8.68683571">
        <ele>151.00000</ele>
        <time>2010-01-01T05:04:46Z</time>
      </trkpt>
      <trkpt lat="38.10258980" lon="-8.68678081">
        <ele>148.00000</ele>
        <time>2010-01-01T05:04:52Z</time>
      </trkpt>
      <trkpt lat="38.10184110" lon="-8.68704392">
        <ele>136.00000</ele>
        <time>2010-01-01T05:05:23Z</time>
      </trkpt>
      <trkpt lat="38.10161840" lon="-8.68703286">
        <ele>132.00000</ele>
        <time>2010-01-01T05:05:32Z</time>
      </trkpt>
      <trkpt lat="38.10148500" lon="-8.68715046">
        <ele>133.00000</ele>
        <time>2010-01-01T05:05:39Z</time>
      </trkpt>
      <trkpt lat="38.10122690" lon="-8.68760366">
        <ele>136.00000</ele>
        <time>2010-01-01T05:05:56Z</time>
      </trkpt>
      <trkpt lat="38.10090520" lon="-8.68774725">
        <ele>139.00000</ele>
        <time>2010-01-01T05:06:10Z</time>
      </trkpt>
      <trkpt lat="38.10073200" lon="-8.68805302">
        <ele>137.00000</ele>
        <time>2010-01-01T05:06:22Z</time>
      </trkpt>
      <trkpt lat="38.10032830" lon="-8.68848083">
        <ele>136.00000</ele>
        <time>2010-01-01T05:06:43Z</time>
      </trkpt>
      <trkpt lat="38.10004560" lon="-8.68835678">
        <ele>143.00000</ele>
        <time>2010-01-01T05:06:55Z</time>
      </trkpt>
      <trkpt lat="38.09973730" lon="-8.68832577">
        <ele>146.00000</ele>
        <time>2010-01-01T05:07:07Z</time>
      </trkpt>
      <trkpt lat="38.09929650" lon="-8.68798102">
        <ele>156.00000</ele>
        <time>2010-01-01T05:07:28Z</time>
      </trkpt>
      <trkpt lat="38.09915080" lon="-8.68781137">
        <ele>159.00000</ele>
        <time>2010-01-01T05:07:36Z</time>
      </trkpt>
      <trkpt lat="38.09892720" lon="-8.68728482">
        <ele>165.00000</ele>
        <time>2010-01-01T05:07:55Z</time>
      </trkpt>
      <trkpt lat="38.09882980" lon="-8.68717057">
        <ele>167.00000</ele>
        <time>2010-01-01T05:08:00Z</time>
      </trkpt>
      <trkpt lat="38.09847810" lon="-8.68697653">
        <ele>172.00000</ele>
        <time>2010-01-01T05:08:15Z</time>
      </trkpt>
      <trkpt lat="38.09793620" lon="-8.68698701">
        <ele>181.00000</ele>
        <time>2010-01-01T05:08:37Z</time>
      </trkpt>
      <trkpt lat="38.09725240" lon="-8.68680001">
        <ele>187.00000</ele>
        <time>2010-01-01T05:09:05Z</time>
      </trkpt>
      <trkpt lat="38.09736610" lon="-8.68654302">
        <ele>186.00000</ele>
        <time>2010-01-01T05:09:14Z</time>
      </trkpt>
      <trkpt lat="38.09724020" lon="-8.68582352">
        <ele>187.00000</ele>
        <time>2010-01-01T05:09:38Z</time>
      </trkpt>
      <trkpt lat="38.09712790" lon="-8.68577892">
        <ele>187.00000</ele>
        <time>2010-01-01T05:09:42Z</time>
      </trkpt>
      <trkpt lat="38.09571260" lon="-8.68612091">
        <ele>197.00000</ele>
        <time>2010-01-01T05:10:40Z</time>
      </trkpt>
      <trkpt lat="38.09513160" lon="-8.68609861">
        <ele>202.00000</ele>
        <time>2010-01-01T05:11:03Z</time>
      </trkpt>
      <trkpt lat="38.09481800" lon="-8.68605720">
        <ele>204.00000</ele>
        <time>2010-01-01T05:11:16Z</time>
      </trkpt>
      <trkpt lat="38.09382820" lon="-8.68537148">
        <ele>208.00000</ele>
        <time>2010-01-01T05:12:01Z</time>
      </trkpt>
      <trkpt lat="38.09263590" lon="-8.68521197">
        <ele>213.00000</ele>
        <time>2010-01-01T05:12:49Z</time>
      </trkpt>
      <trkpt lat="38.09219050" lon="-8.68549863">
        <ele>214.00000</ele>
        <time>2010-01-01T05:13:09Z</time>
      </trkpt>
      <trkpt lat="38.09173060" lon="-8.68566803">
        <ele>219.00000</ele>
        <time>2010-01-01T05:13:28Z</time>
      </trkpt>
      <trkpt lat="38.09137430" lon="-8.68567155">
        <ele>225.00000</ele>
        <time>2010-01-01T05:13:43Z</time>
      </trkpt>
      <trkpt lat="38.09114910" lon="-8.68533209">
        <ele>226.00000</ele>
        <time>2010-01-01T05:13:56Z</time>
      </trkpt>
      <trkpt lat="38.09093530" lon="-8.68515254">
        <ele>228.00000</ele>
        <time>2010-01-01T05:14:07Z</time>
      </trkpt>
      <trkpt lat="38.09068750" lon="-8.68517551">
        <ele>229.00000</ele>
        <time>2010-01-01T05:14:17Z</time>
      </trkpt>
      <trkpt lat="38.09058030" lon="-8.68527769">
        <ele>229.00000</ele>
        <time>2010-01-01T05:14:22Z</time>
      </trkpt>
      <trkpt lat="38.09093340" lon="-8.68573903">
        <ele>229.00000</ele>
        <time>2010-01-01T05:14:42Z</time>
      </trkpt>
      <trkpt lat="38.09118730" lon="-8.68638804">
        <ele>222.00000</ele>
        <time>2010-01-01T05:15:05Z</time>
      </trkpt>
      <trkpt lat="38.09145250" lon="-8.68728314">
        <ele>215.00000</ele>
        <time>2010-01-01T05:15:35Z</time>
      </trkpt>
      <trkpt lat="38.09134550" lon="-8.68739521">
        <ele>216.00000</ele>
        <time>2010-01-01T05:15:41Z</time>
      </trkpt>
      <trkpt lat="38.09074650" lon="-8.68682691">
        <ele>217.00000</ele>
        <time>2010-01-01T05:16:11Z</time>
      </trkpt>
      <trkpt lat="38.09001520" lon="-8.68628905">
        <ele>214.00000</ele>
        <time>2010-01-01T05:16:45Z</time>
      </trkpt>
      <trkpt lat="38.08926820" lon="-8.68550752">
        <ele>216.00000</ele>
        <time>2010-01-01T05:17:23Z</time>
      </trkpt>
      <trkpt lat="38.08819320" lon="-8.68540559">
        <ele>214.00000</ele>
        <time>2010-01-01T05:18:06Z</time>
      </trkpt>
      <trkpt lat="38.08763410" lon="-8.68529261">
        <ele>207.00000</ele>
        <time>2010-01-01T05:18:29Z</time>
      </trkpt>
      <trkpt lat="38.08713930" lon="-8.68568991">
        <ele>207.00000</ele>
        <time>2010-01-01T05:18:53Z</time>
      </trkpt>
      <trkpt lat="38.08670560" lon="-8.68589418">
        <ele>203.00000</ele>
        <time>2010-01-01T05:19:11Z</time>
      </trkpt>
      <trkpt lat="38.08646150" lon="-8.68612166">
        <ele>200.00000</ele>
        <time>2010-01-01T05:19:23Z</time>
      </trkpt>
      <trkpt lat="38.08618010" lon="-8.68710762">
        <ele>193.00000</ele>
        <time>2010-01-01T05:19:56Z</time>
      </trkpt>
      <trkpt lat="38.08599380" lon="-8.68731139">
        <ele>192.00000</ele>
        <time>2010-01-01T05:20:06Z</time>
      </trkpt>
      <trkpt lat="38.08514420" lon="-8.68894326">
        <ele>170.00000</ele>
        <time>2010-01-01T05:21:08Z</time>
      </trkpt>
      <trkpt lat="38.08493600" lon="-8.68908299">
        <ele>166.00000</ele>
        <time>2010-01-01T05:21:17Z</time>
      </trkpt>
      <trkpt lat="38.08471890" lon="-8.68899573">
        <ele>164.00000</ele>
        <time>2010-01-01T05:21:26Z</time>
      </trkpt>
      <trkpt lat="38.08445610" lon="-8.68899171">
        <ele>161.00000</ele>
        <time>2010-01-01T05:21:37Z</time>
      </trkpt>
      <trkpt lat="38.08441920" lon="-8.68900805">
        <ele>161.00000</ele>
        <time>2010-01-01T05:21:38Z</time>
      </trkpt>
      <trkpt lat="38.08450280" lon="-8.68908240">
        <ele>160.00000</ele>
        <time>2010-01-01T05:21:42Z</time>
      </trkpt>
      <trkpt lat="38.08461070" lon="-8.68912154">
        <ele>161.00000</ele>
        <time>2010-01-01T05:21:47Z</time>
      </trkpt>
      <trkpt lat="38.08322570" lon="-8.68979000">
        <ele>135.00000</ele>
        <time>2010-01-01T05:22:46Z</time>
      </trkpt>
      <trkpt lat="38.08263600" lon="-8.68972940">
        <ele>133.00000</ele>
        <time>2010-01-01T05:23:10Z</time>
      </trkpt>
      <trkpt lat="38.08228290" lon="-8.68859692">
        <ele>135.00000</ele>
        <time>2010-01-01T05:23:48Z</time>
      </trkpt>
      <trkpt lat="38.08192990" lon="-8.68834085">
        <ele>134.00000</ele>
        <time>2010-01-01T05:24:05Z</time>
      </trkpt>
      <trkpt lat="38.08162430" lon="-8.68800021">
        <ele>140.00000</ele>
        <time>2010-01-01T05:24:21Z</time>
      </trkpt>
      <trkpt lat="38.08132110" lon="-8.68794280">
        <ele>148.00000</ele>
        <time>2010-01-01T05:24:33Z</time>
      </trkpt>
      <trkpt lat="38.08097660" lon="-8.68724056">
        <ele>154.00000</ele>
        <time>2010-01-01T05:24:59Z</time>
      </trkpt>
      <trkpt lat="38.08091310" lon="-8.68748967">
        <ele>158.00000</ele>
        <time>2010-01-01T05:25:07Z</time>
      </trkpt>
      <trkpt lat="38.08085330" lon="-8.68747710">
        <ele>160.00000</ele>
        <time>2010-01-01T05:25:10Z</time>
      </trkpt>
      <trkpt lat="38.08070050" lon="-8.68725003">
        <ele>161.00000</ele>
        <time>2010-01-01T05:25:19Z</time>
      </trkpt>
      <trkpt lat="38.08037400" lon="-8.68716646">
        <ele>168.00000</ele>
        <time>2010-01-01T05:25:33Z</time>
      </trkpt>
      <trkpt lat="38.07937500" lon="-8.68767323">
        <ele>189.00000</ele>
        <time>2010-01-01T05:26:16Z</time>
      </trkpt>
      <trkpt lat="38.07872760" lon="-8.68767189">
        <ele>194.00000</ele>
        <time>2010-01-01T05:26:42Z</time>
      </trkpt>
      <trkpt lat="38.07849070" lon="-8.68792000">
        <ele>194.00000</ele>
        <time>2010-01-01T05:26:54Z</time>
      </trkpt>
      <trkpt lat="38.07804890" lon="-8.68859994">
        <ele>195.00000</ele>
        <time>2010-01-01T05:27:22Z</time>
      </trkpt>
      <trkpt lat="38.07740580" lon="-8.68877026">
        <ele>196.00000</ele>
        <time>2010-01-01T05:27:48Z</time>
      </trkpt>
      <trkpt lat="38.07632840" lon="-8.68766619">
        <ele>206.00000</ele>
        <time>2010-01-01T05:28:43Z</time>
      </trkpt>
      <trkpt lat="38.07594900" lon="-8.68689296">
        <ele>203.00000</ele>
        <time>2010-01-01T05:29:12Z</time>
      </trkpt>
      <trkpt lat="38.07565650" lon="-8.68653103">
        <ele>203.00000</ele>
        <time>2010-01-01T05:29:28Z</time>
      </trkpt>
      <trkpt lat="38.07439560" lon="-8.68546477">
        <ele>207.00000</ele>
        <time>2010-01-01T05:30:29Z</time>
      </trkpt>
      <trkpt lat="38.07407690" lon="-8.68492724">
        <ele>208.00000</ele>
        <time>2010-01-01T05:30:50Z</time>
      </trkpt>
      <trkpt lat="38.07371220" lon="-8.68462499">
        <ele>208.00000</ele>
        <time>2010-01-01T05:31:08Z</time>
      </trkpt>
      <trkpt lat="38.07326450" lon="-8.68411772">
        <ele>207.00000</ele>
        <time>2010-01-01T05:31:32Z</time>
      </trkpt>
      <trkpt lat="38.07280380" lon="-8.68343937">
        <ele>211.00000</ele>
        <time>2010-01-01T05:32:00Z</time>
      </trkpt>
      <trkpt lat="38.07235150" lon="-8.68309135">
        <ele>216.00000</ele>
        <time>2010-01-01T05:32:21Z</time>
      </trkpt>
      <trkpt lat="38.07211090" lon="-8.68307978">
        <ele>217.00000</ele>
        <time>2010-01-01T05:32:31Z</time>
      </trkpt>
      <trkpt lat="38.07146650" lon="-8.68337441">
        <ele>221.00000</ele>
        <time>2010-01-01T05:32:58Z</time>
      </trkpt>
      <trkpt lat="38.07118170" lon="-8.68331540">
        <ele>223.00000</ele>
        <time>2010-01-01T05:33:10Z</time>
      </trkpt>
      <trkpt lat="38.06992050" lon="-8.68237210">
        <ele>232.00000</ele>
        <time>2010-01-01T05:34:08Z</time>
      </trkpt>
      <trkpt lat="38.06969560" lon="-8.68207513">
        <ele>237.00000</ele>
        <time>2010-01-01T05:34:21Z</time>
      </trkpt>
      <trkpt lat="38.06936880" lon="-8.68145763">
        <ele>235.00000</ele>
        <time>2010-01-01T05:34:45Z</time>
      </trkpt>
      <trkpt lat="38.06938850" lon="-8.68121179">
        <ele>236.00000</ele>
        <time>2010-01-01T05:34:53Z</time>
      </trkpt>
      <trkpt lat="38.06984170" lon="-8.67843059">
        <ele>240.00000</ele>
        <time>2010-01-01T05:36:22Z</time>
      </trkpt>
      <trkpt lat="38.07010690" lon="-8.67746626">
        <ele>238.00000</ele>
        <time>2010-01-01T05:36:54Z</time>
      </trkpt>
      <trkpt lat="38.06925030" lon="-8.67699570">
        <ele>243.00000</ele>
        <time>2010-01-01T05:37:32Z</time>
      </trkpt>
      <trkpt lat="38.06891010" lon="-8.67703585">
        <ele>244.00000</ele>
        <time>2010-01-01T05:37:45Z</time>
      </trkpt>
      <trkpt lat="38.06865560" lon="-8.67758846">
        <ele>245.00000</ele>
        <time>2010-01-01T05:38:05Z</time>
      </trkpt>
      <trkpt lat="38.06811130" lon="-8.67807889">
        <ele>241.00000</ele>
        <time>2010-01-01T05:38:32Z</time>
      </trkpt>
      <trkpt lat="38.06675510" lon="-8.67960825">
        <ele>234.00000</ele>
        <time>2010-01-01T05:39:45Z</time>
      </trkpt>
      <trkpt lat="38.06637790" lon="-8.67972007">
        <ele>232.00000</ele>
        <time>2010-01-01T05:40:00Z</time>
      </trkpt>
      <trkpt lat="38.06538760" lon="-8.67987521">
        <ele>225.00000</ele>
        <time>2010-01-01T05:40:40Z</time>
      </trkpt>
      <trkpt lat="38.06428790" lon="-8.67997362">
        <ele>225.00000</ele>
        <time>2010-01-01T05:41:24Z</time>
      </trkpt>
      <trkpt lat="38.06355200" lon="-8.68029473">
        <ele>222.00000</ele>
        <time>2010-01-01T05:41:55Z</time>
      </trkpt>
      <trkpt lat="38.06333220" lon="-8.68031007">
        <ele>220.00000</ele>
        <time>2010-01-01T05:42:04Z</time>
      </trkpt>
      <trkpt lat="38.06294200" lon="-8.68064585">
        <ele>218.00000</ele>
        <time>2010-01-01T05:42:23Z</time>
      </trkpt>
      <trkpt lat="38.06266670" lon="-8.68108212">
        <ele>215.00000</ele>
        <time>2010-01-01T05:42:41Z</time>
      </trkpt>
      <trkpt lat="38.06220440" lon="-8.68132134">
        <ele>213.00000</ele>
        <time>2010-01-01T05:43:01Z</time>
      </trkpt>
      <trkpt lat="38.06149260" lon="-8.68158579">
        <ele>211.00000</ele>
        <time>2010-01-01T05:43:30Z</time>
      </trkpt>
      <trkpt lat="38.06109730" lon="-8.68163189">
        <ele>212.00000</ele>
        <time>2010-01-01T05:43:46Z</time>
      </trkpt>
      <trkpt lat="38.06067660" lon="-8.68178520">
        <ele>211.00000</ele>
        <time>2010-01-01T05:44:04Z</time>
      </trkpt>
      <trkpt lat="38.06023210" lon="-8.68213397">
        <ele>207.00000</ele>
        <time>2010-01-01T05:44:25Z</time>
      </trkpt>
      <trkpt lat="38.06000420" lon="-8.68221921">
        <ele>204.00000</ele>
        <time>2010-01-01T05:44:34Z</time>
      </trkpt>
      <trkpt lat="38.05966630" lon="-8.68205183">
        <ele>202.00000</ele>
        <time>2010-01-01T05:44:49Z</time>
      </trkpt>
      <trkpt lat="38.05920020" lon="-8.68155436">
        <ele>203.00000</ele>
        <time>2010-01-01T05:45:13Z</time>
      </trkpt>
      <trkpt lat="38.05913290" lon="-8.68123401">
        <ele>204.00000</ele>
        <time>2010-01-01T05:45:24Z</time>
      </trkpt>
      <trkpt lat="38.05924390" lon="-8.68118145">
        <ele>203.00000</ele>
        <time>2010-01-01T05:45:28Z</time>
      </trkpt>
      <trkpt lat="38.05947470" lon="-8.68123132">
        <ele>201.00000</ele>
        <time>2010-01-01T05:45:38Z</time>
      </trkpt>
      <trkpt lat="38.05957830" lon="-8.68117315">
        <ele>200.00000</ele>
        <time>2010-01-01T05:45:42Z</time>
      </trkpt>
      <trkpt lat="38.05961920" lon="-8.68101708">
        <ele>198.00000</ele>
        <time>2010-01-01T05:45:47Z</time>
      </trkpt>
      <trkpt lat="38.05967730" lon="-8.68039531">
        <ele>194.00000</ele>
        <time>2010-01-01T05:46:07Z</time>
      </trkpt>
      <trkpt lat="38.05982650" lon="-8.67978913">
        <ele>195.00000</ele>
        <time>2010-01-01T05:46:27Z</time>
      </trkpt>
      <trkpt lat="38.05962340" lon="-8.67895714">
        <ele>186.00000</ele>
        <time>2010-01-01T05:46:55Z</time>
      </trkpt>
      <trkpt lat="38.05962910" lon="-8.67854367">
        <ele>184.00000</ele>
        <time>2010-01-01T05:47:08Z</time>
      </trkpt>
      <trkpt lat="38.05989330" lon="-8.67751102">
        <ele>172.00000</ele>
        <time>2010-01-01T05:47:42Z</time>
      </trkpt>
      <trkpt lat="38.05988590" lon="-8.67740364">
        <ele>172.00000</ele>
        <time>2010-01-01T05:47:45Z</time>
      </trkpt>
      <trkpt lat="38.05971670" lon="-8.67721471">
        <ele>167.00000</ele>
        <time>2010-01-01T05:47:54Z</time>
      </trkpt>
      <trkpt lat="38.05925760" lon="-8.67693610">
        <ele>165.00000</ele>
        <time>2010-01-01T05:48:15Z</time>
      </trkpt>
      <trkpt lat="38.05863090" lon="-8.67713400">
        <ele>161.00000</ele>
        <time>2010-01-01T05:48:41Z</time>
      </trkpt>
      <trkpt lat="38.05837360" lon="-8.67757463">
        <ele>169.00000</ele>
        <time>2010-01-01T05:48:58Z</time>
      </trkpt>
      <trkpt lat="38.05754000" lon="-8.67799842">
        <ele>162.00000</ele>
        <time>2010-01-01T05:49:34Z</time>
      </trkpt>
      <trkpt lat="38.05753680" lon="-8.67828031">
        <ele>164.00000</ele>
        <time>2010-01-01T05:49:43Z</time>
      </trkpt>
      <trkpt lat="38.05726510" lon="-8.67877207">
        <ele>167.00000</ele>
        <time>2010-01-01T05:50:02Z</time>
      </trkpt>
      <trkpt lat="38.05692310" lon="-8.67899972">
        <ele>163.00000</ele>
        <time>2010-01-01T05:50:17Z</time>
      </trkpt>
      <trkpt lat="38.05650100" lon="-8.67944187">
        <ele>165.00000</ele>
        <time>2010-01-01T05:50:39Z</time>
      </trkpt>
      <trkpt lat="38.05583240" lon="-8.67876721">
        <ele>152.00000</ele>
        <time>2010-01-01T05:51:13Z</time>
      </trkpt>
      <trkpt lat="38.05547320" lon="-8.67884701">
        <ele>151.00000</ele>
        <time>2010-01-01T05:51:28Z</time>
      </trkpt>
      <trkpt lat="38.05526800" lon="-8.67911045">
        <ele>154.00000</ele>
        <time>2010-01-01T05:51:39Z</time>
      </trkpt>
      <trkpt lat="38.05510900" lon="-8.67989550">
        <ele>153.00000</ele>
        <time>2010-01-01T05:52:05Z</time>
      </trkpt>
      <trkpt lat="38.05492570" lon="-8.68019473">
        <ele>150.00000</ele>
        <time>2010-01-01T05:52:17Z</time>
      </trkpt>
      <trkpt lat="38.05485660" lon="-8.68065046">
        <ele>149.00000</ele>
        <time>2010-01-01T05:52:32Z</time>
      </trkpt>
      <trkpt lat="38.05468500" lon="-8.68099604">
        <ele>149.00000</ele>
        <time>2010-01-01T05:52:44Z</time>
      </trkpt>
      <trkpt lat="38.05450240" lon="-8.68111029">
        <ele>146.00000</ele>
        <time>2010-01-01T05:52:53Z</time>
      </trkpt>
      <trkpt lat="38.05414230" lon="-8.68111272">
        <ele>143.00000</ele>
        <time>2010-01-01T05:53:07Z</time>
      </trkpt>
      <trkpt lat="38.05393600" lon="-8.68141841">
        <ele>141.00000</ele>
        <time>2010-01-01T05:53:20Z</time>
      </trkpt>
      <trkpt lat="38.05378180" lon="-8.68181102">
        <ele>142.00000</ele>
        <time>2010-01-01T05:53:34Z</time>
      </trkpt>
      <trkpt lat="38.05344230" lon="-8.68287694">
        <ele>135.00000</ele>
        <time>2010-01-01T05:54:10Z</time>
      </trkpt>
      <trkpt lat="38.05341350" lon="-8.68319294">
        <ele>132.00000</ele>
        <time>2010-01-01T05:54:20Z</time>
      </trkpt>
      <trkpt lat="38.05311110" lon="-8.68356350">
        <ele>127.00000</ele>
        <time>2010-01-01T05:54:37Z</time>
      </trkpt>
      <trkpt lat="38.05277790" lon="-8.68361220">
        <ele>123.00000</ele>
        <time>2010-01-01T05:54:50Z</time>
      </trkpt>
      <trkpt lat="38.05262630" lon="-8.68379510">
        <ele>123.00000</ele>
        <time>2010-01-01T05:54:58Z</time>
      </trkpt>
      <trkpt lat="38.05264430" lon="-8.68401051">
        <ele>124.00000</ele>
        <time>2010-01-01T05:55:05Z</time>
      </trkpt>
      <trkpt lat="38.05281240" lon="-8.68434981">
        <ele>125.00000</ele>
        <time>2010-01-01T05:55:18Z</time>
      </trkpt>
      <trkpt lat="38.05319340" lon="-8.68439524">
        <ele>123.00000</ele>
        <time>2010-01-01T05:55:33Z</time>
      </trkpt>
      <trkpt lat="38.05335560" lon="-8.68453438">
        <ele>121.00000</ele>
        <time>2010-01-01T05:55:41Z</time>
      </trkpt>
      <trkpt lat="38.05346180" lon="-8.68497384">
        <ele>121.00000</ele>
        <time>2010-01-01T05:55:56Z</time>
      </trkpt>
      <trkpt lat="38.05325190" lon="-8.68548866">
        <ele>121.00000</ele>
        <time>2010-01-01T05:56:14Z</time>
      </trkpt>
      <trkpt lat="38.05331560" lon="-8.68598311">
        <ele>119.00000</ele>
        <time>2010-01-01T05:56:30Z</time>
      </trkpt>
      <trkpt lat="38.05359640" lon="-8.68698516">
        <ele>120.00000</ele>
        <time>2010-01-01T05:57:03Z</time>
      </trkpt>
      <trkpt lat="38.05341040" lon="-8.68802595">
        <ele>115.00000</ele>
        <time>2010-01-01T05:57:37Z</time>
      </trkpt>
      <trkpt lat="38.05303010" lon="-8.68843004">
        <ele>112.00000</ele>
        <time>2010-01-01T05:57:57Z</time>
      </trkpt>
      <trkpt lat="38.05267980" lon="-8.68856499">
        <ele>110.00000</ele>
        <time>2010-01-01T05:58:11Z</time>
      </trkpt>
      <trkpt lat="38.05246800" lon="-8.68870572">
        <ele>110.00000</ele>
        <time>2010-01-01T05:58:21Z</time>
      </trkpt>
      <trkpt lat="38.05240040" lon="-8.68883748">
        <ele>110.00000</ele>
        <time>2010-01-01T05:58:26Z</time>
      </trkpt>
      <trkpt lat="38.05250070" lon="-8.68913319">
        <ele>107.00000</ele>
        <time>2010-01-01T05:58:36Z</time>
      </trkpt>
      <trkpt lat="38.05275490" lon="-8.68940477">
        <ele>106.00000</ele>
        <time>2010-01-01T05:58:49Z</time>
      </trkpt>
      <trkpt lat="38.05281650" lon="-8.68970769">
        <ele>107.00000</ele>
        <time>2010-01-01T05:58:59Z</time>
      </trkpt>
      <trkpt lat="38.05263190" lon="-8.69020407">
        <ele>113.00000</ele>
        <time>2010-01-01T05:59:16Z</time>
      </trkpt>
      <trkpt lat="38.05263960" lon="-8.69076674">
        <ele>113.00000</ele>
        <time>2010-01-01T05:59:34Z</time>
      </trkpt>
      <trkpt lat="38.05274510" lon="-8.69086808">
        <ele>111.00000</ele>
        <time>2010-01-01T05:59:39Z</time>
      </trkpt>
      <trkpt lat="38.05295170" lon="-8.69138952">
        <ele>108.00000</ele>
        <time>2010-01-01T05:59:58Z</time>
      </trkpt>
      <trkpt lat="38.05314410" lon="-8.69255754">
        <ele>109.00000</ele>
        <time>2010-01-01T06:00:35Z</time>
      </trkpt>
      <trkpt lat="38.05300570" lon="-8.69273884">
        <ele>108.00000</ele>
        <time>2010-01-01T06:00:43Z</time>
      </trkpt>
      <trkpt lat="38.05262380" lon="-8.69262577">
        <ele>103.00000</ele>
        <time>2010-01-01T06:00:59Z</time>
      </trkpt>
      <trkpt lat="38.05241460" lon="-8.69274898">
        <ele>101.00000</ele>
        <time>2010-01-01T06:01:08Z</time>
      </trkpt>
      <trkpt lat="38.05254750" lon="-8.69354342">
        <ele>106.00000</ele>
        <time>2010-01-01T06:01:34Z</time>
      </trkpt>
      <trkpt lat="38.05280280" lon="-8.69433987">
        <ele>103.00000</ele>
        <time>2010-01-01T06:02:01Z</time>
      </trkpt>
      <trkpt lat="38.05230490" lon="-8.69545592">
        <ele>95.000000</ele>
        <time>2010-01-01T06:02:41Z</time>
      </trkpt>
      <trkpt lat="38.05236300" lon="-8.69585531">
        <ele>94.000000</ele>
        <time>2010-01-01T06:02:54Z</time>
      </trkpt>
      <trkpt lat="38.05224370" lon="-8.69604692">
        <ele>94.000000</ele>
        <time>2010-01-01T06:03:02Z</time>
      </trkpt>
      <trkpt lat="38.05225210" lon="-8.69635303">
        <ele>95.000000</ele>
        <time>2010-01-01T06:03:12Z</time>
      </trkpt>
      <trkpt lat="38.05287810" lon="-8.69689140">
        <ele>90.000000</ele>
        <time>2010-01-01T06:03:42Z</time>
      </trkpt>
      <trkpt lat="38.05313830" lon="-8.69725526">
        <ele>87.000000</ele>
        <time>2010-01-01T06:03:57Z</time>
      </trkpt>
      <trkpt lat="38.05317480" lon="-8.69753127">
        <ele>87.000000</ele>
        <time>2010-01-01T06:04:06Z</time>
      </trkpt>
      <trkpt lat="38.05308260" lon="-8.69777242">
        <ele>88.000000</ele>
        <time>2010-01-01T06:04:15Z</time>
      </trkpt>
      <trkpt lat="38.05309630" lon="-8.69820979">
        <ele>89.000000</ele>
        <time>2010-01-01T06:04:28Z</time>
      </trkpt>
      <trkpt lat="38.05324450" lon="-8.69866493">
        <ele>90.000000</ele>
        <time>2010-01-01T06:04:44Z</time>
      </trkpt>
      <trkpt lat="38.05408950" lon="-8.69977695">
        <ele>86.000000</ele>
        <time>2010-01-01T06:05:33Z</time>
      </trkpt>
      <trkpt lat="38.05432310" lon="-8.70051163">
        <ele>85.000000</ele>
        <time>2010-01-01T06:05:58Z</time>
      </trkpt>
      <trkpt lat="38.05435760" lon="-8.70083215">
        <ele>84.000000</ele>
        <time>2010-01-01T06:06:08Z</time>
      </trkpt>
      <trkpt lat="38.05451900" lon="-8.70099627">
        <ele>81.000000</ele>
        <time>2010-01-01T06:06:16Z</time>
      </trkpt>
      <trkpt lat="38.05455660" lon="-8.70126759">
        <ele>81.000000</ele>
        <time>2010-01-01T06:06:25Z</time>
      </trkpt>
      <trkpt lat="38.05440510" lon="-8.70159281">
        <ele>84.000000</ele>
        <time>2010-01-01T06:06:37Z</time>
      </trkpt>
      <trkpt lat="38.05389430" lon="-8.70216521">
        <ele>85.000000</ele>
        <time>2010-01-01T06:07:04Z</time>
      </trkpt>
      <trkpt lat="38.05331560" lon="-8.70314321">
        <ele>79.000000</ele>
        <time>2010-01-01T06:07:43Z</time>
      </trkpt>
      <trkpt lat="38.05312290" lon="-8.70512654">
        <ele>81.000000</ele>
        <time>2010-01-01T06:08:46Z</time>
      </trkpt>
      <trkpt lat="38.05297810" lon="-8.70577144">
        <ele>79.000000</ele>
        <time>2010-01-01T06:09:07Z</time>
      </trkpt>
      <trkpt lat="38.05201280" lon="-8.70504490">
        <ele>81.000000</ele>
        <time>2010-01-01T06:09:52Z</time>
      </trkpt>
      <trkpt lat="38.05144270" lon="-8.70474726">
        <ele>86.000000</ele>
        <time>2010-01-01T06:10:16Z</time>
      </trkpt>
      <trkpt lat="38.05112590" lon="-8.70470887">
        <ele>89.000000</ele>
        <time>2010-01-01T06:10:29Z</time>
      </trkpt>
      <trkpt lat="38.05030020" lon="-8.70481004">
        <ele>98.000000</ele>
        <time>2010-01-01T06:11:02Z</time>
      </trkpt>
      <trkpt lat="38.04976430" lon="-8.70511698">
        <ele>102.00000</ele>
        <time>2010-01-01T06:11:26Z</time>
      </trkpt>
      <trkpt lat="38.04890160" lon="-8.70624946">
        <ele>97.000000</ele>
        <time>2010-01-01T06:12:15Z</time>
      </trkpt>
      <trkpt lat="38.04874050" lon="-8.70634208">
        <ele>95.000000</ele>
        <time>2010-01-01T06:12:23Z</time>
      </trkpt>
      <trkpt lat="38.04780150" lon="-8.70645775">
        <ele>91.000000</ele>
        <time>2010-01-01T06:13:00Z</time>
      </trkpt>
      <trkpt lat="38.04752480" lon="-8.70670493">
        <ele>94.000000</ele>
        <time>2010-01-01T06:13:14Z</time>
      </trkpt>
      <trkpt lat="38.04724070" lon="-8.70745344">
        <ele>101.00000</ele>
        <time>2010-01-01T06:13:40Z</time>
      </trkpt>
      <trkpt lat="38.04669040" lon="-8.70827076">
        <ele>107.00000</ele>
        <time>2010-01-01T06:14:14Z</time>
      </trkpt>
      <trkpt lat="38.04646080" lon="-8.70852406">
        <ele>108.00000</ele>
        <time>2010-01-01T06:14:26Z</time>
      </trkpt>
      <trkpt lat="38.04496450" lon="-8.70915220">
        <ele>115.00000</ele>
        <time>2010-01-01T06:15:29Z</time>
      </trkpt>
      <trkpt lat="38.04427090" lon="-8.70959132">
        <ele>119.00000</ele>
        <time>2010-01-01T06:16:00Z</time>
      </trkpt>
      <trkpt lat="38.04386220" lon="-8.70976919">
        <ele>121.00000</ele>
        <time>2010-01-01T06:16:18Z</time>
      </trkpt>
      <trkpt lat="38.04341230" lon="-8.70987715">
        <ele>122.00000</ele>
        <time>2010-01-01T06:16:36Z</time>
      </trkpt>
      <trkpt lat="38.04235660" lon="-8.70998829">
        <ele>129.00000</ele>
        <time>2010-01-01T06:17:18Z</time>
      </trkpt>
      <trkpt lat="38.04020220" lon="-8.71057804">
        <ele>130.00000</ele>
        <time>2010-01-01T06:18:46Z</time>
      </trkpt>
      <trkpt lat="38.03933050" lon="-8.71087434">
        <ele>134.00000</ele>
        <time>2010-01-01T06:19:23Z</time>
      </trkpt>
      <trkpt lat="38.03802430" lon="-8.71111792">
        <ele>133.00000</ele>
        <time>2010-01-01T06:20:15Z</time>
      </trkpt>
      <trkpt lat="38.03566570" lon="-8.71240546">
        <ele>125.00000</ele>
        <time>2010-01-01T06:21:58Z</time>
      </trkpt>
      <trkpt lat="38.03547270" lon="-8.71222198">
        <ele>123.00000</ele>
        <time>2010-01-01T06:22:08Z</time>
      </trkpt>
      <trkpt lat="38.03516060" lon="-8.71159862">
        <ele>123.00000</ele>
        <time>2010-01-01T06:22:31Z</time>
      </trkpt>
      <trkpt lat="38.03474760" lon="-8.71100384">
        <ele>122.00000</ele>
        <time>2010-01-01T06:22:56Z</time>
      </trkpt>
      <trkpt lat="38.03312500" lon="-8.71008250">
        <ele>125.00000</ele>
        <time>2010-01-01T06:24:07Z</time>
      </trkpt>
      <trkpt lat="38.03172090" lon="-8.70946979">
        <ele>127.00000</ele>
        <time>2010-01-01T06:25:07Z</time>
      </trkpt>
      <trkpt lat="38.03143970" lon="-8.70912110">
        <ele>126.00000</ele>
        <time>2010-01-01T06:25:22Z</time>
      </trkpt>
      <trkpt lat="38.03106840" lon="-8.70889462">
        <ele>125.00000</ele>
        <time>2010-01-01T06:25:39Z</time>
      </trkpt>
      <trkpt lat="38.03021050" lon="-8.70867116">
        <ele>130.00000</ele>
        <time>2010-01-01T06:26:14Z</time>
      </trkpt>
      <trkpt lat="38.02985070" lon="-8.70852313">
        <ele>131.00000</ele>
        <time>2010-01-01T06:26:29Z</time>
      </trkpt>
      <trkpt lat="38.02970030" lon="-8.70863352">
        <ele>131.00000</ele>
        <time>2010-01-01T06:26:36Z</time>
      </trkpt>
      <trkpt lat="38.02962920" lon="-8.70954254">
        <ele>127.00000</ele>
        <time>2010-01-01T06:27:05Z</time>
      </trkpt>
      <trkpt lat="38.02947140" lon="-8.70965369">
        <ele>127.00000</ele>
        <time>2010-01-01T06:27:12Z</time>
      </trkpt>
      <trkpt lat="38.02930210" lon="-8.70965888">
        <ele>128.00000</ele>
        <time>2010-01-01T06:27:19Z</time>
      </trkpt>
      <trkpt lat="38.02906840" lon="-8.70983784">
        <ele>128.00000</ele>
        <time>2010-01-01T06:27:30Z</time>
      </trkpt>
      <trkpt lat="38.02863790" lon="-8.71048081">
        <ele>122.00000</ele>
        <time>2010-01-01T06:27:56Z</time>
      </trkpt>
      <trkpt lat="38.02787680" lon="-8.70949300">
        <ele>125.00000</ele>
        <time>2010-01-01T06:28:40Z</time>
      </trkpt>
      <trkpt lat="38.02762770" lon="-8.70933048">
        <ele>126.00000</ele>
        <time>2010-01-01T06:28:51Z</time>
      </trkpt>
      <trkpt lat="38.02673060" lon="-8.70896193">
        <ele>125.00000</ele>
        <time>2010-01-01T06:29:29Z</time>
      </trkpt>
      <trkpt lat="38.02627930" lon="-8.70863872">
        <ele>126.00000</ele>
        <time>2010-01-01T06:29:50Z</time>
      </trkpt>
      <trkpt lat="38.02520290" lon="-8.70730130">
        <ele>130.00000</ele>
        <time>2010-01-01T06:30:50Z</time>
      </trkpt>
      <trkpt lat="38.02421380" lon="-8.70574428">
        <ele>136.00000</ele>
        <time>2010-01-01T06:31:53Z</time>
      </trkpt>
      <trkpt lat="38.02342800" lon="-8.70508220">
        <ele>140.00000</ele>
        <time>2010-01-01T06:32:31Z</time>
      </trkpt>
      <trkpt lat="38.02311800" lon="-8.70463628">
        <ele>148.00000</ele>
        <time>2010-01-01T06:32:50Z</time>
      </trkpt>
      <trkpt lat="38.02294060" lon="-8.70491540">
        <ele>147.00000</ele>
        <time>2010-01-01T06:33:01Z</time>
      </trkpt>
      <trkpt lat="38.02223400" lon="-8.70484373">
        <ele>152.00000</ele>
        <time>2010-01-01T06:33:29Z</time>
      </trkpt>
      <trkpt lat="38.02183610" lon="-8.70493157">
        <ele>150.00000</ele>
        <time>2010-01-01T06:33:45Z</time>
      </trkpt>
      <trkpt lat="38.02173010" lon="-8.70511120">
        <ele>147.00000</ele>
        <time>2010-01-01T06:33:53Z</time>
      </trkpt>
      <trkpt lat="38.02202150" lon="-8.70553909">
        <ele>143.00000</ele>
        <time>2010-01-01T06:34:10Z</time>
      </trkpt>
      <trkpt lat="38.02194750" lon="-8.70584704">
        <ele>141.00000</ele>
        <time>2010-01-01T06:34:21Z</time>
      </trkpt>
      <trkpt lat="38.02010960" lon="-8.70632154">
        <ele>135.00000</ele>
        <time>2010-01-01T06:35:36Z</time>
      </trkpt>
      <trkpt lat="38.01910410" lon="-8.70590203">
        <ele>133.00000</ele>
        <time>2010-01-01T06:36:18Z</time>
      </trkpt>
      <trkpt lat="38.01874680" lon="-8.70595425">
        <ele>140.00000</ele>
        <time>2010-01-01T06:36:32Z</time>
      </trkpt>
      <trkpt lat="38.01835560" lon="-8.70610336">
        <ele>142.00000</ele>
        <time>2010-01-01T06:36:49Z</time>
      </trkpt>
      <trkpt lat="38.01795140" lon="-8.70614703">
        <ele>139.00000</ele>
        <time>2010-01-01T06:37:05Z</time>
      </trkpt>
      <trkpt lat="38.01668890" lon="-8.70592801">
        <ele>145.00000</ele>
        <time>2010-01-01T06:37:56Z</time>
      </trkpt>
      <trkpt lat="38.01625820" lon="-8.70580053">
        <ele>146.00000</ele>
        <time>2010-01-01T06:38:14Z</time>
      </trkpt>
      <trkpt lat="38.01543710" lon="-8.70543222">
        <ele>150.00000</ele>
        <time>2010-01-01T06:38:49Z</time>
      </trkpt>
      <trkpt lat="38.01509480" lon="-8.70511874">
        <ele>152.00000</ele>
        <time>2010-01-01T06:39:05Z</time>
      </trkpt>
      <trkpt lat="38.01441950" lon="-8.70513014">
        <ele>151.00000</ele>
        <time>2010-01-01T06:39:32Z</time>
      </trkpt>
      <trkpt lat="38.01433890" lon="-8.70505512">
        <ele>152.00000</ele>
        <time>2010-01-01T06:39:36Z</time>
      </trkpt>
      <trkpt lat="38.01422090" lon="-8.70507574">
        <ele>151.00000</ele>
        <time>2010-01-01T06:39:41Z</time>
      </trkpt>
      <trkpt lat="38.01392700" lon="-8.70527154">
        <ele>149.00000</ele>
        <time>2010-01-01T06:39:55Z</time>
      </trkpt>
      <trkpt lat="38.01366410" lon="-8.70576700">
        <ele>147.00000</ele>
        <time>2010-01-01T06:40:13Z</time>
      </trkpt>
      <trkpt lat="38.01353550" lon="-8.70615927">
        <ele>146.00000</ele>
        <time>2010-01-01T06:40:27Z</time>
      </trkpt>
      <trkpt lat="38.01358330" lon="-8.70619649">
        <ele>146.00000</ele>
        <time>2010-01-01T06:40:29Z</time>
      </trkpt>
      <trkpt lat="38.01281440" lon="-8.70748814">
        <ele>143.00000</ele>
        <time>2010-01-01T06:41:20Z</time>
      </trkpt>
      <trkpt lat="38.01228720" lon="-8.70820370">
        <ele>139.00000</ele>
        <time>2010-01-01T06:41:51Z</time>
      </trkpt>
      <trkpt lat="38.01204410" lon="-8.70821032">
        <ele>138.00000</ele>
        <time>2010-01-01T06:42:01Z</time>
      </trkpt>
      <trkpt lat="38.01194170" lon="-8.70810421">
        <ele>137.00000</ele>
        <time>2010-01-01T06:42:06Z</time>
      </trkpt>
      <trkpt lat="38.01169400" lon="-8.70814234">
        <ele>135.00000</ele>
        <time>2010-01-01T06:42:16Z</time>
      </trkpt>
      <trkpt lat="38.00969210" lon="-8.71113745">
        <ele>124.00000</ele>
        <time>2010-01-01T06:44:20Z</time>
      </trkpt>
      <trkpt lat="38.00954070" lon="-8.71110267">
        <ele>125.00000</ele>
        <time>2010-01-01T06:44:26Z</time>
      </trkpt>
      <trkpt lat="38.00941330" lon="-8.71075876">
        <ele>125.00000</ele>
        <time>2010-01-01T06:44:38Z</time>
      </trkpt>
      <trkpt lat="38.00927610" lon="-8.71069732">
        <ele>126.00000</ele>
        <time>2010-01-01T06:44:44Z</time>
      </trkpt>
      <trkpt lat="38.00868350" lon="-8.71182032">
        <ele>133.00000</ele>
        <time>2010-01-01T06:45:26Z</time>
      </trkpt>
      <trkpt lat="38.00744630" lon="-8.71282557">
        <ele>137.00000</ele>
        <time>2010-01-01T06:46:25Z</time>
      </trkpt>
      <trkpt lat="38.00382320" lon="-8.71388236">
        <ele>147.00000</ele>
        <time>2010-01-01T06:48:54Z</time>
      </trkpt>
      <trkpt lat="38.00313990" lon="-8.71399350">
        <ele>153.00000</ele>
        <time>2010-01-01T06:49:22Z</time>
      </trkpt>
      <trkpt lat="38.00195560" lon="-8.71402367">
        <ele>154.00000</ele>
        <time>2010-01-01T06:50:09Z</time>
      </trkpt>
      <trkpt lat="38.00152510" lon="-8.71414982">
        <ele>154.00000</ele>
        <time>2010-01-01T06:50:27Z</time>
      </trkpt>
      <trkpt lat="38.00116080" lon="-8.71466112">
        <ele>153.00000</ele>
        <time>2010-01-01T06:50:48Z</time>
      </trkpt>
      <trkpt lat="38.00002430" lon="-8.71674176">
        <ele>141.00000</ele>
        <time>2010-01-01T06:52:08Z</time>
      </trkpt>
      <trkpt lat="37.99912090" lon="-8.71804263">
        <ele>139.00000</ele>
        <time>2010-01-01T06:53:03Z</time>
      </trkpt>
      <trkpt lat="37.99844330" lon="-8.71844597">
        <ele>146.00000</ele>
        <time>2010-01-01T06:53:33Z</time>
      </trkpt>
      <trkpt lat="37.99807800" lon="-8.71859584">
        <ele>152.00000</ele>
        <time>2010-01-01T06:53:48Z</time>
      </trkpt>
      <trkpt lat="37.99773830" lon="-8.71855896">
        <ele>155.00000</ele>
        <time>2010-01-01T06:54:02Z</time>
      </trkpt>
      <trkpt lat="37.99697730" lon="-8.71829015">
        <ele>151.00000</ele>
        <time>2010-01-01T06:54:34Z</time>
      </trkpt>
      <trkpt lat="37.99621260" lon="-8.71785705">
        <ele>152.00000</ele>
        <time>2010-01-01T06:55:07Z</time>
      </trkpt>
      <trkpt lat="37.99417560" lon="-8.71764675">
        <ele>151.00000</ele>
        <time>2010-01-01T06:56:29Z</time>
      </trkpt>
      <trkpt lat="37.99297700" lon="-8.71803718">
        <ele>156.00000</ele>
        <time>2010-01-01T06:57:18Z</time>
      </trkpt>
      <trkpt lat="37.99221110" lon="-8.71892801">
        <ele>153.00000</ele>
        <time>2010-01-01T06:58:00Z</time>
      </trkpt>
      <trkpt lat="37.99110490" lon="-8.71969705">
        <ele>149.00000</ele>
        <time>2010-01-01T06:58:51Z</time>
      </trkpt>
      <trkpt lat="37.99005980" lon="-8.71994474">
        <ele>147.00000</ele>
        <time>2010-01-01T06:59:33Z</time>
      </trkpt>
      <trkpt lat="37.98978920" lon="-8.71983845">
        <ele>142.00000</ele>
        <time>2010-01-01T06:59:44Z</time>
      </trkpt>
      <trkpt lat="37.98933320" lon="-8.71988397">
        <ele>139.00000</ele>
        <time>2010-01-01T07:00:03Z</time>
      </trkpt>
      <trkpt lat="37.98885990" lon="-8.71982848">
        <ele>136.00000</ele>
        <time>2010-01-01T07:00:22Z</time>
      </trkpt>
      <trkpt lat="37.98890520" lon="-8.71953863">
        <ele>136.00000</ele>
        <time>2010-01-01T07:00:31Z</time>
      </trkpt>
      <trkpt lat="37.98877420" lon="-8.71942120">
        <ele>136.00000</ele>
        <time>2010-01-01T07:00:38Z</time>
      </trkpt>
      <trkpt lat="37.98796480" lon="-8.72019695">
        <ele>132.00000</ele>
        <time>2010-01-01T07:01:18Z</time>
      </trkpt>
      <trkpt lat="37.98751240" lon="-8.72082634">
        <ele>129.00000</ele>
        <time>2010-01-01T07:01:45Z</time>
      </trkpt>
      <trkpt lat="37.98709810" lon="-8.72105542">
        <ele>131.00000</ele>
        <time>2010-01-01T07:02:03Z</time>
      </trkpt>
      <trkpt lat="37.98702770" lon="-8.72104302">
        <ele>131.00000</ele>
        <time>2010-01-01T07:02:06Z</time>
      </trkpt>
      <trkpt lat="37.98673780" lon="-8.72068754">
        <ele>131.00000</ele>
        <time>2010-01-01T07:02:22Z</time>
      </trkpt>
      <trkpt lat="37.98555810" lon="-8.72068243">
        <ele>140.00000</ele>
        <time>2010-01-01T07:03:09Z</time>
      </trkpt>
      <trkpt lat="37.98457740" lon="-8.72084856">
        <ele>150.00000</ele>
        <time>2010-01-01T07:03:49Z</time>
      </trkpt>
      <trkpt lat="37.98428200" lon="-8.72115064">
        <ele>150.00000</ele>
        <time>2010-01-01T07:04:04Z</time>
      </trkpt>
      <trkpt lat="37.98400240" lon="-8.72131727">
        <ele>150.00000</ele>
        <time>2010-01-01T07:04:17Z</time>
      </trkpt>
      <trkpt lat="37.98360590" lon="-8.72167510">
        <ele>152.00000</ele>
        <time>2010-01-01T07:04:36Z</time>
      </trkpt>
      <trkpt lat="37.98338710" lon="-8.72203401">
        <ele>154.00000</ele>
        <time>2010-01-01T07:04:50Z</time>
      </trkpt>
      <trkpt lat="37.98297830" lon="-8.72223425">
        <ele>155.00000</ele>
        <time>2010-01-01T07:05:08Z</time>
      </trkpt>
      <trkpt lat="37.98274690" lon="-8.72221053">
        <ele>152.00000</ele>
        <time>2010-01-01T07:05:17Z</time>
      </trkpt>
      <trkpt lat="37.98196480" lon="-8.72243659">
        <ele>145.00000</ele>
        <time>2010-01-01T07:05:49Z</time>
      </trkpt>
      <trkpt lat="37.98127810" lon="-8.72317420">
        <ele>137.00000</ele>
        <time>2010-01-01T07:06:25Z</time>
      </trkpt>
      <trkpt lat="37.98120100" lon="-8.72335759">
        <ele>135.00000</ele>
        <time>2010-01-01T07:06:32Z</time>
      </trkpt>
      <trkpt lat="37.98086130" lon="-8.72371533">
        <ele>130.00000</ele>
        <time>2010-01-01T07:06:49Z</time>
      </trkpt>
      <trkpt lat="37.98054500" lon="-8.72399889">
        <ele>128.00000</ele>
        <time>2010-01-01T07:07:05Z</time>
      </trkpt>
      <trkpt lat="37.97997570" lon="-8.72432922">
        <ele>130.00000</ele>
        <time>2010-01-01T07:07:30Z</time>
      </trkpt>
      <trkpt lat="37.97984180" lon="-8.72458580">
        <ele>128.00000</ele>
        <time>2010-01-01T07:07:40Z</time>
      </trkpt>
      <trkpt lat="37.97962510" lon="-8.72559003">
        <ele>124.00000</ele>
        <time>2010-01-01T07:08:13Z</time>
      </trkpt>
      <trkpt lat="37.97960360" lon="-8.72594861">
        <ele>122.00000</ele>
        <time>2010-01-01T07:08:24Z</time>
      </trkpt>
      <trkpt lat="37.97934860" lon="-8.72652621">
        <ele>127.00000</ele>
        <time>2010-01-01T07:08:45Z</time>
      </trkpt>
      <trkpt lat="37.97929510" lon="-8.72696097">
        <ele>128.00000</ele>
        <time>2010-01-01T07:08:59Z</time>
      </trkpt>
      <trkpt lat="37.97915910" lon="-8.72715761">
        <ele>130.00000</ele>
        <time>2010-01-01T07:09:07Z</time>
      </trkpt>
      <trkpt lat="37.97810110" lon="-8.72771141">
        <ele>143.00000</ele>
        <time>2010-01-01T07:09:53Z</time>
      </trkpt>
      <trkpt lat="37.97761410" lon="-8.72756171">
        <ele>144.00000</ele>
        <time>2010-01-01T07:10:13Z</time>
      </trkpt>
      <trkpt lat="37.97727730" lon="-8.72757160">
        <ele>144.00000</ele>
        <time>2010-01-01T07:10:26Z</time>
      </trkpt>
      <trkpt lat="37.97532260" lon="-8.72875822">
        <ele>134.00000</ele>
        <time>2010-01-01T07:11:53Z</time>
      </trkpt>
      <trkpt lat="37.97471130" lon="-8.72885579">
        <ele>129.00000</ele>
        <time>2010-01-01T07:12:18Z</time>
      </trkpt>
      <trkpt lat="37.97318370" lon="-8.72983890">
        <ele>132.00000</ele>
        <time>2010-01-01T07:13:26Z</time>
      </trkpt>
      <trkpt lat="37.97286500" lon="-8.72992708">
        <ele>132.00000</ele>
        <time>2010-01-01T07:13:39Z</time>
      </trkpt>
      <trkpt lat="37.97232260" lon="-8.72992968">
        <ele>129.00000</ele>
        <time>2010-01-01T07:14:01Z</time>
      </trkpt>
      <trkpt lat="37.97112890" lon="-8.72978936">
        <ele>126.00000</ele>
        <time>2010-01-01T07:14:49Z</time>
      </trkpt>
      <trkpt lat="37.97072320" lon="-8.72951192">
        <ele>125.00000</ele>
        <time>2010-01-01T07:15:08Z</time>
      </trkpt>
      <trkpt lat="37.97053160" lon="-8.72914622">
        <ele>124.00000</ele>
        <time>2010-01-01T07:15:21Z</time>
      </trkpt>
      <trkpt lat="37.97046250" lon="-8.72834784">
        <ele>126.00000</ele>
        <time>2010-01-01T07:15:47Z</time>
      </trkpt>
      <trkpt lat="37.97022940" lon="-8.72762708">
        <ele>128.00000</ele>
        <time>2010-01-01T07:16:11Z</time>
      </trkpt>
      <trkpt lat="37.96951400" lon="-8.72715367">
        <ele>129.00000</ele>
        <time>2010-01-01T07:16:44Z</time>
      </trkpt>
      <trkpt lat="37.96925480" lon="-8.72683424">
        <ele>129.00000</ele>
        <time>2010-01-01T07:16:58Z</time>
      </trkpt>
      <trkpt lat="37.96919180" lon="-8.72638623">
        <ele>128.00000</ele>
        <time>2010-01-01T07:17:12Z</time>
      </trkpt>
      <trkpt lat="37.96928170" lon="-8.72596252">
        <ele>127.00000</ele>
        <time>2010-01-01T07:17:26Z</time>
      </trkpt>
      <trkpt lat="37.96916750" lon="-8.72575113">
        <ele>127.00000</ele>
        <time>2010-01-01T07:17:34Z</time>
      </trkpt>
      <trkpt lat="37.96903870" lon="-8.72586211">
        <ele>127.00000</ele>
        <time>2010-01-01T07:17:41Z</time>
      </trkpt>
      <trkpt lat="37.96885640" lon="-8.72636527">
        <ele>128.00000</ele>
        <time>2010-01-01T07:17:58Z</time>
      </trkpt>
      <trkpt lat="37.96799930" lon="-8.72926122">
        <ele>122.00000</ele>
        <time>2010-01-01T07:19:36Z</time>
      </trkpt>
      <trkpt lat="37.96773110" lon="-8.72941117">
        <ele>123.00000</ele>
        <time>2010-01-01T07:19:47Z</time>
      </trkpt>
      <trkpt lat="37.96704370" lon="-8.72931763">
        <ele>125.00000</ele>
        <time>2010-01-01T07:20:15Z</time>
      </trkpt>
      <trkpt lat="37.96620380" lon="-8.72894916">
        <ele>125.00000</ele>
        <time>2010-01-01T07:20:51Z</time>
      </trkpt>
      <trkpt lat="37.96340750" lon="-8.72670290">
        <ele>125.00000</ele>
        <time>2010-01-01T07:23:03Z</time>
      </trkpt>
      <trkpt lat="37.96312740" lon="-8.72656141">
        <ele>127.00000</ele>
        <time>2010-01-01T07:23:15Z</time>
      </trkpt>
      <trkpt lat="37.96272700" lon="-8.72612480">
        <ele>127.00000</ele>
        <time>2010-01-01T07:23:36Z</time>
      </trkpt>
      <trkpt lat="37.96145110" lon="-8.72533815">
        <ele>126.00000</ele>
        <time>2010-01-01T07:24:33Z</time>
      </trkpt>
      <trkpt lat="37.96035910" lon="-8.72534226">
        <ele>127.00000</ele>
        <time>2010-01-01T07:25:17Z</time>
      </trkpt>
      <trkpt lat="37.96008850" lon="-8.72561107">
        <ele>126.00000</ele>
        <time>2010-01-01T07:25:31Z</time>
      </trkpt>
      <trkpt lat="37.95984800" lon="-8.72596227">
        <ele>125.00000</ele>
        <time>2010-01-01T07:25:45Z</time>
      </trkpt>
      <trkpt lat="37.95968010" lon="-8.72607635">
        <ele>125.00000</ele>
        <time>2010-01-01T07:25:53Z</time>
      </trkpt>
      <trkpt lat="37.95919240" lon="-8.72607149">
        <ele>124.00000</ele>
        <time>2010-01-01T07:26:12Z</time>
      </trkpt>
      <trkpt lat="37.95896790" lon="-8.72598591">
        <ele>122.00000</ele>
        <time>2010-01-01T07:26:22Z</time>
      </trkpt>
      <trkpt lat="37.95873500" lon="-8.72560914">
        <ele>119.00000</ele>
        <time>2010-01-01T07:26:37Z</time>
      </trkpt>
      <trkpt lat="37.95862850" lon="-8.72506876">
        <ele>117.00000</ele>
        <time>2010-01-01T07:26:55Z</time>
      </trkpt>
      <trkpt lat="37.95808020" lon="-8.72436837">
        <ele>124.00000</ele>
        <time>2010-01-01T07:27:26Z</time>
      </trkpt>
      <trkpt lat="37.95762620" lon="-8.72399085">
        <ele>128.00000</ele>
        <time>2010-01-01T07:27:47Z</time>
      </trkpt>
      <trkpt lat="37.95699180" lon="-8.72318895">
        <ele>127.00000</ele>
        <time>2010-01-01T07:28:23Z</time>
      </trkpt>
      <trkpt lat="37.95683780" lon="-8.72308619">
        <ele>128.00000</ele>
        <time>2010-01-01T07:28:30Z</time>
      </trkpt>
      <trkpt lat="37.95602630" lon="-8.72297731">
        <ele>131.00000</ele>
        <time>2010-01-01T07:29:03Z</time>
      </trkpt>
      <trkpt lat="37.95594830" lon="-8.72315987">
        <ele>130.00000</ele>
        <time>2010-01-01T07:29:09Z</time>
      </trkpt>
      <trkpt lat="37.95517920" lon="-8.72382095">
        <ele>124.00000</ele>
        <time>2010-01-01T07:29:47Z</time>
      </trkpt>
      <trkpt lat="37.95472690" lon="-8.72408984">
        <ele>124.00000</ele>
        <time>2010-01-01T07:30:07Z</time>
      </trkpt>
      <trkpt lat="37.95312470" lon="-8.72454414">
        <ele>128.00000</ele>
        <time>2010-01-01T07:31:12Z</time>
      </trkpt>
      <trkpt lat="37.95259070" lon="-8.72488562">
        <ele>125.00000</ele>
        <time>2010-01-01T07:31:36Z</time>
      </trkpt>
      <trkpt lat="37.95199490" lon="-8.72500296">
        <ele>124.00000</ele>
        <time>2010-01-01T07:32:00Z</time>
      </trkpt>
      <trkpt lat="37.95164720" lon="-8.72487405">
        <ele>124.00000</ele>
        <time>2010-01-01T07:32:15Z</time>
      </trkpt>
      <trkpt lat="37.95142730" lon="-8.72488394">
        <ele>123.00000</ele>
        <time>2010-01-01T07:32:24Z</time>
      </trkpt>
      <trkpt lat="37.95080230" lon="-8.72526045">
        <ele>119.00000</ele>
        <time>2010-01-01T07:32:51Z</time>
      </trkpt>
      <trkpt lat="37.94994010" lon="-8.72592866">
        <ele>113.00000</ele>
        <time>2010-01-01T07:33:32Z</time>
      </trkpt>
      <trkpt lat="37.94928750" lon="-8.72673450">
        <ele>111.00000</ele>
        <time>2010-01-01T07:34:08Z</time>
      </trkpt>
      <trkpt lat="37.94834130" lon="-8.72772641">
        <ele>117.00000</ele>
        <time>2010-01-01T07:34:58Z</time>
      </trkpt>
      <trkpt lat="37.94808010" lon="-8.72789983">
        <ele>117.00000</ele>
        <time>2010-01-01T07:35:09Z</time>
      </trkpt>
      <trkpt lat="37.94753670" lon="-8.72811977">
        <ele>116.00000</ele>
        <time>2010-01-01T07:35:32Z</time>
      </trkpt>
      <trkpt lat="37.94718660" lon="-8.72805171">
        <ele>118.00000</ele>
        <time>2010-01-01T07:35:46Z</time>
      </trkpt>
      <trkpt lat="37.94595390" lon="-8.72741544">
        <ele>121.00000</ele>
        <time>2010-01-01T07:36:40Z</time>
      </trkpt>
      <trkpt lat="37.94560730" lon="-8.72796831">
        <ele>122.00000</ele>
        <time>2010-01-01T07:37:02Z</time>
      </trkpt>
      <trkpt lat="37.94492910" lon="-8.72871807">
        <ele>115.00000</ele>
        <time>2010-01-01T07:37:38Z</time>
      </trkpt>
      <trkpt lat="37.94376280" lon="-8.72939357">
        <ele>109.00000</ele>
        <time>2010-01-01T07:38:29Z</time>
      </trkpt>
      <trkpt lat="37.94312000" lon="-8.73022824">
        <ele>107.00000</ele>
        <time>2010-01-01T07:39:06Z</time>
      </trkpt>
      <trkpt lat="37.94262980" lon="-8.73037601">
        <ele>105.00000</ele>
        <time>2010-01-01T07:39:26Z</time>
      </trkpt>
      <trkpt lat="37.93908680" lon="-8.72934755">
        <ele>104.00000</ele>
        <time>2010-01-01T07:41:52Z</time>
      </trkpt>
      <trkpt lat="37.93809820" lon="-8.72901119">
        <ele>109.00000</ele>
        <time>2010-01-01T07:42:33Z</time>
      </trkpt>
      <trkpt lat="37.93795630" lon="-8.72904706">
        <ele>108.00000</ele>
        <time>2010-01-01T07:42:39Z</time>
      </trkpt>
      <trkpt lat="37.93742710" lon="-8.73137019">
        <ele>106.00000</ele>
        <time>2010-01-01T07:43:55Z</time>
      </trkpt>
      <trkpt lat="37.93701580" lon="-8.73232875">
        <ele>103.00000</ele>
        <time>2010-01-01T07:44:29Z</time>
      </trkpt>
      <trkpt lat="37.93590050" lon="-8.73362786">
        <ele>93.000000</ele>
        <time>2010-01-01T07:45:30Z</time>
      </trkpt>
      <trkpt lat="37.93552760" lon="-8.73441743">
        <ele>90.000000</ele>
        <time>2010-01-01T07:45:59Z</time>
      </trkpt>
      <trkpt lat="37.93528510" lon="-8.73466931">
        <ele>88.000000</ele>
        <time>2010-01-01T07:46:12Z</time>
      </trkpt>
      <trkpt lat="37.93484100" lon="-8.73490350">
        <ele>84.000000</ele>
        <time>2010-01-01T07:46:31Z</time>
      </trkpt>
      <trkpt lat="37.93322090" lon="-8.73676830">
        <ele>71.000000</ele>
        <time>2010-01-01T07:47:58Z</time>
      </trkpt>
      <trkpt lat="37.93319170" lon="-8.73711406">
        <ele>70.000000</ele>
        <time>2010-01-01T07:48:09Z</time>
      </trkpt>
      <trkpt lat="37.93346730" lon="-8.73726611">
        <ele>69.000000</ele>
        <time>2010-01-01T07:48:21Z</time>
      </trkpt>
      <trkpt lat="37.93355150" lon="-8.73740357">
        <ele>70.000000</ele>
        <time>2010-01-01T07:48:27Z</time>
      </trkpt>
      <trkpt lat="37.93376720" lon="-8.73818778">
        <ele>69.000000</ele>
        <time>2010-01-01T07:48:53Z</time>
      </trkpt>
      <trkpt lat="37.93379480" lon="-8.73850361">
        <ele>67.000000</ele>
        <time>2010-01-01T07:49:03Z</time>
      </trkpt>
      <trkpt lat="37.93368690" lon="-8.73885397">
        <ele>66.000000</ele>
        <time>2010-01-01T07:49:15Z</time>
      </trkpt>
      <trkpt lat="37.93348640" lon="-8.73898859">
        <ele>66.000000</ele>
        <time>2010-01-01T07:49:24Z</time>
      </trkpt>
      <trkpt lat="37.93347580" lon="-8.73931095">
        <ele>65.000000</ele>
        <time>2010-01-01T07:49:34Z</time>
      </trkpt>
      <trkpt lat="37.93338100" lon="-8.73947147">
        <ele>67.000000</ele>
        <time>2010-01-01T07:49:41Z</time>
      </trkpt>
      <trkpt lat="37.93278400" lon="-8.73922856">
        <ele>80.000000</ele>
        <time>2010-01-01T07:50:06Z</time>
      </trkpt>
      <trkpt lat="37.93229090" lon="-8.73935211">
        <ele>87.000000</ele>
        <time>2010-01-01T07:50:26Z</time>
      </trkpt>
      <trkpt lat="37.93204980" lon="-8.73932059">
        <ele>88.000000</ele>
        <time>2010-01-01T07:50:36Z</time>
      </trkpt>
      <trkpt lat="37.93174440" lon="-8.73939419">
        <ele>90.000000</ele>
        <time>2010-01-01T07:50:48Z</time>
      </trkpt>
      <trkpt lat="37.92942770" lon="-8.73946778">
        <ele>89.000000</ele>
        <time>2010-01-01T07:52:21Z</time>
      </trkpt>
      <trkpt lat="37.92849800" lon="-8.73962025">
        <ele>89.000000</ele>
        <time>2010-01-01T07:52:58Z</time>
      </trkpt>
      <trkpt lat="37.92819190" lon="-8.73961446">
        <ele>90.000000</ele>
        <time>2010-01-01T07:53:11Z</time>
      </trkpt>
      <trkpt lat="37.92770700" lon="-8.73919445">
        <ele>89.000000</ele>
        <time>2010-01-01T07:53:34Z</time>
      </trkpt>
      <trkpt lat="37.92748110" lon="-8.73914902">
        <ele>89.000000</ele>
        <time>2010-01-01T07:53:43Z</time>
      </trkpt>
      <trkpt lat="37.92688080" lon="-8.73945093">
        <ele>91.000000</ele>
        <time>2010-01-01T07:54:09Z</time>
      </trkpt>
      <trkpt lat="37.92635280" lon="-8.73991554">
        <ele>92.000000</ele>
        <time>2010-01-01T07:54:35Z</time>
      </trkpt>
      <trkpt lat="37.92585110" lon="-8.74049289">
        <ele>92.000000</ele>
        <time>2010-01-01T07:55:02Z</time>
      </trkpt>
      <trkpt lat="37.92416930" lon="-8.74164188">
        <ele>86.000000</ele>
        <time>2010-01-01T07:56:18Z</time>
      </trkpt>
      <trkpt lat="37.92365060" lon="-8.74192460">
        <ele>87.000000</ele>
        <time>2010-01-01T07:56:41Z</time>
      </trkpt>
      <trkpt lat="37.92313180" lon="-8.74208277">
        <ele>86.000000</ele>
        <time>2010-01-01T07:57:02Z</time>
      </trkpt>
      <trkpt lat="37.92148720" lon="-8.74308893">
        <ele>82.000000</ele>
        <time>2010-01-01T07:58:15Z</time>
      </trkpt>
      <trkpt lat="37.92144680" lon="-8.74340183">
        <ele>82.000000</ele>
        <time>2010-01-01T07:58:25Z</time>
      </trkpt>
      <trkpt lat="37.92241410" lon="-8.74599359">
        <ele>79.000000</ele>
        <time>2010-01-01T07:59:56Z</time>
      </trkpt>
      <trkpt lat="37.92236380" lon="-8.74633273">
        <ele>78.000000</ele>
        <time>2010-01-01T08:00:07Z</time>
      </trkpt>
      <trkpt lat="37.92117800" lon="-8.74679675">
        <ele>78.000000</ele>
        <time>2010-01-01T08:00:57Z</time>
      </trkpt>
      <trkpt lat="37.92094390" lon="-8.74707863">
        <ele>78.000000</ele>
        <time>2010-01-01T08:01:09Z</time>
      </trkpt>
      <trkpt lat="37.92090980" lon="-8.74775505">
        <ele>77.000000</ele>
        <time>2010-01-01T08:01:31Z</time>
      </trkpt>
      <trkpt lat="37.92071410" lon="-8.74783502">
        <ele>76.000000</ele>
        <time>2010-01-01T08:01:39Z</time>
      </trkpt>
      <trkpt lat="37.91962500" lon="-8.74781926">
        <ele>78.000000</ele>
        <time>2010-01-01T08:02:23Z</time>
      </trkpt>
      <trkpt lat="37.91901150" lon="-8.74798212">
        <ele>80.000000</ele>
        <time>2010-01-01T08:02:48Z</time>
      </trkpt>
      <trkpt lat="37.91833370" lon="-8.74798866">
        <ele>75.000000</ele>
        <time>2010-01-01T08:03:15Z</time>
      </trkpt>
      <trkpt lat="37.91756800" lon="-8.74818446">
        <ele>82.000000</ele>
        <time>2010-01-01T08:03:46Z</time>
      </trkpt>
      <trkpt lat="37.91522090" lon="-8.74902399">
        <ele>83.000000</ele>
        <time>2010-01-01T08:05:24Z</time>
      </trkpt>
      <trkpt lat="37.91416760" lon="-8.74948717">
        <ele>75.000000</ele>
        <time>2010-01-01T08:06:08Z</time>
      </trkpt>
      <trkpt lat="37.91372500" lon="-8.74944937">
        <ele>77.000000</ele>
        <time>2010-01-01T08:06:26Z</time>
      </trkpt>
      <trkpt lat="37.91307920" lon="-8.74925927">
        <ele>76.000000</ele>
        <time>2010-01-01T08:06:53Z</time>
      </trkpt>
      <trkpt lat="37.91259050" lon="-8.74920336">
        <ele>74.000000</ele>
        <time>2010-01-01T08:07:12Z</time>
      </trkpt>
      <trkpt lat="37.91226070" lon="-8.74937779">
        <ele>72.000000</ele>
        <time>2010-01-01T08:07:27Z</time>
      </trkpt>
      <trkpt lat="37.91132010" lon="-8.75126388">
        <ele>72.000000</ele>
        <time>2010-01-01T08:08:37Z</time>
      </trkpt>
      <trkpt lat="37.91068780" lon="-8.75164082">
        <ele>72.000000</ele>
        <time>2010-01-01T08:09:05Z</time>
      </trkpt>
      <trkpt lat="37.90561180" lon="-8.76053762">
        <ele>67.000000</ele>
        <time>2010-01-01T08:14:52Z</time>
      </trkpt>
      <trkpt lat="37.90436780" lon="-8.76259865">
        <ele>66.000000</ele>
        <time>2010-01-01T08:16:14Z</time>
      </trkpt>
      <trkpt lat="37.90379420" lon="-8.76324783">
        <ele>68.000000</ele>
        <time>2010-01-01T08:16:45Z</time>
      </trkpt>
      <trkpt lat="37.90337620" lon="-8.76354656">
        <ele>65.000000</ele>
        <time>2010-01-01T08:17:04Z</time>
      </trkpt>
      <trkpt lat="37.90265960" lon="-8.76385157">
        <ele>63.000000</ele>
        <time>2010-01-01T08:17:34Z</time>
      </trkpt>
      <trkpt lat="37.90209040" lon="-8.76392584">
        <ele>67.000000</ele>
        <time>2010-01-01T08:17:57Z</time>
      </trkpt>
      <trkpt lat="37.90143680" lon="-8.76384889">
        <ele>66.000000</ele>
        <time>2010-01-01T08:18:23Z</time>
      </trkpt>
      <trkpt lat="37.90064490" lon="-8.76350104">
        <ele>66.000000</ele>
        <time>2010-01-01T08:18:57Z</time>
      </trkpt>
      <trkpt lat="37.90013690" lon="-8.76309838">
        <ele>67.000000</ele>
        <time>2010-01-01T08:19:21Z</time>
      </trkpt>
      <trkpt lat="37.89860780" lon="-8.76164428">
        <ele>69.000000</ele>
        <time>2010-01-01T08:20:37Z</time>
      </trkpt>
      <trkpt lat="37.89328420" lon="-8.75681011">
        <ele>71.000000</ele>
        <time>2010-01-01T08:25:00Z</time>
      </trkpt>
      <trkpt lat="37.89306200" lon="-8.75681522">
        <ele>71.000000</ele>
        <time>2010-01-01T08:25:08Z</time>
      </trkpt>
      <trkpt lat="37.89306000" lon="-8.75680000">
        <ele>71.000000</ele>
        <time>2010-01-01T08:25:09Z</time>
      </trkpt>
      <trkpt lat="37.89287000" lon="-8.75675000">
        <ele>71.000000</ele>
        <time>2010-01-01T08:25:17Z</time>
      </trkpt>
      <trkpt lat="37.89231000" lon="-8.75649000">
        <ele>71.000000</ele>
        <time>2010-01-01T08:25:41Z</time>
      </trkpt>
      <trkpt lat="37.89205000" lon="-8.75645000">
        <ele>71.000000</ele>
        <time>2010-01-01T08:25:51Z</time>
      </trkpt>
      <trkpt lat="37.89168000" lon="-8.75649000">
        <ele>72.000000</ele>
        <time>2010-01-01T08:26:06Z</time>
      </trkpt>
      <trkpt lat="37.89077000" lon="-8.75633000">
        <ele>72.000000</ele>
        <time>2010-01-01T08:26:43Z</time>
      </trkpt>
      <trkpt lat="37.89009000" lon="-8.75617000">
        <ele>73.000000</ele>
        <time>2010-01-01T08:27:10Z</time>
      </trkpt>
      <trkpt lat="37.88888000" lon="-8.75596000">
        <ele>73.000000</ele>
        <time>2010-01-01T08:27:59Z</time>
      </trkpt>
      <trkpt lat="37.88868000" lon="-8.75599000">
        <ele>73.000000</ele>
        <time>2010-01-01T08:28:07Z</time>
      </trkpt>
      <trkpt lat="37.88780000" lon="-8.75588000">
        <ele>75.000000</ele>
        <time>2010-01-01T08:28:43Z</time>
      </trkpt>
      <trkpt lat="37.88769000" lon="-8.75594000">
        <ele>75.000000</ele>
        <time>2010-01-01T08:28:48Z</time>
      </trkpt>
      <trkpt lat="37.88782000" lon="-8.75612000">
        <ele>75.000000</ele>
        <time>2010-01-01T08:28:55Z</time>
      </trkpt>
      <trkpt lat="37.88764000" lon="-8.75606000">
        <ele>75.000000</ele>
        <time>2010-01-01T08:29:03Z</time>
      </trkpt>
      <trkpt lat="37.88752000" lon="-8.75606000">
        <ele>75.000000</ele>
        <time>2010-01-01T08:29:07Z</time>
      </trkpt>
      <trkpt lat="37.88720000" lon="-8.75616000">
        <ele>74.000000</ele>
        <time>2010-01-01T08:29:21Z</time>
      </trkpt>
      <trkpt lat="37.88719000" lon="-8.75616000">
        <ele>74.000000</ele>
        <time>2010-01-01T08:29:21Z</time>
      </trkpt>
      <trkpt lat="37.88025000" lon="-8.75860000">
        <ele>78.000000</ele>
        <time>2010-01-01T08:34:09Z</time>
      </trkpt>
      <trkpt lat="37.87979000" lon="-8.75882000">
        <ele>79.000000</ele>
        <time>2010-01-01T08:34:29Z</time>
      </trkpt>
      <trkpt lat="37.87915000" lon="-8.75923000">
        <ele>76.000000</ele>
        <time>2010-01-01T08:34:58Z</time>
      </trkpt>
      <trkpt lat="37.87776000" lon="-8.76006000">
        <ele>75.000000</ele>
        <time>2010-01-01T08:35:59Z</time>
      </trkpt>
      <trkpt lat="37.87776000" lon="-8.76207000">
        <ele>75.000000</ele>
        <time>2010-01-01T08:37:03Z</time>
      </trkpt>
      <trkpt lat="37.87777000" lon="-8.76674000">
        <ele>68.000000</ele>
        <time>2010-01-01T08:39:30Z</time>
      </trkpt>
      <trkpt lat="37.87782000" lon="-8.76716000">
        <ele>67.000000</ele>
        <time>2010-01-01T08:39:44Z</time>
      </trkpt>
      <trkpt lat="37.87793000" lon="-8.76769000">
        <ele>66.000000</ele>
        <time>2010-01-01T08:40:01Z</time>
      </trkpt>
      <trkpt lat="37.87804000" lon="-8.76818000">
        <ele>65.000000</ele>
        <time>2010-01-01T08:40:17Z</time>
      </trkpt>
      <trkpt lat="37.87810000" lon="-8.76854000">
        <ele>64.000000</ele>
        <time>2010-01-01T08:40:29Z</time>
      </trkpt>
      <trkpt lat="37.87808000" lon="-8.76889000">
        <ele>62.000000</ele>
        <time>2010-01-01T08:40:40Z</time>
      </trkpt>
      <trkpt lat="37.87800000" lon="-8.76958000">
        <ele>60.000000</ele>
        <time>2010-01-01T08:41:02Z</time>
      </trkpt>
      <trkpt lat="37.87792000" lon="-8.76991000">
        <ele>60.000000</ele>
        <time>2010-01-01T08:41:13Z</time>
      </trkpt>
      <trkpt lat="37.87776000" lon="-8.77020000">
        <ele>60.000000</ele>
        <time>2010-01-01T08:41:24Z</time>
      </trkpt>
      <trkpt lat="37.87748000" lon="-8.77049000">
        <ele>61.000000</ele>
        <time>2010-01-01T08:41:39Z</time>
      </trkpt>
      <trkpt lat="37.87728000" lon="-8.77078000">
        <ele>61.000000</ele>
        <time>2010-01-01T08:41:51Z</time>
      </trkpt>
      <trkpt lat="37.87722000" lon="-8.77139000">
        <ele>60.000000</ele>
        <time>2010-01-01T08:42:10Z</time>
      </trkpt>
      <trkpt lat="37.87750000" lon="-8.77234000">
        <ele>60.000000</ele>
        <time>2010-01-01T08:42:42Z</time>
      </trkpt>
      <trkpt lat="37.87774000" lon="-8.77293000">
        <ele>59.000000</ele>
        <time>2010-01-01T08:43:03Z</time>
      </trkpt>
      <trkpt lat="37.87797000" lon="-8.77362000">
        <ele>59.000000</ele>
        <time>2010-01-01T08:43:27Z</time>
      </trkpt>
      <trkpt lat="37.87817000" lon="-8.77443000">
        <ele>57.000000</ele>
        <time>2010-01-01T08:43:54Z</time>
      </trkpt>
      <trkpt lat="37.87839000" lon="-8.77557000">
        <ele>55.000000</ele>
        <time>2010-01-01T08:44:31Z</time>
      </trkpt>
      <trkpt lat="37.87854000" lon="-8.77671000">
        <ele>54.000000</ele>
        <time>2010-01-01T08:45:07Z</time>
      </trkpt>
      <trkpt lat="37.87920000" lon="-8.78863000">
        <ele>25.000000</ele>
        <time>2010-01-01T08:51:25Z</time>
      </trkpt>
      <trkpt lat="37.87931000" lon="-8.78879000">
        <ele>24.000000</ele>
        <time>2010-01-01T08:51:31Z</time>
      </trkpt>
      <trkpt lat="37.87974000" lon="-8.78917000">
        <ele>24.000000</ele>
        <time>2010-01-01T08:51:52Z</time>
      </trkpt>
      <trkpt lat="37.87984000" lon="-8.78930000">
        <ele>23.000000</ele>
        <time>2010-01-01T08:51:58Z</time>
      </trkpt>
      <trkpt lat="37.87982000" lon="-8.78939000">
        <ele>23.000000</ele>
        <time>2010-01-01T08:52:01Z</time>
      </trkpt>
      <trkpt lat="37.87942000" lon="-8.78926000">
        <ele>22.000000</ele>
        <time>2010-01-01T08:52:18Z</time>
      </trkpt>
      <trkpt lat="37.87918000" lon="-8.78926000">
        <ele>22.000000</ele>
        <time>2010-01-01T08:52:27Z</time>
      </trkpt>
      <trkpt lat="37.87889000" lon="-8.78935000">
        <ele>21.000000</ele>
        <time>2010-01-01T08:52:39Z</time>
      </trkpt>
      <trkpt lat="37.87860000" lon="-8.78952000">
        <ele>21.000000</ele>
        <time>2010-01-01T08:52:52Z</time>
      </trkpt>
      <trkpt lat="37.87859000" lon="-8.78952000">
        <ele>21.000000</ele>
        <time>2010-01-01T08:52:52Z</time>
      </trkpt>
      <trkpt lat="37.87816000" lon="-8.78978000">
        <ele>24.000000</ele>
        <time>2010-01-01T08:53:11Z</time>
      </trkpt>
      <trkpt lat="37.87822000" lon="-8.79010000">
        <ele>24.000000</ele>
        <time>2010-01-01T08:53:22Z</time>
      </trkpt>
      <trkpt lat="37.87867000" lon="-8.79074000">
        <ele>26.000000</ele>
        <time>2010-01-01T08:53:49Z</time>
      </trkpt>
      <trkpt lat="37.87869000" lon="-8.79087000">
        <ele>27.000000</ele>
        <time>2010-01-01T08:53:53Z</time>
      </trkpt>
      <trkpt lat="37.87806000" lon="-8.79232000">
        <ele>30.000000</ele>
        <time>2010-01-01T08:54:45Z</time>
      </trkpt>
      <trkpt lat="37.87760000" lon="-8.79302000">
        <ele>26.000000</ele>
        <time>2010-01-01T08:55:14Z</time>
      </trkpt>
      <trkpt lat="37.87745000" lon="-8.79329000">
        <ele>26.000000</ele>
        <time>2010-01-01T08:55:25Z</time>
      </trkpt>
      <trkpt lat="37.87745000" lon="-8.79330000">
        <ele>26.000000</ele>
        <time>2010-01-01T08:55:25Z</time>
      </trkpt>
      <trkpt lat="37.87724000" lon="-8.79368000">
        <ele>26.000000</ele>
        <time>2010-01-01T08:55:40Z</time>
      </trkpt>
      <trkpt lat="37.87715000" lon="-8.79380000">
        <ele>25.000000</ele>
        <time>2010-01-01T08:55:45Z</time>
      </trkpt>
      <trkpt lat="37.87685000" lon="-8.79405000">
        <ele>22.000000</ele>
        <time>2010-01-01T08:55:59Z</time>
      </trkpt>
      <trkpt lat="37.87667000" lon="-8.79434000">
        <ele>19.000000</ele>
        <time>2010-01-01T08:56:11Z</time>
      </trkpt>
      <trkpt lat="37.87634000" lon="-8.79465000">
        <ele>17.000000</ele>
        <time>2010-01-01T08:56:27Z</time>
      </trkpt>
      <trkpt lat="37.87579000" lon="-8.79475000">
        <ele>19.000000</ele>
        <time>2010-01-01T08:56:50Z</time>
      </trkpt>
      <trkpt lat="37.87565000" lon="-8.79505000">
        <ele>19.000000</ele>
        <time>2010-01-01T08:57:01Z</time>
      </trkpt>
      <trkpt lat="37.87548000" lon="-8.79514000">
        <ele>19.000000</ele>
        <time>2010-01-01T08:57:08Z</time>
      </trkpt>
      <trkpt lat="37.87530000" lon="-8.79517000">
        <ele>18.000000</ele>
        <time>2010-01-01T08:57:15Z</time>
      </trkpt>
      <trkpt lat="37.87512000" lon="-8.79513000">
        <ele>19.000000</ele>
        <time>2010-01-01T08:57:23Z</time>
      </trkpt>
      <trkpt lat="37.87479000" lon="-8.79496000">
        <ele>19.000000</ele>
        <time>2010-01-01T08:57:37Z</time>
      </trkpt>
      <trkpt lat="37.87473000" lon="-8.79490000">
        <ele>19.000000</ele>
        <time>2010-01-01T08:57:40Z</time>
      </trkpt>
      <trkpt lat="37.87466000" lon="-8.79475000">
        <ele>20.000000</ele>
        <time>2010-01-01T08:57:45Z</time>
      </trkpt>
      <trkpt lat="37.87458000" lon="-8.79446000">
        <ele>22.000000</ele>
        <time>2010-01-01T08:57:55Z</time>
      </trkpt>
      <trkpt lat="37.87404000" lon="-8.79419000">
        <ele>17.000000</ele>
        <time>2010-01-01T08:58:18Z</time>
      </trkpt>
      <trkpt lat="37.87219000" lon="-8.79362000">
        <ele>14.000000</ele>
        <time>2010-01-01T08:59:35Z</time>
      </trkpt>
      <trkpt lat="37.87191000" lon="-8.79354000">
        <ele>14.000000</ele>
        <time>2010-01-01T08:59:46Z</time>
      </trkpt>
      <trkpt lat="37.86970000" lon="-8.79300000">
        <ele>15.000000</ele>
        <time>2010-01-01T09:01:16Z</time>
      </trkpt>
      <trkpt lat="37.86947000" lon="-8.79287000">
        <ele>14.000000</ele>
        <time>2010-01-01T09:01:26Z</time>
      </trkpt>
      <trkpt lat="37.86923000" lon="-8.79290000">
        <ele>12.000000</ele>
        <time>2010-01-01T09:01:36Z</time>
      </trkpt>
      <trkpt lat="37.86832000" lon="-8.79264000">
        <ele>13.000000</ele>
        <time>2010-01-01T09:02:13Z</time>
      </trkpt>
      <trkpt lat="37.86823000" lon="-8.79258000">
        <ele>14.000000</ele>
        <time>2010-01-01T09:02:17Z</time>
      </trkpt>
      <trkpt lat="37.86805000" lon="-8.79255000">
        <ele>15.000000</ele>
        <time>2010-01-01T09:02:25Z</time>
      </trkpt>
      <trkpt lat="37.86783000" lon="-8.79257000">
        <ele>16.000000</ele>
        <time>2010-01-01T09:02:33Z</time>
      </trkpt>
      <trkpt lat="37.86756000" lon="-8.79265000">
        <ele>15.000000</ele>
        <time>2010-01-01T09:02:44Z</time>
      </trkpt>
      <trkpt lat="37.86744000" lon="-8.79272000">
        <ele>14.000000</ele>
        <time>2010-01-01T09:02:50Z</time>
      </trkpt>
      <trkpt lat="37.86743000" lon="-8.79272000">
        <ele>14.000000</ele>
        <time>2010-01-01T09:02:50Z</time>
      </trkpt>
      <trkpt lat="37.86709000" lon="-8.79287000">
        <ele>13.000000</ele>
        <time>2010-01-01T09:03:05Z</time>
      </trkpt>
      <trkpt lat="37.86694000" lon="-8.79287000">
        <ele>13.000000</ele>
        <time>2010-01-01T09:03:11Z</time>
      </trkpt>
      <trkpt lat="37.86644000" lon="-8.79272000">
        <ele>11.000000</ele>
        <time>2010-01-01T09:03:31Z</time>
      </trkpt>
      <trkpt lat="37.86606000" lon="-8.79256000">
        <ele>10.000000</ele>
        <time>2010-01-01T09:03:47Z</time>
      </trkpt>
      <trkpt lat="37.86566000" lon="-8.79231000">
        <ele>17.000000</ele>
        <time>2010-01-01T09:04:05Z</time>
      </trkpt>
      <trkpt lat="37.86557000" lon="-8.79231000">
        <ele>17.000000</ele>
        <time>2010-01-01T09:04:09Z</time>
      </trkpt>
      <trkpt lat="37.86556000" lon="-8.79221000">
        <ele>20.000000</ele>
        <time>2010-01-01T09:04:12Z</time>
      </trkpt>
      <trkpt lat="37.86539000" lon="-8.79224000">
        <ele>19.000000</ele>
        <time>2010-01-01T09:04:19Z</time>
      </trkpt>
      <trkpt lat="37.86429000" lon="-8.79258000">
        <ele>18.000000</ele>
        <time>2010-01-01T09:05:04Z</time>
      </trkpt>
      <trkpt lat="37.86428000" lon="-8.79258000">
        <ele>18.000000</ele>
        <time>2010-01-01T09:05:04Z</time>
      </trkpt>
      <trkpt lat="37.86202000" lon="-8.79328000">
        <ele>14.000000</ele>
        <time>2010-01-01T09:06:38Z</time>
      </trkpt>
      <trkpt lat="37.86119000" lon="-8.79357000">
        <ele>16.000000</ele>
        <time>2010-01-01T09:07:12Z</time>
      </trkpt>
      <trkpt lat="37.86087000" lon="-8.79357000">
        <ele>16.000000</ele>
        <time>2010-01-01T09:07:25Z</time>
      </trkpt>
      <trkpt lat="37.86084000" lon="-8.79364000">
        <ele>15.000000</ele>
        <time>2010-01-01T09:07:27Z</time>
      </trkpt>
      <trkpt lat="37.86056000" lon="-8.79362000">
        <ele>16.000000</ele>
        <time>2010-01-01T09:07:39Z</time>
      </trkpt>
      <trkpt lat="37.85967000" lon="-8.79330000">
        <ele>17.000000</ele>
        <time>2010-01-01T09:08:16Z</time>
      </trkpt>
      <trkpt lat="37.85948000" lon="-8.79323000">
        <ele>17.000000</ele>
        <time>2010-01-01T09:08:24Z</time>
      </trkpt>
      <trkpt lat="37.85936000" lon="-8.79324000">
        <ele>17.000000</ele>
        <time>2010-01-01T09:08:28Z</time>
      </trkpt>
      <trkpt lat="37.85894000" lon="-8.79347000">
        <ele>16.000000</ele>
        <time>2010-01-01T09:08:47Z</time>
      </trkpt>
      <trkpt lat="37.85875000" lon="-8.79351000">
        <ele>15.000000</ele>
        <time>2010-01-01T09:08:54Z</time>
      </trkpt>
      <trkpt lat="37.85869000" lon="-8.79349000">
        <ele>16.000000</ele>
        <time>2010-01-01T09:08:57Z</time>
      </trkpt>
      <trkpt lat="37.85864000" lon="-8.79344000">
        <ele>16.000000</ele>
        <time>2010-01-01T09:08:59Z</time>
      </trkpt>
      <trkpt lat="37.85814000" lon="-8.79287000">
        <ele>17.000000</ele>
        <time>2010-01-01T09:09:26Z</time>
      </trkpt>
      <trkpt lat="37.85786000" lon="-8.79262000">
        <ele>14.000000</ele>
        <time>2010-01-01T09:09:40Z</time>
      </trkpt>
      <trkpt lat="37.85800000" lon="-8.79249000">
        <ele>16.000000</ele>
        <time>2010-01-01T09:09:47Z</time>
      </trkpt>
      <trkpt lat="37.85801000" lon="-8.79242000">
        <ele>16.000000</ele>
        <time>2010-01-01T09:09:49Z</time>
      </trkpt>
      <trkpt lat="37.85714000" lon="-8.79241000">
        <ele>14.000000</ele>
        <time>2010-01-01T09:10:24Z</time>
      </trkpt>
      <trkpt lat="37.85696000" lon="-8.79250000">
        <ele>15.000000</ele>
        <time>2010-01-01T09:10:32Z</time>
      </trkpt>
      <trkpt lat="37.85655000" lon="-8.79263000">
        <ele>17.000000</ele>
        <time>2010-01-01T09:10:49Z</time>
      </trkpt>
      <trkpt lat="37.85638000" lon="-8.79275000">
        <ele>18.000000</ele>
        <time>2010-01-01T09:10:57Z</time>
      </trkpt>
      <trkpt lat="37.85638000" lon="-8.79276000">
        <ele>18.000000</ele>
        <time>2010-01-01T09:10:57Z</time>
      </trkpt>
      <trkpt lat="37.85608000" lon="-8.79309000">
        <ele>18.000000</ele>
        <time>2010-01-01T09:11:13Z</time>
      </trkpt>
      <trkpt lat="37.85593000" lon="-8.79323000">
        <ele>18.000000</ele>
        <time>2010-01-01T09:11:20Z</time>
      </trkpt>
      <trkpt lat="37.85586000" lon="-8.79326000">
        <ele>18.000000</ele>
        <time>2010-01-01T09:11:23Z</time>
      </trkpt>
      <trkpt lat="37.85555000" lon="-8.79331000">
        <ele>19.000000</ele>
        <time>2010-01-01T09:11:36Z</time>
      </trkpt>
      <trkpt lat="37.85492000" lon="-8.79336000">
        <ele>17.000000</ele>
        <time>2010-01-01T09:12:01Z</time>
      </trkpt>
      <trkpt lat="37.85480000" lon="-8.79363000">
        <ele>13.000000</ele>
        <time>2010-01-01T09:12:11Z</time>
      </trkpt>
      <trkpt lat="37.85474000" lon="-8.79367000">
        <ele>13.000000</ele>
        <time>2010-01-01T09:12:13Z</time>
      </trkpt>
      <trkpt lat="37.85470000" lon="-8.79372000">
        <ele>13.000000</ele>
        <time>2010-01-01T09:12:16Z</time>
      </trkpt>
      <trkpt lat="37.85466000" lon="-8.79384000">
        <ele>12.000000</ele>
        <time>2010-01-01T09:12:20Z</time>
      </trkpt>
      <trkpt lat="37.85470000" lon="-8.79405000">
        <ele>9.0000000</ele>
        <time>2010-01-01T09:12:27Z</time>
      </trkpt>
      <trkpt lat="37.85481000" lon="-8.79420000">
        <ele>6.0000000</ele>
        <time>2010-01-01T09:12:33Z</time>
      </trkpt>
      <trkpt lat="37.85478000" lon="-8.79428000">
        <ele>6.0000000</ele>
        <time>2010-01-01T09:12:36Z</time>
      </trkpt>
      <trkpt lat="37.85466000" lon="-8.79445000">
        <ele>5.0000000</ele>
        <time>2010-01-01T09:12:43Z</time>
      </trkpt>
      <trkpt lat="37.85442000" lon="-8.79456000">
        <ele>7.0000000</ele>
        <time>2010-01-01T09:12:53Z</time>
      </trkpt>
      <trkpt lat="37.85440000" lon="-8.79459000">
        <ele>7.0000000</ele>
        <time>2010-01-01T09:12:55Z</time>
      </trkpt>
      <trkpt lat="37.85439000" lon="-8.79459000">
        <ele>7.0000000</ele>
        <time>2010-01-01T09:12:55Z</time>
      </trkpt>
      <trkpt lat="37.85429000" lon="-8.79470000">
        <ele>7.0000000</ele>
        <time>2010-01-01T09:13:00Z</time>
      </trkpt>
      <trkpt lat="37.85412000" lon="-8.79480000">
        <ele>6.0000000</ele>
        <time>2010-01-01T09:13:08Z</time>
      </trkpt>
      <trkpt lat="37.85398000" lon="-8.79483000">
        <ele>6.0000000</ele>
        <time>2010-01-01T09:13:13Z</time>
      </trkpt>
      <trkpt lat="37.85362000" lon="-8.79471000">
        <ele>9.0000000</ele>
        <time>2010-01-01T09:13:28Z</time>
      </trkpt>
      <trkpt lat="37.85345000" lon="-8.79471000">
        <ele>9.0000000</ele>
        <time>2010-01-01T09:13:35Z</time>
      </trkpt>
      <trkpt lat="37.85326000" lon="-8.79466000">
        <ele>11.000000</ele>
        <time>2010-01-01T09:13:43Z</time>
      </trkpt>
      <trkpt lat="37.85316000" lon="-8.79468000">
        <ele>12.000000</ele>
        <time>2010-01-01T09:13:47Z</time>
      </trkpt>
      <trkpt lat="37.85309000" lon="-8.79474000">
        <ele>12.000000</ele>
        <time>2010-01-01T09:13:50Z</time>
      </trkpt>
      <trkpt lat="37.85299000" lon="-8.79500000">
        <ele>9.0000000</ele>
        <time>2010-01-01T09:13:59Z</time>
      </trkpt>
      <trkpt lat="37.85286000" lon="-8.79509000">
        <ele>10.000000</ele>
        <time>2010-01-01T09:14:05Z</time>
      </trkpt>
      <trkpt lat="37.85285000" lon="-8.79509000">
        <ele>10.000000</ele>
        <time>2010-01-01T09:14:06Z</time>
      </trkpt>
      <trkpt lat="37.85262000" lon="-8.79518000">
        <ele>11.000000</ele>
        <time>2010-01-01T09:14:15Z</time>
      </trkpt>
      <trkpt lat="37.85252000" lon="-8.79528000">
        <ele>10.000000</ele>
        <time>2010-01-01T09:14:21Z</time>
      </trkpt>
      <trkpt lat="37.85240000" lon="-8.79532000">
        <ele>10.000000</ele>
        <time>2010-01-01T09:14:26Z</time>
      </trkpt>
      <trkpt lat="37.85232000" lon="-8.79540000">
        <ele>9.0000000</ele>
        <time>2010-01-01T09:14:30Z</time>
      </trkpt>
      <trkpt lat="37.85230000" lon="-8.79550000">
        <ele>8.0000000</ele>
        <time>2010-01-01T09:14:33Z</time>
      </trkpt>
      <trkpt lat="37.85223000" lon="-8.79553000">
        <ele>8.0000000</ele>
        <time>2010-01-01T09:14:36Z</time>
      </trkpt>
      <trkpt lat="37.85218000" lon="-8.79551000">
        <ele>8.0000000</ele>
        <time>2010-01-01T09:14:38Z</time>
      </trkpt>
      <trkpt lat="37.85215000" lon="-8.79545000">
        <ele>9.0000000</ele>
        <time>2010-01-01T09:14:40Z</time>
      </trkpt>
      <trkpt lat="37.85216000" lon="-8.79538000">
        <ele>10.000000</ele>
        <time>2010-01-01T09:14:42Z</time>
      </trkpt>
      <trkpt lat="37.85176000" lon="-8.79515000">
        <ele>15.000000</ele>
        <time>2010-01-01T09:15:00Z</time>
      </trkpt>
      <trkpt lat="37.85170000" lon="-8.79522000">
        <ele>13.000000</ele>
        <time>2010-01-01T09:15:03Z</time>
      </trkpt>
      <trkpt lat="37.85164000" lon="-8.79525000">
        <ele>13.000000</ele>
        <time>2010-01-01T09:15:06Z</time>
      </trkpt>
      <trkpt lat="37.85141000" lon="-8.79528000">
        <ele>13.000000</ele>
        <time>2010-01-01T09:15:15Z</time>
      </trkpt>
      <trkpt lat="37.85125000" lon="-8.79526000">
        <ele>14.000000</ele>
        <time>2010-01-01T09:15:22Z</time>
      </trkpt>
      <trkpt lat="37.85116000" lon="-8.79529000">
        <ele>13.000000</ele>
        <time>2010-01-01T09:15:25Z</time>
      </trkpt>
      <trkpt lat="37.85115000" lon="-8.79529000">
        <ele>13.000000</ele>
        <time>2010-01-01T09:15:26Z</time>
      </trkpt>
      <trkpt lat="37.85111000" lon="-8.79532000">
        <ele>13.000000</ele>
        <time>2010-01-01T09:15:28Z</time>
      </trkpt>
      <trkpt lat="37.85102000" lon="-8.79546000">
        <ele>11.000000</ele>
        <time>2010-01-01T09:15:33Z</time>
      </trkpt>
      <trkpt lat="37.85083000" lon="-8.79557000">
        <ele>8.0000000</ele>
        <time>2010-01-01T09:15:42Z</time>
      </trkpt>
      <trkpt lat="37.85072000" lon="-8.79558000">
        <ele>8.0000000</ele>
        <time>2010-01-01T09:15:46Z</time>
      </trkpt>
      <trkpt lat="37.85060000" lon="-8.79565000">
        <ele>7.0000000</ele>
        <time>2010-01-01T09:15:51Z</time>
      </trkpt>
      <trkpt lat="37.85044000" lon="-8.79584000">
        <ele>5.0000000</ele>
        <time>2010-01-01T09:16:00Z</time>
      </trkpt>
      <trkpt lat="37.85023000" lon="-8.79598000">
        <ele>4.0000000</ele>
        <time>2010-01-01T09:16:10Z</time>
      </trkpt>
      <trkpt lat="37.85011000" lon="-8.79599000">
        <ele>4.0000000</ele>
        <time>2010-01-01T09:16:14Z</time>
      </trkpt>
      <trkpt lat="37.85005000" lon="-8.79594000">
        <ele>4.0000000</ele>
        <time>2010-01-01T09:16:17Z</time>
      </trkpt>
      <trkpt lat="37.85003000" lon="-8.79587000">
        <ele>4.0000000</ele>
        <time>2010-01-01T09:16:20Z</time>
      </trkpt>
      <trkpt lat="37.85001000" lon="-8.79572000">
        <ele>6.0000000</ele>
        <time>2010-01-01T09:16:24Z</time>
      </trkpt>
      <trkpt lat="37.84998000" lon="-8.79541000">
        <ele>10.000000</ele>
        <time>2010-01-01T09:16:34Z</time>
      </trkpt>
      <trkpt lat="37.84999000" lon="-8.79520000">
        <ele>12.000000</ele>
        <time>2010-01-01T09:16:41Z</time>
      </trkpt>
      <trkpt lat="37.85016000" lon="-8.79482000">
        <ele>16.000000</ele>
        <time>2010-01-01T09:16:55Z</time>
      </trkpt>
      <trkpt lat="37.85009000" lon="-8.79478000">
        <ele>16.000000</ele>
        <time>2010-01-01T09:16:58Z</time>
      </trkpt>
      <trkpt lat="37.85005000" lon="-8.79451000">
        <ele>16.000000</ele>
        <time>2010-01-01T09:17:07Z</time>
      </trkpt>
      <trkpt lat="37.85000000" lon="-8.79420000">
        <ele>16.000000</ele>
        <time>2010-01-01T09:17:17Z</time>
      </trkpt>
      <trkpt lat="37.84999000" lon="-8.79315000">
        <ele>15.000000</ele>
        <time>2010-01-01T09:17:50Z</time>
      </trkpt>
      <trkpt lat="37.85011000" lon="-8.79295000">
        <ele>17.000000</ele>
        <time>2010-01-01T09:17:58Z</time>
      </trkpt>
      <trkpt lat="37.85010000" lon="-8.79295000">
        <ele>17.000000</ele>
        <time>2010-01-01T09:17:58Z</time>
      </trkpt>
      <trkpt lat="37.85025000" lon="-8.79270000">
        <ele>20.000000</ele>
        <time>2010-01-01T09:18:08Z</time>
      </trkpt>
      <trkpt lat="37.85019000" lon="-8.79263000">
        <ele>18.000000</ele>
        <time>2010-01-01T09:18:11Z</time>
      </trkpt>
      <trkpt lat="37.84996000" lon="-8.79250000">
        <ele>13.000000</ele>
        <time>2010-01-01T09:18:21Z</time>
      </trkpt>
      <trkpt lat="37.84995000" lon="-8.79243000">
        <ele>13.000000</ele>
        <time>2010-01-01T09:18:24Z</time>
      </trkpt>
      <trkpt lat="37.84996000" lon="-8.79236000">
        <ele>13.000000</ele>
        <time>2010-01-01T09:18:26Z</time>
      </trkpt>
      <trkpt lat="37.85006000" lon="-8.79206000">
        <ele>16.000000</ele>
        <time>2010-01-01T09:18:36Z</time>
      </trkpt>
      <trkpt lat="37.85003000" lon="-8.79198000">
        <ele>15.000000</ele>
        <time>2010-01-01T09:18:39Z</time>
      </trkpt>
      <trkpt lat="37.84998000" lon="-8.79191000">
        <ele>14.000000</ele>
        <time>2010-01-01T09:18:42Z</time>
      </trkpt>
      <trkpt lat="37.84983000" lon="-8.79188000">
        <ele>11.000000</ele>
        <time>2010-01-01T09:18:48Z</time>
      </trkpt>
      <trkpt lat="37.84983000" lon="-8.79182000">
        <ele>11.000000</ele>
        <time>2010-01-01T09:18:50Z</time>
      </trkpt>
      <trkpt lat="37.84992000" lon="-8.79159000">
        <ele>12.000000</ele>
        <time>2010-01-01T09:18:58Z</time>
      </trkpt>
      <trkpt lat="37.84992000" lon="-8.79160000">
        <ele>12.000000</ele>
        <time>2010-01-01T09:18:58Z</time>
      </trkpt>
      <trkpt lat="37.84996000" lon="-8.79135000">
        <ele>10.000000</ele>
        <time>2010-01-01T09:19:06Z</time>
      </trkpt>
      <trkpt lat="37.84997000" lon="-8.79125000">
        <ele>10.000000</ele>
        <time>2010-01-01T09:19:10Z</time>
      </trkpt>
      <trkpt lat="37.84992000" lon="-8.79122000">
        <ele>10.000000</ele>
        <time>2010-01-01T09:19:12Z</time>
      </trkpt>
      <trkpt lat="37.84984000" lon="-8.79119000">
        <ele>10.000000</ele>
        <time>2010-01-01T09:19:15Z</time>
      </trkpt>
      <trkpt lat="37.84977000" lon="-8.79121000">
        <ele>11.000000</ele>
        <time>2010-01-01T09:19:18Z</time>
      </trkpt>
      <trkpt lat="37.84954000" lon="-8.79136000">
        <ele>13.000000</ele>
        <time>2010-01-01T09:19:28Z</time>
      </trkpt>
      <trkpt lat="37.84953000" lon="-8.79136000">
        <ele>14.000000</ele>
        <time>2010-01-01T09:19:29Z</time>
      </trkpt>
      <trkpt lat="37.84934000" lon="-8.79153000">
        <ele>15.000000</ele>
        <time>2010-01-01T09:19:38Z</time>
      </trkpt>
      <trkpt lat="37.84929000" lon="-8.79160000">
        <ele>15.000000</ele>
        <time>2010-01-01T09:19:41Z</time>
      </trkpt>
      <trkpt lat="37.84917000" lon="-8.79183000">
        <ele>13.000000</ele>
        <time>2010-01-01T09:19:50Z</time>
      </trkpt>
      <trkpt lat="37.84901000" lon="-8.79206000">
        <ele>15.000000</ele>
        <time>2010-01-01T09:19:59Z</time>
      </trkpt>
      <trkpt lat="37.84892000" lon="-8.79213000">
        <ele>16.000000</ele>
        <time>2010-01-01T09:20:04Z</time>
      </trkpt>
      <trkpt lat="37.84870000" lon="-8.79218000">
        <ele>21.000000</ele>
        <time>2010-01-01T09:20:13Z</time>
      </trkpt>
      <trkpt lat="37.84863000" lon="-8.79221000">
        <ele>22.000000</ele>
        <time>2010-01-01T09:20:16Z</time>
      </trkpt>
      <trkpt lat="37.84822000" lon="-8.79244000">
        <ele>23.000000</ele>
        <time>2010-01-01T09:20:34Z</time>
      </trkpt>
      <trkpt lat="37.84811000" lon="-8.79246000">
        <ele>23.000000</ele>
        <time>2010-01-01T09:20:38Z</time>
      </trkpt>
      <trkpt lat="37.84795000" lon="-8.79245000">
        <ele>22.000000</ele>
        <time>2010-01-01T09:20:44Z</time>
      </trkpt>
      <trkpt lat="37.84763000" lon="-8.79237000">
        <ele>22.000000</ele>
        <time>2010-01-01T09:20:57Z</time>
      </trkpt>
      <trkpt lat="37.84742000" lon="-8.79229000">
        <ele>21.000000</ele>
        <time>2010-01-01T09:21:06Z</time>
      </trkpt>
      <trkpt lat="37.84725000" lon="-8.79222000">
        <ele>22.000000</ele>
        <time>2010-01-01T09:21:13Z</time>
      </trkpt>
      <trkpt lat="37.84697000" lon="-8.79205000">
        <ele>21.000000</ele>
        <time>2010-01-01T09:21:26Z</time>
      </trkpt>
      <trkpt lat="37.84663000" lon="-8.79181000">
        <ele>20.000000</ele>
        <time>2010-01-01T09:21:41Z</time>
      </trkpt>
      <trkpt lat="37.84632000" lon="-8.79168000">
        <ele>20.000000</ele>
        <time>2010-01-01T09:21:54Z</time>
      </trkpt>
      <trkpt lat="37.84607000" lon="-8.79151000">
        <ele>21.000000</ele>
        <time>2010-01-01T09:22:06Z</time>
      </trkpt>
      <trkpt lat="37.84557000" lon="-8.79132000">
        <ele>22.000000</ele>
        <time>2010-01-01T09:22:27Z</time>
      </trkpt>
      <trkpt lat="37.84516000" lon="-8.79095000">
        <ele>24.000000</ele>
        <time>2010-01-01T09:22:47Z</time>
      </trkpt>
      <trkpt lat="37.84474000" lon="-8.79100000">
        <ele>24.000000</ele>
        <time>2010-01-01T09:23:04Z</time>
      </trkpt>
      <trkpt lat="37.84464000" lon="-8.79097000">
        <ele>25.000000</ele>
        <time>2010-01-01T09:23:08Z</time>
      </trkpt>
      <trkpt lat="37.84449000" lon="-8.79092000">
        <ele>25.000000</ele>
        <time>2010-01-01T09:23:14Z</time>
      </trkpt>
      <trkpt lat="37.84358000" lon="-8.79034000">
        <ele>28.000000</ele>
        <time>2010-01-01T09:23:55Z</time>
      </trkpt>
      <trkpt lat="37.84343000" lon="-8.79018000">
        <ele>27.000000</ele>
        <time>2010-01-01T09:24:03Z</time>
      </trkpt>
      <trkpt lat="37.84328000" lon="-8.78984000">
        <ele>26.000000</ele>
        <time>2010-01-01T09:24:15Z</time>
      </trkpt>
      <trkpt lat="37.84235000" lon="-8.78906000">
        <ele>22.000000</ele>
        <time>2010-01-01T09:25:00Z</time>
      </trkpt>
      <trkpt lat="37.84218000" lon="-8.78902000">
        <ele>22.000000</ele>
        <time>2010-01-01T09:25:07Z</time>
      </trkpt>
      <trkpt lat="37.84217000" lon="-8.78902000">
        <ele>22.000000</ele>
        <time>2010-01-01T09:25:07Z</time>
      </trkpt>
      <trkpt lat="37.84191000" lon="-8.78911000">
        <ele>24.000000</ele>
        <time>2010-01-01T09:25:18Z</time>
      </trkpt>
      <trkpt lat="37.84175000" lon="-8.78912000">
        <ele>25.000000</ele>
        <time>2010-01-01T09:25:24Z</time>
      </trkpt>
      <trkpt lat="37.84142000" lon="-8.78906000">
        <ele>26.000000</ele>
        <time>2010-01-01T09:25:38Z</time>
      </trkpt>
      <trkpt lat="37.83967000" lon="-8.78823000">
        <ele>24.000000</ele>
        <time>2010-01-01T09:26:52Z</time>
      </trkpt>
      <trkpt lat="37.83899000" lon="-8.78793000">
        <ele>21.000000</ele>
        <time>2010-01-01T09:27:21Z</time>
      </trkpt>
      <trkpt lat="37.83793000" lon="-8.78749000">
        <ele>21.000000</ele>
        <time>2010-01-01T09:28:06Z</time>
      </trkpt>
      <trkpt lat="37.83776000" lon="-8.78752000">
        <ele>20.000000</ele>
        <time>2010-01-01T09:28:13Z</time>
      </trkpt>
      <trkpt lat="37.83608000" lon="-8.78732000">
        <ele>26.000000</ele>
        <time>2010-01-01T09:29:20Z</time>
      </trkpt>
      <trkpt lat="37.83397000" lon="-8.78708000">
        <ele>24.000000</ele>
        <time>2010-01-01T09:30:45Z</time>
      </trkpt>
      <trkpt lat="37.83321000" lon="-8.78696000">
        <ele>24.000000</ele>
        <time>2010-01-01T09:31:16Z</time>
      </trkpt>
      <trkpt lat="37.83230000" lon="-8.78686000">
        <ele>22.000000</ele>
        <time>2010-01-01T09:31:52Z</time>
      </trkpt>
      <trkpt lat="37.83200000" lon="-8.78692000">
        <ele>21.000000</ele>
        <time>2010-01-01T09:32:04Z</time>
      </trkpt>
      <trkpt lat="37.83099000" lon="-8.78724000">
        <ele>23.000000</ele>
        <time>2010-01-01T09:32:46Z</time>
      </trkpt>
      <trkpt lat="37.83077000" lon="-8.78743000">
        <ele>25.000000</ele>
        <time>2010-01-01T09:32:57Z</time>
      </trkpt>
      <trkpt lat="37.82831000" lon="-8.79019000">
        <ele>28.000000</ele>
        <time>2010-01-01T09:35:08Z</time>
      </trkpt>
      <trkpt lat="37.82831000" lon="-8.79036000">
        <ele>28.000000</ele>
        <time>2010-01-01T09:35:14Z</time>
      </trkpt>
      <trkpt lat="37.82827000" lon="-8.79056000">
        <ele>28.000000</ele>
        <time>2010-01-01T09:35:20Z</time>
      </trkpt>
      <trkpt lat="37.82818000" lon="-8.79071000">
        <ele>29.000000</ele>
        <time>2010-01-01T09:35:26Z</time>
      </trkpt>
      <trkpt lat="37.82817000" lon="-8.79071000">
        <ele>29.000000</ele>
        <time>2010-01-01T09:35:27Z</time>
      </trkpt>
      <trkpt lat="37.82827000" lon="-8.79056000">
        <ele>28.000000</ele>
        <time>2010-01-01T09:35:33Z</time>
      </trkpt>
      <trkpt lat="37.82831000" lon="-8.79036000">
        <ele>28.000000</ele>
        <time>2010-01-01T09:35:39Z</time>
      </trkpt>
      <trkpt lat="37.82831000" lon="-8.79019000">
        <ele>28.000000</ele>
        <time>2010-01-01T09:35:45Z</time>
      </trkpt>
      <trkpt lat="37.82818000" lon="-8.78978000">
        <ele>29.000000</ele>
        <time>2010-01-01T09:35:59Z</time>
      </trkpt>
      <trkpt lat="37.82801000" lon="-8.78961000">
        <ele>30.000000</ele>
        <time>2010-01-01T09:36:07Z</time>
      </trkpt>
      <trkpt lat="37.82782000" lon="-8.78944000">
        <ele>30.000000</ele>
        <time>2010-01-01T09:36:17Z</time>
      </trkpt>
      <trkpt lat="37.82734000" lon="-8.78782000">
        <ele>29.000000</ele>
        <time>2010-01-01T09:37:11Z</time>
      </trkpt>
      <trkpt lat="37.82562000" lon="-8.78194000">
        <ele>36.000000</ele>
        <time>2010-01-01T09:40:30Z</time>
      </trkpt>
      <trkpt lat="37.82463000" lon="-8.77845000">
        <ele>44.000000</ele>
        <time>2010-01-01T09:42:27Z</time>
      </trkpt>
      <trkpt lat="37.82381000" lon="-8.77561000">
        <ele>45.000000</ele>
        <time>2010-01-01T09:44:02Z</time>
      </trkpt>
      <trkpt lat="37.82381000" lon="-8.77546000">
        <ele>45.000000</ele>
        <time>2010-01-01T09:44:07Z</time>
      </trkpt>
      <trkpt lat="37.82432000" lon="-8.77432000">
        <ele>46.000000</ele>
        <time>2010-01-01T09:44:49Z</time>
      </trkpt>
      <trkpt lat="37.82348000" lon="-8.77355000">
        <ele>44.000000</ele>
        <time>2010-01-01T09:45:30Z</time>
      </trkpt>
      <trkpt lat="37.82284000" lon="-8.77297000">
        <ele>44.000000</ele>
        <time>2010-01-01T09:46:02Z</time>
      </trkpt>
      <trkpt lat="37.82251000" lon="-8.77254000">
        <ele>49.000000</ele>
        <time>2010-01-01T09:46:21Z</time>
      </trkpt>
      <trkpt lat="37.29481112" lon="-8.86077496">
        <ele>90.000000</ele>
        <time>2010-01-01T00:00:00Z</time>
      </trkpt>
      <trkpt lat="37.82250000" lon="-8.77253000">
        <ele>49.000000</ele>
        <time>2010-01-01T00:00:19Z</time>
      </trkpt>
      <trkpt lat="37.82284000" lon="-8.77297000">
        <ele>44.000000</ele>
        <time>2010-01-01T00:01:32Z</time>
      </trkpt>
      <trkpt lat="37.82432000" lon="-8.77432000">
        <ele>46.000000</ele>
        <time>2010-01-01T00:02:13Z</time>
      </trkpt>
      <trkpt lat="37.82381000" lon="-8.77546000">
        <ele>45.000000</ele>
        <time>2010-01-01T00:02:18Z</time>
      </trkpt>
      <trkpt lat="37.82381000" lon="-8.77561000">
        <ele>45.000000</ele>
        <time>2010-01-01T00:03:22Z</time>
      </trkpt>
      <trkpt lat="37.82436000" lon="-8.77752000">
        <ele>42.000000</ele>
        <time>2010-01-01T00:03:54Z</time>
      </trkpt>
      <trkpt lat="37.82463000" lon="-8.77845000">
        <ele>44.000000</ele>
        <time>2010-01-01T00:04:07Z</time>
      </trkpt>
      <trkpt lat="37.82434000" lon="-8.77865000">
        <ele>42.000000</ele>
        <time>2010-01-01T00:04:34Z</time>
      </trkpt>
      <trkpt lat="37.82417000" lon="-8.77948000">
        <ele>43.000000</ele>
        <time>2010-01-01T00:05:10Z</time>
      </trkpt>
      <trkpt lat="37.82405000" lon="-8.78059000">
        <ele>39.000000</ele>
        <time>2010-01-01T00:05:41Z</time>
      </trkpt>
      <trkpt lat="37.82404000" lon="-8.78159000">
        <ele>36.000000</ele>
        <time>2010-01-01T00:06:31Z</time>
      </trkpt>
      <trkpt lat="37.82388000" lon="-8.78316000">
        <ele>33.000000</ele>
        <time>2010-01-01T00:06:51Z</time>
      </trkpt>
      <trkpt lat="37.82377000" lon="-8.78376000">
        <ele>31.000000</ele>
        <time>2010-01-01T00:08:24Z</time>
      </trkpt>
      <trkpt lat="37.82265000" lon="-8.78634000">
        <ele>22.000000</ele>
        <time>2010-01-01T00:08:24Z</time>
      </trkpt>
      <trkpt lat="37.82265000" lon="-8.78633000">
        <ele>22.000000</ele>
        <time>2010-01-01T00:09:06Z</time>
      </trkpt>
      <trkpt lat="37.82216000" lon="-8.78750000">
        <ele>19.000000</ele>
        <time>2010-01-01T00:09:48Z</time>
      </trkpt>
      <trkpt lat="37.82174000" lon="-8.78873000">
        <ele>17.000000</ele>
        <time>2010-01-01T00:10:05Z</time>
      </trkpt>
      <trkpt lat="37.82163000" lon="-8.78923000">
        <ele>17.000000</ele>
        <time>2010-01-01T00:10:09Z</time>
      </trkpt>
      <trkpt lat="37.82155000" lon="-8.78930000">
        <ele>17.000000</ele>
        <time>2010-01-01T00:10:43Z</time>
      </trkpt>
      <trkpt lat="37.82078000" lon="-8.78975000">
        <ele>14.000000</ele>
        <time>2010-01-01T00:10:46Z</time>
      </trkpt>
      <trkpt lat="37.82069000" lon="-8.78976000">
        <ele>14.000000</ele>
        <time>2010-01-01T00:10:47Z</time>
      </trkpt>
      <trkpt lat="37.82070000" lon="-8.78976000">
        <ele>14.000000</ele>
        <time>2010-01-01T00:10:53Z</time>
      </trkpt>
      <trkpt lat="37.82053000" lon="-8.78979000">
        <ele>13.000000</ele>
        <time>2010-01-01T00:11:12Z</time>
      </trkpt>
      <trkpt lat="37.82007000" lon="-8.78970000">
        <ele>12.000000</ele>
        <time>2010-01-01T00:11:41Z</time>
      </trkpt>
      <trkpt lat="37.81942000" lon="-8.79012000">
        <ele>14.000000</ele>
        <time>2010-01-01T00:11:42Z</time>
      </trkpt>
      <trkpt lat="37.81943000" lon="-8.79012000">
        <ele>14.000000</ele>
        <time>2010-01-01T00:11:48Z</time>
      </trkpt>
      <trkpt lat="37.81928000" lon="-8.79019000">
        <ele>16.000000</ele>
        <time>2010-01-01T00:12:03Z</time>
      </trkpt>
      <trkpt lat="37.81911000" lon="-8.79062000">
        <ele>15.000000</ele>
        <time>2010-01-01T00:12:18Z</time>
      </trkpt>
      <trkpt lat="37.81900000" lon="-8.79107000">
        <ele>14.000000</ele>
        <time>2010-01-01T00:12:25Z</time>
      </trkpt>
      <trkpt lat="37.81898000" lon="-8.79127000">
        <ele>14.000000</ele>
        <time>2010-01-01T00:12:37Z</time>
      </trkpt>
      <trkpt lat="37.81899000" lon="-8.79167000">
        <ele>13.000000</ele>
        <time>2010-01-01T00:12:42Z</time>
      </trkpt>
      <trkpt lat="37.81897000" lon="-8.79181000">
        <ele>13.000000</ele>
        <time>2010-01-01T00:12:45Z</time>
      </trkpt>
      <trkpt lat="37.81892000" lon="-8.79189000">
        <ele>13.000000</ele>
        <time>2010-01-01T00:12:50Z</time>
      </trkpt>
      <trkpt lat="37.81880000" lon="-8.79193000">
        <ele>14.000000</ele>
        <time>2010-01-01T00:12:54Z</time>
      </trkpt>
      <trkpt lat="37.81870000" lon="-8.79195000">
        <ele>15.000000</ele>
        <time>2010-01-01T00:12:57Z</time>
      </trkpt>
      <trkpt lat="37.81864000" lon="-8.79192000">
        <ele>15.000000</ele>
        <time>2010-01-01T00:13:00Z</time>
      </trkpt>
      <trkpt lat="37.81868000" lon="-8.79200000">
        <ele>15.000000</ele>
        <time>2010-01-01T00:13:02Z</time>
      </trkpt>
      <trkpt lat="37.81867000" lon="-8.79208000">
        <ele>15.000000</ele>
        <time>2010-01-01T00:13:06Z</time>
      </trkpt>
      <trkpt lat="37.81859000" lon="-8.79215000">
        <ele>15.000000</ele>
        <time>2010-01-01T00:13:06Z</time>
      </trkpt>
      <trkpt lat="37.81859000" lon="-8.79214000">
        <ele>15.000000</ele>
        <time>2010-01-01T00:13:11Z</time>
      </trkpt>
      <trkpt lat="37.81849000" lon="-8.79218000">
        <ele>15.000000</ele>
        <time>2010-01-01T00:13:19Z</time>
      </trkpt>
      <trkpt lat="37.81828000" lon="-8.79220000">
        <ele>16.000000</ele>
        <time>2010-01-01T00:13:22Z</time>
      </trkpt>
      <trkpt lat="37.81821000" lon="-8.79222000">
        <ele>16.000000</ele>
        <time>2010-01-01T00:13:26Z</time>
      </trkpt>
      <trkpt lat="37.81813000" lon="-8.79228000">
        <ele>15.000000</ele>
        <time>2010-01-01T00:13:27Z</time>
      </trkpt>
      <trkpt lat="37.81811000" lon="-8.79232000">
        <ele>15.000000</ele>
        <time>2010-01-01T00:13:31Z</time>
      </trkpt>
      <trkpt lat="37.81803000" lon="-8.79240000">
        <ele>15.000000</ele>
        <time>2010-01-01T00:13:41Z</time>
      </trkpt>
      <trkpt lat="37.81782000" lon="-8.79257000">
        <ele>14.000000</ele>
        <time>2010-01-01T00:13:45Z</time>
      </trkpt>
      <trkpt lat="37.81773000" lon="-8.79261000">
        <ele>14.000000</ele>
        <time>2010-01-01T00:13:45Z</time>
      </trkpt>
      <trkpt lat="37.81774000" lon="-8.79261000">
        <ele>14.000000</ele>
        <time>2010-01-01T00:13:47Z</time>
      </trkpt>
      <trkpt lat="37.81770000" lon="-8.79263000">
        <ele>14.000000</ele>
        <time>2010-01-01T00:14:09Z</time>
      </trkpt>
      <trkpt lat="37.81716000" lon="-8.79264000">
        <ele>14.000000</ele>
        <time>2010-01-01T00:14:16Z</time>
      </trkpt>
      <trkpt lat="37.81700000" lon="-8.79276000">
        <ele>14.000000</ele>
        <time>2010-01-01T00:14:24Z</time>
      </trkpt>
      <trkpt lat="37.81681000" lon="-8.79278000">
        <ele>13.000000</ele>
        <time>2010-01-01T00:14:28Z</time>
      </trkpt>
      <trkpt lat="37.81671000" lon="-8.79282000">
        <ele>13.000000</ele>
        <time>2010-01-01T00:14:28Z</time>
      </trkpt>
      <trkpt lat="37.81672000" lon="-8.79282000">
        <ele>13.000000</ele>
        <time>2010-01-01T00:14:32Z</time>
      </trkpt>
      <trkpt lat="37.81663000" lon="-8.79286000">
        <ele>13.000000</ele>
        <time>2010-01-01T00:14:41Z</time>
      </trkpt>
      <trkpt lat="37.81642000" lon="-8.79289000">
        <ele>13.000000</ele>
        <time>2010-01-01T00:14:45Z</time>
      </trkpt>
      <trkpt lat="37.81636000" lon="-8.79299000">
        <ele>13.000000</ele>
        <time>2010-01-01T00:14:49Z</time>
      </trkpt>
      <trkpt lat="37.81633000" lon="-8.79312000">
        <ele>12.000000</ele>
        <time>2010-01-01T00:14:53Z</time>
      </trkpt>
      <trkpt lat="37.81637000" lon="-8.79323000">
        <ele>11.000000</ele>
        <time>2010-01-01T00:14:55Z</time>
      </trkpt>
      <trkpt lat="37.81635000" lon="-8.79330000">
        <ele>11.000000</ele>
        <time>2010-01-01T00:14:55Z</time>
      </trkpt>
      <trkpt lat="37.81635000" lon="-8.79329000">
        <ele>11.000000</ele>
        <time>2010-01-01T00:15:01Z</time>
      </trkpt>
      <trkpt lat="37.81631000" lon="-8.79346000">
        <ele>9.0000000</ele>
        <time>2010-01-01T00:15:10Z</time>
      </trkpt>
      <trkpt lat="37.81610000" lon="-8.79358000">
        <ele>7.0000000</ele>
        <time>2010-01-01T00:15:16Z</time>
      </trkpt>
      <trkpt lat="37.81599000" lon="-8.79345000">
        <ele>8.0000000</ele>
        <time>2010-01-01T00:15:19Z</time>
      </trkpt>
      <trkpt lat="37.81595000" lon="-8.79337000">
        <ele>9.0000000</ele>
        <time>2010-01-01T00:15:26Z</time>
      </trkpt>
      <trkpt lat="37.81595000" lon="-8.79315000">
        <ele>12.000000</ele>
        <time>2010-01-01T00:15:28Z</time>
      </trkpt>
      <trkpt lat="37.81590000" lon="-8.79312000">
        <ele>12.000000</ele>
        <time>2010-01-01T00:15:34Z</time>
      </trkpt>
      <trkpt lat="37.81588000" lon="-8.79296000">
        <ele>13.000000</ele>
        <time>2010-01-01T00:15:38Z</time>
      </trkpt>
      <trkpt lat="37.81589000" lon="-8.79283000">
        <ele>14.000000</ele>
        <time>2010-01-01T00:15:42Z</time>
      </trkpt>
      <trkpt lat="37.81577000" lon="-8.79281000">
        <ele>15.000000</ele>
        <time>2010-01-01T00:15:44Z</time>
      </trkpt>
      <trkpt lat="37.81573000" lon="-8.79280000">
        <ele>15.000000</ele>
        <time>2010-01-01T00:15:59Z</time>
      </trkpt>
      <trkpt lat="37.81540000" lon="-8.79261000">
        <ele>17.000000</ele>
        <time>2010-01-01T00:16:08Z</time>
      </trkpt>
      <trkpt lat="37.81519000" lon="-8.79246000">
        <ele>18.000000</ele>
        <time>2010-01-01T00:16:16Z</time>
      </trkpt>
      <trkpt lat="37.81501000" lon="-8.79257000">
        <ele>19.000000</ele>
        <time>2010-01-01T00:16:27Z</time>
      </trkpt>
      <trkpt lat="37.81479000" lon="-8.79274000">
        <ele>19.000000</ele>
        <time>2010-01-01T00:16:38Z</time>
      </trkpt>
      <trkpt lat="37.81452000" lon="-8.79279000">
        <ele>19.000000</ele>
        <time>2010-01-01T00:16:38Z</time>
      </trkpt>
      <trkpt lat="37.81453000" lon="-8.79279000">
        <ele>19.000000</ele>
        <time>2010-01-01T00:17:18Z</time>
      </trkpt>
      <trkpt lat="37.81355000" lon="-8.79296000">
        <ele>20.000000</ele>
        <time>2010-01-01T00:19:03Z</time>
      </trkpt>
      <trkpt lat="37.81094000" lon="-8.79328000">
        <ele>22.000000</ele>
        <time>2010-01-01T00:19:17Z</time>
      </trkpt>
      <trkpt lat="37.81059000" lon="-8.79325000">
        <ele>22.000000</ele>
        <time>2010-01-01T00:19:36Z</time>
      </trkpt>
      <trkpt lat="37.81010000" lon="-8.79325000">
        <ele>22.000000</ele>
        <time>2010-01-01T00:20:02Z</time>
      </trkpt>
      <trkpt lat="37.80946000" lon="-8.79323000">
        <ele>24.000000</ele>
        <time>2010-01-01T00:20:41Z</time>
      </trkpt>
      <trkpt lat="37.80848000" lon="-8.79336000">
        <ele>23.000000</ele>
        <time>2010-01-01T00:20:52Z</time>
      </trkpt>
      <trkpt lat="37.80820000" lon="-8.79335000">
        <ele>23.000000</ele>
        <time>2010-01-01T00:21:12Z</time>
      </trkpt>
      <trkpt lat="37.80772000" lon="-8.79342000">
        <ele>22.000000</ele>
        <time>2010-01-01T00:21:19Z</time>
      </trkpt>
      <trkpt lat="37.80756000" lon="-8.79332000">
        <ele>23.000000</ele>
        <time>2010-01-01T00:21:27Z</time>
      </trkpt>
      <trkpt lat="37.80740000" lon="-8.79318000">
        <ele>23.000000</ele>
        <time>2010-01-01T00:21:38Z</time>
      </trkpt>
      <trkpt lat="37.80723000" lon="-8.79289000">
        <ele>23.000000</ele>
        <time>2010-01-01T00:21:56Z</time>
      </trkpt>
      <trkpt lat="37.80717000" lon="-8.79233000">
        <ele>25.000000</ele>
        <time>2010-01-01T00:22:11Z</time>
      </trkpt>
      <trkpt lat="37.80713000" lon="-8.79187000">
        <ele>25.000000</ele>
        <time>2010-01-01T00:22:23Z</time>
      </trkpt>
      <trkpt lat="37.80706000" lon="-8.79149000">
        <ele>24.000000</ele>
        <time>2010-01-01T00:22:56Z</time>
      </trkpt>
      <trkpt lat="37.80704000" lon="-8.79045000">
        <ele>26.000000</ele>
        <time>2010-01-01T00:23:09Z</time>
      </trkpt>
      <trkpt lat="37.80705000" lon="-8.79002000">
        <ele>28.000000</ele>
        <time>2010-01-01T00:23:29Z</time>
      </trkpt>
      <trkpt lat="37.80700000" lon="-8.78940000">
        <ele>28.000000</ele>
        <time>2010-01-01T00:23:37Z</time>
      </trkpt>
      <trkpt lat="37.80696000" lon="-8.78915000">
        <ele>28.000000</ele>
        <time>2010-01-01T00:23:52Z</time>
      </trkpt>
      <trkpt lat="37.80693000" lon="-8.78867000">
        <ele>29.000000</ele>
        <time>2010-01-01T00:23:58Z</time>
      </trkpt>
      <trkpt lat="37.80698000" lon="-8.78851000">
        <ele>29.000000</ele>
        <time>2010-01-01T00:24:14Z</time>
      </trkpt>
      <trkpt lat="37.80689000" lon="-8.78803000">
        <ele>30.000000</ele>
        <time>2010-01-01T00:24:26Z</time>
      </trkpt>
      <trkpt lat="37.80689000" lon="-8.78765000">
        <ele>30.000000</ele>
        <time>2010-01-01T00:24:26Z</time>
      </trkpt>
      <trkpt lat="37.80689000" lon="-8.78764000">
        <ele>30.000000</ele>
        <time>2010-01-01T00:24:47Z</time>
      </trkpt>
      <trkpt lat="37.80690000" lon="-8.78697000">
        <ele>32.000000</ele>
        <time>2010-01-01T00:24:53Z</time>
      </trkpt>
      <trkpt lat="37.80677000" lon="-8.78705000">
        <ele>31.000000</ele>
        <time>2010-01-01T00:25:04Z</time>
      </trkpt>
      <trkpt lat="37.80657000" lon="-8.78729000">
        <ele>29.000000</ele>
        <time>2010-01-01T00:25:14Z</time>
      </trkpt>
      <trkpt lat="37.80646000" lon="-8.78759000">
        <ele>28.000000</ele>
        <time>2010-01-01T00:25:25Z</time>
      </trkpt>
      <trkpt lat="37.80627000" lon="-8.78784000">
        <ele>26.000000</ele>
        <time>2010-01-01T00:25:32Z</time>
      </trkpt>
      <trkpt lat="37.80619000" lon="-8.78801000">
        <ele>25.000000</ele>
        <time>2010-01-01T00:25:39Z</time>
      </trkpt>
      <trkpt lat="37.80617000" lon="-8.78825000">
        <ele>25.000000</ele>
        <time>2010-01-01T00:25:45Z</time>
      </trkpt>
      <trkpt lat="37.80611000" lon="-8.78842000">
        <ele>24.000000</ele>
        <time>2010-01-01T00:25:55Z</time>
      </trkpt>
      <trkpt lat="37.80591000" lon="-8.78860000">
        <ele>22.000000</ele>
        <time>2010-01-01T00:26:01Z</time>
      </trkpt>
      <trkpt lat="37.80577000" lon="-8.78864000">
        <ele>22.000000</ele>
        <time>2010-01-01T00:26:05Z</time>
      </trkpt>
      <trkpt lat="37.80565000" lon="-8.78864000">
        <ele>22.000000</ele>
        <time>2010-01-01T00:26:13Z</time>
      </trkpt>
      <trkpt lat="37.80547000" lon="-8.78858000">
        <ele>23.000000</ele>
        <time>2010-01-01T00:26:17Z</time>
      </trkpt>
      <trkpt lat="37.80537000" lon="-8.78860000">
        <ele>23.000000</ele>
        <time>2010-01-01T00:26:23Z</time>
      </trkpt>
      <trkpt lat="37.80525000" lon="-8.78873000">
        <ele>22.000000</ele>
        <time>2010-01-01T00:26:30Z</time>
      </trkpt>
      <trkpt lat="37.80518000" lon="-8.78892000">
        <ele>21.000000</ele>
        <time>2010-01-01T00:26:56Z</time>
      </trkpt>
      <trkpt lat="37.80497000" lon="-8.78970000">
        <ele>21.000000</ele>
        <time>2010-01-01T00:27:13Z</time>
      </trkpt>
      <trkpt lat="37.80473000" lon="-8.79013000">
        <ele>24.000000</ele>
        <time>2010-01-01T00:27:21Z</time>
      </trkpt>
      <trkpt lat="37.80470000" lon="-8.79040000">
        <ele>24.000000</ele>
        <time>2010-01-01T00:27:36Z</time>
      </trkpt>
      <trkpt lat="37.80454000" lon="-8.79081000">
        <ele>26.000000</ele>
        <time>2010-01-01T00:27:36Z</time>
      </trkpt>
      <trkpt lat="37.80454000" lon="-8.79080000">
        <ele>26.000000</ele>
        <time>2010-01-01T00:27:48Z</time>
      </trkpt>
      <trkpt lat="37.80440000" lon="-8.79115000">
        <ele>26.000000</ele>
        <time>2010-01-01T00:27:55Z</time>
      </trkpt>
      <trkpt lat="37.80435000" lon="-8.79135000">
        <ele>26.000000</ele>
        <time>2010-01-01T00:28:14Z</time>
      </trkpt>
      <trkpt lat="37.80438000" lon="-8.79196000">
        <ele>27.000000</ele>
        <time>2010-01-01T00:28:25Z</time>
      </trkpt>
      <trkpt lat="37.80442000" lon="-8.79228000">
        <ele>26.000000</ele>
        <time>2010-01-01T00:28:37Z</time>
      </trkpt>
      <trkpt lat="37.80453000" lon="-8.79266000">
        <ele>24.000000</ele>
        <time>2010-01-01T00:28:41Z</time>
      </trkpt>
      <trkpt lat="37.80453000" lon="-8.79278000">
        <ele>24.000000</ele>
        <time>2010-01-01T00:28:54Z</time>
      </trkpt>
      <trkpt lat="37.80440000" lon="-8.79314000">
        <ele>24.000000</ele>
        <time>2010-01-01T00:29:27Z</time>
      </trkpt>
      <trkpt lat="37.80415000" lon="-8.79413000">
        <ele>24.000000</ele>
        <time>2010-01-01T00:29:39Z</time>
      </trkpt>
      <trkpt lat="37.80410000" lon="-8.79451000">
        <ele>24.000000</ele>
        <time>2010-01-01T00:29:44Z</time>
      </trkpt>
      <trkpt lat="37.80403000" lon="-8.79465000">
        <ele>24.000000</ele>
        <time>2010-01-01T00:29:58Z</time>
      </trkpt>
      <trkpt lat="37.80371000" lon="-8.79484000">
        <ele>26.000000</ele>
        <time>2010-01-01T00:30:26Z</time>
      </trkpt>
      <trkpt lat="37.80311000" lon="-8.79528000">
        <ele>25.000000</ele>
        <time>2010-01-01T00:30:34Z</time>
      </trkpt>
      <trkpt lat="37.80296000" lon="-8.79544000">
        <ele>25.000000</ele>
        <time>2010-01-01T00:30:53Z</time>
      </trkpt>
      <trkpt lat="37.80254000" lon="-8.79576000">
        <ele>26.000000</ele>
        <time>2010-01-01T00:31:09Z</time>
      </trkpt>
      <trkpt lat="37.80222000" lon="-8.79604000">
        <ele>26.000000</ele>
        <time>2010-01-01T00:31:22Z</time>
      </trkpt>
      <trkpt lat="37.80192000" lon="-8.79622000">
        <ele>25.000000</ele>
        <time>2010-01-01T00:31:23Z</time>
      </trkpt>
      <trkpt lat="37.80193000" lon="-8.79622000">
        <ele>25.000000</ele>
        <time>2010-01-01T00:31:47Z</time>
      </trkpt>
      <trkpt lat="37.80140000" lon="-8.79659000">
        <ele>25.000000</ele>
        <time>2010-01-01T00:32:04Z</time>
      </trkpt>
      <trkpt lat="37.80109000" lon="-8.79694000">
        <ele>25.000000</ele>
        <time>2010-01-01T00:32:18Z</time>
      </trkpt>
      <trkpt lat="37.80084000" lon="-8.79727000">
        <ele>25.000000</ele>
        <time>2010-01-01T00:32:26Z</time>
      </trkpt>
      <trkpt lat="37.80068000" lon="-8.79743000">
        <ele>24.000000</ele>
        <time>2010-01-01T00:32:31Z</time>
      </trkpt>
      <trkpt lat="37.80057000" lon="-8.79749000">
        <ele>24.000000</ele>
        <time>2010-01-01T00:32:35Z</time>
      </trkpt>
      <trkpt lat="37.80046000" lon="-8.79749000">
        <ele>23.000000</ele>
        <time>2010-01-01T00:32:46Z</time>
      </trkpt>
      <trkpt lat="37.80024000" lon="-8.79731000">
        <ele>23.000000</ele>
        <time>2010-01-01T00:32:51Z</time>
      </trkpt>
      <trkpt lat="37.80013000" lon="-8.79725000">
        <ele>23.000000</ele>
        <time>2010-01-01T00:33:02Z</time>
      </trkpt>
      <trkpt lat="37.79985000" lon="-8.79720000">
        <ele>24.000000</ele>
        <time>2010-01-01T00:33:36Z</time>
      </trkpt>
      <trkpt lat="37.79914000" lon="-8.79663000">
        <ele>24.000000</ele>
        <time>2010-01-01T00:33:56Z</time>
      </trkpt>
      <trkpt lat="37.79870000" lon="-8.79630000">
        <ele>25.000000</ele>
        <time>2010-01-01T00:34:34Z</time>
      </trkpt>
      <trkpt lat="37.79793000" lon="-8.79561000">
        <ele>23.000000</ele>
        <time>2010-01-01T00:35:00Z</time>
      </trkpt>
      <trkpt lat="37.79732000" lon="-8.79528000">
        <ele>21.000000</ele>
        <time>2010-01-01T00:35:51Z</time>
      </trkpt>
      <trkpt lat="37.79612000" lon="-8.79482000">
        <ele>20.000000</ele>
        <time>2010-01-01T00:37:06Z</time>
      </trkpt>
      <trkpt lat="37.79424000" lon="-8.79491000">
        <ele>20.000000</ele>
        <time>2010-01-01T00:37:06Z</time>
      </trkpt>
      <trkpt lat="37.79425000" lon="-8.79491000">
        <ele>20.000000</ele>
        <time>2010-01-01T00:37:24Z</time>
      </trkpt>
      <trkpt lat="37.79380000" lon="-8.79490000">
        <ele>21.000000</ele>
        <time>2010-01-01T00:37:41Z</time>
      </trkpt>
      <trkpt lat="37.79339000" lon="-8.79480000">
        <ele>23.000000</ele>
        <time>2010-01-01T00:37:56Z</time>
      </trkpt>
      <trkpt lat="37.79303000" lon="-8.79484000">
        <ele>22.000000</ele>
        <time>2010-01-01T00:38:07Z</time>
      </trkpt>
      <trkpt lat="37.79274000" lon="-8.79484000">
        <ele>21.000000</ele>
        <time>2010-01-01T00:38:17Z</time>
      </trkpt>
      <trkpt lat="37.79249000" lon="-8.79479000">
        <ele>21.000000</ele>
        <time>2010-01-01T00:38:23Z</time>
      </trkpt>
      <trkpt lat="37.79235000" lon="-8.79483000">
        <ele>22.000000</ele>
        <time>2010-01-01T00:38:31Z</time>
      </trkpt>
      <trkpt lat="37.79218000" lon="-8.79493000">
        <ele>23.000000</ele>
        <time>2010-01-01T00:38:38Z</time>
      </trkpt>
      <trkpt lat="37.79200000" lon="-8.79497000">
        <ele>23.000000</ele>
        <time>2010-01-01T00:38:53Z</time>
      </trkpt>
      <trkpt lat="37.79163000" lon="-8.79508000">
        <ele>24.000000</ele>
        <time>2010-01-01T00:38:58Z</time>
      </trkpt>
      <trkpt lat="37.79151000" lon="-8.79514000">
        <ele>24.000000</ele>
        <time>2010-01-01T00:39:09Z</time>
      </trkpt>
      <trkpt lat="37.79128000" lon="-8.79533000">
        <ele>24.000000</ele>
        <time>2010-01-01T00:39:23Z</time>
      </trkpt>
      <trkpt lat="37.79103000" lon="-8.79565000">
        <ele>24.000000</ele>
        <time>2010-01-01T00:39:36Z</time>
      </trkpt>
      <trkpt lat="37.79083000" lon="-8.79596000">
        <ele>23.000000</ele>
        <time>2010-01-01T00:40:00Z</time>
      </trkpt>
      <trkpt lat="37.79052000" lon="-8.79660000">
        <ele>24.000000</ele>
        <time>2010-01-01T00:40:51Z</time>
      </trkpt>
      <trkpt lat="37.78973000" lon="-8.79785000">
        <ele>22.000000</ele>
        <time>2010-01-01T00:41:19Z</time>
      </trkpt>
      <trkpt lat="37.78906000" lon="-8.79811000">
        <ele>18.000000</ele>
        <time>2010-01-01T00:41:34Z</time>
      </trkpt>
      <trkpt lat="37.78870000" lon="-8.79796000">
        <ele>18.000000</ele>
        <time>2010-01-01T00:42:48Z</time>
      </trkpt>
      <trkpt lat="37.78694000" lon="-8.79721000">
        <ele>21.000000</ele>
        <time>2010-01-01T00:43:27Z</time>
      </trkpt>
      <trkpt lat="37.78598000" lon="-8.79720000">
        <ele>22.000000</ele>
        <time>2010-01-01T00:44:39Z</time>
      </trkpt>
      <trkpt lat="37.78442000" lon="-8.79834000">
        <ele>22.000000</ele>
        <time>2010-01-01T00:45:24Z</time>
      </trkpt>
      <trkpt lat="37.78350000" lon="-8.79919000">
        <ele>22.000000</ele>
        <time>2010-01-01T00:45:25Z</time>
      </trkpt>
      <trkpt lat="37.78350000" lon="-8.79918000">
        <ele>22.000000</ele>
        <time>2010-01-01T00:45:44Z</time>
      </trkpt>
      <trkpt lat="37.78311000" lon="-8.79954000">
        <ele>21.000000</ele>
        <time>2010-01-01T00:46:09Z</time>
      </trkpt>
      <trkpt lat="37.78248000" lon="-8.79968000">
        <ele>22.000000</ele>
        <time>2010-01-01T00:47:23Z</time>
      </trkpt>
      <trkpt lat="37.78073000" lon="-8.80034000">
        <ele>23.000000</ele>
        <time>2010-01-01T00:48:18Z</time>
      </trkpt>
      <trkpt lat="37.77943000" lon="-8.80095000">
        <ele>26.000000</ele>
        <time>2010-01-01T00:48:41Z</time>
      </trkpt>
      <trkpt lat="37.77895000" lon="-8.80057000">
        <ele>29.000000</ele>
        <time>2010-01-01T00:50:48Z</time>
      </trkpt>
      <trkpt lat="37.77726000" lon="-8.79717000">
        <ele>47.000000</ele>
        <time>2010-01-01T00:51:04Z</time>
      </trkpt>
      <trkpt lat="37.77703000" lon="-8.79674000">
        <ele>50.000000</ele>
        <time>2010-01-01T00:52:21Z</time>
      </trkpt>
      <trkpt lat="37.77594000" lon="-8.79476000">
        <ele>64.000000</ele>
        <time>2010-01-01T00:53:18Z</time>
      </trkpt>
      <trkpt lat="37.77532000" lon="-8.79313000">
        <ele>68.000000</ele>
        <time>2010-01-01T00:54:09Z</time>
      </trkpt>
      <trkpt lat="37.77447000" lon="-8.79194000">
        <ele>63.000000</ele>
        <time>2010-01-01T00:56:39Z</time>
      </trkpt>
      <trkpt lat="37.77171000" lon="-8.78872000">
        <ele>64.000000</ele>
        <time>2010-01-01T00:58:10Z</time>
      </trkpt>
      <trkpt lat="37.77002000" lon="-8.78679000">
        <ele>65.000000</ele>
        <time>2010-01-01T00:59:09Z</time>
      </trkpt>
      <trkpt lat="37.76889000" lon="-8.78559000">
        <ele>59.000000</ele>
        <time>2010-01-01T00:59:32Z</time>
      </trkpt>
      <trkpt lat="37.76849000" lon="-8.78506000">
        <ele>61.000000</ele>
        <time>2010-01-01T01:00:20Z</time>
      </trkpt>
      <trkpt lat="37.76780000" lon="-8.78382000">
        <ele>63.000000</ele>
        <time>2010-01-01T01:01:11Z</time>
      </trkpt>
      <trkpt lat="37.76711000" lon="-8.78249000">
        <ele>69.000000</ele>
        <time>2010-01-01T01:01:29Z</time>
      </trkpt>
      <trkpt lat="37.76689000" lon="-8.78199000">
        <ele>71.000000</ele>
        <time>2010-01-01T01:01:43Z</time>
      </trkpt>
      <trkpt lat="37.76664000" lon="-8.78166000">
        <ele>73.000000</ele>
        <time>2010-01-01T01:01:58Z</time>
      </trkpt>
      <trkpt lat="37.76643000" lon="-8.78127000">
        <ele>74.000000</ele>
        <time>2010-01-01T01:02:08Z</time>
      </trkpt>
      <trkpt lat="37.76639000" lon="-8.78096000">
        <ele>73.000000</ele>
        <time>2010-01-01T01:02:17Z</time>
      </trkpt>
      <trkpt lat="37.76637000" lon="-8.78067000">
        <ele>73.000000</ele>
        <time>2010-01-01T01:02:39Z</time>
      </trkpt>
      <trkpt lat="37.76595000" lon="-8.78024000">
        <ele>72.000000</ele>
        <time>2010-01-01T01:04:15Z</time>
      </trkpt>
      <trkpt lat="37.76459000" lon="-8.77774000">
        <ele>76.000000</ele>
        <time>2010-01-01T01:04:45Z</time>
      </trkpt>
      <trkpt lat="37.76406000" lon="-8.77707000">
        <ele>76.000000</ele>
        <time>2010-01-01T01:04:47Z</time>
      </trkpt>
      <trkpt lat="37.76409000" lon="-8.77703136">
        <ele>76.000000</ele>
        <time>2010-01-01T01:04:59Z</time>
      </trkpt>
      <trkpt lat="37.76427250" lon="-8.77735784">
        <ele>76.000000</ele>
        <time>2010-01-01T01:05:06Z</time>
      </trkpt>
      <trkpt lat="37.76415900" lon="-8.77751165">
        <ele>75.000000</ele>
        <time>2010-01-01T01:05:28Z</time>
      </trkpt>
      <trkpt lat="37.76362920" lon="-8.77767174">
        <ele>75.000000</ele>
        <time>2010-01-01T01:07:06Z</time>
      </trkpt>
      <trkpt lat="37.76139210" lon="-8.77891427">
        <ele>68.000000</ele>
        <time>2010-01-01T01:08:25Z</time>
      </trkpt>
      <trkpt lat="37.75960030" lon="-8.77996327">
        <ele>63.000000</ele>
        <time>2010-01-01T01:09:19Z</time>
      </trkpt>
      <trkpt lat="37.75839370" lon="-8.78078830">
        <ele>61.000000</ele>
        <time>2010-01-01T01:10:20Z</time>
      </trkpt>
      <trkpt lat="37.75699280" lon="-8.78153949">
        <ele>59.000000</ele>
        <time>2010-01-01T01:13:21Z</time>
      </trkpt>
      <trkpt lat="37.75272460" lon="-8.78341645">
        <ele>55.000000</ele>
        <time>2010-01-01T01:13:27Z</time>
      </trkpt>
      <trkpt lat="37.75259140" lon="-8.78344637">
        <ele>55.000000</ele>
        <time>2010-01-01T01:14:04Z</time>
      </trkpt>
      <trkpt lat="37.75166700" lon="-8.78326951">
        <ele>55.000000</ele>
        <time>2010-01-01T01:14:46Z</time>
      </trkpt>
      <trkpt lat="37.75061500" lon="-8.78315610">
        <ele>55.000000</ele>
        <time>2010-01-01T01:15:20Z</time>
      </trkpt>
      <trkpt lat="37.74978510" lon="-8.78323833">
        <ele>56.000000</ele>
        <time>2010-01-01T01:17:17Z</time>
      </trkpt>
      <trkpt lat="37.74702560" lon="-8.78448271">
        <ele>53.000000</ele>
        <time>2010-01-01T01:18:32Z</time>
      </trkpt>
      <trkpt lat="37.74528610" lon="-8.78534780">
        <ele>51.000000</ele>
        <time>2010-01-01T01:19:11Z</time>
      </trkpt>
      <trkpt lat="37.74434570" lon="-8.78568383">
        <ele>50.000000</ele>
        <time>2010-01-01T01:20:09Z</time>
      </trkpt>
      <trkpt lat="37.74293090" lon="-8.78605188">
        <ele>49.000000</ele>
        <time>2010-01-01T01:20:41Z</time>
      </trkpt>
      <trkpt lat="37.74219650" lon="-8.78647098">
        <ele>49.000000</ele>
        <time>2010-01-01T01:21:09Z</time>
      </trkpt>
      <trkpt lat="37.74165610" lon="-8.78703634">
        <ele>48.000000</ele>
        <time>2010-01-01T01:22:15Z</time>
      </trkpt>
      <trkpt lat="37.74030920" lon="-8.78824953">
        <ele>40.000000</ele>
        <time>2010-01-01T01:22:28Z</time>
      </trkpt>
      <trkpt lat="37.73999670" lon="-8.78834785">
        <ele>43.000000</ele>
        <time>2010-01-01T01:22:48Z</time>
      </trkpt>
      <trkpt lat="37.73953310" lon="-8.78808558">
        <ele>43.000000</ele>
        <time>2010-01-01T01:23:05Z</time>
      </trkpt>
      <trkpt lat="37.73919070" lon="-8.78781468">
        <ele>42.000000</ele>
        <time>2010-01-01T01:23:08Z</time>
      </trkpt>
      <trkpt lat="37.73910970" lon="-8.78784377">
        <ele>42.000000</ele>
        <time>2010-01-01T01:23:18Z</time>
      </trkpt>
      <trkpt lat="37.73903360" lon="-8.78812884">
        <ele>43.000000</ele>
        <time>2010-01-01T01:23:23Z</time>
      </trkpt>
      <trkpt lat="37.73889970" lon="-8.78817024">
        <ele>43.000000</ele>
        <time>2010-01-01T01:24:33Z</time>
      </trkpt>
      <trkpt lat="37.73716390" lon="-8.78780756">
        <ele>38.000000</ele>
        <time>2010-01-01T01:25:07Z</time>
      </trkpt>
      <trkpt lat="37.73633670" lon="-8.78774486">
        <ele>37.000000</ele>
        <time>2010-01-01T01:25:48Z</time>
      </trkpt>
      <trkpt lat="37.73530390" lon="-8.78792063">
        <ele>33.000000</ele>
        <time>2010-01-01T01:25:58Z</time>
      </trkpt>
      <trkpt lat="37.73507930" lon="-8.78806052">
        <ele>32.000000</ele>
        <time>2010-01-01T01:26:28Z</time>
      </trkpt>
      <trkpt lat="37.73434920" lon="-8.78792834">
        <ele>30.000000</ele>
        <time>2010-01-01T01:26:39Z</time>
      </trkpt>
      <trkpt lat="37.73406200" lon="-8.78790018">
        <ele>30.000000</ele>
        <time>2010-01-01T01:26:42Z</time>
      </trkpt>
      <trkpt lat="37.73404660" lon="-8.78797235">
        <ele>30.000000</ele>
        <time>2010-01-01T01:26:43Z</time>
      </trkpt>
      <trkpt lat="37.73401590" lon="-8.78794770">
        <ele>30.000000</ele>
        <time>2010-01-01T01:28:10Z</time>
      </trkpt>
      <trkpt lat="37.73469700" lon="-8.79053679">
        <ele>28.000000</ele>
        <time>2010-01-01T01:28:47Z</time>
      </trkpt>
      <trkpt lat="37.73506220" lon="-8.79163641">
        <ele>26.000000</ele>
        <time>2010-01-01T01:32:20Z</time>
      </trkpt>
      <trkpt lat="37.73786580" lon="-8.79733426">
        <ele>25.000000</ele>
        <time>2010-01-01T01:32:26Z</time>
      </trkpt>
      <trkpt lat="37.73793220" lon="-8.79750919">
        <ele>24.000000</ele>
        <time>2010-01-01T01:32:32Z</time>
      </trkpt>
      <trkpt lat="37.73781530" lon="-8.79761983">
        <ele>21.000000</ele>
        <time>2010-01-01T01:33:02Z</time>
      </trkpt>
      <trkpt lat="37.73724210" lon="-8.79699043">
        <ele>20.000000</ele>
        <time>2010-01-01T01:33:57Z</time>
      </trkpt>
      <trkpt lat="37.73609460" lon="-8.79607387">
        <ele>20.000000</ele>
        <time>2010-01-01T01:34:17Z</time>
      </trkpt>
      <trkpt lat="37.73559080" lon="-8.79621754">
        <ele>14.000000</ele>
        <time>2010-01-01T01:35:07Z</time>
      </trkpt>
      <trkpt lat="37.73437630" lon="-8.79587958">
        <ele>16.000000</ele>
        <time>2010-01-01T01:35:32Z</time>
      </trkpt>
      <trkpt lat="37.73375770" lon="-8.79586835">
        <ele>16.000000</ele>
        <time>2010-01-01T01:35:35Z</time>
      </trkpt>
      <trkpt lat="37.73371740" lon="-8.79576827">
        <ele>18.000000</ele>
        <time>2010-01-01T01:35:55Z</time>
      </trkpt>
      <trkpt lat="37.73381560" lon="-8.79516419">
        <ele>23.000000</ele>
        <time>2010-01-01T01:36:16Z</time>
      </trkpt>
      <trkpt lat="37.73337030" lon="-8.79478775">
        <ele>22.000000</ele>
        <time>2010-01-01T01:36:28Z</time>
      </trkpt>
      <trkpt lat="37.73316320" lon="-8.79453538">
        <ele>22.000000</ele>
        <time>2010-01-01T01:36:42Z</time>
      </trkpt>
      <trkpt lat="37.73283060" lon="-8.79440051">
        <ele>21.000000</ele>
        <time>2010-01-01T01:37:19Z</time>
      </trkpt>
      <trkpt lat="37.73201870" lon="-8.79379735">
        <ele>22.000000</ele>
        <time>2010-01-01T01:37:32Z</time>
      </trkpt>
      <trkpt lat="37.73173630" lon="-8.79366357">
        <ele>22.000000</ele>
        <time>2010-01-01T01:37:45Z</time>
      </trkpt>
      <trkpt lat="37.73152970" lon="-8.79334406">
        <ele>22.000000</ele>
        <time>2010-01-01T01:38:03Z</time>
      </trkpt>
      <trkpt lat="37.73110410" lon="-8.79311448">
        <ele>22.000000</ele>
        <time>2010-01-01T01:39:39Z</time>
      </trkpt>
      <trkpt lat="37.72916360" lon="-8.79136291">
        <ele>21.000000</ele>
        <time>2010-01-01T01:39:51Z</time>
      </trkpt>
      <trkpt lat="37.72885300" lon="-8.79126132">
        <ele>21.000000</ele>
        <time>2010-01-01T01:40:46Z</time>
      </trkpt>
      <trkpt lat="37.72785090" lon="-8.79244560">
        <ele>19.000000</ele>
        <time>2010-01-01T01:40:53Z</time>
      </trkpt>
      <trkpt lat="37.72769300" lon="-8.79254384">
        <ele>18.000000</ele>
        <time>2010-01-01T01:41:10Z</time>
      </trkpt>
      <trkpt lat="37.72740580" lon="-8.79293787">
        <ele>14.000000</ele>
        <time>2010-01-01T01:41:20Z</time>
      </trkpt>
      <trkpt lat="37.72718360" lon="-8.79308128">
        <ele>11.000000</ele>
        <time>2010-01-01T01:41:27Z</time>
      </trkpt>
      <trkpt lat="37.72702890" lon="-8.79306418">
        <ele>12.000000</ele>
        <time>2010-01-01T01:41:32Z</time>
      </trkpt>
      <trkpt lat="37.72694260" lon="-8.79320416">
        <ele>9.0000000</ele>
        <time>2010-01-01T01:41:37Z</time>
      </trkpt>
      <trkpt lat="37.72688070" lon="-8.79308438">
        <ele>11.000000</ele>
        <time>2010-01-01T01:41:50Z</time>
      </trkpt>
      <trkpt lat="37.72655850" lon="-8.79307097">
        <ele>7.0000000</ele>
        <time>2010-01-01T01:41:56Z</time>
      </trkpt>
      <trkpt lat="37.72667990" lon="-8.79296511">
        <ele>9.0000000</ele>
        <time>2010-01-01T01:42:13Z</time>
      </trkpt>
      <trkpt lat="37.72668340" lon="-8.79242247">
        <ele>15.000000</ele>
        <time>2010-01-01T01:42:29Z</time>
      </trkpt>
      <trkpt lat="37.72679310" lon="-8.79194059">
        <ele>18.000000</ele>
        <time>2010-01-01T01:42:47Z</time>
      </trkpt>
      <trkpt lat="37.72675590" lon="-8.79136936">
        <ele>19.000000</ele>
        <time>2010-01-01T01:43:38Z</time>
      </trkpt>
      <trkpt lat="37.72624330" lon="-8.78988535">
        <ele>20.000000</ele>
        <time>2010-01-01T01:43:55Z</time>
      </trkpt>
      <trkpt lat="37.72594040" lon="-8.78952819">
        <ele>19.000000</ele>
        <time>2010-01-01T01:45:07Z</time>
      </trkpt>
      <trkpt lat="37.72448120" lon="-8.78817921">
        <ele>18.000000</ele>
        <time>2010-01-01T01:45:33Z</time>
      </trkpt>
      <trkpt lat="37.72404780" lon="-8.78757714">
        <ele>16.000000</ele>
        <time>2010-01-01T01:45:49Z</time>
      </trkpt>
      <trkpt lat="37.72372210" lon="-8.78725653">
        <ele>15.000000</ele>
        <time>2010-01-01T01:46:12Z</time>
      </trkpt>
      <trkpt lat="37.72347070" lon="-8.78661691">
        <ele>14.000000</ele>
        <time>2010-01-01T01:46:25Z</time>
      </trkpt>
      <trkpt lat="37.72327030" lon="-8.78627258">
        <ele>12.000000</ele>
        <time>2010-01-01T01:47:01Z</time>
      </trkpt>
      <trkpt lat="37.72347940" lon="-8.78516533">
        <ele>15.000000</ele>
        <time>2010-01-01T01:47:21Z</time>
      </trkpt>
      <trkpt lat="37.72347800" lon="-8.78456292">
        <ele>11.000000</ele>
        <time>2010-01-01T01:47:44Z</time>
      </trkpt>
      <trkpt lat="37.72336450" lon="-8.78382070">
        <ele>12.000000</ele>
        <time>2010-01-01T01:48:17Z</time>
      </trkpt>
      <trkpt lat="37.72293000" lon="-8.78295896">
        <ele>14.000000</ele>
        <time>2010-01-01T01:48:32Z</time>
      </trkpt>
      <trkpt lat="37.72304750" lon="-8.78250508">
        <ele>17.000000</ele>
        <time>2010-01-01T01:48:40Z</time>
      </trkpt>
      <trkpt lat="37.72291720" lon="-8.78232345">
        <ele>16.000000</ele>
        <time>2010-01-01T01:48:48Z</time>
      </trkpt>
      <trkpt lat="37.72285070" lon="-8.78207023">
        <ele>16.000000</ele>
        <time>2010-01-01T01:49:20Z</time>
      </trkpt>
      <trkpt lat="37.72363400" lon="-8.78194928">
        <ele>22.000000</ele>
        <time>2010-01-01T01:50:11Z</time>
      </trkpt>
      <trkpt lat="37.72480770" lon="-8.78127252">
        <ele>27.000000</ele>
        <time>2010-01-01T01:50:44Z</time>
      </trkpt>
      <trkpt lat="37.72546180" lon="-8.78067908">
        <ele>31.000000</ele>
        <time>2010-01-01T01:52:01Z</time>
      </trkpt>
      <trkpt lat="37.72693770" lon="-8.77910127">
        <ele>34.000000</ele>
        <time>2010-01-01T01:52:05Z</time>
      </trkpt>
      <trkpt lat="37.72702390" lon="-8.77906775">
        <ele>34.000000</ele>
        <time>2010-01-01T01:52:28Z</time>
      </trkpt>
      <trkpt lat="37.72743240" lon="-8.77853030">
        <ele>34.000000</ele>
        <time>2010-01-01T01:53:11Z</time>
      </trkpt>
      <trkpt lat="37.72824540" lon="-8.77767082">
        <ele>36.000000</ele>
        <time>2010-01-01T01:53:15Z</time>
      </trkpt>
      <trkpt lat="37.72835120" lon="-8.77767660">
        <ele>36.000000</ele>
        <time>2010-01-01T01:53:17Z</time>
      </trkpt>
      <trkpt lat="37.72835550" lon="-8.77773963">
        <ele>36.000000</ele>
        <time>2010-01-01T01:53:27Z</time>
      </trkpt>
      <trkpt lat="37.72841350" lon="-8.77742414">
        <ele>36.000000</ele>
        <time>2010-01-01T01:55:40Z</time>
      </trkpt>
      <trkpt lat="37.73090620" lon="-8.77465350">
        <ele>39.000000</ele>
        <time>2010-01-01T01:55:42Z</time>
      </trkpt>
      <trkpt lat="37.73096930" lon="-8.77466197">
        <ele>39.000000</ele>
        <time>2010-01-01T01:55:55Z</time>
      </trkpt>
      <trkpt lat="37.73088560" lon="-8.77504745">
        <ele>40.000000</ele>
        <time>2010-01-01T01:56:03Z</time>
      </trkpt>
      <trkpt lat="37.73094290" lon="-8.77529128">
        <ele>41.000000</ele>
        <time>2010-01-01T01:56:09Z</time>
      </trkpt>
      <trkpt lat="37.73083760" lon="-8.77517175">
        <ele>40.000000</ele>
        <time>2010-01-01T01:56:24Z</time>
      </trkpt>
      <trkpt lat="37.73098750" lon="-8.77473263">
        <ele>40.000000</ele>
        <time>2010-01-01T01:57:19Z</time>
      </trkpt>
      <trkpt lat="37.73199700" lon="-8.77355371">
        <ele>42.000000</ele>
        <time>2010-01-01T01:58:16Z</time>
      </trkpt>
      <trkpt lat="37.73310250" lon="-8.77241713">
        <ele>45.000000</ele>
        <time>2010-01-01T01:58:24Z</time>
      </trkpt>
      <trkpt lat="37.73319240" lon="-8.77220766">
        <ele>45.000000</ele>
        <time>2010-01-01T01:58:37Z</time>
      </trkpt>
      <trkpt lat="37.73306110" lon="-8.77182394">
        <ele>43.000000</ele>
        <time>2010-01-01T01:58:51Z</time>
      </trkpt>
      <trkpt lat="37.73271060" lon="-8.77177029">
        <ele>42.000000</ele>
        <time>2010-01-01T01:59:33Z</time>
      </trkpt>
      <trkpt lat="37.73166610" lon="-8.77194531">
        <ele>38.000000</ele>
        <time>2010-01-01T01:59:57Z</time>
      </trkpt>
      <trkpt lat="37.73107410" lon="-8.77195478">
        <ele>34.000000</ele>
        <time>2010-01-01T02:00:56Z</time>
      </trkpt>
      <trkpt lat="37.72963270" lon="-8.77158782">
        <ele>31.000000</ele>
        <time>2010-01-01T02:04:56Z</time>
      </trkpt>
      <trkpt lat="37.72412970" lon="-8.76858207">
        <ele>29.000000</ele>
        <time>2010-01-01T02:06:10Z</time>
      </trkpt>
      <trkpt lat="37.72239740" lon="-8.76773541">
        <ele>28.000000</ele>
        <time>2010-01-01T02:06:49Z</time>
      </trkpt>
      <trkpt lat="37.72146130" lon="-8.76737164">
        <ele>34.000000</ele>
        <time>2010-01-01T02:08:01Z</time>
      </trkpt>
      <trkpt lat="37.71971740" lon="-8.76688457">
        <ele>49.000000</ele>
        <time>2010-01-01T02:08:57Z</time>
      </trkpt>
      <trkpt lat="37.71832230" lon="-8.76664971">
        <ele>54.000000</ele>
        <time>2010-01-01T02:09:50Z</time>
      </trkpt>
      <trkpt lat="37.71700270" lon="-8.76654619">
        <ele>54.000000</ele>
        <time>2010-01-01T02:09:56Z</time>
      </trkpt>
      <trkpt lat="37.71687280" lon="-8.76643949">
        <ele>54.000000</ele>
        <time>2010-01-01T02:10:19Z</time>
      </trkpt>
      <trkpt lat="37.71629870" lon="-8.76634930">
        <ele>55.000000</ele>
        <time>2010-01-01T02:10:47Z</time>
      </trkpt>
      <trkpt lat="37.71564370" lon="-8.76605191">
        <ele>53.000000</ele>
        <time>2010-01-01T02:11:13Z</time>
      </trkpt>
      <trkpt lat="37.71514620" lon="-8.76552293">
        <ele>55.000000</ele>
        <time>2010-01-01T02:12:29Z</time>
      </trkpt>
      <trkpt lat="37.71385230" lon="-8.76375988">
        <ele>61.000000</ele>
        <time>2010-01-01T02:13:02Z</time>
      </trkpt>
      <trkpt lat="37.71317020" lon="-8.76320684">
        <ele>62.000000</ele>
        <time>2010-01-01T02:13:28Z</time>
      </trkpt>
      <trkpt lat="37.71256450" lon="-8.76288430">
        <ele>62.000000</ele>
        <time>2010-01-01T02:13:52Z</time>
      </trkpt>
      <trkpt lat="37.71204950" lon="-8.76251709">
        <ele>62.000000</ele>
        <time>2010-01-01T02:15:19Z</time>
      </trkpt>
      <trkpt lat="37.71031060" lon="-8.76087198">
        <ele>64.000000</ele>
        <time>2010-01-01T02:15:51Z</time>
      </trkpt>
      <trkpt lat="37.70961130" lon="-8.76033553">
        <ele>66.000000</ele>
        <time>2010-01-01T02:17:48Z</time>
      </trkpt>
      <trkpt lat="37.70704330" lon="-8.75857818">
        <ele>63.000000</ele>
        <time>2010-01-01T02:19:31Z</time>
      </trkpt>
      <trkpt lat="37.70463050" lon="-8.75752517">
        <ele>57.000000</ele>
        <time>2010-01-01T02:20:43Z</time>
      </trkpt>
      <trkpt lat="37.70284460" lon="-8.75724907">
        <ele>57.000000</ele>
        <time>2010-01-01T02:22:14Z</time>
      </trkpt>
      <trkpt lat="37.70076370" lon="-8.75603025">
        <ele>58.000000</ele>
        <time>2010-01-01T02:23:17Z</time>
      </trkpt>
      <trkpt lat="37.69926340" lon="-8.75551359">
        <ele>56.000000</ele>
        <time>2010-01-01T02:23:27Z</time>
      </trkpt>
      <trkpt lat="37.69911960" lon="-8.75524126">
        <ele>56.000000</ele>
        <time>2010-01-01T02:24:29Z</time>
      </trkpt>
      <trkpt lat="37.69914990" lon="-8.75329105">
        <ele>54.000000</ele>
        <time>2010-01-01T02:25:11Z</time>
      </trkpt>
      <trkpt lat="37.69863450" lon="-8.75213862">
        <ele>53.000000</ele>
        <time>2010-01-01T02:25:22Z</time>
      </trkpt>
      <trkpt lat="37.69844290" lon="-8.75187568">
        <ele>53.000000</ele>
        <time>2010-01-01T02:26:24Z</time>
      </trkpt>
      <trkpt lat="37.69699730" lon="-8.75113455">
        <ele>54.000000</ele>
        <time>2010-01-01T02:26:55Z</time>
      </trkpt>
      <trkpt lat="37.69623440" lon="-8.75096742">
        <ele>53.000000</ele>
        <time>2010-01-01T02:27:26Z</time>
      </trkpt>
      <trkpt lat="37.69547330" lon="-8.75088846">
        <ele>53.000000</ele>
        <time>2010-01-01T02:27:54Z</time>
      </trkpt>
      <trkpt lat="37.69477460" lon="-8.75096767">
        <ele>56.000000</ele>
        <time>2010-01-01T02:28:32Z</time>
      </trkpt>
      <trkpt lat="37.69387780" lon="-8.75132834">
        <ele>56.000000</ele>
        <time>2010-01-01T02:29:11Z</time>
      </trkpt>
      <trkpt lat="37.69290980" lon="-8.75141861">
        <ele>56.000000</ele>
        <time>2010-01-01T02:29:25Z</time>
      </trkpt>
      <trkpt lat="37.69259710" lon="-8.75122013">
        <ele>56.000000</ele>
        <time>2010-01-01T02:29:57Z</time>
      </trkpt>
      <trkpt lat="37.69205970" lon="-8.75044221">
        <ele>54.000000</ele>
        <time>2010-01-01T02:30:07Z</time>
      </trkpt>
      <trkpt lat="37.69183610" lon="-8.75030927">
        <ele>54.000000</ele>
        <time>2010-01-01T02:31:16Z</time>
      </trkpt>
      <trkpt lat="37.69014130" lon="-8.74989034">
        <ele>61.000000</ele>
        <time>2010-01-01T02:31:23Z</time>
      </trkpt>
      <trkpt lat="37.68998480" lon="-8.74989747">
        <ele>61.000000</ele>
        <time>2010-01-01T02:31:46Z</time>
      </trkpt>
      <trkpt lat="37.68941570" lon="-8.74969580">
        <ele>56.000000</ele>
        <time>2010-01-01T02:32:51Z</time>
      </trkpt>
      <trkpt lat="37.68796060" lon="-8.74881872">
        <ele>56.000000</ele>
        <time>2010-01-01T02:33:20Z</time>
      </trkpt>
      <trkpt lat="37.68726990" lon="-8.74848461">
        <ele>56.000000</ele>
        <time>2010-01-01T02:36:01Z</time>
      </trkpt>
      <trkpt lat="37.68330510" lon="-8.74780140">
        <ele>52.000000</ele>
        <time>2010-01-01T02:36:14Z</time>
      </trkpt>
      <trkpt lat="37.68302700" lon="-8.74756730">
        <ele>52.000000</ele>
        <time>2010-01-01T02:36:23Z</time>
      </trkpt>
      <trkpt lat="37.68280400" lon="-8.74759504">
        <ele>53.000000</ele>
        <time>2010-01-01T02:37:05Z</time>
      </trkpt>
      <trkpt lat="37.68293120" lon="-8.74891796">
        <ele>56.000000</ele>
        <time>2010-01-01T02:37:18Z</time>
      </trkpt>
      <trkpt lat="37.68288470" lon="-8.74930470">
        <ele>57.000000</ele>
        <time>2010-01-01T02:38:46Z</time>
      </trkpt>
      <trkpt lat="37.68181860" lon="-8.75175607">
        <ele>53.000000</ele>
        <time>2010-01-01T02:39:03Z</time>
      </trkpt>
      <trkpt lat="37.68142540" lon="-8.75190543">
        <ele>52.000000</ele>
        <time>2010-01-01T02:41:02Z</time>
      </trkpt>
      <trkpt lat="37.67849700" lon="-8.75253969">
        <ele>54.000000</ele>
        <time>2010-01-01T02:41:15Z</time>
      </trkpt>
      <trkpt lat="37.67820130" lon="-8.75276919">
        <ele>53.000000</ele>
        <time>2010-01-01T02:41:17Z</time>
      </trkpt>
      <trkpt lat="37.67821420" lon="-8.75282979">
        <ele>53.000000</ele>
        <time>2010-01-01T02:43:23Z</time>
      </trkpt>
      <trkpt lat="37.67548450" lon="-8.75480909">
        <ele>56.000000</ele>
        <time>2010-01-01T02:43:33Z</time>
      </trkpt>
      <trkpt lat="37.67524810" lon="-8.75481337">
        <ele>59.000000</ele>
        <time>2010-01-01T02:43:49Z</time>
      </trkpt>
      <trkpt lat="37.67487870" lon="-8.75465311">
        <ele>59.000000</ele>
        <time>2010-01-01T02:44:25Z</time>
      </trkpt>
      <trkpt lat="37.67397810" lon="-8.75442042">
        <ele>55.000000</ele>
        <time>2010-01-01T02:46:08Z</time>
      </trkpt>
      <trkpt lat="37.67150450" lon="-8.75352096">
        <ele>57.000000</ele>
        <time>2010-01-01T02:46:11Z</time>
      </trkpt>
      <trkpt lat="37.67145780" lon="-8.75344293">
        <ele>57.000000</ele>
        <time>2010-01-01T02:48:07Z</time>
      </trkpt>
      <trkpt lat="37.66859080" lon="-8.75314101">
        <ele>56.000000</ele>
        <time>2010-01-01T02:48:08Z</time>
      </trkpt>
      <trkpt lat="37.66856930" lon="-8.75309424">
        <ele>56.000000</ele>
        <time>2010-01-01T02:49:15Z</time>
      </trkpt>
      <trkpt lat="37.66691170" lon="-8.75287514">
        <ele>60.000000</ele>
        <time>2010-01-01T02:49:22Z</time>
      </trkpt>
      <trkpt lat="37.66674920" lon="-8.75276458">
        <ele>60.000000</ele>
        <time>2010-01-01T02:49:56Z</time>
      </trkpt>
      <trkpt lat="37.66627150" lon="-8.75191164">
        <ele>60.000000</ele>
        <time>2010-01-01T02:50:02Z</time>
      </trkpt>
      <trkpt lat="37.66610160" lon="-8.75189672">
        <ele>60.000000</ele>
        <time>2010-01-01T02:51:43Z</time>
      </trkpt>
      <trkpt lat="37.66424850" lon="-8.75403150">
        <ele>56.000000</ele>
        <time>2010-01-01T02:52:04Z</time>
      </trkpt>
      <trkpt lat="37.66380680" lon="-8.75442872">
        <ele>59.000000</ele>
        <time>2010-01-01T02:53:46Z</time>
      </trkpt>
      <trkpt lat="37.66192850" lon="-8.75657072">
        <ele>59.000000</ele>
        <time>2010-01-01T02:55:14Z</time>
      </trkpt>
      <trkpt lat="37.66023900" lon="-8.75838180">
        <ele>58.000000</ele>
        <time>2010-01-01T02:55:44Z</time>
      </trkpt>
      <trkpt lat="37.65970780" lon="-8.75903693">
        <ele>57.000000</ele>
        <time>2010-01-01T02:56:03Z</time>
      </trkpt>
      <trkpt lat="37.65943310" lon="-8.75952836">
        <ele>61.000000</ele>
        <time>2010-01-01T02:58:26Z</time>
      </trkpt>
      <trkpt lat="37.65587350" lon="-8.75965383">
        <ele>49.000000</ele>
        <time>2010-01-01T02:58:32Z</time>
      </trkpt>
      <trkpt lat="37.65572670" lon="-8.75968426">
        <ele>49.000000</ele>
        <time>2010-01-01T02:58:43Z</time>
      </trkpt>
      <trkpt lat="37.65555830" lon="-8.75998140">
        <ele>48.000000</ele>
        <time>2010-01-01T03:00:18Z</time>
      </trkpt>
      <trkpt lat="37.65585610" lon="-8.76294910">
        <ele>50.000000</ele>
        <time>2010-01-01T03:03:14Z</time>
      </trkpt>
      <trkpt lat="37.65674330" lon="-8.76838367">
        <ele>42.000000</ele>
        <time>2010-01-01T03:03:44Z</time>
      </trkpt>
      <trkpt lat="37.65676230" lon="-8.76932404">
        <ele>42.000000</ele>
        <time>2010-01-01T03:06:06Z</time>
      </trkpt>
      <trkpt lat="37.65635020" lon="-8.77376644">
        <ele>32.000000</ele>
        <time>2010-01-01T03:09:07Z</time>
      </trkpt>
      <trkpt lat="37.65633860" lon="-8.77949439">
        <ele>34.000000</ele>
        <time>2010-01-01T03:12:03Z</time>
      </trkpt>
      <trkpt lat="37.65563310" lon="-8.78497548">
        <ele>29.000000</ele>
        <time>2010-01-01T03:13:51Z</time>
      </trkpt>
      <trkpt lat="37.65543770" lon="-8.78837300">
        <ele>22.000000</ele>
        <time>2010-01-01T03:14:07Z</time>
      </trkpt>
      <trkpt lat="37.65525720" lon="-8.78883317">
        <ele>21.000000</ele>
        <time>2010-01-01T03:14:16Z</time>
      </trkpt>
      <trkpt lat="37.65510660" lon="-8.78904615">
        <ele>20.000000</ele>
        <time>2010-01-01T03:14:48Z</time>
      </trkpt>
      <trkpt lat="37.65447630" lon="-8.78966088">
        <ele>18.000000</ele>
        <time>2010-01-01T03:15:08Z</time>
      </trkpt>
      <trkpt lat="37.65416420" lon="-8.79015801">
        <ele>18.000000</ele>
        <time>2010-01-01T03:16:13Z</time>
      </trkpt>
      <trkpt lat="37.65332790" lon="-8.79189273">
        <ele>26.000000</ele>
        <time>2010-01-01T03:16:16Z</time>
      </trkpt>
      <trkpt lat="37.65341120" lon="-8.79192148">
        <ele>26.000000</ele>
        <time>2010-01-01T03:16:27Z</time>
      </trkpt>
      <trkpt lat="37.65359350" lon="-8.79166583">
        <ele>27.000000</ele>
        <time>2010-01-01T03:16:29Z</time>
      </trkpt>
      <trkpt lat="37.65357870" lon="-8.79171646">
        <ele>27.000000</ele>
        <time>2010-01-01T03:16:37Z</time>
      </trkpt>
      <trkpt lat="37.65342790" lon="-8.79191016">
        <ele>26.000000</ele>
        <time>2010-01-01T03:16:43Z</time>
      </trkpt>
      <trkpt lat="37.65329790" lon="-8.79193799">
        <ele>26.000000</ele>
        <time>2010-01-01T03:17:14Z</time>
      </trkpt>
      <trkpt lat="37.65293000" lon="-8.79279504">
        <ele>28.000000</ele>
        <time>2010-01-01T03:18:23Z</time>
      </trkpt>
      <trkpt lat="37.65126190" lon="-8.79216849">
        <ele>31.000000</ele>
        <time>2010-01-01T03:18:47Z</time>
      </trkpt>
      <trkpt lat="37.65072640" lon="-8.79183582">
        <ele>32.000000</ele>
        <time>2010-01-01T03:21:45Z</time>
      </trkpt>
      <trkpt lat="37.64693470" lon="-8.78891531">
        <ele>37.000000</ele>
        <time>2010-01-01T03:22:18Z</time>
      </trkpt>
      <trkpt lat="37.64617920" lon="-8.78846244">
        <ele>39.000000</ele>
        <time>2010-01-01T03:25:55Z</time>
      </trkpt>
      <trkpt lat="37.64117760" lon="-8.78585323">
        <ele>44.000000</ele>
        <time>2010-01-01T03:27:41Z</time>
      </trkpt>
      <trkpt lat="37.63879710" lon="-8.78436645">
        <ele>46.000000</ele>
        <time>2010-01-01T03:28:10Z</time>
      </trkpt>
      <trkpt lat="37.63812470" lon="-8.78406780">
        <ele>49.000000</ele>
        <time>2010-01-01T03:28:38Z</time>
      </trkpt>
      <trkpt lat="37.63743030" lon="-8.78401391">
        <ele>51.000000</ele>
        <time>2010-01-01T03:32:01Z</time>
      </trkpt>
      <trkpt lat="37.63234590" lon="-8.78397024">
        <ele>51.000000</ele>
        <time>2010-01-01T03:34:05Z</time>
      </trkpt>
      <trkpt lat="37.62929200" lon="-8.78340664">
        <ele>54.000000</ele>
        <time>2010-01-01T03:40:25Z</time>
      </trkpt>
      <trkpt lat="37.61983680" lon="-8.78240861">
        <ele>59.000000</ele>
        <time>2010-01-01T03:40:36Z</time>
      </trkpt>
      <trkpt lat="37.61959460" lon="-8.78257373">
        <ele>59.000000</ele>
        <time>2010-01-01T03:44:08Z</time>
      </trkpt>
      <trkpt lat="37.61616350" lon="-8.78768166">
        <ele>64.000000</ele>
        <time>2010-01-01T03:46:02Z</time>
      </trkpt>
      <trkpt lat="37.61418390" lon="-8.79027108">
        <ele>61.000000</ele>
        <time>2010-01-01T03:50:39Z</time>
      </trkpt>
      <trkpt lat="37.60901480" lon="-8.79606918">
        <ele>63.000000</ele>
        <time>2010-01-01T03:51:42Z</time>
      </trkpt>
      <trkpt lat="37.60778480" lon="-8.79732647">
        <ele>63.000000</ele>
        <time>2010-01-01T03:58:44Z</time>
      </trkpt>
      <trkpt lat="37.59944020" lon="-8.80544920">
        <ele>47.000000</ele>
        <time>2010-01-01T03:58:57Z</time>
      </trkpt>
      <trkpt lat="37.59912750" lon="-8.80553453">
        <ele>47.000000</ele>
        <time>2010-01-01T03:59:07Z</time>
      </trkpt>
      <trkpt lat="37.59887270" lon="-8.80549195">
        <ele>47.000000</ele>
        <time>2010-01-01T03:59:18Z</time>
      </trkpt>
      <trkpt lat="37.59864450" lon="-8.80567375">
        <ele>47.000000</ele>
        <time>2010-01-01T04:01:00Z</time>
      </trkpt>
      <trkpt lat="37.59781710" lon="-8.80870280">
        <ele>47.000000</ele>
        <time>2010-01-01T04:02:13Z</time>
      </trkpt>
      <trkpt lat="37.59832390" lon="-8.81092443">
        <ele>46.000000</ele>
        <time>2010-01-01T04:02:44Z</time>
      </trkpt>
      <trkpt lat="37.59845610" lon="-8.81187787">
        <ele>47.000000</ele>
        <time>2010-01-01T04:04:34Z</time>
      </trkpt>
      <trkpt lat="37.59858600" lon="-8.81533976">
        <ele>49.000000</ele>
        <time>2010-01-01T04:04:41Z</time>
      </trkpt>
      <trkpt lat="37.59869420" lon="-8.81551687">
        <ele>48.000000</ele>
        <time>2010-01-01T04:04:52Z</time>
      </trkpt>
      <trkpt lat="37.59896570" lon="-8.81556088">
        <ele>47.000000</ele>
        <time>2010-01-01T04:05:43Z</time>
      </trkpt>
      <trkpt lat="37.60024080" lon="-8.81531923">
        <ele>46.000000</ele>
        <time>2010-01-01T04:05:55Z</time>
      </trkpt>
      <trkpt lat="37.60052280" lon="-8.81542040">
        <ele>46.000000</ele>
        <time>2010-01-01T04:06:07Z</time>
      </trkpt>
      <trkpt lat="37.60068490" lon="-8.81573069">
        <ele>44.000000</ele>
        <time>2010-01-01T04:06:29Z</time>
      </trkpt>
      <trkpt lat="37.60073370" lon="-8.81643964">
        <ele>40.000000</ele>
        <time>2010-01-01T04:06:41Z</time>
      </trkpt>
      <trkpt lat="37.60060850" lon="-8.81677139">
        <ele>37.000000</ele>
        <time>2010-01-01T04:06:50Z</time>
      </trkpt>
      <trkpt lat="37.60064740" lon="-8.81705495">
        <ele>32.000000</ele>
        <time>2010-01-01T04:07:11Z</time>
      </trkpt>
      <trkpt lat="37.60101570" lon="-8.81750875">
        <ele>17.000000</ele>
        <time>2010-01-01T04:07:27Z</time>
      </trkpt>
      <trkpt lat="37.60118090" lon="-8.81798635">
        <ele>4.0000000</ele>
        <time>2010-01-01T04:07:32Z</time>
      </trkpt>
      <trkpt lat="37.60112600" lon="-8.81812113">
        <ele>3.0000000</ele>
        <time>2010-01-01T04:07:54Z</time>
      </trkpt>
      <trkpt lat="37.60097690" lon="-8.81745812">
        <ele>19.000000</ele>
        <time>2010-01-01T04:08:06Z</time>
      </trkpt>
      <trkpt lat="37.60069940" lon="-8.81726995">
        <ele>27.000000</ele>
        <time>2010-01-01T04:08:17Z</time>
      </trkpt>
      <trkpt lat="37.60043190" lon="-8.81731043">
        <ele>24.000000</ele>
        <time>2010-01-01T04:08:28Z</time>
      </trkpt>
      <trkpt lat="37.60017930" lon="-8.81743172">
        <ele>17.000000</ele>
        <time>2010-01-01T04:08:42Z</time>
      </trkpt>
      <trkpt lat="37.59984190" lon="-8.81731429">
        <ele>19.000000</ele>
        <time>2010-01-01T04:08:47Z</time>
      </trkpt>
      <trkpt lat="37.59975700" lon="-8.81721069">
        <ele>24.000000</ele>
        <time>2010-01-01T04:09:02Z</time>
      </trkpt>
      <trkpt lat="37.59941420" lon="-8.81702880">
        <ele>30.000000</ele>
        <time>2010-01-01T04:09:15Z</time>
      </trkpt>
      <trkpt lat="37.59912960" lon="-8.81726022">
        <ele>30.000000</ele>
        <time>2010-01-01T04:09:26Z</time>
      </trkpt>
      <trkpt lat="37.59896440" lon="-8.81751520">
        <ele>29.000000</ele>
        <time>2010-01-01T04:09:52Z</time>
      </trkpt>
      <trkpt lat="37.59869500" lon="-8.81826379">
        <ele>24.000000</ele>
        <time>2010-01-01T04:09:57Z</time>
      </trkpt>
      <trkpt lat="37.59871860" lon="-8.81842112">
        <ele>18.000000</ele>
        <time>2010-01-01T04:10:02Z</time>
      </trkpt>
      <trkpt lat="37.59864220" lon="-8.81855908">
        <ele>16.000000</ele>
        <time>2010-01-01T04:10:09Z</time>
      </trkpt>
      <trkpt lat="37.59848880" lon="-8.81843654">
        <ele>21.000000</ele>
        <time>2010-01-01T04:10:29Z</time>
      </trkpt>
      <trkpt lat="37.59802570" lon="-8.81828768">
        <ele>24.000000</ele>
        <time>2010-01-01T04:10:39Z</time>
      </trkpt>
      <trkpt lat="37.59778890" lon="-8.81812691">
        <ele>24.000000</ele>
        <time>2010-01-01T04:10:59Z</time>
      </trkpt>
      <trkpt lat="37.59741920" lon="-8.81769633">
        <ele>30.000000</ele>
        <time>2010-01-01T04:11:22Z</time>
      </trkpt>
      <trkpt lat="37.59712080" lon="-8.81709887">
        <ele>38.000000</ele>
        <time>2010-01-01T04:11:35Z</time>
      </trkpt>
      <trkpt lat="37.59681740" lon="-8.81698521">
        <ele>31.000000</ele>
        <time>2010-01-01T04:11:47Z</time>
      </trkpt>
      <trkpt lat="37.59649860" lon="-8.81700617">
        <ele>21.000000</ele>
        <time>2010-01-01T04:11:49Z</time>
      </trkpt>
      <trkpt lat="37.59647570" lon="-8.81696971">
        <ele>22.000000</ele>
        <time>2010-01-01T04:11:53Z</time>
      </trkpt>
      <trkpt lat="37.59658470" lon="-8.81698295">
        <ele>23.000000</ele>
        <time>2010-01-01T04:12:04Z</time>
      </trkpt>
      <trkpt lat="37.59667450" lon="-8.81666109">
        <ele>34.000000</ele>
        <time>2010-01-01T04:12:14Z</time>
      </trkpt>
      <trkpt lat="37.59653510" lon="-8.81640200">
        <ele>38.000000</ele>
        <time>2010-01-01T04:12:29Z</time>
      </trkpt>
      <trkpt lat="37.59618870" lon="-8.81619581">
        <ele>39.000000</ele>
        <time>2010-01-01T04:12:44Z</time>
      </trkpt>
      <trkpt lat="37.59582790" lon="-8.81630360">
        <ele>36.000000</ele>
        <time>2010-01-01T04:12:56Z</time>
      </trkpt>
      <trkpt lat="37.59557970" lon="-8.81649085">
        <ele>35.000000</ele>
        <time>2010-01-01T04:12:59Z</time>
      </trkpt>
      <trkpt lat="37.59549360" lon="-8.81648029">
        <ele>37.000000</ele>
        <time>2010-01-01T04:13:07Z</time>
      </trkpt>
      <trkpt lat="37.59534710" lon="-8.81663150">
        <ele>34.000000</ele>
        <time>2010-01-01T04:13:15Z</time>
      </trkpt>
      <trkpt lat="37.59530910" lon="-8.81689008">
        <ele>26.000000</ele>
        <time>2010-01-01T04:13:18Z</time>
      </trkpt>
      <trkpt lat="37.59525250" lon="-8.81681892">
        <ele>29.000000</ele>
        <time>2010-01-01T04:13:31Z</time>
      </trkpt>
      <trkpt lat="37.59531640" lon="-8.81643804">
        <ele>40.000000</ele>
        <time>2010-01-01T04:14:28Z</time>
      </trkpt>
      <trkpt lat="37.59394090" lon="-8.81593882">
        <ele>37.000000</ele>
        <time>2010-01-01T04:15:28Z</time>
      </trkpt>
      <trkpt lat="37.59246080" lon="-8.81567822">
        <ele>43.000000</ele>
        <time>2010-01-01T04:15:41Z</time>
      </trkpt>
      <trkpt lat="37.59220920" lon="-8.81594644">
        <ele>30.000000</ele>
        <time>2010-01-01T04:15:53Z</time>
      </trkpt>
      <trkpt lat="37.59196410" lon="-8.81574419">
        <ele>32.000000</ele>
        <time>2010-01-01T04:16:27Z</time>
      </trkpt>
      <trkpt lat="37.59133520" lon="-8.81502636">
        <ele>36.000000</ele>
        <time>2010-01-01T04:16:35Z</time>
      </trkpt>
      <trkpt lat="37.59113680" lon="-8.81497280">
        <ele>27.000000</ele>
        <time>2010-01-01T04:17:01Z</time>
      </trkpt>
      <trkpt lat="37.59082690" lon="-8.81423712">
        <ele>39.000000</ele>
        <time>2010-01-01T04:17:55Z</time>
      </trkpt>
      <trkpt lat="37.58984820" lon="-8.81306550">
        <ele>39.000000</ele>
        <time>2010-01-01T04:18:32Z</time>
      </trkpt>
      <trkpt lat="37.58900510" lon="-8.81258195">
        <ele>39.000000</ele>
        <time>2010-01-01T04:19:04Z</time>
      </trkpt>
      <trkpt lat="37.58822080" lon="-8.81259452">
        <ele>30.000000</ele>
        <time>2010-01-01T04:19:31Z</time>
      </trkpt>
      <trkpt lat="37.58768990" lon="-8.81205230">
        <ele>43.000000</ele>
        <time>2010-01-01T04:19:51Z</time>
      </trkpt>
      <trkpt lat="37.58725010" lon="-8.81174359">
        <ele>37.000000</ele>
        <time>2010-01-01T04:20:07Z</time>
      </trkpt>
      <trkpt lat="37.58699260" lon="-8.81135031">
        <ele>42.000000</ele>
        <time>2010-01-01T04:20:25Z</time>
      </trkpt>
      <trkpt lat="37.58662430" lon="-8.81105577">
        <ele>40.000000</ele>
        <time>2010-01-01T04:20:50Z</time>
      </trkpt>
      <trkpt lat="37.58598870" lon="-8.81093222">
        <ele>33.000000</ele>
        <time>2010-01-01T04:21:41Z</time>
      </trkpt>
      <trkpt lat="37.58481650" lon="-8.81034314">
        <ele>39.000000</ele>
        <time>2010-01-01T04:21:52Z</time>
      </trkpt>
      <trkpt lat="37.58455130" lon="-8.81032462">
        <ele>41.000000</ele>
        <time>2010-01-01T04:22:02Z</time>
      </trkpt>
      <trkpt lat="37.58430110" lon="-8.81041858">
        <ele>41.000000</ele>
        <time>2010-01-01T04:22:22Z</time>
      </trkpt>
      <trkpt lat="37.58388770" lon="-8.81074816">
        <ele>43.000000</ele>
        <time>2010-01-01T04:22:42Z</time>
      </trkpt>
      <trkpt lat="37.58359220" lon="-8.81127848">
        <ele>43.000000</ele>
        <time>2010-01-01T04:23:07Z</time>
      </trkpt>
      <trkpt lat="37.58354750" lon="-8.81207107">
        <ele>39.000000</ele>
        <time>2010-01-01T04:23:35Z</time>
      </trkpt>
      <trkpt lat="37.58292420" lon="-8.81240593">
        <ele>35.000000</ele>
        <time>2010-01-01T04:23:39Z</time>
      </trkpt>
      <trkpt lat="37.58281660" lon="-8.81237584">
        <ele>34.000000</ele>
        <time>2010-01-01T04:23:56Z</time>
      </trkpt>
      <trkpt lat="37.58251550" lon="-8.81198859">
        <ele>37.000000</ele>
        <time>2010-01-01T04:24:11Z</time>
      </trkpt>
      <trkpt lat="37.58247040" lon="-8.81151460">
        <ele>43.000000</ele>
        <time>2010-01-01T04:24:22Z</time>
      </trkpt>
      <trkpt lat="37.58233860" lon="-8.81123288">
        <ele>44.000000</ele>
        <time>2010-01-01T04:24:36Z</time>
      </trkpt>
      <trkpt lat="37.58199590" lon="-8.81113397">
        <ele>42.000000</ele>
        <time>2010-01-01T04:24:41Z</time>
      </trkpt>
      <trkpt lat="37.58186470" lon="-8.81114898">
        <ele>42.000000</ele>
        <time>2010-01-01T04:24:59Z</time>
      </trkpt>
      <trkpt lat="37.58145900" lon="-8.81135936">
        <ele>39.000000</ele>
        <time>2010-01-01T04:25:19Z</time>
      </trkpt>
      <trkpt lat="37.58094120" lon="-8.81141251">
        <ele>19.000000</ele>
        <time>2010-01-01T04:25:24Z</time>
      </trkpt>
      <trkpt lat="37.58085990" lon="-8.81153471">
        <ele>14.000000</ele>
        <time>2010-01-01T04:25:30Z</time>
      </trkpt>
      <trkpt lat="37.58097920" lon="-8.81161786">
        <ele>18.000000</ele>
        <time>2010-01-01T04:25:38Z</time>
      </trkpt>
      <trkpt lat="37.58094750" lon="-8.81136582">
        <ele>19.000000</ele>
        <time>2010-01-01T04:26:06Z</time>
      </trkpt>
      <trkpt lat="37.58130360" lon="-8.81060424">
        <ele>35.000000</ele>
        <time>2010-01-01T04:26:21Z</time>
      </trkpt>
      <trkpt lat="37.58118550" lon="-8.81016997">
        <ele>35.000000</ele>
        <time>2010-01-01T04:26:56Z</time>
      </trkpt>
      <trkpt lat="37.58051330" lon="-8.80946715">
        <ele>37.000000</ele>
        <time>2010-01-01T04:27:10Z</time>
      </trkpt>
      <trkpt lat="37.58037810" lon="-8.80903657">
        <ele>35.000000</ele>
        <time>2010-01-01T04:27:17Z</time>
      </trkpt>
      <trkpt lat="37.58037850" lon="-8.80883515">
        <ele>37.000000</ele>
        <time>2010-01-01T04:27:27Z</time>
      </trkpt>
      <trkpt lat="37.58023600" lon="-8.80856358">
        <ele>37.000000</ele>
        <time>2010-01-01T04:27:37Z</time>
      </trkpt>
      <trkpt lat="37.58016840" lon="-8.80825236">
        <ele>38.000000</ele>
        <time>2010-01-01T04:28:07Z</time>
      </trkpt>
      <trkpt lat="37.58013170" lon="-8.80732566">
        <ele>45.000000</ele>
        <time>2010-01-01T04:28:39Z</time>
      </trkpt>
      <trkpt lat="37.58020590" lon="-8.80630005">
        <ele>48.000000</ele>
        <time>2010-01-01T04:29:03Z</time>
      </trkpt>
      <trkpt lat="37.58035200" lon="-8.80558004">
        <ele>50.000000</ele>
        <time>2010-01-01T04:29:08Z</time>
      </trkpt>
      <trkpt lat="37.58026350" lon="-8.80548591">
        <ele>50.000000</ele>
        <time>2010-01-01T04:31:11Z</time>
      </trkpt>
      <trkpt lat="37.57741610" lon="-8.80399997">
        <ele>49.000000</ele>
        <time>2010-01-01T04:33:31Z</time>
      </trkpt>
      <trkpt lat="37.57438490" lon="-8.80176125">
        <ele>50.000000</ele>
        <time>2010-01-01T04:33:51Z</time>
      </trkpt>
      <trkpt lat="37.57392070" lon="-8.80157198">
        <ele>50.000000</ele>
        <time>2010-01-01T04:34:39Z</time>
      </trkpt>
      <trkpt lat="37.57271830" lon="-8.80147601">
        <ele>47.000000</ele>
        <time>2010-01-01T04:35:20Z</time>
      </trkpt>
      <trkpt lat="37.57180630" lon="-8.80088131">
        <ele>48.000000</ele>
        <time>2010-01-01T04:35:42Z</time>
      </trkpt>
      <trkpt lat="37.57127260" lon="-8.80084510">
        <ele>47.000000</ele>
        <time>2010-01-01T04:36:23Z</time>
      </trkpt>
      <trkpt lat="37.57054610" lon="-8.79991899">
        <ele>50.000000</ele>
        <time>2010-01-01T04:36:32Z</time>
      </trkpt>
      <trkpt lat="37.57033500" lon="-8.79984187">
        <ele>49.000000</ele>
        <time>2010-01-01T04:36:39Z</time>
      </trkpt>
      <trkpt lat="37.57038750" lon="-8.80004958">
        <ele>49.000000</ele>
        <time>2010-01-01T04:36:49Z</time>
      </trkpt>
      <trkpt lat="37.57020260" lon="-8.80027832">
        <ele>47.000000</ele>
        <time>2010-01-01T04:37:26Z</time>
      </trkpt>
      <trkpt lat="37.56938940" lon="-8.80082574">
        <ele>42.000000</ele>
        <time>2010-01-01T04:37:37Z</time>
      </trkpt>
      <trkpt lat="37.56912080" lon="-8.80081325">
        <ele>43.000000</ele>
        <time>2010-01-01T04:37:55Z</time>
      </trkpt>
      <trkpt lat="37.56878150" lon="-8.80040891">
        <ele>49.000000</ele>
        <time>2010-01-01T04:38:42Z</time>
      </trkpt>
      <trkpt lat="37.56764630" lon="-8.80003608">
        <ele>43.000000</ele>
        <time>2010-01-01T04:38:50Z</time>
      </trkpt>
      <trkpt lat="37.56748680" lon="-8.79992184">
        <ele>38.000000</ele>
        <time>2010-01-01T04:39:06Z</time>
      </trkpt>
      <trkpt lat="37.56707350" lon="-8.79999602">
        <ele>23.000000</ele>
        <time>2010-01-01T04:39:28Z</time>
      </trkpt>
      <trkpt lat="37.56758070" lon="-8.79976543">
        <ele>43.000000</ele>
        <time>2010-01-01T04:39:46Z</time>
      </trkpt>
      <trkpt lat="37.56772320" lon="-8.79923125">
        <ele>51.000000</ele>
        <time>2010-01-01T04:40:02Z</time>
      </trkpt>
      <trkpt lat="37.56774310" lon="-8.79872063">
        <ele>50.000000</ele>
        <time>2010-01-01T04:40:20Z</time>
      </trkpt>
      <trkpt lat="37.56790880" lon="-8.79820112">
        <ele>54.000000</ele>
        <time>2010-01-01T04:40:41Z</time>
      </trkpt>
      <trkpt lat="37.56761260" lon="-8.79763433">
        <ele>50.000000</ele>
        <time>2010-01-01T04:41:08Z</time>
      </trkpt>
      <trkpt lat="37.56741240" lon="-8.79685230">
        <ele>51.000000</ele>
        <time>2010-01-01T04:41:32Z</time>
      </trkpt>
      <trkpt lat="37.56698040" lon="-8.79632500">
        <ele>53.000000</ele>
        <time>2010-01-01T04:41:45Z</time>
      </trkpt>
      <trkpt lat="37.56664940" lon="-8.79623455">
        <ele>53.000000</ele>
        <time>2010-01-01T04:41:52Z</time>
      </trkpt>
      <trkpt lat="37.56649030" lon="-8.79634645">
        <ele>51.000000</ele>
        <time>2010-01-01T04:42:04Z</time>
      </trkpt>
      <trkpt lat="37.56625230" lon="-8.79616272">
        <ele>56.000000</ele>
        <time>2010-01-01T04:42:27Z</time>
      </trkpt>
      <trkpt lat="37.56570910" lon="-8.79593239">
        <ele>58.000000</ele>
        <time>2010-01-01T04:42:53Z</time>
      </trkpt>
      <trkpt lat="37.56511020" lon="-8.79559242">
        <ele>57.000000</ele>
        <time>2010-01-01T04:43:25Z</time>
      </trkpt>
      <trkpt lat="37.56440080" lon="-8.79508883">
        <ele>56.000000</ele>
        <time>2010-01-01T04:46:24Z</time>
      </trkpt>
      <trkpt lat="37.56070760" lon="-8.79195668">
        <ele>51.000000</ele>
        <time>2010-01-01T04:47:49Z</time>
      </trkpt>
      <trkpt lat="37.55890510" lon="-8.79053134">
        <ele>44.000000</ele>
        <time>2010-01-01T04:48:01Z</time>
      </trkpt>
      <trkpt lat="37.55859020" lon="-8.79050544">
        <ele>41.000000</ele>
        <time>2010-01-01T04:48:11Z</time>
      </trkpt>
      <trkpt lat="37.55837540" lon="-8.79065028">
        <ele>40.000000</ele>
        <time>2010-01-01T04:48:31Z</time>
      </trkpt>
      <trkpt lat="37.55801410" lon="-8.79108983">
        <ele>36.000000</ele>
        <time>2010-01-01T04:48:45Z</time>
      </trkpt>
      <trkpt lat="37.55772760" lon="-8.79132251">
        <ele>36.000000</ele>
        <time>2010-01-01T04:48:56Z</time>
      </trkpt>
      <trkpt lat="37.55763500" lon="-8.79164177">
        <ele>37.000000</ele>
        <time>2010-01-01T04:49:12Z</time>
      </trkpt>
      <trkpt lat="37.55780870" lon="-8.79210437">
        <ele>33.000000</ele>
        <time>2010-01-01T04:49:20Z</time>
      </trkpt>
      <trkpt lat="37.55798590" lon="-8.79225491">
        <ele>25.000000</ele>
        <time>2010-01-01T04:49:26Z</time>
      </trkpt>
      <trkpt lat="37.55790160" lon="-8.79241107">
        <ele>30.000000</ele>
        <time>2010-01-01T04:50:06Z</time>
      </trkpt>
      <trkpt lat="37.55777850" lon="-8.79365125">
        <ele>26.000000</ele>
        <time>2010-01-01T04:50:10Z</time>
      </trkpt>
      <trkpt lat="37.55772850" lon="-8.79374412">
        <ele>24.000000</ele>
        <time>2010-01-01T04:50:27Z</time>
      </trkpt>
      <trkpt lat="37.55734760" lon="-8.79349350">
        <ele>29.000000</ele>
        <time>2010-01-01T04:50:40Z</time>
      </trkpt>
      <trkpt lat="37.55702080" lon="-8.79340298">
        <ele>31.000000</ele>
        <time>2010-01-01T04:50:51Z</time>
      </trkpt>
      <trkpt lat="37.55674890" lon="-8.79348068">
        <ele>27.000000</ele>
        <time>2010-01-01T04:51:12Z</time>
      </trkpt>
      <trkpt lat="37.55629360" lon="-8.79321103">
        <ele>31.000000</ele>
        <time>2010-01-01T04:51:16Z</time>
      </trkpt>
      <trkpt lat="37.55617950" lon="-8.79323073">
        <ele>32.000000</ele>
        <time>2010-01-01T04:51:39Z</time>
      </trkpt>
      <trkpt lat="37.55582140" lon="-8.79379659">
        <ele>29.000000</ele>
        <time>2010-01-01T04:51:43Z</time>
      </trkpt>
      <trkpt lat="37.55580590" lon="-8.79391939">
        <ele>26.000000</ele>
        <time>2010-01-01T04:51:55Z</time>
      </trkpt>
      <trkpt lat="37.55603020" lon="-8.79415626">
        <ele>14.000000</ele>
        <time>2010-01-01T04:51:57Z</time>
      </trkpt>
      <trkpt lat="37.55604750" lon="-8.79410413">
        <ele>14.000000</ele>
        <time>2010-01-01T04:51:59Z</time>
      </trkpt>
      <trkpt lat="37.55598250" lon="-8.79411754">
        <ele>16.000000</ele>
        <time>2010-01-01T04:52:13Z</time>
      </trkpt>
      <trkpt lat="37.55568230" lon="-8.79392526">
        <ele>28.000000</ele>
        <time>2010-01-01T04:52:18Z</time>
      </trkpt>
      <trkpt lat="37.55557000" lon="-8.79403565">
        <ele>29.000000</ele>
        <time>2010-01-01T04:52:36Z</time>
      </trkpt>
      <trkpt lat="37.55538450" lon="-8.79454979">
        <ele>21.000000</ele>
        <time>2010-01-01T04:52:41Z</time>
      </trkpt>
      <trkpt lat="37.55535260" lon="-8.79467938">
        <ele>19.000000</ele>
        <time>2010-01-01T04:53:00Z</time>
      </trkpt>
      <trkpt lat="37.55547340" lon="-8.79526921">
        <ele>2.0000000</ele>
        <time>2010-01-01T04:53:07Z</time>
      </trkpt>
      <trkpt lat="37.55565110" lon="-8.79530458">
        <ele>0.0000000</ele>
        <time>2010-01-01T04:53:24Z</time>
      </trkpt>
      <trkpt lat="37.55527330" lon="-8.79503879">
        <ele>11.000000</ele>
        <time>2010-01-01T04:53:34Z</time>
      </trkpt>
      <trkpt lat="37.55515940" lon="-8.79476546">
        <ele>17.000000</ele>
        <time>2010-01-01T04:53:52Z</time>
      </trkpt>
      <trkpt lat="37.55532570" lon="-8.79426456">
        <ele>28.000000</ele>
        <time>2010-01-01T04:54:14Z</time>
      </trkpt>
      <trkpt lat="37.55565970" lon="-8.79370305">
        <ele>32.000000</ele>
        <time>2010-01-01T04:54:31Z</time>
      </trkpt>
      <trkpt lat="37.55568860" lon="-8.79316242">
        <ele>35.000000</ele>
        <time>2010-01-01T04:54:40Z</time>
      </trkpt>
      <trkpt lat="37.55586910" lon="-8.79297148">
        <ele>35.000000</ele>
        <time>2010-01-01T04:55:10Z</time>
      </trkpt>
      <trkpt lat="37.55659700" lon="-8.79288230">
        <ele>35.000000</ele>
        <time>2010-01-01T04:55:36Z</time>
      </trkpt>
      <trkpt lat="37.55708860" lon="-8.79234854">
        <ele>37.000000</ele>
        <time>2010-01-01T04:56:14Z</time>
      </trkpt>
      <trkpt lat="37.55768110" lon="-8.79139074">
        <ele>36.000000</ele>
        <time>2010-01-01T04:56:30Z</time>
      </trkpt>
      <trkpt lat="37.55801080" lon="-8.79110952">
        <ele>36.000000</ele>
        <time>2010-01-01T04:56:44Z</time>
      </trkpt>
      <trkpt lat="37.55821090" lon="-8.79074558">
        <ele>40.000000</ele>
        <time>2010-01-01T04:57:00Z</time>
      </trkpt>
      <trkpt lat="37.55830180" lon="-8.79025097">
        <ele>43.000000</ele>
        <time>2010-01-01T04:57:25Z</time>
      </trkpt>
      <trkpt lat="37.55866530" lon="-8.78960598">
        <ele>45.000000</ele>
        <time>2010-01-01T04:57:47Z</time>
      </trkpt>
      <trkpt lat="37.55901960" lon="-8.78909133">
        <ele>48.000000</ele>
        <time>2010-01-01T04:58:23Z</time>
      </trkpt>
      <trkpt lat="37.55971420" lon="-8.78835976">
        <ele>53.000000</ele>
        <time>2010-01-01T04:59:28Z</time>
      </trkpt>
      <trkpt lat="37.56084680" lon="-8.78688337">
        <ele>58.000000</ele>
        <time>2010-01-01T05:00:26Z</time>
      </trkpt>
      <trkpt lat="37.56143750" lon="-8.78521545">
        <ele>61.000000</ele>
        <time>2010-01-01T05:02:23Z</time>
      </trkpt>
      <trkpt lat="37.56345860" lon="-8.78258127">
        <ele>61.000000</ele>
        <time>2010-01-01T05:02:27Z</time>
      </trkpt>
      <trkpt lat="37.56341860" lon="-8.78244758">
        <ele>61.000000</ele>
        <time>2010-01-01T05:02:39Z</time>
      </trkpt>
      <trkpt lat="37.56320440" lon="-8.78220962">
        <ele>60.000000</ele>
        <time>2010-01-01T05:02:55Z</time>
      </trkpt>
      <trkpt lat="37.56305760" lon="-8.78171945">
        <ele>60.000000</ele>
        <time>2010-01-01T05:03:07Z</time>
      </trkpt>
      <trkpt lat="37.56288030" lon="-8.78143270">
        <ele>59.000000</ele>
        <time>2010-01-01T05:03:21Z</time>
      </trkpt>
      <trkpt lat="37.56257580" lon="-8.78122684">
        <ele>59.000000</ele>
        <time>2010-01-01T05:03:37Z</time>
      </trkpt>
      <trkpt lat="37.56235260" lon="-8.78080406">
        <ele>60.000000</ele>
        <time>2010-01-01T05:04:28Z</time>
      </trkpt>
      <trkpt lat="37.56231200" lon="-8.77918107">
        <ele>63.000000</ele>
        <time>2010-01-01T05:04:37Z</time>
      </trkpt>
      <trkpt lat="37.56209810" lon="-8.77921108">
        <ele>63.000000</ele>
        <time>2010-01-01T05:05:48Z</time>
      </trkpt>
      <trkpt lat="37.56056380" lon="-8.78034054">
        <ele>60.000000</ele>
        <time>2010-01-01T05:05:59Z</time>
      </trkpt>
      <trkpt lat="37.56030920" lon="-8.78026686">
        <ele>60.000000</ele>
        <time>2010-01-01T05:06:50Z</time>
      </trkpt>
      <trkpt lat="37.56018500" lon="-8.77865955">
        <ele>62.000000</ele>
        <time>2010-01-01T05:06:58Z</time>
      </trkpt>
      <trkpt lat="37.56010010" lon="-8.77841446">
        <ele>63.000000</ele>
        <time>2010-01-01T05:07:31Z</time>
      </trkpt>
      <trkpt lat="37.55930620" lon="-8.77869358">
        <ele>61.000000</ele>
        <time>2010-01-01T05:08:50Z</time>
      </trkpt>
      <trkpt lat="37.55743440" lon="-8.77949690">
        <ele>55.000000</ele>
        <time>2010-01-01T05:09:07Z</time>
      </trkpt>
      <trkpt lat="37.55711410" lon="-8.77981399">
        <ele>55.000000</ele>
        <time>2010-01-01T05:14:21Z</time>
      </trkpt>
      <trkpt lat="37.55253230" lon="-8.78786724">
        <ele>42.000000</ele>
        <time>2010-01-01T05:14:52Z</time>
      </trkpt>
      <trkpt lat="37.55202090" lon="-8.78860199">
        <ele>40.000000</ele>
        <time>2010-01-01T05:17:03Z</time>
      </trkpt>
      <trkpt lat="37.54956850" lon="-8.79130189">
        <ele>36.000000</ele>
        <time>2010-01-01T05:17:15Z</time>
      </trkpt>
      <trkpt lat="37.54956380" lon="-8.79167681">
        <ele>35.000000</ele>
        <time>2010-01-01T05:17:28Z</time>
      </trkpt>
      <trkpt lat="37.54979060" lon="-8.79197185">
        <ele>35.000000</ele>
        <time>2010-01-01T05:17:43Z</time>
      </trkpt>
      <trkpt lat="37.55015290" lon="-8.79217671">
        <ele>32.000000</ele>
        <time>2010-01-01T05:18:00Z</time>
      </trkpt>
      <trkpt lat="37.55037900" lon="-8.79261349">
        <ele>19.000000</ele>
        <time>2010-01-01T05:18:10Z</time>
      </trkpt>
      <trkpt lat="37.55057070" lon="-8.79279655">
        <ele>11.000000</ele>
        <time>2010-01-01T05:18:21Z</time>
      </trkpt>
      <trkpt lat="37.55035270" lon="-8.79256571">
        <ele>21.000000</ele>
        <time>2010-01-01T05:18:32Z</time>
      </trkpt>
      <trkpt lat="37.55021240" lon="-8.79225416">
        <ele>30.000000</ele>
        <time>2010-01-01T05:19:02Z</time>
      </trkpt>
      <trkpt lat="37.54957970" lon="-8.79175770">
        <ele>35.000000</ele>
        <time>2010-01-01T05:19:49Z</time>
      </trkpt>
      <trkpt lat="37.54875440" lon="-8.79070711">
        <ele>38.000000</ele>
        <time>2010-01-01T05:19:57Z</time>
      </trkpt>
      <trkpt lat="37.54858630" lon="-8.79060460">
        <ele>40.000000</ele>
        <time>2010-01-01T05:20:20Z</time>
      </trkpt>
      <trkpt lat="37.54815430" lon="-8.79012767">
        <ele>42.000000</ele>
        <time>2010-01-01T05:26:27Z</time>
      </trkpt>
      <trkpt lat="37.53950010" lon="-8.78631415">
        <ele>46.000000</ele>
        <time>2010-01-01T05:27:56Z</time>
      </trkpt>
      <trkpt lat="37.53738970" lon="-8.78540002">
        <ele>46.000000</ele>
        <time>2010-01-01T05:28:03Z</time>
      </trkpt>
      <trkpt lat="37.53721600" lon="-8.78540019">
        <ele>47.000000</ele>
        <time>2010-01-01T05:28:59Z</time>
      </trkpt>
      <trkpt lat="37.53589180" lon="-8.78478806">
        <ele>49.000000</ele>
        <time>2010-01-01T05:30:05Z</time>
      </trkpt>
      <trkpt lat="37.53426290" lon="-8.78457977">
        <ele>49.000000</ele>
        <time>2010-01-01T05:31:20Z</time>
      </trkpt>
      <trkpt lat="37.53239540" lon="-8.78442135">
        <ele>47.000000</ele>
        <time>2010-01-01T05:32:03Z</time>
      </trkpt>
      <trkpt lat="37.53130560" lon="-8.78440291">
        <ele>45.000000</ele>
        <time>2010-01-01T05:32:08Z</time>
      </trkpt>
      <trkpt lat="37.53120560" lon="-8.78446133">
        <ele>44.000000</ele>
        <time>2010-01-01T05:32:13Z</time>
      </trkpt>
      <trkpt lat="37.53109040" lon="-8.78439788">
        <ele>44.000000</ele>
        <time>2010-01-01T05:34:27Z</time>
      </trkpt>
      <trkpt lat="37.52773120" lon="-8.78433896">
        <ele>43.000000</ele>
        <time>2010-01-01T05:35:00Z</time>
      </trkpt>
      <trkpt lat="37.52691450" lon="-8.78422723">
        <ele>44.000000</ele>
        <time>2010-01-01T05:35:04Z</time>
      </trkpt>
      <trkpt lat="37.52681290" lon="-8.78419479">
        <ele>44.000000</ele>
        <time>2010-01-01T05:35:10Z</time>
      </trkpt>
      <trkpt lat="37.52672730" lon="-8.78407317">
        <ele>44.000000</ele>
        <time>2010-01-01T05:35:13Z</time>
      </trkpt>
      <trkpt lat="37.52675150" lon="-8.78418213">
        <ele>44.000000</ele>
        <time>2010-01-01T05:35:18Z</time>
      </trkpt>
      <trkpt lat="37.52687810" lon="-8.78416822">
        <ele>44.000000</ele>
        <time>2010-01-01T05:35:24Z</time>
      </trkpt>
      <trkpt lat="37.52689020" lon="-8.78433502">
        <ele>44.000000</ele>
        <time>2010-01-01T05:36:38Z</time>
      </trkpt>
      <trkpt lat="37.52663310" lon="-8.78666888">
        <ele>40.000000</ele>
        <time>2010-01-01T05:36:55Z</time>
      </trkpt>
      <trkpt lat="37.52642290" lon="-8.78713231">
        <ele>38.000000</ele>
        <time>2010-01-01T05:37:02Z</time>
      </trkpt>
      <trkpt lat="37.52631350" lon="-8.78727681">
        <ele>36.000000</ele>
        <time>2010-01-01T05:37:06Z</time>
      </trkpt>
      <trkpt lat="37.52621580" lon="-8.78724765">
        <ele>36.000000</ele>
        <time>2010-01-01T05:37:50Z</time>
      </trkpt>
      <trkpt lat="37.52523530" lon="-8.78662194">
        <ele>36.000000</ele>
        <time>2010-01-01T05:38:00Z</time>
      </trkpt>
      <trkpt lat="37.52515560" lon="-8.78691530">
        <ele>33.000000</ele>
        <time>2010-01-01T05:38:10Z</time>
      </trkpt>
      <trkpt lat="37.52497180" lon="-8.78713709">
        <ele>27.000000</ele>
        <time>2010-01-01T05:38:29Z</time>
      </trkpt>
      <trkpt lat="37.52449330" lon="-8.78714304">
        <ele>13.000000</ele>
        <time>2010-01-01T05:38:32Z</time>
      </trkpt>
      <trkpt lat="37.52441340" lon="-8.78709191">
        <ele>13.000000</ele>
        <time>2010-01-01T05:38:41Z</time>
      </trkpt>
      <trkpt lat="37.52449360" lon="-8.78683660">
        <ele>20.000000</ele>
        <time>2010-01-01T05:38:48Z</time>
      </trkpt>
      <trkpt lat="37.52442330" lon="-8.78662370">
        <ele>24.000000</ele>
        <time>2010-01-01T05:39:08Z</time>
      </trkpt>
      <trkpt lat="37.52407980" lon="-8.78617208">
        <ele>30.000000</ele>
        <time>2010-01-01T05:39:39Z</time>
      </trkpt>
      <trkpt lat="37.52332260" lon="-8.78633452">
        <ele>23.000000</ele>
        <time>2010-01-01T05:39:55Z</time>
      </trkpt>
      <trkpt lat="37.52303250" lon="-8.78665572">
        <ele>13.000000</ele>
        <time>2010-01-01T05:40:00Z</time>
      </trkpt>
      <trkpt lat="37.52291500" lon="-8.78660660">
        <ele>12.000000</ele>
        <time>2010-01-01T05:40:15Z</time>
      </trkpt>
      <trkpt lat="37.52270690" lon="-8.78620351">
        <ele>12.000000</ele>
        <time>2010-01-01T05:40:32Z</time>
      </trkpt>
      <trkpt lat="37.52270130" lon="-8.78566154">
        <ele>14.000000</ele>
        <time>2010-01-01T05:40:37Z</time>
      </trkpt>
      <trkpt lat="37.52258860" lon="-8.78567193">
        <ele>11.000000</ele>
        <time>2010-01-01T05:40:42Z</time>
      </trkpt>
      <trkpt lat="37.52249990" lon="-8.78581719">
        <ele>8.0000000</ele>
        <time>2010-01-01T05:40:55Z</time>
      </trkpt>
      <trkpt lat="37.52220020" lon="-8.78594962">
        <ele>6.0000000</ele>
        <time>2010-01-01T05:40:57Z</time>
      </trkpt>
      <trkpt lat="37.52223660" lon="-8.78593504">
        <ele>6.0000000</ele>
        <time>2010-01-01T05:41:07Z</time>
      </trkpt>
      <trkpt lat="37.52208910" lon="-8.78621206">
        <ele>6.0000000</ele>
        <time>2010-01-01T05:41:13Z</time>
      </trkpt>
      <trkpt lat="37.52195910" lon="-8.78626110">
        <ele>7.0000000</ele>
        <time>2010-01-01T05:41:20Z</time>
      </trkpt>
      <trkpt lat="37.52176590" lon="-8.78628641">
        <ele>12.000000</ele>
        <time>2010-01-01T05:41:48Z</time>
      </trkpt>
      <trkpt lat="37.52109890" lon="-8.78603403">
        <ele>28.000000</ele>
        <time>2010-01-01T05:41:56Z</time>
      </trkpt>
      <trkpt lat="37.52091560" lon="-8.78592775">
        <ele>30.000000</ele>
        <time>2010-01-01T05:42:11Z</time>
      </trkpt>
      <trkpt lat="37.52070350" lon="-8.78553858">
        <ele>34.000000</ele>
        <time>2010-01-01T05:42:23Z</time>
      </trkpt>
      <trkpt lat="37.52047650" lon="-8.78529257">
        <ele>37.000000</ele>
        <time>2010-01-01T05:43:01Z</time>
      </trkpt>
      <trkpt lat="37.51962940" lon="-8.78480181">
        <ele>46.000000</ele>
        <time>2010-01-01T05:43:15Z</time>
      </trkpt>
      <trkpt lat="37.51997300" lon="-8.78493416">
        <ele>42.000000</ele>
        <time>2010-01-01T05:43:37Z</time>
      </trkpt>
      <trkpt lat="37.51943660" lon="-8.78475344">
        <ele>47.000000</ele>
        <time>2010-01-01T05:45:14Z</time>
      </trkpt>
      <trkpt lat="37.51746170" lon="-8.78298084">
        <ele>48.000000</ele>
        <time>2010-01-01T05:45:27Z</time>
      </trkpt>
      <trkpt lat="37.51713450" lon="-8.78292912">
        <ele>48.000000</ele>
        <time>2010-01-01T05:46:50Z</time>
      </trkpt>
      <trkpt lat="37.51507850" lon="-8.78304353">
        <ele>53.000000</ele>
        <time>2010-01-01T05:47:18Z</time>
      </trkpt>
      <trkpt lat="37.51438500" lon="-8.78324076">
        <ele>53.000000</ele>
        <time>2010-01-01T05:47:50Z</time>
      </trkpt>
      <trkpt lat="37.51365380" lon="-8.78364091">
        <ele>54.000000</ele>
        <time>2010-01-01T05:48:10Z</time>
      </trkpt>
      <trkpt lat="37.51316210" lon="-8.78378072">
        <ele>54.000000</ele>
        <time>2010-01-01T05:49:23Z</time>
      </trkpt>
      <trkpt lat="37.51134920" lon="-8.78399128">
        <ele>58.000000</ele>
        <time>2010-01-01T05:50:21Z</time>
      </trkpt>
      <trkpt lat="37.50995850" lon="-8.78446536">
        <ele>59.000000</ele>
        <time>2010-01-01T05:51:10Z</time>
      </trkpt>
      <trkpt lat="37.50876410" lon="-8.78477281">
        <ele>64.000000</ele>
        <time>2010-01-01T05:51:22Z</time>
      </trkpt>
      <trkpt lat="37.50845310" lon="-8.78476719">
        <ele>64.000000</ele>
        <time>2010-01-01T05:51:28Z</time>
      </trkpt>
      <trkpt lat="37.50833080" lon="-8.78465311">
        <ele>64.000000</ele>
        <time>2010-01-01T05:52:23Z</time>
      </trkpt>
      <trkpt lat="37.50743250" lon="-8.78334562">
        <ele>64.000000</ele>
        <time>2010-01-01T05:52:32Z</time>
      </trkpt>
      <trkpt lat="37.50724520" lon="-8.78319944">
        <ele>63.000000</ele>
        <time>2010-01-01T05:53:03Z</time>
      </trkpt>
      <trkpt lat="37.50650250" lon="-8.78298218">
        <ele>63.000000</ele>
        <time>2010-01-01T05:53:47Z</time>
      </trkpt>
      <trkpt lat="37.50543560" lon="-8.78254414">
        <ele>61.000000</ele>
        <time>2010-01-01T05:54:10Z</time>
      </trkpt>
      <trkpt lat="37.50488500" lon="-8.78269770">
        <ele>61.000000</ele>
        <time>2010-01-01T05:55:44Z</time>
      </trkpt>
      <trkpt lat="37.50267700" lon="-8.78365550">
        <ele>60.000000</ele>
        <time>2010-01-01T05:56:20Z</time>
      </trkpt>
      <trkpt lat="37.50177470" lon="-8.78387862">
        <ele>59.000000</ele>
        <time>2010-01-01T05:56:34Z</time>
      </trkpt>
      <trkpt lat="37.50148460" lon="-8.78408113">
        <ele>58.000000</ele>
        <time>2010-01-01T05:56:45Z</time>
      </trkpt>
      <trkpt lat="37.50149920" lon="-8.78443476">
        <ele>57.000000</ele>
        <time>2010-01-01T05:57:30Z</time>
      </trkpt>
      <trkpt lat="37.50188820" lon="-8.78575894">
        <ele>54.000000</ele>
        <time>2010-01-01T05:58:04Z</time>
      </trkpt>
      <trkpt lat="37.50226790" lon="-8.78671296">
        <ele>51.000000</ele>
        <time>2010-01-01T05:58:46Z</time>
      </trkpt>
      <trkpt lat="37.50235600" lon="-8.78803244">
        <ele>46.000000</ele>
        <time>2010-01-01T05:58:53Z</time>
      </trkpt>
      <trkpt lat="37.50225230" lon="-8.78823336">
        <ele>44.000000</ele>
        <time>2010-01-01T05:59:25Z</time>
      </trkpt>
      <trkpt lat="37.50154170" lon="-8.78867475">
        <ele>31.000000</ele>
        <time>2010-01-01T05:59:55Z</time>
      </trkpt>
      <trkpt lat="37.50092860" lon="-8.78923852">
        <ele>22.000000</ele>
        <time>2010-01-01T06:00:30Z</time>
      </trkpt>
      <trkpt lat="37.50040470" lon="-8.79011568">
        <ele>10.000000</ele>
        <time>2010-01-01T06:00:38Z</time>
      </trkpt>
      <trkpt lat="37.50022180" lon="-8.79007696">
        <ele>10.000000</ele>
        <time>2010-01-01T06:00:54Z</time>
      </trkpt>
      <trkpt lat="37.49991060" lon="-8.78974738">
        <ele>12.000000</ele>
        <time>2010-01-01T06:01:01Z</time>
      </trkpt>
      <trkpt lat="37.49974680" lon="-8.78984176">
        <ele>9.0000000</ele>
        <time>2010-01-01T06:01:19Z</time>
      </trkpt>
      <trkpt lat="37.49943450" lon="-8.79024116">
        <ele>6.0000000</ele>
        <time>2010-01-01T06:01:37Z</time>
      </trkpt>
      <trkpt lat="37.49898350" lon="-8.79020830">
        <ele>11.000000</ele>
        <time>2010-01-01T06:01:52Z</time>
      </trkpt>
      <trkpt lat="37.49864770" lon="-8.79041718">
        <ele>22.000000</ele>
        <time>2010-01-01T06:02:14Z</time>
      </trkpt>
      <trkpt lat="37.49827930" lon="-8.79095102">
        <ele>32.000000</ele>
        <time>2010-01-01T06:02:24Z</time>
      </trkpt>
      <trkpt lat="37.49804880" lon="-8.79090626">
        <ele>36.000000</ele>
        <time>2010-01-01T06:03:08Z</time>
      </trkpt>
      <trkpt lat="37.49713290" lon="-8.79015206">
        <ele>40.000000</ele>
        <time>2010-01-01T06:03:55Z</time>
      </trkpt>
      <trkpt lat="37.49616420" lon="-8.78931697">
        <ele>47.000000</ele>
        <time>2010-01-01T06:04:12Z</time>
      </trkpt>
      <trkpt lat="37.49585790" lon="-8.78892939">
        <ele>48.000000</ele>
        <time>2010-01-01T06:04:44Z</time>
      </trkpt>
      <trkpt lat="37.49543260" lon="-8.78807963">
        <ele>51.000000</ele>
        <time>2010-01-01T06:06:17Z</time>
      </trkpt>
      <trkpt lat="37.49452500" lon="-8.78539097">
        <ele>56.000000</ele>
        <time>2010-01-01T06:06:37Z</time>
      </trkpt>
      <trkpt lat="37.49424790" lon="-8.78484087">
        <ele>57.000000</ele>
        <time>2010-01-01T06:09:33Z</time>
      </trkpt>
      <trkpt lat="37.49096870" lon="-8.78118929">
        <ele>62.000000</ele>
        <time>2010-01-01T06:09:41Z</time>
      </trkpt>
      <trkpt lat="37.49084690" lon="-8.78097513">
        <ele>63.000000</ele>
        <time>2010-01-01T06:10:07Z</time>
      </trkpt>
      <trkpt lat="37.49064150" lon="-8.78019805">
        <ele>64.000000</ele>
        <time>2010-01-01T06:10:42Z</time>
      </trkpt>
      <trkpt lat="37.49053960" lon="-8.77910572">
        <ele>63.000000</ele>
        <time>2010-01-01T06:11:06Z</time>
      </trkpt>
      <trkpt lat="37.49039000" lon="-8.77836149">
        <ele>63.000000</ele>
        <time>2010-01-01T06:12:06Z</time>
      </trkpt>
      <trkpt lat="37.48954710" lon="-8.77680690">
        <ele>66.000000</ele>
        <time>2010-01-01T06:12:34Z</time>
      </trkpt>
      <trkpt lat="37.48907410" lon="-8.77613852">
        <ele>67.000000</ele>
        <time>2010-01-01T06:17:42Z</time>
      </trkpt>
      <trkpt lat="37.48334970" lon="-8.76969359">
        <ele>80.000000</ele>
        <time>2010-01-01T06:19:03Z</time>
      </trkpt>
      <trkpt lat="37.48173920" lon="-8.76815543">
        <ele>86.000000</ele>
        <time>2010-01-01T06:19:31Z</time>
      </trkpt>
      <trkpt lat="37.48110810" lon="-8.76775193">
        <ele>88.000000</ele>
        <time>2010-01-01T06:19:39Z</time>
      </trkpt>
      <trkpt lat="37.48101090" lon="-8.76753442">
        <ele>89.000000</ele>
        <time>2010-01-01T06:21:06Z</time>
      </trkpt>
      <trkpt lat="37.47939810" lon="-8.76570481">
        <ele>92.000000</ele>
        <time>2010-01-01T06:21:18Z</time>
      </trkpt>
      <trkpt lat="37.47916740" lon="-8.76596482">
        <ele>92.000000</ele>
        <time>2010-01-01T06:21:28Z</time>
      </trkpt>
      <trkpt lat="37.47928510" lon="-8.76623036">
        <ele>92.000000</ele>
        <time>2010-01-01T06:21:35Z</time>
      </trkpt>
      <trkpt lat="37.47918150" lon="-8.76641996">
        <ele>91.000000</ele>
        <time>2010-01-01T06:23:35Z</time>
      </trkpt>
      <trkpt lat="37.47619600" lon="-8.76638593">
        <ele>91.000000</ele>
        <time>2010-01-01T06:23:49Z</time>
      </trkpt>
      <trkpt lat="37.47585980" lon="-8.76621041">
        <ele>90.000000</ele>
        <time>2010-01-01T06:23:59Z</time>
      </trkpt>
      <trkpt lat="37.47567360" lon="-8.76602903">
        <ele>90.000000</ele>
        <time>2010-01-01T06:24:02Z</time>
      </trkpt>
      <trkpt lat="37.47560660" lon="-8.76611268">
        <ele>90.000000</ele>
        <time>2010-01-01T06:24:26Z</time>
      </trkpt>
      <trkpt lat="37.47514650" lon="-8.76565687">
        <ele>91.000000</ele>
        <time>2010-01-01T06:24:35Z</time>
      </trkpt>
      <trkpt lat="37.47490890" lon="-8.76568428">
        <ele>92.000000</ele>
        <time>2010-01-01T06:25:11Z</time>
      </trkpt>
      <trkpt lat="37.47420810" lon="-8.76639682">
        <ele>90.000000</ele>
        <time>2010-01-01T06:25:21Z</time>
      </trkpt>
      <trkpt lat="37.47397170" lon="-8.76643136">
        <ele>90.000000</ele>
        <time>2010-01-01T06:25:54Z</time>
      </trkpt>
      <trkpt lat="37.47319360" lon="-8.76606943">
        <ele>90.000000</ele>
        <time>2010-01-01T06:25:59Z</time>
      </trkpt>
      <trkpt lat="37.47313080" lon="-8.76594672">
        <ele>90.000000</ele>
        <time>2010-01-01T06:26:34Z</time>
      </trkpt>
      <trkpt lat="37.47230490" lon="-8.76557917">
        <ele>90.000000</ele>
        <time>2010-01-01T06:26:47Z</time>
      </trkpt>
      <trkpt lat="37.47204390" lon="-8.76535244">
        <ele>89.000000</ele>
        <time>2010-01-01T06:27:34Z</time>
      </trkpt>
      <trkpt lat="37.47118300" lon="-8.76431887">
        <ele>92.000000</ele>
        <time>2010-01-01T06:27:41Z</time>
      </trkpt>
      <trkpt lat="37.47102260" lon="-8.76430420">
        <ele>92.000000</ele>
        <time>2010-01-01T06:27:47Z</time>
      </trkpt>
      <trkpt lat="37.47087920" lon="-8.76441475">
        <ele>92.000000</ele>
        <time>2010-01-01T06:28:44Z</time>
      </trkpt>
      <trkpt lat="37.46951690" lon="-8.76486134">
        <ele>89.000000</ele>
        <time>2010-01-01T06:28:53Z</time>
      </trkpt>
      <trkpt lat="37.46927370" lon="-8.76486729">
        <ele>90.000000</ele>
        <time>2010-01-01T06:30:52Z</time>
      </trkpt>
      <trkpt lat="37.46632910" lon="-8.76443051">
        <ele>89.000000</ele>
        <time>2010-01-01T06:31:19Z</time>
      </trkpt>
      <trkpt lat="37.46571870" lon="-8.76406883">
        <ele>89.000000</ele>
        <time>2010-01-01T06:31:45Z</time>
      </trkpt>
      <trkpt lat="37.46520390" lon="-8.76359148">
        <ele>91.000000</ele>
        <time>2010-01-01T06:32:06Z</time>
      </trkpt>
      <trkpt lat="37.46473720" lon="-8.76330214">
        <ele>91.000000</ele>
        <time>2010-01-01T06:33:01Z</time>
      </trkpt>
      <trkpt lat="37.46335650" lon="-8.76356584">
        <ele>90.000000</ele>
        <time>2010-01-01T06:33:13Z</time>
      </trkpt>
      <trkpt lat="37.46317180" lon="-8.76385124">
        <ele>90.000000</ele>
        <time>2010-01-01T06:33:19Z</time>
      </trkpt>
      <trkpt lat="37.46322210" lon="-8.76368008">
        <ele>90.000000</ele>
        <time>2010-01-01T06:34:37Z</time>
      </trkpt>
      <trkpt lat="37.46171140" lon="-8.76212851">
        <ele>90.000000</ele>
        <time>2010-01-01T06:35:10Z</time>
      </trkpt>
      <trkpt lat="37.46091340" lon="-8.76187160">
        <ele>89.000000</ele>
        <time>2010-01-01T06:35:15Z</time>
      </trkpt>
      <trkpt lat="37.46083560" lon="-8.76174554">
        <ele>89.000000</ele>
        <time>2010-01-01T06:35:36Z</time>
      </trkpt>
      <trkpt lat="37.46031700" lon="-8.76156893">
        <ele>89.000000</ele>
        <time>2010-01-01T06:39:36Z</time>
      </trkpt>
      <trkpt lat="37.45450970" lon="-8.75969734">
        <ele>89.000000</ele>
        <time>2010-01-01T06:39:44Z</time>
      </trkpt>
      <trkpt lat="37.45431340" lon="-8.75971846">
        <ele>90.000000</ele>
        <time>2010-01-01T06:41:25Z</time>
      </trkpt>
      <trkpt lat="37.45191200" lon="-8.76070660">
        <ele>93.000000</ele>
        <time>2010-01-01T06:41:33Z</time>
      </trkpt>
      <trkpt lat="37.45177330" lon="-8.76088631">
        <ele>93.000000</ele>
        <time>2010-01-01T06:43:56Z</time>
      </trkpt>
      <trkpt lat="37.45000650" lon="-8.76476621">
        <ele>89.000000</ele>
        <time>2010-01-01T06:44:34Z</time>
      </trkpt>
      <trkpt lat="37.44919540" lon="-8.76544238">
        <ele>89.000000</ele>
        <time>2010-01-01T06:44:38Z</time>
      </trkpt>
      <trkpt lat="37.44916110" lon="-8.76555997">
        <ele>90.000000</ele>
        <time>2010-01-01T06:45:43Z</time>
      </trkpt>
      <trkpt lat="37.44778360" lon="-8.76659547">
        <ele>91.000000</ele>
        <time>2010-01-01T06:46:50Z</time>
      </trkpt>
      <trkpt lat="37.44613840" lon="-8.76698649">
        <ele>91.000000</ele>
        <time>2010-01-01T06:47:00Z</time>
      </trkpt>
      <trkpt lat="37.44590750" lon="-8.76684408">
        <ele>90.000000</ele>
        <time>2010-01-01T06:47:37Z</time>
      </trkpt>
      <trkpt lat="37.44521330" lon="-8.76607831">
        <ele>88.000000</ele>
        <time>2010-01-01T06:47:49Z</time>
      </trkpt>
      <trkpt lat="37.44492170" lon="-8.76594294">
        <ele>88.000000</ele>
        <time>2010-01-01T06:48:37Z</time>
      </trkpt>
      <trkpt lat="37.44373960" lon="-8.76593071">
        <ele>89.000000</ele>
        <time>2010-01-01T06:48:48Z</time>
      </trkpt>
      <trkpt lat="37.44347940" lon="-8.76578721">
        <ele>88.000000</ele>
        <time>2010-01-01T06:49:37Z</time>
      </trkpt>
      <trkpt lat="37.44283930" lon="-8.76446899">
        <ele>87.000000</ele>
        <time>2010-01-01T06:49:45Z</time>
      </trkpt>
      <trkpt lat="37.44269700" lon="-8.76431057">
        <ele>87.000000</ele>
        <time>2010-01-01T06:50:52Z</time>
      </trkpt>
      <trkpt lat="37.44122110" lon="-8.76327046">
        <ele>88.000000</ele>
        <time>2010-01-01T06:51:12Z</time>
      </trkpt>
      <trkpt lat="37.44075480" lon="-8.76312746">
        <ele>87.000000</ele>
        <time>2010-01-01T06:51:16Z</time>
      </trkpt>
      <trkpt lat="37.44067530" lon="-8.76302504">
        <ele>88.000000</ele>
        <time>2010-01-01T06:51:37Z</time>
      </trkpt>
      <trkpt lat="37.44016740" lon="-8.76289545">
        <ele>87.000000</ele>
        <time>2010-01-01T06:51:57Z</time>
      </trkpt>
      <trkpt lat="37.43966300" lon="-8.76283192">
        <ele>86.000000</ele>
        <time>2010-01-01T06:52:18Z</time>
      </trkpt>
      <trkpt lat="37.43917180" lon="-8.76303635">
        <ele>87.000000</ele>
        <time>2010-01-01T06:52:28Z</time>
      </trkpt>
      <trkpt lat="37.43893070" lon="-8.76296041">
        <ele>87.000000</ele>
        <time>2010-01-01T06:53:05Z</time>
      </trkpt>
      <trkpt lat="37.43830040" lon="-8.76210093">
        <ele>89.000000</ele>
        <time>2010-01-01T06:53:13Z</time>
      </trkpt>
      <trkpt lat="37.43812190" lon="-8.76219146">
        <ele>87.000000</ele>
        <time>2010-01-01T06:53:19Z</time>
      </trkpt>
      <trkpt lat="37.43813140" lon="-8.76239212">
        <ele>86.000000</ele>
        <time>2010-01-01T06:53:27Z</time>
      </trkpt>
      <trkpt lat="37.43822190" lon="-8.76260921">
        <ele>86.000000</ele>
        <time>2010-01-01T06:53:49Z</time>
      </trkpt>
      <trkpt lat="37.43814630" lon="-8.76329493">
        <ele>80.000000</ele>
        <time>2010-01-01T06:54:05Z</time>
      </trkpt>
      <trkpt lat="37.43790590" lon="-8.76368930">
        <ele>67.000000</ele>
        <time>2010-01-01T06:54:24Z</time>
      </trkpt>
      <trkpt lat="37.43747160" lon="-8.76395945">
        <ele>54.000000</ele>
        <time>2010-01-01T06:54:41Z</time>
      </trkpt>
      <trkpt lat="37.43712920" lon="-8.76425994">
        <ele>45.000000</ele>
        <time>2010-01-01T06:54:57Z</time>
      </trkpt>
      <trkpt lat="37.43675810" lon="-8.76445113">
        <ele>34.000000</ele>
        <time>2010-01-01T06:55:05Z</time>
      </trkpt>
      <trkpt lat="37.43665410" lon="-8.76466856">
        <ele>31.000000</ele>
        <time>2010-01-01T06:55:10Z</time>
      </trkpt>
      <trkpt lat="37.43653720" lon="-8.76465121">
        <ele>28.000000</ele>
        <time>2010-01-01T06:55:32Z</time>
      </trkpt>
      <trkpt lat="37.43604750" lon="-8.76498598">
        <ele>14.000000</ele>
        <time>2010-01-01T06:55:39Z</time>
      </trkpt>
      <trkpt lat="37.43587910" lon="-8.76501465">
        <ele>10.000000</ele>
        <time>2010-01-01T06:55:46Z</time>
      </trkpt>
      <trkpt lat="37.43573530" lon="-8.76488691">
        <ele>10.000000</ele>
        <time>2010-01-01T06:56:03Z</time>
      </trkpt>
      <trkpt lat="37.43532500" lon="-8.76472547">
        <ele>8.0000000</ele>
        <time>2010-01-01T06:56:09Z</time>
      </trkpt>
      <trkpt lat="37.43517850" lon="-8.76479244">
        <ele>6.0000000</ele>
        <time>2010-01-01T06:56:20Z</time>
      </trkpt>
      <trkpt lat="37.43497320" lon="-8.76500643">
        <ele>4.0000000</ele>
        <time>2010-01-01T06:56:23Z</time>
      </trkpt>
      <trkpt lat="37.43494270" lon="-8.76510911">
        <ele>4.0000000</ele>
        <time>2010-01-01T06:57:25Z</time>
      </trkpt>
      <trkpt lat="37.43373510" lon="-8.76630906">
        <ele>6.0000000</ele>
        <time>2010-01-01T06:57:35Z</time>
      </trkpt>
      <trkpt lat="37.43362650" lon="-8.76659506">
        <ele>8.0000000</ele>
        <time>2010-01-01T06:58:13Z</time>
      </trkpt>
      <trkpt lat="37.43412500" lon="-8.76759971">
        <ele>13.000000</ele>
        <time>2010-01-01T06:58:29Z</time>
      </trkpt>
      <trkpt lat="37.43424040" lon="-8.76809642">
        <ele>12.000000</ele>
        <time>2010-01-01T06:59:02Z</time>
      </trkpt>
      <trkpt lat="37.43418280" lon="-8.76913452">
        <ele>8.0000000</ele>
        <time>2010-01-01T06:59:22Z</time>
      </trkpt>
      <trkpt lat="37.43436660" lon="-8.76971153">
        <ele>6.0000000</ele>
        <time>2010-01-01T07:00:06Z</time>
      </trkpt>
      <trkpt lat="37.43431900" lon="-8.77108650">
        <ele>5.0000000</ele>
        <time>2010-01-01T07:00:27Z</time>
      </trkpt>
      <trkpt lat="37.43423960" lon="-8.77173626">
        <ele>5.0000000</ele>
        <time>2010-01-01T07:01:16Z</time>
      </trkpt>
      <trkpt lat="37.43335190" lon="-8.77280772">
        <ele>3.0000000</ele>
        <time>2010-01-01T07:02:07Z</time>
      </trkpt>
      <trkpt lat="37.43266740" lon="-8.77415268">
        <ele>7.0000000</ele>
        <time>2010-01-01T07:02:16Z</time>
      </trkpt>
      <trkpt lat="37.43247470" lon="-8.77429844">
        <ele>7.0000000</ele>
        <time>2010-01-01T07:02:39Z</time>
      </trkpt>
      <trkpt lat="37.43191350" lon="-8.77452626">
        <ele>11.000000</ele>
        <time>2010-01-01T07:03:05Z</time>
      </trkpt>
      <trkpt lat="37.43138970" lon="-8.77499054">
        <ele>4.0000000</ele>
        <time>2010-01-01T07:03:48Z</time>
      </trkpt>
      <trkpt lat="37.43095410" lon="-8.77624145">
        <ele>7.0000000</ele>
        <time>2010-01-01T07:04:09Z</time>
      </trkpt>
      <trkpt lat="37.43084160" lon="-8.77687395">
        <ele>9.0000000</ele>
        <time>2010-01-01T07:04:19Z</time>
      </trkpt>
      <trkpt lat="37.43087350" lon="-8.77719422">
        <ele>8.0000000</ele>
        <time>2010-01-01T07:05:18Z</time>
      </trkpt>
      <trkpt lat="37.43139320" lon="-8.77893028">
        <ele>7.0000000</ele>
        <time>2010-01-01T07:05:57Z</time>
      </trkpt>
      <trkpt lat="37.43193000" lon="-8.77995380">
        <ele>7.0000000</ele>
        <time>2010-01-01T07:07:03Z</time>
      </trkpt>
      <trkpt lat="37.43259680" lon="-8.78185557">
        <ele>7.0000000</ele>
        <time>2010-01-01T07:07:12Z</time>
      </trkpt>
      <trkpt lat="37.43265390" lon="-8.78212354">
        <ele>5.0000000</ele>
        <time>2010-01-01T07:07:39Z</time>
      </trkpt>
      <trkpt lat="37.43257480" lon="-8.78295242">
        <ele>11.000000</ele>
        <time>2010-01-01T07:08:09Z</time>
      </trkpt>
      <trkpt lat="37.43284220" lon="-8.78383085">
        <ele>9.0000000</ele>
        <time>2010-01-01T07:08:46Z</time>
      </trkpt>
      <trkpt lat="37.43340990" lon="-8.78477130">
        <ele>10.000000</ele>
        <time>2010-01-01T07:09:10Z</time>
      </trkpt>
      <trkpt lat="37.43395400" lon="-8.78504932">
        <ele>9.0000000</ele>
        <time>2010-01-01T07:09:34Z</time>
      </trkpt>
      <trkpt lat="37.43454550" lon="-8.78521160">
        <ele>7.0000000</ele>
        <time>2010-01-01T07:09:47Z</time>
      </trkpt>
      <trkpt lat="37.43477440" lon="-8.78551913">
        <ele>6.0000000</ele>
        <time>2010-01-01T07:09:59Z</time>
      </trkpt>
      <trkpt lat="37.43461690" lon="-8.78582624">
        <ele>7.0000000</ele>
        <time>2010-01-01T07:10:43Z</time>
      </trkpt>
      <trkpt lat="37.43366790" lon="-8.78650769">
        <ele>4.0000000</ele>
        <time>2010-01-01T07:10:58Z</time>
      </trkpt>
      <trkpt lat="37.43351320" lon="-8.78695302">
        <ele>4.0000000</ele>
        <time>2010-01-01T07:12:03Z</time>
      </trkpt>
      <trkpt lat="37.43394500" lon="-8.78891891">
        <ele>3.0000000</ele>
        <time>2010-01-01T07:12:14Z</time>
      </trkpt>
      <trkpt lat="37.43415090" lon="-8.78916685">
        <ele>7.0000000</ele>
        <time>2010-01-01T07:12:36Z</time>
      </trkpt>
      <trkpt lat="37.43464180" lon="-8.78948612">
        <ele>12.000000</ele>
        <time>2010-01-01T07:12:58Z</time>
      </trkpt>
      <trkpt lat="37.43499810" lon="-8.78998207">
        <ele>12.000000</ele>
        <time>2010-01-01T07:13:07Z</time>
      </trkpt>
      <trkpt lat="37.43509470" lon="-8.79025692">
        <ele>13.000000</ele>
        <time>2010-01-01T07:13:59Z</time>
      </trkpt>
      <trkpt lat="37.43498090" lon="-8.79189516">
        <ele>20.000000</ele>
        <time>2010-01-01T07:14:08Z</time>
      </trkpt>
      <trkpt lat="37.43502380" lon="-8.79214846">
        <ele>21.000000</ele>
        <time>2010-01-01T07:14:15Z</time>
      </trkpt>
      <trkpt lat="37.43513210" lon="-8.79232448">
        <ele>19.000000</ele>
        <time>2010-01-01T07:14:36Z</time>
      </trkpt>
      <trkpt lat="37.43496440" lon="-8.79294700">
        <ele>28.000000</ele>
        <time>2010-01-01T07:14:41Z</time>
      </trkpt>
      <trkpt lat="37.43498940" lon="-8.79311548">
        <ele>30.000000</ele>
        <time>2010-01-01T07:14:50Z</time>
      </trkpt>
      <trkpt lat="37.43516210" lon="-8.79327700">
        <ele>32.000000</ele>
        <time>2010-01-01T07:15:11Z</time>
      </trkpt>
      <trkpt lat="37.43564780" lon="-8.79351295">
        <ele>26.000000</ele>
        <time>2010-01-01T07:15:57Z</time>
      </trkpt>
      <trkpt lat="37.43647740" lon="-8.79455331">
        <ele>31.000000</ele>
        <time>2010-01-01T07:16:36Z</time>
      </trkpt>
      <trkpt lat="37.43736760" lon="-8.79500292">
        <ele>34.000000</ele>
        <time>2010-01-01T07:17:30Z</time>
      </trkpt>
      <trkpt lat="37.43840510" lon="-8.79608167">
        <ele>41.000000</ele>
        <time>2010-01-01T07:17:41Z</time>
      </trkpt>
      <trkpt lat="37.43858600" lon="-8.79636347">
        <ele>41.000000</ele>
        <time>2010-01-01T07:18:21Z</time>
      </trkpt>
      <trkpt lat="37.43949680" lon="-8.79686077">
        <ele>36.000000</ele>
        <time>2010-01-01T07:18:46Z</time>
      </trkpt>
      <trkpt lat="37.43992930" lon="-8.79740903">
        <ele>34.000000</ele>
        <time>2010-01-01T07:19:08Z</time>
      </trkpt>
      <trkpt lat="37.44046470" lon="-8.79763349">
        <ele>27.000000</ele>
        <time>2010-01-01T07:19:21Z</time>
      </trkpt>
      <trkpt lat="37.44066770" lon="-8.79795402">
        <ele>18.000000</ele>
        <time>2010-01-01T07:19:30Z</time>
      </trkpt>
      <trkpt lat="37.44075960" lon="-8.79821780">
        <ele>8.0000000</ele>
        <time>2010-01-01T07:19:32Z</time>
      </trkpt>
      <trkpt lat="37.44080380" lon="-8.79820162">
        <ele>4.0000000</ele>
        <time>2010-01-01T07:19:34Z</time>
      </trkpt>
      <trkpt lat="37.44075780" lon="-8.79821511">
        <ele>8.0000000</ele>
        <time>2010-01-01T07:19:42Z</time>
      </trkpt>
      <trkpt lat="37.44073050" lon="-8.79846506">
        <ele>10.000000</ele>
        <time>2010-01-01T07:19:44Z</time>
      </trkpt>
      <trkpt lat="37.44069590" lon="-8.79842793">
        <ele>13.000000</ele>
        <time>2010-01-01T07:19:47Z</time>
      </trkpt>
      <trkpt lat="37.44064790" lon="-8.79849700">
        <ele>17.000000</ele>
        <time>2010-01-01T07:20:07Z</time>
      </trkpt>
      <trkpt lat="37.44035080" lon="-8.79899782">
        <ele>22.000000</ele>
        <time>2010-01-01T07:20:18Z</time>
      </trkpt>
      <trkpt lat="37.44010480" lon="-8.79918071">
        <ele>23.000000</ele>
        <time>2010-01-01T07:20:32Z</time>
      </trkpt>
      <trkpt lat="37.43975100" lon="-8.79919186">
        <ele>28.000000</ele>
        <time>2010-01-01T07:21:01Z</time>
      </trkpt>
      <trkpt lat="37.43906650" lon="-8.79890101">
        <ele>37.000000</ele>
        <time>2010-01-01T07:21:08Z</time>
      </trkpt>
      <trkpt lat="37.43893360" lon="-8.79903554">
        <ele>38.000000</ele>
        <time>2010-01-01T07:21:18Z</time>
      </trkpt>
      <trkpt lat="37.43893310" lon="-8.79935019">
        <ele>36.000000</ele>
        <time>2010-01-01T07:21:28Z</time>
      </trkpt>
      <trkpt lat="37.43882660" lon="-8.79961799">
        <ele>33.000000</ele>
        <time>2010-01-01T07:21:37Z</time>
      </trkpt>
      <trkpt lat="37.43858180" lon="-8.79956158">
        <ele>38.000000</ele>
        <time>2010-01-01T07:21:51Z</time>
      </trkpt>
      <trkpt lat="37.43829740" lon="-8.79932873">
        <ele>42.000000</ele>
        <time>2010-01-01T07:22:07Z</time>
      </trkpt>
      <trkpt lat="37.43806000" lon="-8.79890696">
        <ele>47.000000</ele>
        <time>2010-01-01T07:22:19Z</time>
      </trkpt>
      <trkpt lat="37.43801040" lon="-8.79854804">
        <ele>49.000000</ele>
        <time>2010-01-01T07:22:47Z</time>
      </trkpt>
      <trkpt lat="37.43822260" lon="-8.79769544">
        <ele>51.000000</ele>
        <time>2010-01-01T07:23:04Z</time>
      </trkpt>
      <trkpt lat="37.43820740" lon="-8.79716184">
        <ele>53.000000</ele>
        <time>2010-01-01T07:23:39Z</time>
      </trkpt>
      <trkpt lat="37.43794210" lon="-8.79612584">
        <ele>50.000000</ele>
        <time>2010-01-01T07:23:50Z</time>
      </trkpt>
      <trkpt lat="37.43770750" lon="-8.79595703">
        <ele>50.000000</ele>
        <time>2010-01-01T07:24:10Z</time>
      </trkpt>
      <trkpt lat="37.43721580" lon="-8.79605518">
        <ele>55.000000</ele>
        <time>2010-01-01T07:24:30Z</time>
      </trkpt>
      <trkpt lat="37.43670860" lon="-8.79607941">
        <ele>56.000000</ele>
        <time>2010-01-01T07:25:00Z</time>
      </trkpt>
      <trkpt lat="37.43602860" lon="-8.79571119">
        <ele>56.000000</ele>
        <time>2010-01-01T07:25:14Z</time>
      </trkpt>
      <trkpt lat="37.43579770" lon="-8.79536988">
        <ele>55.000000</ele>
        <time>2010-01-01T07:25:57Z</time>
      </trkpt>
      <trkpt lat="37.43536060" lon="-8.79413832">
        <ele>51.000000</ele>
        <time>2010-01-01T07:26:07Z</time>
      </trkpt>
      <trkpt lat="37.43517220" lon="-8.79393297">
        <ele>52.000000</ele>
        <time>2010-01-01T07:26:17Z</time>
      </trkpt>
      <trkpt lat="37.43493910" lon="-8.79380020">
        <ele>52.000000</ele>
        <time>2010-01-01T07:26:42Z</time>
      </trkpt>
      <trkpt lat="37.43431720" lon="-8.79366877">
        <ele>54.000000</ele>
        <time>2010-01-01T07:27:08Z</time>
      </trkpt>
      <trkpt lat="37.43366440" lon="-8.79365913">
        <ele>58.000000</ele>
        <time>2010-01-01T07:28:06Z</time>
      </trkpt>
      <trkpt lat="37.43227240" lon="-8.79316829">
        <ele>64.000000</ele>
        <time>2010-01-01T07:28:44Z</time>
      </trkpt>
      <trkpt lat="37.43138450" lon="-8.79274701">
        <ele>65.000000</ele>
        <time>2010-01-01T07:30:28Z</time>
      </trkpt>
      <trkpt lat="37.42929180" lon="-8.79082856">
        <ele>67.000000</ele>
        <time>2010-01-01T07:30:59Z</time>
      </trkpt>
      <trkpt lat="37.42861420" lon="-8.79037016">
        <ele>69.000000</ele>
        <time>2010-01-01T07:31:24Z</time>
      </trkpt>
      <trkpt lat="37.42812340" lon="-8.78984981">
        <ele>71.000000</ele>
        <time>2010-01-01T07:31:58Z</time>
      </trkpt>
      <trkpt lat="37.42749750" lon="-8.78913709">
        <ele>75.000000</ele>
        <time>2010-01-01T07:33:26Z</time>
      </trkpt>
      <trkpt lat="37.42624320" lon="-8.78688613">
        <ele>83.000000</ele>
        <time>2010-01-01T07:34:09Z</time>
      </trkpt>
      <trkpt lat="37.42591330" lon="-8.78557546">
        <ele>84.000000</ele>
        <time>2010-01-01T07:34:41Z</time>
      </trkpt>
      <trkpt lat="37.42592180" lon="-8.78457876">
        <ele>87.000000</ele>
        <time>2010-01-01T07:35:10Z</time>
      </trkpt>
      <trkpt lat="37.42600880" lon="-8.78365743">
        <ele>87.000000</ele>
        <time>2010-01-01T07:35:21Z</time>
      </trkpt>
      <trkpt lat="37.42595840" lon="-8.78334621">
        <ele>88.000000</ele>
        <time>2010-01-01T07:36:00Z</time>
      </trkpt>
      <trkpt lat="37.42501020" lon="-8.78372591">
        <ele>88.000000</ele>
        <time>2010-01-01T07:36:38Z</time>
      </trkpt>
      <trkpt lat="37.42414610" lon="-8.78418800">
        <ele>89.000000</ele>
        <time>2010-01-01T07:36:58Z</time>
      </trkpt>
      <trkpt lat="37.42365630" lon="-8.78432588">
        <ele>88.000000</ele>
        <time>2010-01-01T07:38:15Z</time>
      </trkpt>
      <trkpt lat="37.42186870" lon="-8.78343614">
        <ele>88.000000</ele>
        <time>2010-01-01T07:39:14Z</time>
      </trkpt>
      <trkpt lat="37.42105490" lon="-8.78189471">
        <ele>89.000000</ele>
        <time>2010-01-01T07:39:24Z</time>
      </trkpt>
      <trkpt lat="37.42080720" lon="-8.78184207">
        <ele>89.000000</ele>
        <time>2010-01-01T07:39:38Z</time>
      </trkpt>
      <trkpt lat="37.42053950" lon="-8.78153605">
        <ele>89.000000</ele>
        <time>2010-01-01T07:39:46Z</time>
      </trkpt>
      <trkpt lat="37.42034550" lon="-8.78153027">
        <ele>89.000000</ele>
        <time>2010-01-01T07:40:06Z</time>
      </trkpt>
      <trkpt lat="37.41990580" lon="-8.78181567">
        <ele>89.000000</ele>
        <time>2010-01-01T07:40:16Z</time>
      </trkpt>
      <trkpt lat="37.41985290" lon="-8.78212035">
        <ele>88.000000</ele>
        <time>2010-01-01T07:40:17Z</time>
      </trkpt>
      <trkpt lat="37.41988940" lon="-8.78211918">
        <ele>88.000000</ele>
        <time>2010-01-01T07:40:20Z</time>
      </trkpt>
      <trkpt lat="37.41987630" lon="-8.78202446">
        <ele>88.000000</ele>
        <time>2010-01-01T07:40:28Z</time>
      </trkpt>
      <trkpt lat="37.41968580" lon="-8.78196780">
        <ele>87.000000</ele>
        <time>2010-01-01T07:40:53Z</time>
      </trkpt>
      <trkpt lat="37.41912620" lon="-8.78162196">
        <ele>88.000000</ele>
        <time>2010-01-01T07:41:32Z</time>
      </trkpt>
      <trkpt lat="37.41815530" lon="-8.78166739">
        <ele>86.000000</ele>
        <time>2010-01-01T07:42:52Z</time>
      </trkpt>
      <trkpt lat="37.41630830" lon="-8.78261447">
        <ele>87.000000</ele>
        <time>2010-01-01T07:43:07Z</time>
      </trkpt>
      <trkpt lat="37.41592570" lon="-8.78267398">
        <ele>88.000000</ele>
        <time>2010-01-01T07:43:27Z</time>
      </trkpt>
      <trkpt lat="37.41543710" lon="-8.78262243">
        <ele>90.000000</ele>
        <time>2010-01-01T07:43:40Z</time>
      </trkpt>
      <trkpt lat="37.41512940" lon="-8.78277062">
        <ele>89.000000</ele>
        <time>2010-01-01T07:44:25Z</time>
      </trkpt>
      <trkpt lat="37.41418010" lon="-8.78350764">
        <ele>89.000000</ele>
        <time>2010-01-01T07:44:36Z</time>
      </trkpt>
      <trkpt lat="37.41390320" lon="-8.78352524">
        <ele>88.000000</ele>
        <time>2010-01-01T07:45:36Z</time>
      </trkpt>
      <trkpt lat="37.41245310" lon="-8.78304278">
        <ele>87.000000</ele>
        <time>2010-01-01T07:47:15Z</time>
      </trkpt>
      <trkpt lat="37.41014610" lon="-8.78414643">
        <ele>89.000000</ele>
        <time>2010-01-01T07:47:24Z</time>
      </trkpt>
      <trkpt lat="37.40992470" lon="-8.78412388">
        <ele>88.000000</ele>
        <time>2010-01-01T07:47:46Z</time>
      </trkpt>
      <trkpt lat="37.40956700" lon="-8.78359532">
        <ele>88.000000</ele>
        <time>2010-01-01T07:47:49Z</time>
      </trkpt>
      <trkpt lat="37.40948990" lon="-8.78355760">
        <ele>88.000000</ele>
        <time>2010-01-01T07:48:22Z</time>
      </trkpt>
      <trkpt lat="37.40918800" lon="-8.78453099">
        <ele>84.000000</ele>
        <time>2010-01-01T07:48:38Z</time>
      </trkpt>
      <trkpt lat="37.40913670" lon="-8.78501487">
        <ele>82.000000</ele>
        <time>2010-01-01T07:48:42Z</time>
      </trkpt>
      <trkpt lat="37.40906940" lon="-8.78513172">
        <ele>82.000000</ele>
        <time>2010-01-01T07:48:49Z</time>
      </trkpt>
      <trkpt lat="37.40890130" lon="-8.78509802">
        <ele>81.000000</ele>
        <time>2010-01-01T07:49:37Z</time>
      </trkpt>
      <trkpt lat="37.40769640" lon="-8.78516181">
        <ele>81.000000</ele>
        <time>2010-01-01T07:50:03Z</time>
      </trkpt>
      <trkpt lat="37.40706940" lon="-8.78510515">
        <ele>83.000000</ele>
        <time>2010-01-01T07:50:43Z</time>
      </trkpt>
      <trkpt lat="37.40612190" lon="-8.78467591">
        <ele>85.000000</ele>
        <time>2010-01-01T07:50:58Z</time>
      </trkpt>
      <trkpt lat="37.40578340" lon="-8.78446293">
        <ele>86.000000</ele>
        <time>2010-01-01T07:52:10Z</time>
      </trkpt>
      <trkpt lat="37.40462830" lon="-8.78618482">
        <ele>86.000000</ele>
        <time>2010-01-01T07:53:25Z</time>
      </trkpt>
      <trkpt lat="37.40291490" lon="-8.78716936">
        <ele>87.000000</ele>
        <time>2010-01-01T07:53:33Z</time>
      </trkpt>
      <trkpt lat="37.40272280" lon="-8.78711949">
        <ele>87.000000</ele>
        <time>2010-01-01T07:53:50Z</time>
      </trkpt>
      <trkpt lat="37.40233730" lon="-8.78735234">
        <ele>88.000000</ele>
        <time>2010-01-01T07:54:09Z</time>
      </trkpt>
      <trkpt lat="37.40187450" lon="-8.78737145">
        <ele>87.000000</ele>
        <time>2010-01-01T07:55:03Z</time>
      </trkpt>
      <trkpt lat="37.40055060" lon="-8.78702150">
        <ele>88.000000</ele>
        <time>2010-01-01T07:55:23Z</time>
      </trkpt>
      <trkpt lat="37.40022250" lon="-8.78750489">
        <ele>91.000000</ele>
        <time>2010-01-01T07:56:21Z</time>
      </trkpt>
      <trkpt lat="37.40132150" lon="-8.78866964">
        <ele>87.000000</ele>
        <time>2010-01-01T07:56:34Z</time>
      </trkpt>
      <trkpt lat="37.40124140" lon="-8.78907758">
        <ele>88.000000</ele>
        <time>2010-01-01T07:57:00Z</time>
      </trkpt>
      <trkpt lat="37.40088960" lon="-8.78978108">
        <ele>87.000000</ele>
        <time>2010-01-01T07:57:15Z</time>
      </trkpt>
      <trkpt lat="37.40055790" lon="-8.78998551">
        <ele>88.000000</ele>
        <time>2010-01-01T07:57:19Z</time>
      </trkpt>
      <trkpt lat="37.40048110" lon="-8.78990898">
        <ele>89.000000</ele>
        <time>2010-01-01T07:57:23Z</time>
      </trkpt>
      <trkpt lat="37.40038260" lon="-8.78995517">
        <ele>89.000000</ele>
        <time>2010-01-01T07:58:05Z</time>
      </trkpt>
      <trkpt lat="37.39945120" lon="-8.79051407">
        <ele>88.000000</ele>
        <time>2010-01-01T07:58:59Z</time>
      </trkpt>
      <trkpt lat="37.39816480" lon="-8.79103434">
        <ele>86.000000</ele>
        <time>2010-01-01T07:59:32Z</time>
      </trkpt>
      <trkpt lat="37.39735990" lon="-8.79075991">
        <ele>87.000000</ele>
        <time>2010-01-01T07:59:39Z</time>
      </trkpt>
      <trkpt lat="37.39718680" lon="-8.79081264">
        <ele>87.000000</ele>
        <time>2010-01-01T08:01:06Z</time>
      </trkpt>
      <trkpt lat="37.39526590" lon="-8.79210563">
        <ele>87.000000</ele>
        <time>2010-01-01T08:01:41Z</time>
      </trkpt>
      <trkpt lat="37.39468610" lon="-8.79292815">
        <ele>86.000000</ele>
        <time>2010-01-01T08:02:05Z</time>
      </trkpt>
      <trkpt lat="37.39412910" lon="-8.79316141">
        <ele>85.000000</ele>
        <time>2010-01-01T08:02:13Z</time>
      </trkpt>
      <trkpt lat="37.39393610" lon="-8.79318564">
        <ele>85.000000</ele>
        <time>2010-01-01T08:02:24Z</time>
      </trkpt>
      <trkpt lat="37.39368990" lon="-8.79297492">
        <ele>85.000000</ele>
        <time>2010-01-01T08:02:34Z</time>
      </trkpt>
      <trkpt lat="37.39345800" lon="-8.79294985">
        <ele>85.000000</ele>
        <time>2010-01-01T08:04:04Z</time>
      </trkpt>
      <trkpt lat="37.39134130" lon="-8.79393322">
        <ele>87.000000</ele>
        <time>2010-01-01T08:04:26Z</time>
      </trkpt>
      <trkpt lat="37.39084680" lon="-8.79365553">
        <ele>86.000000</ele>
        <time>2010-01-01T08:04:33Z</time>
      </trkpt>
      <trkpt lat="37.39065680" lon="-8.79364036">
        <ele>86.000000</ele>
        <time>2010-01-01T08:04:59Z</time>
      </trkpt>
      <trkpt lat="37.39003260" lon="-8.79380833">
        <ele>84.000000</ele>
        <time>2010-01-01T08:05:35Z</time>
      </trkpt>
      <trkpt lat="37.38912090" lon="-8.79375628">
        <ele>87.000000</ele>
        <time>2010-01-01T08:06:01Z</time>
      </trkpt>
      <trkpt lat="37.38862590" lon="-8.79425928">
        <ele>86.000000</ele>
        <time>2010-01-01T08:06:15Z</time>
      </trkpt>
      <trkpt lat="37.38827660" lon="-8.79432600">
        <ele>86.000000</ele>
        <time>2010-01-01T08:06:38Z</time>
      </trkpt>
      <trkpt lat="37.38786700" lon="-8.79481894">
        <ele>86.000000</ele>
        <time>2010-01-01T08:06:50Z</time>
      </trkpt>
      <trkpt lat="37.38757220" lon="-8.79485003">
        <ele>86.000000</ele>
        <time>2010-01-01T08:06:58Z</time>
      </trkpt>
      <trkpt lat="37.38738920" lon="-8.79495497">
        <ele>86.000000</ele>
        <time>2010-01-01T08:07:39Z</time>
      </trkpt>
      <trkpt lat="37.38656650" lon="-8.79575033">
        <ele>86.000000</ele>
        <time>2010-01-01T08:07:55Z</time>
      </trkpt>
      <trkpt lat="37.38617450" lon="-8.79562234">
        <ele>87.000000</ele>
        <time>2010-01-01T08:08:20Z</time>
      </trkpt>
      <trkpt lat="37.38563540" lon="-8.79525027">
        <ele>86.000000</ele>
        <time>2010-01-01T08:08:30Z</time>
      </trkpt>
      <trkpt lat="37.38539320" lon="-8.79524298">
        <ele>86.000000</ele>
        <time>2010-01-01T08:09:34Z</time>
      </trkpt>
      <trkpt lat="37.38385170" lon="-8.79580951">
        <ele>89.000000</ele>
        <time>2010-01-01T08:10:34Z</time>
      </trkpt>
      <trkpt lat="37.38268140" lon="-8.79699924">
        <ele>87.000000</ele>
        <time>2010-01-01T08:10:46Z</time>
      </trkpt>
      <trkpt lat="37.38238670" lon="-8.79702455">
        <ele>87.000000</ele>
        <time>2010-01-01T08:11:01Z</time>
      </trkpt>
      <trkpt lat="37.38203630" lon="-8.79682498">
        <ele>88.000000</ele>
        <time>2010-01-01T08:11:09Z</time>
      </trkpt>
      <trkpt lat="37.38185680" lon="-8.79690703">
        <ele>87.000000</ele>
        <time>2010-01-01T08:11:43Z</time>
      </trkpt>
      <trkpt lat="37.38121030" lon="-8.79761614">
        <ele>85.000000</ele>
        <time>2010-01-01T08:11:52Z</time>
      </trkpt>
      <trkpt lat="37.38101240" lon="-8.79769602">
        <ele>85.000000</ele>
        <time>2010-01-01T08:12:41Z</time>
      </trkpt>
      <trkpt lat="37.37978070" lon="-8.79788302">
        <ele>86.000000</ele>
        <time>2010-01-01T08:12:50Z</time>
      </trkpt>
      <trkpt lat="37.37959360" lon="-8.79801252">
        <ele>87.000000</ele>
        <time>2010-01-01T08:12:51Z</time>
      </trkpt>
      <trkpt lat="37.37962200" lon="-8.79804111">
        <ele>87.000000</ele>
        <time>2010-01-01T08:13:24Z</time>
      </trkpt>
      <trkpt lat="37.37900820" lon="-8.79871769">
        <ele>86.000000</ele>
        <time>2010-01-01T08:15:30Z</time>
      </trkpt>
      <trkpt lat="37.37644350" lon="-8.80099439">
        <ele>86.000000</ele>
        <time>2010-01-01T08:15:37Z</time>
      </trkpt>
      <trkpt lat="37.37625530" lon="-8.80104719">
        <ele>86.000000</ele>
        <time>2010-01-01T08:15:42Z</time>
      </trkpt>
      <trkpt lat="37.37616480" lon="-8.80093672">
        <ele>86.000000</ele>
        <time>2010-01-01T08:16:10Z</time>
      </trkpt>
      <trkpt lat="37.37548600" lon="-8.80085583">
        <ele>86.000000</ele>
        <time>2010-01-01T08:16:36Z</time>
      </trkpt>
      <trkpt lat="37.37493540" lon="-8.80130167">
        <ele>86.000000</ele>
        <time>2010-01-01T08:16:43Z</time>
      </trkpt>
      <trkpt lat="37.37491600" lon="-8.80150920">
        <ele>85.000000</ele>
        <time>2010-01-01T08:17:18Z</time>
      </trkpt>
      <trkpt lat="37.37417910" lon="-8.80209459">
        <ele>86.000000</ele>
        <time>2010-01-01T08:18:13Z</time>
      </trkpt>
      <trkpt lat="37.37287320" lon="-8.80270488">
        <ele>86.000000</ele>
        <time>2010-01-01T08:19:06Z</time>
      </trkpt>
      <trkpt lat="37.37181970" lon="-8.80370015">
        <ele>87.000000</ele>
        <time>2010-01-01T08:19:42Z</time>
      </trkpt>
      <trkpt lat="37.37128590" lon="-8.80461478">
        <ele>86.000000</ele>
        <time>2010-01-01T08:19:50Z</time>
      </trkpt>
      <trkpt lat="37.37112950" lon="-8.80474529">
        <ele>85.000000</ele>
        <time>2010-01-01T08:20:24Z</time>
      </trkpt>
      <trkpt lat="37.37032030" lon="-8.80511526">
        <ele>86.000000</ele>
        <time>2010-01-01T08:20:37Z</time>
      </trkpt>
      <trkpt lat="37.37006230" lon="-8.80537661">
        <ele>85.000000</ele>
        <time>2010-01-01T08:20:44Z</time>
      </trkpt>
      <trkpt lat="37.37006700" lon="-8.80559052">
        <ele>84.000000</ele>
        <time>2010-01-01T08:20:59Z</time>
      </trkpt>
      <trkpt lat="37.36987950" lon="-8.80601070">
        <ele>85.000000</ele>
        <time>2010-01-01T08:21:10Z</time>
      </trkpt>
      <trkpt lat="37.36966060" lon="-8.80620868">
        <ele>85.000000</ele>
        <time>2010-01-01T08:21:30Z</time>
      </trkpt>
      <trkpt lat="37.36915860" lon="-8.80618421">
        <ele>86.000000</ele>
        <time>2010-01-01T08:21:55Z</time>
      </trkpt>
      <trkpt lat="37.36864020" lon="-8.80575707">
        <ele>87.000000</ele>
        <time>2010-01-01T08:22:04Z</time>
      </trkpt>
      <trkpt lat="37.36842720" lon="-8.80583401">
        <ele>87.000000</ele>
        <time>2010-01-01T08:22:10Z</time>
      </trkpt>
      <trkpt lat="37.36831430" lon="-8.80594767">
        <ele>87.000000</ele>
        <time>2010-01-01T08:23:04Z</time>
      </trkpt>
      <trkpt lat="37.36770600" lon="-8.80746245">
        <ele>85.000000</ele>
        <time>2010-01-01T08:23:29Z</time>
      </trkpt>
      <trkpt lat="37.36724360" lon="-8.80798716">
        <ele>86.000000</ele>
        <time>2010-01-01T08:24:17Z</time>
      </trkpt>
      <trkpt lat="37.36609280" lon="-8.80842318">
        <ele>86.000000</ele>
        <time>2010-01-01T08:24:31Z</time>
      </trkpt>
      <trkpt lat="37.36576000" lon="-8.80826041">
        <ele>87.000000</ele>
        <time>2010-01-01T08:24:38Z</time>
      </trkpt>
      <trkpt lat="37.36559190" lon="-8.80830173">
        <ele>87.000000</ele>
        <time>2010-01-01T08:25:06Z</time>
      </trkpt>
      <trkpt lat="37.36505870" lon="-8.80889341">
        <ele>86.000000</ele>
        <time>2010-01-01T08:25:16Z</time>
      </trkpt>
      <trkpt lat="37.36482910" lon="-8.80889684">
        <ele>86.000000</ele>
        <time>2010-01-01T08:25:42Z</time>
      </trkpt>
      <trkpt lat="37.36423420" lon="-8.80852318">
        <ele>86.000000</ele>
        <time>2010-01-01T08:25:51Z</time>
      </trkpt>
      <trkpt lat="37.36401930" lon="-8.80860641">
        <ele>86.000000</ele>
        <time>2010-01-01T08:25:57Z</time>
      </trkpt>
      <trkpt lat="37.36390910" lon="-8.80873214">
        <ele>86.000000</ele>
        <time>2010-01-01T08:26:46Z</time>
      </trkpt>
      <trkpt lat="37.36375990" lon="-8.81024465">
        <ele>85.000000</ele>
        <time>2010-01-01T08:26:55Z</time>
      </trkpt>
      <trkpt lat="37.36361740" lon="-8.81045881">
        <ele>86.000000</ele>
        <time>2010-01-01T08:27:22Z</time>
      </trkpt>
      <trkpt lat="37.36301080" lon="-8.81082845">
        <ele>86.000000</ele>
        <time>2010-01-01T08:27:38Z</time>
      </trkpt>
      <trkpt lat="37.36263460" lon="-8.81099022">
        <ele>85.000000</ele>
        <time>2010-01-01T08:27:59Z</time>
      </trkpt>
      <trkpt lat="37.36227520" lon="-8.81151074">
        <ele>85.000000</ele>
        <time>2010-01-01T08:28:08Z</time>
      </trkpt>
      <trkpt lat="37.36230050" lon="-8.81176807">
        <ele>85.000000</ele>
        <time>2010-01-01T08:28:29Z</time>
      </trkpt>
      <trkpt lat="37.36255200" lon="-8.81236435">
        <ele>85.000000</ele>
        <time>2010-01-01T08:28:39Z</time>
      </trkpt>
      <trkpt lat="37.36245320" lon="-8.81265998">
        <ele>86.000000</ele>
        <time>2010-01-01T08:28:52Z</time>
      </trkpt>
      <trkpt lat="37.36224230" lon="-8.81293483">
        <ele>86.000000</ele>
        <time>2010-01-01T08:29:03Z</time>
      </trkpt>
      <trkpt lat="37.36195630" lon="-8.81299945">
        <ele>86.000000</ele>
        <time>2010-01-01T08:29:17Z</time>
      </trkpt>
      <trkpt lat="37.36163650" lon="-8.81285470">
        <ele>85.000000</ele>
        <time>2010-01-01T08:29:24Z</time>
      </trkpt>
      <trkpt lat="37.36147020" lon="-8.81294195">
        <ele>85.000000</ele>
        <time>2010-01-01T08:30:06Z</time>
      </trkpt>
      <trkpt lat="37.36066530" lon="-8.81378064">
        <ele>86.000000</ele>
        <time>2010-01-01T08:30:15Z</time>
      </trkpt>
      <trkpt lat="37.36042710" lon="-8.81382079">
        <ele>85.000000</ele>
        <time>2010-01-01T08:30:31Z</time>
      </trkpt>
      <trkpt lat="37.36006140" lon="-8.81369859">
        <ele>85.000000</ele>
        <time>2010-01-01T08:30:40Z</time>
      </trkpt>
      <trkpt lat="37.35984240" lon="-8.81383177">
        <ele>85.000000</ele>
        <time>2010-01-01T08:31:21Z</time>
      </trkpt>
      <trkpt lat="37.35912880" lon="-8.81475739">
        <ele>84.000000</ele>
        <time>2010-01-01T08:31:29Z</time>
      </trkpt>
      <trkpt lat="37.35896200" lon="-8.81461959">
        <ele>85.000000</ele>
        <time>2010-01-01T08:32:18Z</time>
      </trkpt>
      <trkpt lat="37.35811810" lon="-8.81353975">
        <ele>87.000000</ele>
        <time>2010-01-01T08:32:38Z</time>
      </trkpt>
      <trkpt lat="37.35769150" lon="-8.81389833">
        <ele>85.000000</ele>
        <time>2010-01-01T08:33:30Z</time>
      </trkpt>
      <trkpt lat="37.35668610" lon="-8.81494313">
        <ele>88.000000</ele>
        <time>2010-01-01T08:35:06Z</time>
      </trkpt>
      <trkpt lat="37.35528040" lon="-8.81735854">
        <ele>85.000000</ele>
        <time>2010-01-01T08:35:17Z</time>
      </trkpt>
      <trkpt lat="37.35499580" lon="-8.81742375">
        <ele>86.000000</ele>
        <time>2010-01-01T08:35:39Z</time>
      </trkpt>
      <trkpt lat="37.35445420" lon="-8.81730834">
        <ele>86.000000</ele>
        <time>2010-01-01T08:35:45Z</time>
      </trkpt>
      <trkpt lat="37.35431100" lon="-8.81734899">
        <ele>87.000000</ele>
        <time>2010-01-01T08:35:56Z</time>
      </trkpt>
      <trkpt lat="37.35409620" lon="-8.81758226">
        <ele>87.000000</ele>
        <time>2010-01-01T08:36:05Z</time>
      </trkpt>
      <trkpt lat="37.35399180" lon="-8.81780832">
        <ele>87.000000</ele>
        <time>2010-01-01T08:36:23Z</time>
      </trkpt>
      <trkpt lat="37.35360180" lon="-8.81812809">
        <ele>87.000000</ele>
        <time>2010-01-01T08:36:32Z</time>
      </trkpt>
      <trkpt lat="37.35337420" lon="-8.81810956">
        <ele>88.000000</ele>
        <time>2010-01-01T08:36:43Z</time>
      </trkpt>
      <trkpt lat="37.35312950" lon="-8.81798098">
        <ele>89.000000</ele>
        <time>2010-01-01T08:37:00Z</time>
      </trkpt>
      <trkpt lat="37.35271690" lon="-8.81798987">
        <ele>90.000000</ele>
        <time>2010-01-01T08:37:15Z</time>
      </trkpt>
      <trkpt lat="37.35236650" lon="-8.81820738">
        <ele>90.000000</ele>
        <time>2010-01-01T08:37:34Z</time>
      </trkpt>
      <trkpt lat="37.35200840" lon="-8.81860032">
        <ele>89.000000</ele>
        <time>2010-01-01T08:37:53Z</time>
      </trkpt>
      <trkpt lat="37.35159880" lon="-8.81891313">
        <ele>90.000000</ele>
        <time>2010-01-01T08:38:09Z</time>
      </trkpt>
      <trkpt lat="37.35123750" lon="-8.81906778">
        <ele>91.000000</ele>
        <time>2010-01-01T08:38:23Z</time>
      </trkpt>
      <trkpt lat="37.35093630" lon="-8.81932544">
        <ele>91.000000</ele>
        <time>2010-01-01T08:38:51Z</time>
      </trkpt>
      <trkpt lat="37.35089000" lon="-8.82018685">
        <ele>90.000000</ele>
        <time>2010-01-01T08:39:14Z</time>
      </trkpt>
      <trkpt lat="37.35092370" lon="-8.82091247">
        <ele>87.000000</ele>
        <time>2010-01-01T08:39:57Z</time>
      </trkpt>
      <trkpt lat="37.35111160" lon="-8.82225316">
        <ele>83.000000</ele>
        <time>2010-01-01T08:41:24Z</time>
      </trkpt>
      <trkpt lat="37.35164670" lon="-8.82490117">
        <ele>77.000000</ele>
        <time>2010-01-01T08:42:44Z</time>
      </trkpt>
      <trkpt lat="37.35221960" lon="-8.82730761">
        <ele>74.000000</ele>
        <time>2010-01-01T08:43:07Z</time>
      </trkpt>
      <trkpt lat="37.35227990" lon="-8.82803072">
        <ele>71.000000</ele>
        <time>2010-01-01T08:43:22Z</time>
      </trkpt>
      <trkpt lat="37.35241600" lon="-8.82844797">
        <ele>68.000000</ele>
        <time>2010-01-01T08:43:48Z</time>
      </trkpt>
      <trkpt lat="37.35297280" lon="-8.82892222">
        <ele>65.000000</ele>
        <time>2010-01-01T08:44:05Z</time>
      </trkpt>
      <trkpt lat="37.35308580" lon="-8.82941356">
        <ele>61.000000</ele>
        <time>2010-01-01T08:44:45Z</time>
      </trkpt>
      <trkpt lat="37.35261130" lon="-8.83054445">
        <ele>48.000000</ele>
        <time>2010-01-01T08:45:07Z</time>
      </trkpt>
      <trkpt lat="37.35243940" lon="-8.83119002">
        <ele>39.000000</ele>
        <time>2010-01-01T08:45:18Z</time>
      </trkpt>
      <trkpt lat="37.35247680" lon="-8.83152740">
        <ele>40.000000</ele>
        <time>2010-01-01T08:45:35Z</time>
      </trkpt>
      <trkpt lat="37.35241800" lon="-8.83205085">
        <ele>35.000000</ele>
        <time>2010-01-01T08:46:24Z</time>
      </trkpt>
      <trkpt lat="37.35205670" lon="-8.83351584">
        <ele>22.000000</ele>
        <time>2010-01-01T08:46:46Z</time>
      </trkpt>
      <trkpt lat="37.35166300" lon="-8.83399662">
        <ele>16.000000</ele>
        <time>2010-01-01T08:47:02Z</time>
      </trkpt>
      <trkpt lat="37.35128000" lon="-8.83421413">
        <ele>10.000000</ele>
        <time>2010-01-01T08:47:30Z</time>
      </trkpt>
      <trkpt lat="37.35078730" lon="-8.83482961">
        <ele>10.000000</ele>
        <time>2010-01-01T08:47:40Z</time>
      </trkpt>
      <trkpt lat="37.35065760" lon="-8.83510412">
        <ele>9.0000000</ele>
        <time>2010-01-01T08:47:58Z</time>
      </trkpt>
      <trkpt lat="37.35053210" lon="-8.83563763">
        <ele>6.0000000</ele>
        <time>2010-01-01T08:48:11Z</time>
      </trkpt>
      <trkpt lat="37.35063450" lon="-8.83601834">
        <ele>6.0000000</ele>
        <time>2010-01-01T08:48:21Z</time>
      </trkpt>
      <trkpt lat="37.35081950" lon="-8.83622042">
        <ele>6.0000000</ele>
        <time>2010-01-01T08:48:53Z</time>
      </trkpt>
      <trkpt lat="37.35079620" lon="-8.83724318">
        <ele>11.000000</ele>
        <time>2010-01-01T08:49:17Z</time>
      </trkpt>
      <trkpt lat="37.35049490" lon="-8.83788163">
        <ele>12.000000</ele>
        <time>2010-01-01T08:49:50Z</time>
      </trkpt>
      <trkpt lat="37.34989990" lon="-8.83862947">
        <ele>6.0000000</ele>
        <time>2010-01-01T08:49:57Z</time>
      </trkpt>
      <trkpt lat="37.34984240" lon="-8.83882359">
        <ele>5.0000000</ele>
        <time>2010-01-01T08:50:10Z</time>
      </trkpt>
      <trkpt lat="37.34986750" lon="-8.83921612">
        <ele>6.0000000</ele>
        <time>2010-01-01T08:50:22Z</time>
      </trkpt>
      <trkpt lat="37.34976910" lon="-8.83958702">
        <ele>8.0000000</ele>
        <time>2010-01-01T08:51:20Z</time>
      </trkpt>
      <trkpt lat="37.35085050" lon="-8.84078445">
        <ele>12.000000</ele>
        <time>2010-01-01T08:51:44Z</time>
      </trkpt>
      <trkpt lat="37.35122600" lon="-8.84136901">
        <ele>15.000000</ele>
        <time>2010-01-01T08:52:04Z</time>
      </trkpt>
      <trkpt lat="37.35141720" lon="-8.84196303">
        <ele>15.000000</ele>
        <time>2010-01-01T08:53:07Z</time>
      </trkpt>
      <trkpt lat="37.35228420" lon="-8.84360203">
        <ele>12.000000</ele>
        <time>2010-01-01T08:53:15Z</time>
      </trkpt>
      <trkpt lat="37.35227970" lon="-8.84386690">
        <ele>9.0000000</ele>
        <time>2010-01-01T08:53:27Z</time>
      </trkpt>
      <trkpt lat="37.35236730" lon="-8.84421123">
        <ele>6.0000000</ele>
        <time>2010-01-01T08:53:43Z</time>
      </trkpt>
      <trkpt lat="37.35225370" lon="-8.84371519">
        <ele>11.000000</ele>
        <time>2010-01-01T08:54:44Z</time>
      </trkpt>
      <trkpt lat="37.35143260" lon="-8.84210754">
        <ele>13.000000</ele>
        <time>2010-01-01T08:55:17Z</time>
      </trkpt>
      <trkpt lat="37.35109800" lon="-8.84116139">
        <ele>14.000000</ele>
        <time>2010-01-01T08:56:11Z</time>
      </trkpt>
      <trkpt lat="37.35011790" lon="-8.83998591">
        <ele>9.0000000</ele>
        <time>2010-01-01T08:56:36Z</time>
      </trkpt>
      <trkpt lat="37.34959130" lon="-8.83957930">
        <ele>9.0000000</ele>
        <time>2010-01-01T08:57:03Z</time>
      </trkpt>
      <trkpt lat="37.34895540" lon="-8.83930010">
        <ele>6.0000000</ele>
        <time>2010-01-01T08:57:29Z</time>
      </trkpt>
      <trkpt lat="37.34830000" lon="-8.83914227">
        <ele>10.000000</ele>
        <time>2010-01-01T08:57:53Z</time>
      </trkpt>
      <trkpt lat="37.34778950" lon="-8.83874111">
        <ele>13.000000</ele>
        <time>2010-01-01T08:58:32Z</time>
      </trkpt>
      <trkpt lat="37.34704980" lon="-8.83797668">
        <ele>12.000000</ele>
        <time>2010-01-01T08:59:10Z</time>
      </trkpt>
      <trkpt lat="37.34620760" lon="-8.83739749">
        <ele>10.000000</ele>
        <time>2010-01-01T08:59:40Z</time>
      </trkpt>
      <trkpt lat="37.34551510" lon="-8.83710036">
        <ele>9.0000000</ele>
        <time>2010-01-01T09:00:44Z</time>
      </trkpt>
      <trkpt lat="37.34392380" lon="-8.83730093">
        <ele>10.000000</ele>
        <time>2010-01-01T09:01:15Z</time>
      </trkpt>
      <trkpt lat="37.34314630" lon="-8.83730948">
        <ele>8.0000000</ele>
        <time>2010-01-01T09:01:44Z</time>
      </trkpt>
      <trkpt lat="37.34240840" lon="-8.83724151">
        <ele>2.0000000</ele>
        <time>2010-01-01T09:02:06Z</time>
      </trkpt>
      <trkpt lat="37.34197130" lon="-8.83683088">
        <ele>0.0000000</ele>
        <time>2010-01-01T09:02:46Z</time>
      </trkpt>
      <trkpt lat="37.34154300" lon="-8.83571617">
        <ele>3.0000000</ele>
        <time>2010-01-01T09:03:11Z</time>
      </trkpt>
      <trkpt lat="37.34121880" lon="-8.83503841">
        <ele>7.0000000</ele>
        <time>2010-01-01T09:04:10Z</time>
      </trkpt>
      <trkpt lat="37.34022150" lon="-8.83366495">
        <ele>7.0000000</ele>
        <time>2010-01-01T09:06:29Z</time>
      </trkpt>
      <trkpt lat="37.33720430" lon="-8.83148842">
        <ele>2.0000000</ele>
        <time>2010-01-01T09:07:05Z</time>
      </trkpt>
      <trkpt lat="37.33639810" lon="-8.83097101">
        <ele>5.0000000</ele>
        <time>2010-01-01T09:07:34Z</time>
      </trkpt>
      <trkpt lat="37.33571300" lon="-8.83074444">
        <ele>8.0000000</ele>
        <time>2010-01-01T09:07:47Z</time>
      </trkpt>
      <trkpt lat="37.33539130" lon="-8.83069625">
        <ele>8.0000000</ele>
        <time>2010-01-01T09:08:02Z</time>
      </trkpt>
      <trkpt lat="37.33505020" lon="-8.83046122">
        <ele>9.0000000</ele>
        <time>2010-01-01T09:08:37Z</time>
      </trkpt>
      <trkpt lat="37.33448160" lon="-8.82961959">
        <ele>8.0000000</ele>
        <time>2010-01-01T09:08:47Z</time>
      </trkpt>
      <trkpt lat="37.33429600" lon="-8.82944156">
        <ele>9.0000000</ele>
        <time>2010-01-01T09:08:59Z</time>
      </trkpt>
      <trkpt lat="37.33403020" lon="-8.82928054">
        <ele>12.000000</ele>
        <time>2010-01-01T09:09:29Z</time>
      </trkpt>
      <trkpt lat="37.33328640" lon="-8.82914266">
        <ele>8.0000000</ele>
        <time>2010-01-01T09:09:53Z</time>
      </trkpt>
      <trkpt lat="37.33275020" lon="-8.82878945">
        <ele>7.0000000</ele>
        <time>2010-01-01T09:10:54Z</time>
      </trkpt>
      <trkpt lat="37.33183200" lon="-8.82723745">
        <ele>6.0000000</ele>
        <time>2010-01-01T09:11:27Z</time>
      </trkpt>
      <trkpt lat="37.33145120" lon="-8.82632391">
        <ele>5.0000000</ele>
        <time>2010-01-01T09:12:40Z</time>
      </trkpt>
      <trkpt lat="37.33045040" lon="-8.82443019">
        <ele>9.0000000</ele>
        <time>2010-01-01T09:12:59Z</time>
      </trkpt>
      <trkpt lat="37.33003860" lon="-8.82414126">
        <ele>13.000000</ele>
        <time>2010-01-01T09:13:27Z</time>
      </trkpt>
      <trkpt lat="37.32934370" lon="-8.82392861">
        <ele>17.000000</ele>
        <time>2010-01-01T09:13:55Z</time>
      </trkpt>
      <trkpt lat="37.32869110" lon="-8.82364623">
        <ele>10.000000</ele>
        <time>2010-01-01T09:14:10Z</time>
      </trkpt>
      <trkpt lat="37.32839300" lon="-8.82333350">
        <ele>5.0000000</ele>
        <time>2010-01-01T09:15:52Z</time>
      </trkpt>
      <trkpt lat="37.32707670" lon="-8.82061785">
        <ele>15.000000</ele>
        <time>2010-01-01T09:16:42Z</time>
      </trkpt>
      <trkpt lat="37.32611750" lon="-8.81961344">
        <ele>14.000000</ele>
        <time>2010-01-01T09:17:14Z</time>
      </trkpt>
      <trkpt lat="37.32534960" lon="-8.81927071">
        <ele>12.000000</ele>
        <time>2010-01-01T09:17:37Z</time>
      </trkpt>
      <trkpt lat="37.32478390" lon="-8.81935461">
        <ele>17.000000</ele>
        <time>2010-01-01T09:17:54Z</time>
      </trkpt>
      <trkpt lat="37.32442700" lon="-8.81963188">
        <ele>14.000000</ele>
        <time>2010-01-01T09:18:13Z</time>
      </trkpt>
      <trkpt lat="37.32394880" lon="-8.81972559">
        <ele>7.0000000</ele>
        <time>2010-01-01T09:18:27Z</time>
      </trkpt>
      <trkpt lat="37.32370000" lon="-8.81941337">
        <ele>7.0000000</ele>
        <time>2010-01-01T09:18:39Z</time>
      </trkpt>
      <trkpt lat="37.32373310" lon="-8.81904507">
        <ele>10.000000</ele>
        <time>2010-01-01T09:19:22Z</time>
      </trkpt>
      <trkpt lat="37.32428740" lon="-8.81789683">
        <ele>9.0000000</ele>
        <time>2010-01-01T09:19:50Z</time>
      </trkpt>
      <trkpt lat="37.32433160" lon="-8.81701782">
        <ele>14.000000</ele>
        <time>2010-01-01T09:20:09Z</time>
      </trkpt>
      <trkpt lat="37.32423760" lon="-8.81641340">
        <ele>12.000000</ele>
        <time>2010-01-01T09:20:47Z</time>
      </trkpt>
      <trkpt lat="37.32369210" lon="-8.81544051">
        <ele>8.0000000</ele>
        <time>2010-01-01T09:21:07Z</time>
      </trkpt>
      <trkpt lat="37.32323700" lon="-8.81518763">
        <ele>8.0000000</ele>
        <time>2010-01-01T09:21:51Z</time>
      </trkpt>
      <trkpt lat="37.32216470" lon="-8.81546960">
        <ele>6.0000000</ele>
        <time>2010-01-01T09:22:01Z</time>
      </trkpt>
      <trkpt lat="37.32192030" lon="-8.81547966">
        <ele>6.0000000</ele>
        <time>2010-01-01T09:22:10Z</time>
      </trkpt>
      <trkpt lat="37.32169390" lon="-8.81540992">
        <ele>8.0000000</ele>
        <time>2010-01-01T09:22:22Z</time>
      </trkpt>
      <trkpt lat="37.32146270" lon="-8.81516232">
        <ele>12.000000</ele>
        <time>2010-01-01T09:22:31Z</time>
      </trkpt>
      <trkpt lat="37.32141360" lon="-8.81490491">
        <ele>15.000000</ele>
        <time>2010-01-01T09:22:43Z</time>
      </trkpt>
      <trkpt lat="37.32150110" lon="-8.81452638">
        <ele>18.000000</ele>
        <time>2010-01-01T09:23:45Z</time>
      </trkpt>
      <trkpt lat="37.32228290" lon="-8.81285964">
        <ele>21.000000</ele>
        <time>2010-01-01T09:24:01Z</time>
      </trkpt>
      <trkpt lat="37.32227980" lon="-8.81234834">
        <ele>17.000000</ele>
        <time>2010-01-01T09:24:58Z</time>
      </trkpt>
      <trkpt lat="37.32189280" lon="-8.81064120">
        <ele>15.000000</ele>
        <time>2010-01-01T09:25:37Z</time>
      </trkpt>
      <trkpt lat="37.32153720" lon="-8.80950151">
        <ele>18.000000</ele>
        <time>2010-01-01T09:25:47Z</time>
      </trkpt>
      <trkpt lat="37.32131150" lon="-8.80935098">
        <ele>18.000000</ele>
        <time>2010-01-01T09:26:06Z</time>
      </trkpt>
      <trkpt lat="37.32084290" lon="-8.80918107">
        <ele>16.000000</ele>
        <time>2010-01-01T09:26:30Z</time>
      </trkpt>
      <trkpt lat="37.32044180" lon="-8.80863969">
        <ele>21.000000</ele>
        <time>2010-01-01T09:26:49Z</time>
      </trkpt>
      <trkpt lat="37.32016220" lon="-8.80815077">
        <ele>24.000000</ele>
        <time>2010-01-01T09:27:03Z</time>
      </trkpt>
      <trkpt lat="37.32009690" lon="-8.80770888">
        <ele>27.000000</ele>
        <time>2010-01-01T09:27:11Z</time>
      </trkpt>
      <trkpt lat="37.32016420" lon="-8.80749187">
        <ele>28.000000</ele>
        <time>2010-01-01T09:27:25Z</time>
      </trkpt>
      <trkpt lat="37.32044000" lon="-8.80719599">
        <ele>27.000000</ele>
        <time>2010-01-01T09:27:38Z</time>
      </trkpt>
      <trkpt lat="37.32074990" lon="-8.80711066">
        <ele>25.000000</ele>
        <time>2010-01-01T09:27:47Z</time>
      </trkpt>
      <trkpt lat="37.32098000" lon="-8.80711083">
        <ele>24.000000</ele>
        <time>2010-01-01T09:28:11Z</time>
      </trkpt>
      <trkpt lat="37.32148400" lon="-8.80673658">
        <ele>20.000000</ele>
        <time>2010-01-01T09:28:39Z</time>
      </trkpt>
      <trkpt lat="37.32216580" lon="-8.80648571">
        <ele>15.000000</ele>
        <time>2010-01-01T09:29:58Z</time>
      </trkpt>
      <trkpt lat="37.32414020" lon="-8.80636065">
        <ele>16.000000</ele>
        <time>2010-01-01T09:30:09Z</time>
      </trkpt>
      <trkpt lat="37.32438070" lon="-8.80621816">
        <ele>19.000000</ele>
        <time>2010-01-01T09:30:40Z</time>
      </trkpt>
      <trkpt lat="37.32493420" lon="-8.80552707">
        <ele>20.000000</ele>
        <time>2010-01-01T09:31:26Z</time>
      </trkpt>
      <trkpt lat="37.32562120" lon="-8.80437271">
        <ele>15.000000</ele>
        <time>2010-01-01T09:31:39Z</time>
      </trkpt>
      <trkpt lat="37.32556840" lon="-8.80397658">
        <ele>14.000000</ele>
        <time>2010-01-01T09:32:02Z</time>
      </trkpt>
      <trkpt lat="37.32520360" lon="-8.80342690">
        <ele>9.0000000</ele>
        <time>2010-01-01T09:32:11Z</time>
      </trkpt>
      <trkpt lat="37.32496920" lon="-8.80337803">
        <ele>7.0000000</ele>
        <time>2010-01-01T09:32:21Z</time>
      </trkpt>
      <trkpt lat="37.32472630" lon="-8.80346311">
        <ele>7.0000000</ele>
        <time>2010-01-01T09:32:51Z</time>
      </trkpt>
      <trkpt lat="37.32407760" lon="-8.80301040">
        <ele>8.0000000</ele>
        <time>2010-01-01T09:33:14Z</time>
      </trkpt>
      <trkpt lat="37.32350530" lon="-8.80288677">
        <ele>9.0000000</ele>
        <time>2010-01-01T09:33:31Z</time>
      </trkpt>
      <trkpt lat="37.32307840" lon="-8.80294821">
        <ele>17.000000</ele>
        <time>2010-01-01T09:33:43Z</time>
      </trkpt>
      <trkpt lat="37.32281770" lon="-8.80276003">
        <ele>22.000000</ele>
        <time>2010-01-01T09:33:59Z</time>
      </trkpt>
      <trkpt lat="37.32253390" lon="-8.80241219">
        <ele>17.000000</ele>
        <time>2010-01-01T09:34:12Z</time>
      </trkpt>
      <trkpt lat="37.32224710" lon="-8.80224539">
        <ele>14.000000</ele>
        <time>2010-01-01T09:34:50Z</time>
      </trkpt>
      <trkpt lat="37.32130840" lon="-8.80219820">
        <ele>16.000000</ele>
        <time>2010-01-01T09:35:10Z</time>
      </trkpt>
      <trkpt lat="37.32080500" lon="-8.80224522">
        <ele>17.000000</ele>
        <time>2010-01-01T09:35:53Z</time>
      </trkpt>
      <trkpt lat="37.31975180" lon="-8.80260053">
        <ele>24.000000</ele>
        <time>2010-01-01T09:36:09Z</time>
      </trkpt>
      <trkpt lat="37.31941520" lon="-8.80284360">
        <ele>27.000000</ele>
        <time>2010-01-01T09:36:21Z</time>
      </trkpt>
      <trkpt lat="37.31925500" lon="-8.80316027">
        <ele>31.000000</ele>
        <time>2010-01-01T09:36:33Z</time>
      </trkpt>
      <trkpt lat="37.31924340" lon="-8.80355162">
        <ele>38.000000</ele>
        <time>2010-01-01T09:36:53Z</time>
      </trkpt>
      <trkpt lat="37.31906130" lon="-8.80410986">
        <ele>37.000000</ele>
        <time>2010-01-01T09:37:03Z</time>
      </trkpt>
      <trkpt lat="37.31884020" lon="-8.80426811">
        <ele>38.000000</ele>
        <time>2010-01-01T09:37:21Z</time>
      </trkpt>
      <trkpt lat="37.31839820" lon="-8.80445368">
        <ele>44.000000</ele>
        <time>2010-01-01T09:37:31Z</time>
      </trkpt>
      <trkpt lat="37.31815780" lon="-8.80443013">
        <ele>47.000000</ele>
        <time>2010-01-01T09:37:44Z</time>
      </trkpt>
      <trkpt lat="37.31784660" lon="-8.80454697">
        <ele>50.000000</ele>
        <time>2010-01-01T09:37:50Z</time>
      </trkpt>
      <trkpt lat="37.31770220" lon="-8.80449953">
        <ele>52.000000</ele>
        <time>2010-01-01T09:37:59Z</time>
      </trkpt>
      <trkpt lat="37.31749230" lon="-8.80458201">
        <ele>56.000000</ele>
        <time>2010-01-01T09:38:18Z</time>
      </trkpt>
      <trkpt lat="37.31710950" lon="-8.80493723">
        <ele>66.000000</ele>
        <time>2010-01-01T09:38:26Z</time>
      </trkpt>
      <trkpt lat="37.31692050" lon="-8.80500420">
        <ele>70.000000</ele>
        <time>2010-01-01T09:38:52Z</time>
      </trkpt>
      <trkpt lat="37.31647570" lon="-8.80562472">
        <ele>66.000000</ele>
        <time>2010-01-01T09:39:03Z</time>
      </trkpt>
      <trkpt lat="37.31623120" lon="-8.80571851">
        <ele>66.000000</ele>
        <time>2010-01-01T09:39:18Z</time>
      </trkpt>
      <trkpt lat="37.31585820" lon="-8.80559136">
        <ele>66.000000</ele>
        <time>2010-01-01T09:39:44Z</time>
      </trkpt>
      <trkpt lat="37.31520890" lon="-8.80570108">
        <ele>52.000000</ele>
        <time>2010-01-01T09:40:06Z</time>
      </trkpt>
      <trkpt lat="37.31476540" lon="-8.80611673">
        <ele>52.000000</ele>
        <time>2010-01-01T09:40:21Z</time>
      </trkpt>
      <trkpt lat="37.31439080" lon="-8.80606292">
        <ele>60.000000</ele>
        <time>2010-01-01T09:40:34Z</time>
      </trkpt>
      <trkpt lat="37.31408220" lon="-8.80613559">
        <ele>63.000000</ele>
        <time>2010-01-01T09:41:15Z</time>
      </trkpt>
      <trkpt lat="37.31308150" lon="-8.80594574">
        <ele>72.000000</ele>
        <time>2010-01-01T09:41:31Z</time>
      </trkpt>
      <trkpt lat="37.31270640" lon="-8.80618010">
        <ele>76.000000</ele>
        <time>2010-01-01T09:42:04Z</time>
      </trkpt>
      <trkpt lat="37.31215340" lon="-8.80692198">
        <ele>84.000000</ele>
        <time>2010-01-01T09:42:21Z</time>
      </trkpt>
      <trkpt lat="37.31191900" lon="-8.80736832">
        <ele>86.000000</ele>
        <time>2010-01-01T09:42:49Z</time>
      </trkpt>
      <trkpt lat="37.31163120" lon="-8.80818229">
        <ele>85.000000</ele>
        <time>2010-01-01T09:43:17Z</time>
      </trkpt>
      <trkpt lat="37.31141970" lon="-8.80900966">
        <ele>87.000000</ele>
        <time>2010-01-01T09:43:32Z</time>
      </trkpt>
      <trkpt lat="37.31118360" lon="-8.80940118">
        <ele>91.000000</ele>
        <time>2010-01-01T09:44:04Z</time>
      </trkpt>
      <trkpt lat="37.31064450" lon="-8.81010484">
        <ele>98.000000</ele>
        <time>2010-01-01T09:44:18Z</time>
      </trkpt>
      <trkpt lat="37.31035680" lon="-8.81039075">
        <ele>100.00000</ele>
        <time>2010-01-01T09:44:47Z</time>
      </trkpt>
      <trkpt lat="37.30967060" lon="-8.81068018">
        <ele>108.00000</ele>
        <time>2010-01-01T09:45:26Z</time>
      </trkpt>
      <trkpt lat="37.30937800" lon="-8.81185121">
        <ele>117.00000</ele>
        <time>2010-01-01T09:45:37Z</time>
      </trkpt>
      <trkpt lat="37.30946360" lon="-8.81218683">
        <ele>116.00000</ele>
        <time>2010-01-01T09:45:45Z</time>
      </trkpt>
      <trkpt lat="37.30935900" lon="-8.81237031">
        <ele>117.00000</ele>
        <time>2010-01-01T09:47:14Z</time>
      </trkpt>
      <trkpt lat="37.30715350" lon="-8.81202841">
        <ele>122.00000</ele>
        <time>2010-01-01T09:48:06Z</time>
      </trkpt>
      <trkpt lat="37.30586130" lon="-8.81222505">
        <ele>130.00000</ele>
        <time>2010-01-01T09:49:37Z</time>
      </trkpt>
      <trkpt lat="37.30358580" lon="-8.81230660">
        <ele>132.00000</ele>
        <time>2010-01-01T09:49:59Z</time>
      </trkpt>
      <trkpt lat="37.30302400" lon="-8.81229730">
        <ele>128.00000</ele>
        <time>2010-01-01T09:51:34Z</time>
      </trkpt>
      <trkpt lat="37.30066800" lon="-8.81206613">
        <ele>131.00000</ele>
        <time>2010-01-01T09:51:57Z</time>
      </trkpt>
      <trkpt lat="37.30010370" lon="-8.81207224">
        <ele>133.00000</ele>
        <time>2010-01-01T09:52:48Z</time>
      </trkpt>
      <trkpt lat="37.29893120" lon="-8.81272318">
        <ele>139.00000</ele>
        <time>2010-01-01T09:53:04Z</time>
      </trkpt>
      <trkpt lat="37.29852320" lon="-8.81279368">
        <ele>140.00000</ele>
        <time>2010-01-01T09:53:30Z</time>
      </trkpt>
      <trkpt lat="37.29789800" lon="-8.81265521">
        <ele>139.00000</ele>
        <time>2010-01-01T09:53:54Z</time>
      </trkpt>
      <trkpt lat="37.29728360" lon="-8.81266526">
        <ele>134.00000</ele>
        <time>2010-01-01T09:54:27Z</time>
      </trkpt>
      <trkpt lat="37.29649000" lon="-8.81283081">
        <ele>132.00000</ele>
        <time>2010-01-01T09:54:57Z</time>
      </trkpt>
      <trkpt lat="37.29578700" lon="-8.81319575">
        <ele>135.00000</ele>
        <time>2010-01-01T09:55:23Z</time>
      </trkpt>
      <trkpt lat="37.29532440" lon="-8.81374896">
        <ele>134.00000</ele>
        <time>2010-01-01T09:56:33Z</time>
      </trkpt>
      <trkpt lat="37.29508940" lon="-8.81595181">
        <ele>136.00000</ele>
        <time>2010-01-01T09:57:02Z</time>
      </trkpt>
      <trkpt lat="37.29493980" lon="-8.81683845">
        <ele>138.00000</ele>
        <time>2010-01-01T09:57:28Z</time>
      </trkpt>
      <trkpt lat="37.29475100" lon="-8.81762811">
        <ele>139.00000</ele>
        <time>2010-01-01T09:58:27Z</time>
      </trkpt>
      <trkpt lat="37.29449320" lon="-8.81942837">
        <ele>136.00000</ele>
        <time>2010-01-01T09:58:59Z</time>
      </trkpt>
      <trkpt lat="37.29418640" lon="-8.82036664">
        <ele>135.00000</ele>
        <time>2010-01-01T10:00:05Z</time>
      </trkpt>
      <trkpt lat="37.29406570" lon="-8.82242566">
        <ele>130.00000</ele>
        <time>2010-01-01T10:00:33Z</time>
      </trkpt>
      <trkpt lat="37.29410370" lon="-8.82331087">
        <ele>124.00000</ele>
        <time>2010-01-01T10:01:44Z</time>
      </trkpt>
      <trkpt lat="37.29457550" lon="-8.82545010">
        <ele>118.00000</ele>
        <time>2010-01-01T10:02:13Z</time>
      </trkpt>
      <trkpt lat="37.29482720" lon="-8.82632819">
        <ele>120.00000</ele>
        <time>2010-01-01T10:02:40Z</time>
      </trkpt>
      <trkpt lat="37.29518210" lon="-8.82705272">
        <ele>120.00000</ele>
        <time>2010-01-01T10:03:32Z</time>
      </trkpt>
      <trkpt lat="37.29596320" lon="-8.82832023">
        <ele>122.00000</ele>
        <time>2010-01-01T10:03:47Z</time>
      </trkpt>
      <trkpt lat="37.29615860" lon="-8.82875005">
        <ele>122.00000</ele>
        <time>2010-01-01T10:04:04Z</time>
      </trkpt>
      <trkpt lat="37.29627150" lon="-8.82923847">
        <ele>121.00000</ele>
        <time>2010-01-01T10:05:01Z</time>
      </trkpt>
      <trkpt lat="37.29625130" lon="-8.83104527">
        <ele>121.00000</ele>
        <time>2010-01-01T10:07:40Z</time>
      </trkpt>
      <trkpt lat="37.29575690" lon="-8.83599621">
        <ele>120.00000</ele>
        <time>2010-01-01T10:09:16Z</time>
      </trkpt>
      <trkpt lat="37.29569750" lon="-8.83902174">
        <ele>124.00000</ele>
        <time>2010-01-01T10:09:34Z</time>
      </trkpt>
      <trkpt lat="37.29548510" lon="-8.83951091">
        <ele>122.00000</ele>
        <time>2010-01-01T10:10:34Z</time>
      </trkpt>
      <trkpt lat="37.29453040" lon="-8.84097523">
        <ele>119.00000</ele>
        <time>2010-01-01T10:11:45Z</time>
      </trkpt>
      <trkpt lat="37.29317270" lon="-8.84239696">
        <ele>117.00000</ele>
        <time>2010-01-01T10:12:16Z</time>
      </trkpt>
      <trkpt lat="37.29262810" lon="-8.84309677">
        <ele>115.00000</ele>
        <time>2010-01-01T10:13:15Z</time>
      </trkpt>
      <trkpt lat="37.29223730" lon="-8.84486367">
        <ele>110.00000</ele>
        <time>2010-01-01T10:13:39Z</time>
      </trkpt>
      <trkpt lat="37.29179460" lon="-8.84538637">
        <ele>109.00000</ele>
        <time>2010-01-01T10:14:11Z</time>
      </trkpt>
      <trkpt lat="37.29114570" lon="-8.84599272">
        <ele>104.00000</ele>
        <time>2010-01-01T10:14:54Z</time>
      </trkpt>
      <trkpt lat="37.29040940" lon="-8.84695362">
        <ele>99.000000</ele>
        <time>2010-01-01T10:15:41Z</time>
      </trkpt>
      <trkpt lat="37.28980630" lon="-8.84822608">
        <ele>94.000000</ele>
        <time>2010-01-01T10:16:15Z</time>
      </trkpt>
      <trkpt lat="37.28973160" lon="-8.84928471">
        <ele>92.000000</ele>
        <time>2010-01-01T10:18:03Z</time>
      </trkpt>
      <trkpt lat="37.28970310" lon="-8.85269061">
        <ele>73.000000</ele>
        <time>2010-01-01T10:18:28Z</time>
      </trkpt>
      <trkpt lat="37.28975380" lon="-8.85345923">
        <ele>75.000000</ele>
        <time>2010-01-01T10:19:03Z</time>
      </trkpt>
      <trkpt lat="37.29007160" lon="-8.85448962">
        <ele>82.000000</ele>
        <time>2010-01-01T10:20:19Z</time>
      </trkpt>
      <trkpt lat="37.29138540" lon="-8.85620481">
        <ele>93.000000</ele>
        <time>2010-01-01T10:20:24Z</time>
      </trkpt>
      <trkpt lat="37.29149170" lon="-8.85627052">
        <ele>94.000000</ele>
        <time>2010-01-01T10:20:59Z</time>
      </trkpt>
      <trkpt lat="37.29236510" lon="-8.85634353">
        <ele>97.000000</ele>
        <time>2010-01-01T10:21:16Z</time>
      </trkpt>
      <trkpt lat="37.29256390" lon="-8.85683119">
        <ele>99.000000</ele>
        <time>2010-01-01T10:21:53Z</time>
      </trkpt>
      <trkpt lat="37.29286270" lon="-8.85793626">
        <ele>100.00000</ele>
        <time>2010-01-01T10:22:06Z</time>
      </trkpt>
      <trkpt lat="37.29281570" lon="-8.85832786">
        <ele>98.000000</ele>
        <time>2010-01-01T10:22:31Z</time>
      </trkpt>
      <trkpt lat="37.29275170" lon="-8.85911643">
        <ele>95.000000</ele>
        <time>2010-01-01T10:22:40Z</time>
      </trkpt>
      <trkpt lat="37.29282430" lon="-8.85939002">
        <ele>95.000000</ele>
        <time>2010-01-01T10:22:51Z</time>
      </trkpt>
      <trkpt lat="37.29301880" lon="-8.85960694">
        <ele>95.000000</ele>
        <time>2010-01-01T10:24:16Z</time>
      </trkpt>
      <trkpt lat="37.29474040" lon="-8.86119246">
        <ele>90.000000</ele>
        <time>2010-01-01T10:24:20Z</time>
      </trkpt>
      <trkpt lat="37.29479160" lon="-8.86108249">
        <ele>90.000000</ele>
      </trkpt>
      <trkpt lat="37.29481112" lon="-8.86077496">
        <ele>90.000000</ele>
        <time>2010-01-01T00:00:00Z</time>
      </trkpt>
      <trkpt lat="37.29474900" lon="-8.86107712">
        <ele>90.000000</ele>
        <time>2010-01-01T00:00:03Z</time>
      </trkpt>
      <trkpt lat="37.29468920" lon="-8.86117100">
        <ele>90.000000</ele>
        <time>2010-01-01T00:00:23Z</time>
      </trkpt>
      <trkpt lat="37.29427760" lon="-8.86082701">
        <ele>92.000000</ele>
        <time>2010-01-01T00:01:33Z</time>
      </trkpt>
      <trkpt lat="37.29287620" lon="-8.85952304">
        <ele>94.000000</ele>
        <time>2010-01-01T00:01:44Z</time>
      </trkpt>
      <trkpt lat="37.29277200" lon="-8.85920721">
        <ele>95.000000</ele>
        <time>2010-01-01T00:02:18Z</time>
      </trkpt>
      <trkpt lat="37.29278950" lon="-8.85814572">
        <ele>99.000000</ele>
        <time>2010-01-01T00:02:25Z</time>
      </trkpt>
      <trkpt lat="37.29283710" lon="-8.85792553">
        <ele>100.00000</ele>
        <time>2010-01-01T00:02:33Z</time>
      </trkpt>
      <trkpt lat="37.29278160" lon="-8.85768949">
        <ele>100.00000</ele>
        <time>2010-01-01T00:02:56Z</time>
      </trkpt>
      <trkpt lat="37.29258610" lon="-8.85700235">
        <ele>99.000000</ele>
        <time>2010-01-01T00:03:14Z</time>
      </trkpt>
      <trkpt lat="37.29240300" lon="-8.85650002">
        <ele>97.000000</ele>
        <time>2010-01-01T00:03:26Z</time>
      </trkpt>
      <trkpt lat="37.29215000" lon="-8.85625720">
        <ele>96.000000</ele>
        <time>2010-01-01T00:03:56Z</time>
      </trkpt>
      <trkpt lat="37.29140310" lon="-8.85630548">
        <ele>93.000000</ele>
        <time>2010-01-01T00:04:06Z</time>
      </trkpt>
      <trkpt lat="37.29121520" lon="-8.85609786">
        <ele>93.000000</ele>
        <time>2010-01-01T00:05:14Z</time>
      </trkpt>
      <trkpt lat="37.29002790" lon="-8.85456983">
        <ele>81.000000</ele>
        <time>2010-01-01T00:05:31Z</time>
      </trkpt>
      <trkpt lat="37.28968320" lon="-8.85429608">
        <ele>81.000000</ele>
        <time>2010-01-01T00:05:43Z</time>
      </trkpt>
      <trkpt lat="37.28939020" lon="-8.85419634">
        <ele>84.000000</ele>
        <time>2010-01-01T00:06:05Z</time>
      </trkpt>
      <trkpt lat="37.28891360" lon="-8.85381974">
        <ele>89.000000</ele>
        <time>2010-01-01T00:06:31Z</time>
      </trkpt>
      <trkpt lat="37.28846230" lon="-8.85322479">
        <ele>91.000000</ele>
        <time>2010-01-01T00:06:47Z</time>
      </trkpt>
      <trkpt lat="37.28814600" lon="-8.85296596">
        <ele>92.000000</ele>
        <time>2010-01-01T00:07:11Z</time>
      </trkpt>
      <trkpt lat="37.28773350" lon="-8.85240588">
        <ele>95.000000</ele>
        <time>2010-01-01T00:08:12Z</time>
      </trkpt>
      <trkpt lat="37.28683900" lon="-8.85085757">
        <ele>98.000000</ele>
        <time>2010-01-01T00:08:27Z</time>
      </trkpt>
      <trkpt lat="37.28656010" lon="-8.85055415">
        <ele>102.00000</ele>
        <time>2010-01-01T00:08:34Z</time>
      </trkpt>
      <trkpt lat="37.28638340" lon="-8.85044443">
        <ele>104.00000</ele>
        <time>2010-01-01T00:08:45Z</time>
      </trkpt>
      <trkpt lat="37.28611480" lon="-8.85040193">
        <ele>107.00000</ele>
        <time>2010-01-01T00:09:09Z</time>
      </trkpt>
      <trkpt lat="37.28565560" lon="-8.85086755">
        <ele>110.00000</ele>
        <time>2010-01-01T00:09:41Z</time>
      </trkpt>
      <trkpt lat="37.28494650" lon="-8.85132520">
        <ele>108.00000</ele>
        <time>2010-01-01T00:09:50Z</time>
      </trkpt>
      <trkpt lat="37.28479100" lon="-8.85155637">
        <ele>108.00000</ele>
        <time>2010-01-01T00:10:56Z</time>
      </trkpt>
      <trkpt lat="37.28415650" lon="-8.85344733">
        <ele>103.00000</ele>
        <time>2010-01-01T00:12:05Z</time>
      </trkpt>
      <trkpt lat="37.28315590" lon="-8.85522471">
        <ele>99.000000</ele>
        <time>2010-01-01T00:12:23Z</time>
      </trkpt>
      <trkpt lat="37.28276570" lon="-8.85548774">
        <ele>97.000000</ele>
        <time>2010-01-01T00:12:32Z</time>
      </trkpt>
      <trkpt lat="37.28262340" lon="-8.85569804">
        <ele>96.000000</ele>
        <time>2010-01-01T00:12:49Z</time>
      </trkpt>
      <trkpt lat="37.28225780" lon="-8.85599250">
        <ele>91.000000</ele>
        <time>2010-01-01T00:13:28Z</time>
      </trkpt>
      <trkpt lat="37.28138950" lon="-8.85655928">
        <ele>84.000000</ele>
        <time>2010-01-01T00:13:36Z</time>
      </trkpt>
      <trkpt lat="37.28121210" lon="-8.85664058">
        <ele>84.000000</ele>
        <time>2010-01-01T00:14:01Z</time>
      </trkpt>
      <trkpt lat="37.28059060" lon="-8.85657001">
        <ele>85.000000</ele>
        <time>2010-01-01T00:14:23Z</time>
      </trkpt>
      <trkpt lat="37.28006400" lon="-8.85640095">
        <ele>85.000000</ele>
        <time>2010-01-01T00:14:44Z</time>
      </trkpt>
      <trkpt lat="37.27960540" lon="-8.85607548">
        <ele>83.000000</ele>
        <time>2010-01-01T00:14:59Z</time>
      </trkpt>
      <trkpt lat="37.27922840" lon="-8.85610548">
        <ele>81.000000</ele>
        <time>2010-01-01T00:15:41Z</time>
      </trkpt>
      <trkpt lat="37.27816340" lon="-8.85600582">
        <ele>89.000000</ele>
        <time>2010-01-01T00:16:14Z</time>
      </trkpt>
      <trkpt lat="37.27734680" lon="-8.85614605">
        <ele>97.000000</ele>
        <time>2010-01-01T00:16:37Z</time>
      </trkpt>
      <trkpt lat="37.27684090" lon="-8.85644746">
        <ele>100.00000</ele>
        <time>2010-01-01T00:17:06Z</time>
      </trkpt>
      <trkpt lat="37.27632530" lon="-8.85707544">
        <ele>90.000000</ele>
        <time>2010-01-01T00:18:10Z</time>
      </trkpt>
      <trkpt lat="37.27498930" lon="-8.85820205">
        <ele>71.000000</ele>
        <time>2010-01-01T00:18:35Z</time>
      </trkpt>
      <trkpt lat="37.27444080" lon="-8.85859248">
        <ele>70.000000</ele>
        <time>2010-01-01T00:18:55Z</time>
      </trkpt>
      <trkpt lat="37.27413640" lon="-8.85907603">
        <ele>67.000000</ele>
        <time>2010-01-01T00:18:59Z</time>
      </trkpt>
      <trkpt lat="37.27418300" lon="-8.85920369">
        <ele>66.000000</ele>
        <time>2010-01-01T00:19:02Z</time>
      </trkpt>
      <trkpt lat="37.27420670" lon="-8.85914225">
        <ele>67.000000</ele>
        <time>2010-01-01T00:19:08Z</time>
      </trkpt>
      <trkpt lat="37.27405950" lon="-8.85905298">
        <ele>65.000000</ele>
        <time>2010-01-01T00:19:22Z</time>
      </trkpt>
      <trkpt lat="37.27371470" lon="-8.85916949">
        <ele>59.000000</ele>
        <time>2010-01-01T00:19:29Z</time>
      </trkpt>
      <trkpt lat="37.27355250" lon="-8.85914702">
        <ele>56.000000</ele>
        <time>2010-01-01T00:20:11Z</time>
      </trkpt>
      <trkpt lat="37.27270340" lon="-8.85991338">
        <ele>32.000000</ele>
        <time>2010-01-01T00:20:28Z</time>
      </trkpt>
      <trkpt lat="37.27228550" lon="-8.86006761">
        <ele>22.000000</ele>
        <time>2010-01-01T00:20:37Z</time>
      </trkpt>
      <trkpt lat="37.27211980" lon="-8.85987927">
        <ele>23.000000</ele>
        <time>2010-01-01T00:20:45Z</time>
      </trkpt>
      <trkpt lat="37.27205770" lon="-8.85964047">
        <ele>23.000000</ele>
        <time>2010-01-01T00:21:11Z</time>
      </trkpt>
      <trkpt lat="37.27171620" lon="-8.85895642">
        <ele>12.000000</ele>
        <time>2010-01-01T00:21:18Z</time>
      </trkpt>
      <trkpt lat="37.27154260" lon="-8.85903228">
        <ele>9.0000000</ele>
        <time>2010-01-01T00:21:33Z</time>
      </trkpt>
      <trkpt lat="37.27149820" lon="-8.85949353">
        <ele>9.0000000</ele>
        <time>2010-01-01T00:21:50Z</time>
      </trkpt>
      <trkpt lat="37.27111640" lon="-8.85969269">
        <ele>4.0000000</ele>
        <time>2010-01-01T00:21:58Z</time>
      </trkpt>
      <trkpt lat="37.27091750" lon="-8.85965782">
        <ele>4.0000000</ele>
        <time>2010-01-01T00:22:15Z</time>
      </trkpt>
      <trkpt lat="37.27060800" lon="-8.85927929">
        <ele>5.0000000</ele>
        <time>2010-01-01T00:22:27Z</time>
      </trkpt>
      <trkpt lat="37.27030790" lon="-8.85928943">
        <ele>8.0000000</ele>
        <time>2010-01-01T00:22:54Z</time>
      </trkpt>
      <trkpt lat="37.26977090" lon="-8.85981716">
        <ele>12.000000</ele>
        <time>2010-01-01T00:22:59Z</time>
      </trkpt>
      <trkpt lat="37.26964320" lon="-8.85982487">
        <ele>13.000000</ele>
        <time>2010-01-01T00:23:17Z</time>
      </trkpt>
      <trkpt lat="37.26958790" lon="-8.85929052">
        <ele>30.000000</ele>
        <time>2010-01-01T00:23:20Z</time>
      </trkpt>
      <trkpt lat="37.26950320" lon="-8.85923244">
        <ele>33.000000</ele>
        <time>2010-01-01T00:23:26Z</time>
      </trkpt>
      <trkpt lat="37.26937920" lon="-8.85934224">
        <ele>31.000000</ele>
        <time>2010-01-01T00:23:30Z</time>
      </trkpt>
      <trkpt lat="37.26945200" lon="-8.85942723">
        <ele>28.000000</ele>
        <time>2010-01-01T00:23:39Z</time>
      </trkpt>
      <trkpt lat="37.26926930" lon="-8.85926798">
        <ele>34.000000</ele>
        <time>2010-01-01T00:23:52Z</time>
      </trkpt>
      <trkpt lat="37.26946910" lon="-8.85895315">
        <ele>39.000000</ele>
        <time>2010-01-01T00:23:59Z</time>
      </trkpt>
      <trkpt lat="37.26946040" lon="-8.85875048">
        <ele>42.000000</ele>
        <time>2010-01-01T00:24:08Z</time>
      </trkpt>
      <trkpt lat="37.26924640" lon="-8.85860488">
        <ele>45.000000</ele>
        <time>2010-01-01T00:24:21Z</time>
      </trkpt>
      <trkpt lat="37.26906720" lon="-8.85826475">
        <ele>51.000000</ele>
        <time>2010-01-01T00:24:27Z</time>
      </trkpt>
      <trkpt lat="37.26895510" lon="-8.85816165">
        <ele>54.000000</ele>
        <time>2010-01-01T00:24:45Z</time>
      </trkpt>
      <trkpt lat="37.26853920" lon="-8.85791203">
        <ele>64.000000</ele>
        <time>2010-01-01T00:25:09Z</time>
      </trkpt>
      <trkpt lat="37.26827650" lon="-8.85724886">
        <ele>68.000000</ele>
        <time>2010-01-01T00:25:32Z</time>
      </trkpt>
      <trkpt lat="37.26777360" lon="-8.85688726">
        <ele>78.000000</ele>
        <time>2010-01-01T00:25:57Z</time>
      </trkpt>
      <trkpt lat="37.26740500" lon="-8.85625938">
        <ele>85.000000</ele>
        <time>2010-01-01T00:26:06Z</time>
      </trkpt>
      <trkpt lat="37.26717950" lon="-8.85618033">
        <ele>89.000000</ele>
        <time>2010-01-01T00:26:29Z</time>
      </trkpt>
      <trkpt lat="37.26662160" lon="-8.85633322">
        <ele>99.000000</ele>
        <time>2010-01-01T00:26:45Z</time>
      </trkpt>
      <trkpt lat="37.26622220" lon="-8.85635778">
        <ele>103.00000</ele>
        <time>2010-01-01T00:27:01Z</time>
      </trkpt>
      <trkpt lat="37.26588780" lon="-8.85611194">
        <ele>104.00000</ele>
        <time>2010-01-01T00:27:30Z</time>
      </trkpt>
      <trkpt lat="37.26547380" lon="-8.85534181">
        <ele>105.00000</ele>
        <time>2010-01-01T00:27:44Z</time>
      </trkpt>
      <trkpt lat="37.26521660" lon="-8.85504333">
        <ele>106.00000</ele>
        <time>2010-01-01T00:28:53Z</time>
      </trkpt>
      <trkpt lat="37.26434030" lon="-8.85320476">
        <ele>105.00000</ele>
        <time>2010-01-01T00:30:10Z</time>
      </trkpt>
      <trkpt lat="37.26413500" lon="-8.85079898">
        <ele>111.00000</ele>
        <time>2010-01-01T00:30:37Z</time>
      </trkpt>
      <trkpt lat="37.26415920" lon="-8.84993875">
        <ele>112.00000</ele>
        <time>2010-01-01T00:31:02Z</time>
      </trkpt>
      <trkpt lat="37.26395280" lon="-8.84920533">
        <ele>106.00000</ele>
        <time>2010-01-01T00:31:47Z</time>
      </trkpt>
      <trkpt lat="37.26325440" lon="-8.84809456">
        <ele>110.00000</ele>
        <time>2010-01-01T00:32:02Z</time>
      </trkpt>
      <trkpt lat="37.26307040" lon="-8.84769299">
        <ele>114.00000</ele>
        <time>2010-01-01T00:33:29Z</time>
      </trkpt>
      <trkpt lat="37.26256790" lon="-8.84502301">
        <ele>126.00000</ele>
        <time>2010-01-01T00:33:43Z</time>
      </trkpt>
      <trkpt lat="37.26237880" lon="-8.84466301">
        <ele>128.00000</ele>
        <time>2010-01-01T00:34:42Z</time>
      </trkpt>
      <trkpt lat="37.26129500" lon="-8.84339424">
        <ele>135.00000</ele>
        <time>2010-01-01T00:35:07Z</time>
      </trkpt>
      <trkpt lat="37.26098620" lon="-8.84272201">
        <ele>137.00000</ele>
        <time>2010-01-01T00:35:25Z</time>
      </trkpt>
      <trkpt lat="37.26069540" lon="-8.84229638">
        <ele>139.00000</ele>
        <time>2010-01-01T00:40:17Z</time>
      </trkpt>
      <trkpt lat="37.25437000" lon="-8.83770410">
        <ele>156.00000</ele>
        <time>2010-01-01T00:41:32Z</time>
      </trkpt>
      <trkpt lat="37.25268830" lon="-8.83670842">
        <ele>156.00000</ele>
        <time>2010-01-01T00:42:23Z</time>
      </trkpt>
      <trkpt lat="37.25148870" lon="-8.83613434">
        <ele>153.00000</ele>
        <time>2010-01-01T00:42:55Z</time>
      </trkpt>
      <trkpt lat="37.25079640" lon="-8.83564216">
        <ele>148.00000</ele>
        <time>2010-01-01T00:44:12Z</time>
      </trkpt>
      <trkpt lat="37.24886420" lon="-8.83554535">
        <ele>140.00000</ele>
        <time>2010-01-01T00:44:47Z</time>
      </trkpt>
      <trkpt lat="37.24802400" lon="-8.83534837">
        <ele>137.00000</ele>
        <time>2010-01-01T00:45:12Z</time>
      </trkpt>
      <trkpt lat="37.24738370" lon="-8.83527176">
        <ele>138.00000</ele>
        <time>2010-01-01T00:45:32Z</time>
      </trkpt>
      <trkpt lat="37.24689960" lon="-8.83510320">
        <ele>138.00000</ele>
        <time>2010-01-01T00:45:46Z</time>
      </trkpt>
      <trkpt lat="37.24658260" lon="-8.83527369">
        <ele>138.00000</ele>
        <time>2010-01-01T00:45:58Z</time>
      </trkpt>
      <trkpt lat="37.24639680" lon="-8.83556244">
        <ele>137.00000</ele>
        <time>2010-01-01T00:46:23Z</time>
      </trkpt>
      <trkpt lat="37.24592210" lon="-8.83605899">
        <ele>135.00000</ele>
        <time>2010-01-01T00:46:35Z</time>
      </trkpt>
      <trkpt lat="37.24577070" lon="-8.83637934">
        <ele>135.00000</ele>
        <time>2010-01-01T00:47:17Z</time>
      </trkpt>
      <trkpt lat="37.24569170" lon="-8.83770419">
        <ele>138.00000</ele>
        <time>2010-01-01T00:47:36Z</time>
      </trkpt>
      <trkpt lat="37.24552820" lon="-8.83826930">
        <ele>142.00000</ele>
        <time>2010-01-01T00:47:52Z</time>
      </trkpt>
      <trkpt lat="37.24526560" lon="-8.83862603">
        <ele>139.00000</ele>
        <time>2010-01-01T00:48:50Z</time>
      </trkpt>
      <trkpt lat="37.24414730" lon="-8.83978055">
        <ele>142.00000</ele>
        <time>2010-01-01T00:48:58Z</time>
      </trkpt>
      <trkpt lat="37.24396070" lon="-8.83991399">
        <ele>142.00000</ele>
        <time>2010-01-01T00:49:24Z</time>
      </trkpt>
      <trkpt lat="37.24334140" lon="-8.84010351">
        <ele>140.00000</ele>
        <time>2010-01-01T00:50:07Z</time>
      </trkpt>
      <trkpt lat="37.24228140" lon="-8.84028431">
        <ele>140.00000</ele>
        <time>2010-01-01T00:50:22Z</time>
      </trkpt>
      <trkpt lat="37.24191690" lon="-8.84045848">
        <ele>141.00000</ele>
        <time>2010-01-01T00:50:52Z</time>
      </trkpt>
      <trkpt lat="37.24127280" lon="-8.84090289">
        <ele>140.00000</ele>
        <time>2010-01-01T00:51:12Z</time>
      </trkpt>
      <trkpt lat="37.24090660" lon="-8.84137186">
        <ele>144.00000</ele>
        <time>2010-01-01T00:51:55Z</time>
      </trkpt>
      <trkpt lat="37.24027840" lon="-8.84244399">
        <ele>146.00000</ele>
        <time>2010-01-01T00:52:07Z</time>
      </trkpt>
      <trkpt lat="37.24016200" lon="-8.84280743">
        <ele>146.00000</ele>
        <time>2010-01-01T00:52:38Z</time>
      </trkpt>
      <trkpt lat="37.24009560" lon="-8.84377671">
        <ele>147.00000</ele>
        <time>2010-01-01T00:53:08Z</time>
      </trkpt>
      <trkpt lat="37.23974770" lon="-8.84461079">
        <ele>146.00000</ele>
        <time>2010-01-01T00:54:19Z</time>
      </trkpt>
      <trkpt lat="37.23947460" lon="-8.84679973">
        <ele>140.00000</ele>
        <time>2010-01-01T00:54:31Z</time>
      </trkpt>
      <trkpt lat="37.23934870" lon="-8.84714732">
        <ele>142.00000</ele>
        <time>2010-01-01T00:54:44Z</time>
      </trkpt>
      <trkpt lat="37.23951280" lon="-8.84750003">
        <ele>142.00000</ele>
        <time>2010-01-01T00:54:57Z</time>
      </trkpt>
      <trkpt lat="37.23951720" lon="-8.84788661">
        <ele>142.00000</ele>
        <time>2010-01-01T00:55:15Z</time>
      </trkpt>
      <trkpt lat="37.23939060" lon="-8.84843914">
        <ele>143.00000</ele>
        <time>2010-01-01T00:55:33Z</time>
      </trkpt>
      <trkpt lat="37.23905840" lon="-8.84881658">
        <ele>143.00000</ele>
        <time>2010-01-01T00:56:09Z</time>
      </trkpt>
      <trkpt lat="37.23863980" lon="-8.84981411">
        <ele>145.00000</ele>
        <time>2010-01-01T00:56:31Z</time>
      </trkpt>
      <trkpt lat="37.23854050" lon="-8.85050009">
        <ele>146.00000</ele>
        <time>2010-01-01T00:57:05Z</time>
      </trkpt>
      <trkpt lat="37.23860140" lon="-8.85156786">
        <ele>150.00000</ele>
        <time>2010-01-01T00:57:26Z</time>
      </trkpt>
      <trkpt lat="37.23857060" lon="-8.85221938">
        <ele>153.00000</ele>
        <time>2010-01-01T00:57:43Z</time>
      </trkpt>
      <trkpt lat="37.23845090" lon="-8.85274208">
        <ele>155.00000</ele>
        <time>2010-01-01T00:58:02Z</time>
      </trkpt>
      <trkpt lat="37.23820210" lon="-8.85325639">
        <ele>155.00000</ele>
        <time>2010-01-01T00:58:14Z</time>
      </trkpt>
      <trkpt lat="37.23790930" lon="-8.85333702">
        <ele>155.00000</ele>
        <time>2010-01-01T00:58:55Z</time>
      </trkpt>
      <trkpt lat="37.23691150" lon="-8.85304852">
        <ele>154.00000</ele>
        <time>2010-01-01T00:59:18Z</time>
      </trkpt>
      <trkpt lat="37.23637840" lon="-8.85324600">
        <ele>154.00000</ele>
        <time>2010-01-01T00:59:37Z</time>
      </trkpt>
      <trkpt lat="37.23598060" lon="-8.85360868">
        <ele>154.00000</ele>
        <time>2010-01-01T01:00:31Z</time>
      </trkpt>
      <trkpt lat="37.23514430" lon="-8.85494342">
        <ele>158.00000</ele>
        <time>2010-01-01T01:02:18Z</time>
      </trkpt>
      <trkpt lat="37.23335240" lon="-8.85742412">
        <ele>154.00000</ele>
        <time>2010-01-01T01:02:50Z</time>
      </trkpt>
      <trkpt lat="37.23289580" lon="-8.85822694">
        <ele>153.00000</ele>
        <time>2010-01-01T01:04:07Z</time>
      </trkpt>
      <trkpt lat="37.23167960" lon="-8.86010373">
        <ele>147.00000</ele>
        <time>2010-01-01T01:04:21Z</time>
      </trkpt>
      <trkpt lat="37.23139740" lon="-8.86040221">
        <ele>146.00000</ele>
        <time>2010-01-01T01:04:47Z</time>
      </trkpt>
      <trkpt lat="37.23081440" lon="-8.86070329">
        <ele>144.00000</ele>
        <time>2010-01-01T01:05:22Z</time>
      </trkpt>
      <trkpt lat="37.23010780" lon="-8.86137493">
        <ele>140.00000</ele>
        <time>2010-01-01T01:05:58Z</time>
      </trkpt>
      <trkpt lat="37.22935120" lon="-8.86198891">
        <ele>140.00000</ele>
        <time>2010-01-01T01:06:52Z</time>
      </trkpt>
      <trkpt lat="37.22817040" lon="-8.86281377">
        <ele>144.00000</ele>
        <time>2010-01-01T01:07:03Z</time>
      </trkpt>
      <trkpt lat="37.22802770" lon="-8.86309012">
        <ele>144.00000</ele>
        <time>2010-01-01T01:07:24Z</time>
      </trkpt>
      <trkpt lat="37.22787210" lon="-8.86371952">
        <ele>145.00000</ele>
        <time>2010-01-01T01:08:29Z</time>
      </trkpt>
      <trkpt lat="37.22759510" lon="-8.86573621">
        <ele>143.00000</ele>
        <time>2010-01-01T01:08:51Z</time>
      </trkpt>
      <trkpt lat="37.22743580" lon="-8.86640274">
        <ele>142.00000</ele>
        <time>2010-01-01T01:09:16Z</time>
      </trkpt>
      <trkpt lat="37.22736710" lon="-8.86718083">
        <ele>141.00000</ele>
        <time>2010-01-01T01:10:10Z</time>
      </trkpt>
      <trkpt lat="37.22701560" lon="-8.86882343">
        <ele>131.00000</ele>
        <time>2010-01-01T01:10:33Z</time>
      </trkpt>
      <trkpt lat="37.22652310" lon="-8.86914538">
        <ele>126.00000</ele>
        <time>2010-01-01T01:10:55Z</time>
      </trkpt>
      <trkpt lat="37.22611930" lon="-8.86964519">
        <ele>124.00000</ele>
        <time>2010-01-01T01:11:07Z</time>
      </trkpt>
      <trkpt lat="37.22588200" lon="-8.86985030">
        <ele>123.00000</ele>
        <time>2010-01-01T01:11:42Z</time>
      </trkpt>
      <trkpt lat="37.22509810" lon="-8.87036092">
        <ele>119.00000</ele>
        <time>2010-01-01T01:12:10Z</time>
      </trkpt>
      <trkpt lat="37.22474650" lon="-8.87112594">
        <ele>120.00000</ele>
        <time>2010-01-01T01:12:31Z</time>
      </trkpt>
      <trkpt lat="37.22441930" lon="-8.87160840">
        <ele>120.00000</ele>
        <time>2010-01-01T01:12:43Z</time>
      </trkpt>
      <trkpt lat="37.22413000" lon="-8.87171921">
        <ele>120.00000</ele>
        <time>2010-01-01T01:12:48Z</time>
      </trkpt>
      <trkpt lat="37.22400120" lon="-8.87169214">
        <ele>119.00000</ele>
        <time>2010-01-01T01:13:40Z</time>
      </trkpt>
      <trkpt lat="37.22270240" lon="-8.87191157">
        <ele>111.00000</ele>
        <time>2010-01-01T01:14:22Z</time>
      </trkpt>
      <trkpt lat="37.22177480" lon="-8.87247500">
        <ele>116.00000</ele>
        <time>2010-01-01T01:14:31Z</time>
      </trkpt>
      <trkpt lat="37.22154710" lon="-8.87252504">
        <ele>117.00000</ele>
        <time>2010-01-01T01:14:52Z</time>
      </trkpt>
      <trkpt lat="37.22103970" lon="-8.87239387">
        <ele>116.00000</ele>
        <time>2010-01-01T01:15:17Z</time>
      </trkpt>
      <trkpt lat="37.22047210" lon="-8.87202817">
        <ele>120.00000</ele>
        <time>2010-01-01T01:16:17Z</time>
      </trkpt>
      <trkpt lat="37.21934910" lon="-8.87080231">
        <ele>122.00000</ele>
        <time>2010-01-01T01:16:44Z</time>
      </trkpt>
      <trkpt lat="37.21889520" lon="-8.87015825">
        <ele>117.00000</ele>
        <time>2010-01-01T01:16:58Z</time>
      </trkpt>
      <trkpt lat="37.21856990" lon="-8.86998709">
        <ele>114.00000</ele>
        <time>2010-01-01T01:17:17Z</time>
      </trkpt>
      <trkpt lat="37.21809490" lon="-8.87005180">
        <ele>113.00000</ele>
        <time>2010-01-01T01:17:39Z</time>
      </trkpt>
      <trkpt lat="37.21761740" lon="-8.87039034">
        <ele>113.00000</ele>
        <time>2010-01-01T01:17:51Z</time>
      </trkpt>
      <trkpt lat="37.21732570" lon="-8.87043879">
        <ele>115.00000</ele>
        <time>2010-01-01T01:18:15Z</time>
      </trkpt>
      <trkpt lat="37.21676260" lon="-8.87069528">
        <ele>115.00000</ele>
        <time>2010-01-01T01:18:52Z</time>
      </trkpt>
      <trkpt lat="37.21605560" lon="-8.87143422">
        <ele>112.00000</ele>
        <time>2010-01-01T01:19:11Z</time>
      </trkpt>
      <trkpt lat="37.21558750" lon="-8.87152425">
        <ele>107.00000</ele>
        <time>2010-01-01T01:19:30Z</time>
      </trkpt>
      <trkpt lat="37.21511820" lon="-8.87148602">
        <ele>106.00000</ele>
        <time>2010-01-01T01:20:01Z</time>
      </trkpt>
      <trkpt lat="37.21441660" lon="-8.87193311">
        <ele>99.000000</ele>
        <time>2010-01-01T01:20:56Z</time>
      </trkpt>
      <trkpt lat="37.21332360" lon="-8.87298077">
        <ele>89.000000</ele>
        <time>2010-01-01T01:21:27Z</time>
      </trkpt>
      <trkpt lat="37.21278070" lon="-8.87366892">
        <ele>88.000000</ele>
        <time>2010-01-01T01:22:01Z</time>
      </trkpt>
      <trkpt lat="37.21199550" lon="-8.87408936">
        <ele>86.000000</ele>
        <time>2010-01-01T01:22:10Z</time>
      </trkpt>
      <trkpt lat="37.21177680" lon="-8.87415172">
        <ele>86.000000</ele>
        <time>2010-01-01T01:23:00Z</time>
      </trkpt>
      <trkpt lat="37.21053030" lon="-8.87408492">
        <ele>78.000000</ele>
        <time>2010-01-01T01:23:47Z</time>
      </trkpt>
      <trkpt lat="37.20937400" lon="-8.87415541">
        <ele>78.000000</ele>
        <time>2010-01-01T01:23:55Z</time>
      </trkpt>
      <trkpt lat="37.20915200" lon="-8.87412481">
        <ele>80.000000</ele>
        <time>2010-01-01T01:24:29Z</time>
      </trkpt>
      <trkpt lat="37.20832830" lon="-8.87424686">
        <ele>75.000000</ele>
        <time>2010-01-01T01:24:49Z</time>
      </trkpt>
      <trkpt lat="37.20791300" lon="-8.87459093">
        <ele>72.000000</ele>
        <time>2010-01-01T01:25:01Z</time>
      </trkpt>
      <trkpt lat="37.20786460" lon="-8.87496200">
        <ele>69.000000</ele>
        <time>2010-01-01T01:25:06Z</time>
      </trkpt>
      <trkpt lat="37.20790720" lon="-8.87511078">
        <ele>66.000000</ele>
        <time>2010-01-01T01:25:15Z</time>
      </trkpt>
      <trkpt lat="37.20782410" lon="-8.87537405">
        <ele>62.000000</ele>
        <time>2010-01-01T01:25:49Z</time>
      </trkpt>
      <trkpt lat="37.20697910" lon="-8.87524279">
        <ele>51.000000</ele>
        <time>2010-01-01T01:26:19Z</time>
      </trkpt>
      <trkpt lat="37.20624890" lon="-8.87504297">
        <ele>36.000000</ele>
        <time>2010-01-01T01:26:45Z</time>
      </trkpt>
      <trkpt lat="37.20558860" lon="-8.87500676">
        <ele>24.000000</ele>
        <time>2010-01-01T01:26:55Z</time>
      </trkpt>
      <trkpt lat="37.20535350" lon="-8.87513810">
        <ele>21.000000</ele>
        <time>2010-01-01T01:27:08Z</time>
      </trkpt>
      <trkpt lat="37.20509290" lon="-8.87536106">
        <ele>19.000000</ele>
        <time>2010-01-01T01:27:18Z</time>
      </trkpt>
      <trkpt lat="37.20485940" lon="-8.87543155">
        <ele>17.000000</ele>
        <time>2010-01-01T01:27:29Z</time>
      </trkpt>
      <trkpt lat="37.20469110" lon="-8.87572106">
        <ele>16.000000</ele>
        <time>2010-01-01T01:27:42Z</time>
      </trkpt>
      <trkpt lat="37.20480670" lon="-8.87610345">
        <ele>17.000000</ele>
        <time>2010-01-01T01:28:25Z</time>
      </trkpt>
      <trkpt lat="37.20474080" lon="-8.87743265">
        <ele>11.000000</ele>
        <time>2010-01-01T01:28:37Z</time>
      </trkpt>
      <trkpt lat="37.20469710" lon="-8.87782174">
        <ele>10.000000</ele>
        <time>2010-01-01T01:28:50Z</time>
      </trkpt>
      <trkpt lat="37.20447850" lon="-8.87810144">
        <ele>10.000000</ele>
        <time>2010-01-01T01:28:59Z</time>
      </trkpt>
      <trkpt lat="37.20425870" lon="-8.87822440">
        <ele>13.000000</ele>
        <time>2010-01-01T01:29:05Z</time>
      </trkpt>
      <trkpt lat="37.20431880" lon="-8.87838718">
        <ele>13.000000</ele>
        <time>2010-01-01T01:29:22Z</time>
      </trkpt>
      <trkpt lat="37.20430140" lon="-8.87893267">
        <ele>18.000000</ele>
        <time>2010-01-01T01:30:12Z</time>
      </trkpt>
      <trkpt lat="37.20416450" lon="-8.88047126">
        <ele>12.000000</ele>
        <time>2010-01-01T01:30:28Z</time>
      </trkpt>
      <trkpt lat="37.20395200" lon="-8.88089966">
        <ele>13.000000</ele>
        <time>2010-01-01T01:30:49Z</time>
      </trkpt>
      <trkpt lat="37.20355180" lon="-8.88134373">
        <ele>11.000000</ele>
        <time>2010-01-01T01:31:42Z</time>
      </trkpt>
      <trkpt lat="37.20264970" lon="-8.88254393">
        <ele>13.000000</ele>
        <time>2010-01-01T01:33:01Z</time>
      </trkpt>
      <trkpt lat="37.20156930" lon="-8.88463807">
        <ele>15.000000</ele>
        <time>2010-01-01T01:33:51Z</time>
      </trkpt>
      <trkpt lat="37.20155440" lon="-8.88618319">
        <ele>15.000000</ele>
        <time>2010-01-01T01:34:19Z</time>
      </trkpt>
      <trkpt lat="37.20114570" lon="-8.88692189">
        <ele>12.000000</ele>
        <time>2010-01-01T01:36:43Z</time>
      </trkpt>
      <trkpt lat="37.19784120" lon="-8.88867538">
        <ele>10.000000</ele>
        <time>2010-01-01T01:37:22Z</time>
      </trkpt>
      <trkpt lat="37.19693530" lon="-8.88909875">
        <ele>11.000000</ele>
        <time>2010-01-01T01:42:40Z</time>
      </trkpt>
      <trkpt lat="37.18907870" lon="-8.89060162">
        <ele>18.000000</ele>
        <time>2010-01-01T01:43:06Z</time>
      </trkpt>
      <trkpt lat="37.18852410" lon="-8.89101569">
        <ele>8.0000000</ele>
        <time>2010-01-01T01:44:29Z</time>
      </trkpt>
      <trkpt lat="37.18705430" lon="-8.89288184">
        <ele>8.0000000</ele>
        <time>2010-01-01T01:44:39Z</time>
      </trkpt>
      <trkpt lat="37.18709050" lon="-8.89316925">
        <ele>9.0000000</ele>
        <time>2010-01-01T01:45:01Z</time>
      </trkpt>
      <trkpt lat="37.18752540" lon="-8.89360243">
        <ele>9.0000000</ele>
        <time>2010-01-01T01:46:10Z</time>
      </trkpt>
      <trkpt lat="37.18920690" lon="-8.89409177">
        <ele>9.0000000</ele>
        <time>2010-01-01T01:46:31Z</time>
      </trkpt>
      <trkpt lat="37.18966920" lon="-8.89442780">
        <ele>7.0000000</ele>
        <time>2010-01-01T01:46:57Z</time>
      </trkpt>
      <trkpt lat="37.19013500" lon="-8.89498268">
        <ele>6.0000000</ele>
        <time>2010-01-01T01:47:26Z</time>
      </trkpt>
      <trkpt lat="37.19072460" lon="-8.89551820">
        <ele>6.0000000</ele>
        <time>2010-01-01T01:47:59Z</time>
      </trkpt>
      <trkpt lat="37.19143340" lon="-8.89602245">
        <ele>6.0000000</ele>
        <time>2010-01-01T01:48:11Z</time>
      </trkpt>
      <trkpt lat="37.19167240" lon="-8.89628221">
        <ele>4.0000000</ele>
        <time>2010-01-01T01:49:35Z</time>
      </trkpt>
      <trkpt lat="37.19238260" lon="-8.89875579">
        <ele>6.0000000</ele>
        <time>2010-01-01T01:49:49Z</time>
      </trkpt>
      <trkpt lat="37.19228180" lon="-8.89918620">
        <ele>6.0000000</ele>
        <time>2010-01-01T01:50:03Z</time>
      </trkpt>
      <trkpt lat="37.19208660" lon="-8.89953631">
        <ele>6.0000000</ele>
        <time>2010-01-01T01:50:10Z</time>
      </trkpt>
      <trkpt lat="37.19206540" lon="-8.89974385">
        <ele>6.0000000</ele>
        <time>2010-01-01T01:51:33Z</time>
      </trkpt>
      <trkpt lat="37.19266100" lon="-8.90224794">
        <ele>6.0000000</ele>
        <time>2010-01-01T01:51:39Z</time>
      </trkpt>
      <trkpt lat="37.19262650" lon="-8.90242916">
        <ele>6.0000000</ele>
        <time>2010-01-01T01:51:54Z</time>
      </trkpt>
      <trkpt lat="37.19226930" lon="-8.90255556">
        <ele>8.0000000</ele>
        <time>2010-01-01T01:52:06Z</time>
      </trkpt>
      <trkpt lat="37.19205910" lon="-8.90283434">
        <ele>10.000000</ele>
        <time>2010-01-01T01:52:10Z</time>
      </trkpt>
      <trkpt lat="37.19206440" lon="-8.90294515">
        <ele>11.000000</ele>
        <time>2010-01-01T01:52:19Z</time>
      </trkpt>
      <trkpt lat="37.19220080" lon="-8.90319937">
        <ele>12.000000</ele>
        <time>2010-01-01T01:53:06Z</time>
      </trkpt>
      <trkpt lat="37.19311570" lon="-8.90409582">
        <ele>20.000000</ele>
        <time>2010-01-01T01:53:26Z</time>
      </trkpt>
      <trkpt lat="37.19301640" lon="-8.90471424">
        <ele>28.000000</ele>
        <time>2010-01-01T01:53:35Z</time>
      </trkpt>
      <trkpt lat="37.19308970" lon="-8.90497399">
        <ele>30.000000</ele>
        <time>2010-01-01T01:53:46Z</time>
      </trkpt>
      <trkpt lat="37.19329770" lon="-8.90519754">
        <ele>34.000000</ele>
        <time>2010-01-01T01:56:56Z</time>
      </trkpt>
      <trkpt lat="37.19730900" lon="-8.90839984">
        <ele>34.000000</ele>
        <time>2010-01-01T01:57:09Z</time>
      </trkpt>
      <trkpt lat="37.19745400" lon="-8.90876898">
        <ele>32.000000</ele>
        <time>2010-01-01T01:57:31Z</time>
      </trkpt>
      <trkpt lat="37.19749890" lon="-8.90943844">
        <ele>34.000000</ele>
        <time>2010-01-01T01:58:05Z</time>
      </trkpt>
      <trkpt lat="37.19741630" lon="-8.91051585">
        <ele>29.000000</ele>
        <time>2010-01-01T01:58:15Z</time>
      </trkpt>
      <trkpt lat="37.19766960" lon="-8.91055634">
        <ele>25.000000</ele>
        <time>2010-01-01T01:58:28Z</time>
      </trkpt>
      <trkpt lat="37.19798320" lon="-8.91047336">
        <ele>21.000000</ele>
        <time>2010-01-01T01:58:46Z</time>
      </trkpt>
      <trkpt lat="37.19841210" lon="-8.91066312">
        <ele>12.000000</ele>
        <time>2010-01-01T01:58:59Z</time>
      </trkpt>
      <trkpt lat="37.19812740" lon="-8.91051032">
        <ele>19.000000</ele>
        <time>2010-01-01T01:59:12Z</time>
      </trkpt>
      <trkpt lat="37.19780790" lon="-8.91050261">
        <ele>23.000000</ele>
        <time>2010-01-01T01:59:35Z</time>
      </trkpt>
      <trkpt lat="37.19747570" lon="-8.91111969">
        <ele>26.000000</ele>
        <time>2010-01-01T01:59:45Z</time>
      </trkpt>
      <trkpt lat="37.19728690" lon="-8.91130199">
        <ele>30.000000</ele>
        <time>2010-01-01T01:59:57Z</time>
      </trkpt>
      <trkpt lat="37.19726060" lon="-8.91167348">
        <ele>32.000000</ele>
        <time>2010-01-01T02:00:16Z</time>
      </trkpt>
      <trkpt lat="37.19709960" lon="-8.91223062">
        <ele>33.000000</ele>
        <time>2010-01-01T02:01:26Z</time>
      </trkpt>
      <trkpt lat="37.19622610" lon="-8.91413734">
        <ele>36.000000</ele>
        <time>2010-01-01T02:01:40Z</time>
      </trkpt>
      <trkpt lat="37.19612530" lon="-8.91456926">
        <ele>37.000000</ele>
        <time>2010-01-01T02:02:29Z</time>
      </trkpt>
      <trkpt lat="37.19605870" lon="-8.91610390">
        <ele>42.000000</ele>
        <time>2010-01-01T02:02:39Z</time>
      </trkpt>
      <trkpt lat="37.19595300" lon="-8.91637246">
        <ele>42.000000</ele>
        <time>2010-01-01T02:02:53Z</time>
      </trkpt>
      <trkpt lat="37.19565380" lon="-8.91659759">
        <ele>39.000000</ele>
        <time>2010-01-01T02:03:01Z</time>
      </trkpt>
      <trkpt lat="37.19549970" lon="-8.91641755">
        <ele>40.000000</ele>
        <time>2010-01-01T02:03:53Z</time>
      </trkpt>
      <trkpt lat="37.19494360" lon="-8.91495382">
        <ele>42.000000</ele>
        <time>2010-01-01T02:04:55Z</time>
      </trkpt>
      <trkpt lat="37.19393000" lon="-8.91345673">
        <ele>37.000000</ele>
        <time>2010-01-01T02:05:22Z</time>
      </trkpt>
      <trkpt lat="37.19336400" lon="-8.91391094">
        <ele>30.000000</ele>
        <time>2010-01-01T02:05:49Z</time>
      </trkpt>
      <trkpt lat="37.19389920" lon="-8.91342253">
        <ele>37.000000</ele>
        <time>2010-01-01T02:05:53Z</time>
      </trkpt>
      <trkpt lat="37.19386760" lon="-8.91328624">
        <ele>37.000000</ele>
        <time>2010-01-01T02:07:06Z</time>
      </trkpt>
      <trkpt lat="37.19272540" lon="-8.91151866">
        <ele>42.000000</ele>
        <time>2010-01-01T02:07:42Z</time>
      </trkpt>
      <trkpt lat="37.19208080" lon="-8.91074334">
        <ele>40.000000</ele>
        <time>2010-01-01T02:08:31Z</time>
      </trkpt>
      <trkpt lat="37.19106920" lon="-8.90986466">
        <ele>38.000000</ele>
        <time>2010-01-01T02:09:02Z</time>
      </trkpt>
      <trkpt lat="37.19057380" lon="-8.90910216">
        <ele>38.000000</ele>
        <time>2010-01-01T02:09:34Z</time>
      </trkpt>
      <trkpt lat="37.19002410" lon="-8.90840336">
        <ele>38.000000</ele>
        <time>2010-01-01T02:09:57Z</time>
      </trkpt>
      <trkpt lat="37.18946240" lon="-8.90818635">
        <ele>37.000000</ele>
        <time>2010-01-01T02:10:03Z</time>
      </trkpt>
      <trkpt lat="37.18932630" lon="-8.90818459">
        <ele>35.000000</ele>
        <time>2010-01-01T02:11:22Z</time>
      </trkpt>
      <trkpt lat="37.18741370" lon="-8.90889169">
        <ele>32.000000</ele>
        <time>2010-01-01T02:12:26Z</time>
      </trkpt>
      <trkpt lat="37.18592200" lon="-8.90957683">
        <ele>31.000000</ele>
        <time>2010-01-01T02:12:50Z</time>
      </trkpt>
      <trkpt lat="37.18536430" lon="-8.90988403">
        <ele>31.000000</ele>
        <time>2010-01-01T02:13:31Z</time>
      </trkpt>
      <trkpt lat="37.18488440" lon="-8.91099304">
        <ele>30.000000</ele>
        <time>2010-01-01T02:13:46Z</time>
      </trkpt>
      <trkpt lat="37.18453510" lon="-8.91115774">
        <ele>29.000000</ele>
        <time>2010-01-01T02:14:10Z</time>
      </trkpt>
      <trkpt lat="37.18394650" lon="-8.91100628">
        <ele>33.000000</ele>
        <time>2010-01-01T02:14:31Z</time>
      </trkpt>
      <trkpt lat="37.18343540" lon="-8.91079707">
        <ele>34.000000</ele>
        <time>2010-01-01T02:14:56Z</time>
      </trkpt>
      <trkpt lat="37.18291090" lon="-8.91038727">
        <ele>32.000000</ele>
        <time>2010-01-01T02:15:49Z</time>
      </trkpt>
      <trkpt lat="37.18186450" lon="-8.90935421">
        <ele>31.000000</ele>
        <time>2010-01-01T02:16:36Z</time>
      </trkpt>
      <trkpt lat="37.18111170" lon="-8.90823187">
        <ele>28.000000</ele>
        <time>2010-01-01T02:16:49Z</time>
      </trkpt>
      <trkpt lat="37.18083150" lon="-8.90801696">
        <ele>29.000000</ele>
        <time>2010-01-01T02:17:05Z</time>
      </trkpt>
      <trkpt lat="37.18043460" lon="-8.90791663">
        <ele>29.000000</ele>
        <time>2010-01-01T02:17:18Z</time>
      </trkpt>
      <trkpt lat="37.18014040" lon="-8.90808753">
        <ele>29.000000</ele>
        <time>2010-01-01T02:17:31Z</time>
      </trkpt>
      <trkpt lat="37.17989620" lon="-8.90835248">
        <ele>26.000000</ele>
        <time>2010-01-01T02:19:38Z</time>
      </trkpt>
      <trkpt lat="37.17680240" lon="-8.90923460">
        <ele>41.000000</ele>
        <time>2010-01-01T02:19:55Z</time>
      </trkpt>
      <trkpt lat="37.17640270" lon="-8.90907995">
        <ele>40.000000</ele>
        <time>2010-01-01T02:20:05Z</time>
      </trkpt>
      <trkpt lat="37.17618270" lon="-8.90892606">
        <ele>38.000000</ele>
        <time>2010-01-01T02:20:15Z</time>
      </trkpt>
      <trkpt lat="37.17601030" lon="-8.90870746">
        <ele>36.000000</ele>
        <time>2010-01-01T02:20:48Z</time>
      </trkpt>
      <trkpt lat="37.17562020" lon="-8.90778067">
        <ele>32.000000</ele>
        <time>2010-01-01T02:21:38Z</time>
      </trkpt>
      <trkpt lat="37.17483190" lon="-8.90658868">
        <ele>37.000000</ele>
        <time>2010-01-01T02:21:50Z</time>
      </trkpt>
      <trkpt lat="37.17455630" lon="-8.90643093">
        <ele>37.000000</ele>
        <time>2010-01-01T02:22:28Z</time>
      </trkpt>
      <trkpt lat="37.17359610" lon="-8.90654032">
        <ele>33.000000</ele>
        <time>2010-01-01T02:22:43Z</time>
      </trkpt>
      <trkpt lat="37.17324360" lon="-8.90640746">
        <ele>32.000000</ele>
        <time>2010-01-01T02:22:59Z</time>
      </trkpt>
      <trkpt lat="37.17298720" lon="-8.90602994">
        <ele>33.000000</ele>
        <time>2010-01-01T02:23:33Z</time>
      </trkpt>
      <trkpt lat="37.17259460" lon="-8.90507038">
        <ele>37.000000</ele>
        <time>2010-01-01T02:23:46Z</time>
      </trkpt>
      <trkpt lat="37.17239390" lon="-8.90475816">
        <ele>40.000000</ele>
        <time>2010-01-01T02:24:00Z</time>
      </trkpt>
      <trkpt lat="37.17207010" lon="-8.90464701">
        <ele>38.000000</ele>
        <time>2010-01-01T02:24:07Z</time>
      </trkpt>
      <trkpt lat="37.17196710" lon="-8.90444166">
        <ele>40.000000</ele>
        <time>2010-01-01T02:24:34Z</time>
      </trkpt>
      <trkpt lat="37.17190280" lon="-8.90361839">
        <ele>37.000000</ele>
        <time>2010-01-01T02:24:43Z</time>
      </trkpt>
      <trkpt lat="37.17182650" lon="-8.90333013">
        <ele>37.000000</ele>
        <time>2010-01-01T02:25:01Z</time>
      </trkpt>
      <trkpt lat="37.17146000" lon="-8.90301598">
        <ele>36.000000</ele>
        <time>2010-01-01T02:25:48Z</time>
      </trkpt>
      <trkpt lat="37.17038750" lon="-8.90243846">
        <ele>27.000000</ele>
        <time>2010-01-01T02:26:40Z</time>
      </trkpt>
      <trkpt lat="37.16930580" lon="-8.90155526">
        <ele>25.000000</ele>
        <time>2010-01-01T02:26:51Z</time>
      </trkpt>
      <trkpt lat="37.16904350" lon="-8.90144831">
        <ele>23.000000</ele>
        <time>2010-01-01T02:27:09Z</time>
      </trkpt>
      <trkpt lat="37.16857230" lon="-8.90144119">
        <ele>21.000000</ele>
        <time>2010-01-01T02:27:25Z</time>
      </trkpt>
      <trkpt lat="37.16882060" lon="-8.90107674">
        <ele>22.000000</ele>
        <time>2010-01-01T02:27:58Z</time>
      </trkpt>
      <trkpt lat="37.16947300" lon="-8.90042329">
        <ele>23.000000</ele>
        <time>2010-01-01T02:28:04Z</time>
      </trkpt>
      <trkpt lat="37.16951810" lon="-8.90024903">
        <ele>23.000000</ele>
        <time>2010-01-01T02:28:33Z</time>
      </trkpt>
      <trkpt lat="37.16938330" lon="-8.89935175">
        <ele>18.000000</ele>
        <time>2010-01-01T02:28:42Z</time>
      </trkpt>
      <trkpt lat="37.16920720" lon="-8.89917522">
        <ele>17.000000</ele>
        <time>2010-01-01T02:29:10Z</time>
      </trkpt>
      <trkpt lat="37.16857060" lon="-8.89881011">
        <ele>13.000000</ele>
        <time>2010-01-01T02:29:22Z</time>
      </trkpt>
      <trkpt lat="37.16841400" lon="-8.89851406">
        <ele>13.000000</ele>
        <time>2010-01-01T02:29:26Z</time>
      </trkpt>
      <trkpt lat="37.16840750" lon="-8.89837265">
        <ele>13.000000</ele>
        <time>2010-01-01T02:29:33Z</time>
      </trkpt>
      <trkpt lat="37.16825920" lon="-8.89825740">
        <ele>13.000000</ele>
        <time>2010-01-01T02:29:43Z</time>
      </trkpt>
      <trkpt lat="37.16802520" lon="-8.89837400">
        <ele>11.000000</ele>
        <time>2010-01-01T02:29:57Z</time>
      </trkpt>
      <trkpt lat="37.16768950" lon="-8.89835229">
        <ele>11.000000</ele>
        <time>2010-01-01T02:30:22Z</time>
      </trkpt>
      <trkpt lat="37.16707770" lon="-8.89813327">
        <ele>4.0000000</ele>
        <time>2010-01-01T02:30:27Z</time>
      </trkpt>
      <trkpt lat="37.16695770" lon="-8.89813712">
        <ele>3.0000000</ele>
        <time>2010-01-01T02:30:34Z</time>
      </trkpt>
      <trkpt lat="37.16680450" lon="-8.89802372">
        <ele>3.0000000</ele>
        <time>2010-01-01T02:31:10Z</time>
      </trkpt>
      <trkpt lat="37.16615330" lon="-8.89879401">
        <ele>6.0000000</ele>
        <time>2010-01-01T02:31:21Z</time>
      </trkpt>
      <trkpt lat="37.16590250" lon="-8.89895411">
        <ele>14.000000</ele>
        <time>2010-01-01T02:31:31Z</time>
      </trkpt>
      <trkpt lat="37.16576890" lon="-8.89921696">
        <ele>18.000000</ele>
        <time>2010-01-01T02:31:47Z</time>
      </trkpt>
      <trkpt lat="37.16566160" lon="-8.89968744">
        <ele>18.000000</ele>
        <time>2010-01-01T02:31:58Z</time>
      </trkpt>
      <trkpt lat="37.16547400" lon="-8.89994594">
        <ele>24.000000</ele>
        <time>2010-01-01T02:32:08Z</time>
      </trkpt>
      <trkpt lat="37.16537520" lon="-8.90024693">
        <ele>24.000000</ele>
        <time>2010-01-01T02:32:40Z</time>
      </trkpt>
      <trkpt lat="37.16524260" lon="-8.90124731">
        <ele>22.000000</ele>
        <time>2010-01-01T02:32:48Z</time>
      </trkpt>
      <trkpt lat="37.16526440" lon="-8.90148335">
        <ele>21.000000</ele>
        <time>2010-01-01T02:32:59Z</time>
      </trkpt>
      <trkpt lat="37.16538200" lon="-8.90177998">
        <ele>18.000000</ele>
        <time>2010-01-01T02:33:03Z</time>
      </trkpt>
      <trkpt lat="37.16533680" lon="-8.90191904">
        <ele>16.000000</ele>
        <time>2010-01-01T02:33:22Z</time>
      </trkpt>
      <trkpt lat="37.16491480" lon="-8.90216329">
        <ele>14.000000</ele>
        <time>2010-01-01T02:33:51Z</time>
      </trkpt>
      <trkpt lat="37.16431260" lon="-8.90165400">
        <ele>11.000000</ele>
        <time>2010-01-01T02:33:56Z</time>
      </trkpt>
      <trkpt lat="37.16423380" lon="-8.90175961">
        <ele>10.000000</ele>
        <time>2010-01-01T02:34:03Z</time>
      </trkpt>
      <trkpt lat="37.16406440" lon="-8.90180865">
        <ele>9.0000000</ele>
        <time>2010-01-01T02:34:10Z</time>
      </trkpt>
      <trkpt lat="37.16397590" lon="-8.90200386">
        <ele>10.000000</ele>
        <time>2010-01-01T02:34:27Z</time>
      </trkpt>
      <trkpt lat="37.16395540" lon="-8.90253310">
        <ele>11.000000</ele>
        <time>2010-01-01T02:34:56Z</time>
      </trkpt>
      <trkpt lat="37.16381750" lon="-8.90342636">
        <ele>14.000000</ele>
        <time>2010-01-01T02:35:02Z</time>
      </trkpt>
      <trkpt lat="37.16370240" lon="-8.90354823">
        <ele>18.000000</ele>
        <time>2010-01-01T02:35:22Z</time>
      </trkpt>
      <trkpt lat="37.16324600" lon="-8.90378627">
        <ele>24.000000</ele>
        <time>2010-01-01T02:36:07Z</time>
      </trkpt>
      <trkpt lat="37.16211890" lon="-8.90358192">
        <ele>10.000000</ele>
        <time>2010-01-01T02:36:13Z</time>
      </trkpt>
      <trkpt lat="37.16197600" lon="-8.90359316">
        <ele>9.0000000</ele>
        <time>2010-01-01T02:36:28Z</time>
      </trkpt>
      <trkpt lat="37.16161740" lon="-8.90378342">
        <ele>9.0000000</ele>
        <time>2010-01-01T02:36:36Z</time>
      </trkpt>
      <trkpt lat="37.16150290" lon="-8.90358117">
        <ele>10.000000</ele>
        <time>2010-01-01T02:36:51Z</time>
      </trkpt>
      <trkpt lat="37.16145240" lon="-8.90313441">
        <ele>15.000000</ele>
        <time>2010-01-01T02:37:13Z</time>
      </trkpt>
      <trkpt lat="37.16161800" lon="-8.90245406">
        <ele>23.000000</ele>
        <time>2010-01-01T02:37:20Z</time>
      </trkpt>
      <trkpt lat="37.16160870" lon="-8.90223914">
        <ele>26.000000</ele>
        <time>2010-01-01T02:37:44Z</time>
      </trkpt>
      <trkpt lat="37.16126560" lon="-8.90162173">
        <ele>35.000000</ele>
        <time>2010-01-01T02:38:06Z</time>
      </trkpt>
      <trkpt lat="37.16090970" lon="-8.90111597">
        <ele>44.000000</ele>
        <time>2010-01-01T02:38:27Z</time>
      </trkpt>
      <trkpt lat="37.16047780" lon="-8.90075203">
        <ele>53.000000</ele>
        <time>2010-01-01T02:38:51Z</time>
      </trkpt>
      <trkpt lat="37.16010350" lon="-8.90015532">
        <ele>57.000000</ele>
        <time>2010-01-01T02:39:29Z</time>
      </trkpt>
      <trkpt lat="37.15931440" lon="-8.89949298">
        <ele>61.000000</ele>
        <time>2010-01-01T02:39:56Z</time>
      </trkpt>
      <trkpt lat="37.15892140" lon="-8.89880784">
        <ele>78.000000</ele>
        <time>2010-01-01T02:40:21Z</time>
      </trkpt>
      <trkpt lat="37.15844960" lon="-8.89827408">
        <ele>85.000000</ele>
        <time>2010-01-01T02:40:38Z</time>
      </trkpt>
      <trkpt lat="37.15823530" lon="-8.89783596">
        <ele>90.000000</ele>
        <time>2010-01-01T02:41:19Z</time>
      </trkpt>
      <trkpt lat="37.15734430" lon="-8.89720774">
        <ele>102.00000</ele>
        <time>2010-01-01T02:41:29Z</time>
      </trkpt>
      <trkpt lat="37.15713710" lon="-8.89700498">
        <ele>102.00000</ele>
        <time>2010-01-01T02:41:59Z</time>
      </trkpt>
      <trkpt lat="37.15683330" lon="-8.89616000">
        <ele>94.000000</ele>
        <time>2010-01-01T02:42:21Z</time>
      </trkpt>
      <trkpt lat="37.15641920" lon="-8.89566974">
        <ele>90.000000</ele>
        <time>2010-01-01T02:42:58Z</time>
      </trkpt>
      <trkpt lat="37.15560240" lon="-8.89515350">
        <ele>89.000000</ele>
        <time>2010-01-01T02:43:07Z</time>
      </trkpt>
      <trkpt lat="37.15541960" lon="-8.89529499">
        <ele>88.000000</ele>
        <time>2010-01-01T02:43:18Z</time>
      </trkpt>
      <trkpt lat="37.15523520" lon="-8.89554494">
        <ele>83.000000</ele>
        <time>2010-01-01T02:43:33Z</time>
      </trkpt>
      <trkpt lat="37.15516840" lon="-8.89601608">
        <ele>76.000000</ele>
        <time>2010-01-01T02:43:42Z</time>
      </trkpt>
      <trkpt lat="37.15520890" lon="-8.89630861">
        <ele>76.000000</ele>
        <time>2010-01-01T02:44:14Z</time>
      </trkpt>
      <trkpt lat="37.15550740" lon="-8.89723892">
        <ele>67.000000</ele>
        <time>2010-01-01T02:44:36Z</time>
      </trkpt>
      <trkpt lat="37.15541400" lon="-8.89789857">
        <ele>60.000000</ele>
        <time>2010-01-01T02:45:02Z</time>
      </trkpt>
      <trkpt lat="37.15503050" lon="-8.89857466">
        <ele>45.000000</ele>
        <time>2010-01-01T02:45:17Z</time>
      </trkpt>
      <trkpt lat="37.15469530" lon="-8.89878278">
        <ele>39.000000</ele>
        <time>2010-01-01T02:45:59Z</time>
      </trkpt>
      <trkpt lat="37.15370160" lon="-8.89839545">
        <ele>29.000000</ele>
        <time>2010-01-01T02:46:24Z</time>
      </trkpt>
      <trkpt lat="37.15311460" lon="-8.89807007">
        <ele>29.000000</ele>
        <time>2010-01-01T02:46:28Z</time>
      </trkpt>
      <trkpt lat="37.15305990" lon="-8.89798918">
        <ele>28.000000</ele>
        <time>2010-01-01T02:46:39Z</time>
      </trkpt>
      <trkpt lat="37.15279340" lon="-8.89800318">
        <ele>29.000000</ele>
        <time>2010-01-01T02:46:48Z</time>
      </trkpt>
      <trkpt lat="37.15257180" lon="-8.89794258">
        <ele>29.000000</ele>
        <time>2010-01-01T02:47:09Z</time>
      </trkpt>
      <trkpt lat="37.15215690" lon="-8.89754226">
        <ele>30.000000</ele>
        <time>2010-01-01T02:47:17Z</time>
      </trkpt>
      <trkpt lat="37.15195050" lon="-8.89747227">
        <ele>33.000000</ele>
        <time>2010-01-01T02:47:24Z</time>
      </trkpt>
      <trkpt lat="37.15179130" lon="-8.89748786">
        <ele>40.000000</ele>
        <time>2010-01-01T02:47:54Z</time>
      </trkpt>
      <trkpt lat="37.15218390" lon="-8.89832153">
        <ele>51.000000</ele>
        <time>2010-01-01T02:48:34Z</time>
      </trkpt>
      <trkpt lat="37.15249690" lon="-8.89950270">
        <ele>69.000000</ele>
        <time>2010-01-01T02:48:46Z</time>
      </trkpt>
      <trkpt lat="37.15267900" lon="-8.89979171">
        <ele>69.000000</ele>
        <time>2010-01-01T02:49:05Z</time>
      </trkpt>
      <trkpt lat="37.15288900" lon="-8.90033561">
        <ele>76.000000</ele>
        <time>2010-01-01T02:49:15Z</time>
      </trkpt>
      <trkpt lat="37.15308920" lon="-8.90050543">
        <ele>76.000000</ele>
        <time>2010-01-01T02:49:19Z</time>
      </trkpt>
      <trkpt lat="37.15300290" lon="-8.90059260">
        <ele>77.000000</ele>
        <time>2010-01-01T02:49:24Z</time>
      </trkpt>
      <trkpt lat="37.15287490" lon="-8.90055798">
        <ele>78.000000</ele>
        <time>2010-01-01T02:49:26Z</time>
      </trkpt>
      <trkpt lat="37.15289240" lon="-8.90060409">
        <ele>78.000000</ele>
        <time>2010-01-01T02:49:34Z</time>
      </trkpt>
      <trkpt lat="37.15307690" lon="-8.90060526">
        <ele>77.000000</ele>
        <time>2010-01-01T02:49:36Z</time>
      </trkpt>
      <trkpt lat="37.15302250" lon="-8.90063485">
        <ele>77.000000</ele>
        <time>2010-01-01T02:49:47Z</time>
      </trkpt>
      <trkpt lat="37.15276870" lon="-8.90050493">
        <ele>78.000000</ele>
        <time>2010-01-01T02:50:07Z</time>
      </trkpt>
      <trkpt lat="37.15233200" lon="-8.90019052">
        <ele>82.000000</ele>
        <time>2010-01-01T02:50:56Z</time>
      </trkpt>
      <trkpt lat="37.15156850" lon="-8.89899350">
        <ele>100.00000</ele>
        <time>2010-01-01T02:51:19Z</time>
      </trkpt>
      <trkpt lat="37.15101190" lon="-8.89920439">
        <ele>106.00000</ele>
        <time>2010-01-01T02:51:33Z</time>
      </trkpt>
      <trkpt lat="37.15066170" lon="-8.89925485">
        <ele>105.00000</ele>
        <time>2010-01-01T02:51:57Z</time>
      </trkpt>
      <trkpt lat="37.15018540" lon="-8.89882092">
        <ele>104.00000</ele>
        <time>2010-01-01T02:52:16Z</time>
      </trkpt>
      <trkpt lat="37.14974990" lon="-8.89859017">
        <ele>104.00000</ele>
        <time>2010-01-01T02:52:47Z</time>
      </trkpt>
      <trkpt lat="37.14912300" lon="-8.89803109">
        <ele>96.000000</ele>
        <time>2010-01-01T02:53:11Z</time>
      </trkpt>
      <trkpt lat="37.14858320" lon="-8.89770126">
        <ele>94.000000</ele>
        <time>2010-01-01T02:53:36Z</time>
      </trkpt>
      <trkpt lat="37.14796540" lon="-8.89749658">
        <ele>101.00000</ele>
        <time>2010-01-01T02:53:56Z</time>
      </trkpt>
      <trkpt lat="37.14753420" lon="-8.89722073">
        <ele>106.00000</ele>
        <time>2010-01-01T02:54:14Z</time>
      </trkpt>
      <trkpt lat="37.14719440" lon="-8.89684849">
        <ele>111.00000</ele>
        <time>2010-01-01T02:54:39Z</time>
      </trkpt>
      <trkpt lat="37.14681780" lon="-8.89622077">
        <ele>115.00000</ele>
        <time>2010-01-01T02:55:16Z</time>
      </trkpt>
      <trkpt lat="37.14601710" lon="-8.89562959">
        <ele>113.00000</ele>
        <time>2010-01-01T02:55:47Z</time>
      </trkpt>
      <trkpt lat="37.14551350" lon="-8.89488008">
        <ele>112.00000</ele>
        <time>2010-01-01T02:56:02Z</time>
      </trkpt>
      <trkpt lat="37.14516430" lon="-8.89474262">
        <ele>108.00000</ele>
        <time>2010-01-01T02:56:20Z</time>
      </trkpt>
      <trkpt lat="37.14476190" lon="-8.89448563">
        <ele>109.00000</ele>
        <time>2010-01-01T02:56:52Z</time>
      </trkpt>
      <trkpt lat="37.14410110" lon="-8.89391524">
        <ele>113.00000</ele>
        <time>2010-01-01T02:57:03Z</time>
      </trkpt>
      <trkpt lat="37.14384460" lon="-8.89379262">
        <ele>113.00000</ele>
        <time>2010-01-01T02:57:21Z</time>
      </trkpt>
      <trkpt lat="37.14339510" lon="-8.89372531">
        <ele>114.00000</ele>
        <time>2010-01-01T02:57:58Z</time>
      </trkpt>
      <trkpt lat="37.14254780" lon="-8.89323840">
        <ele>110.00000</ele>
        <time>2010-01-01T02:58:15Z</time>
      </trkpt>
      <trkpt lat="37.14215020" lon="-8.89310538">
        <ele>107.00000</ele>
        <time>2010-01-01T02:58:28Z</time>
      </trkpt>
      <trkpt lat="37.14186700" lon="-8.89288318">
        <ele>107.00000</ele>
        <time>2010-01-01T02:58:38Z</time>
      </trkpt>
      <trkpt lat="37.14177440" lon="-8.89260482">
        <ele>112.00000</ele>
        <time>2010-01-01T02:58:58Z</time>
      </trkpt>
      <trkpt lat="37.14176650" lon="-8.89198849">
        <ele>118.00000</ele>
        <time>2010-01-01T02:59:25Z</time>
      </trkpt>
      <trkpt lat="37.14131250" lon="-8.89136052">
        <ele>120.00000</ele>
        <time>2010-01-01T03:00:12Z</time>
      </trkpt>
      <trkpt lat="37.14115900" lon="-8.88988413">
        <ele>120.00000</ele>
        <time>2010-01-01T03:00:31Z</time>
      </trkpt>
      <trkpt lat="37.14098430" lon="-8.88932297">
        <ele>116.00000</ele>
        <time>2010-01-01T03:00:43Z</time>
      </trkpt>
      <trkpt lat="37.14083170" lon="-8.88900269">
        <ele>114.00000</ele>
        <time>2010-01-01T03:01:13Z</time>
      </trkpt>
      <trkpt lat="37.14027690" lon="-8.88839744">
        <ele>122.00000</ele>
        <time>2010-01-01T03:01:26Z</time>
      </trkpt>
      <trkpt lat="37.14012950" lon="-8.88803333">
        <ele>123.00000</ele>
        <time>2010-01-01T03:02:04Z</time>
      </trkpt>
      <trkpt lat="37.13988030" lon="-8.88687352">
        <ele>127.00000</ele>
        <time>2010-01-01T03:02:15Z</time>
      </trkpt>
      <trkpt lat="37.13964750" lon="-8.88670203">
        <ele>128.00000</ele>
        <time>2010-01-01T03:03:05Z</time>
      </trkpt>
      <trkpt lat="37.13839170" lon="-8.88684595">
        <ele>123.00000</ele>
        <time>2010-01-01T03:03:25Z</time>
      </trkpt>
      <trkpt lat="37.13792710" lon="-8.88664914">
        <ele>122.00000</ele>
        <time>2010-01-01T03:03:55Z</time>
      </trkpt>
      <trkpt lat="37.13738760" lon="-8.88598890">
        <ele>127.00000</ele>
        <time>2010-01-01T03:04:16Z</time>
      </trkpt>
      <trkpt lat="37.13706250" lon="-8.88548657">
        <ele>130.00000</ele>
        <time>2010-01-01T03:04:56Z</time>
      </trkpt>
      <trkpt lat="37.13617560" lon="-8.88492490">
        <ele>135.00000</ele>
        <time>2010-01-01T03:05:32Z</time>
      </trkpt>
      <trkpt lat="37.13541390" lon="-8.88431143">
        <ele>135.00000</ele>
        <time>2010-01-01T03:05:43Z</time>
      </trkpt>
      <trkpt lat="37.13533620" lon="-8.88464234">
        <ele>134.00000</ele>
        <time>2010-01-01T03:06:05Z</time>
      </trkpt>
      <trkpt lat="37.13551590" lon="-8.88531097">
        <ele>129.00000</ele>
        <time>2010-01-01T03:06:28Z</time>
      </trkpt>
      <trkpt lat="37.13545680" lon="-8.88602653">
        <ele>125.00000</ele>
        <time>2010-01-01T03:06:59Z</time>
      </trkpt>
      <trkpt lat="37.13514480" lon="-8.88691367">
        <ele>119.00000</ele>
        <time>2010-01-01T03:07:11Z</time>
      </trkpt>
      <trkpt lat="37.13514760" lon="-8.88728541">
        <ele>117.00000</ele>
        <time>2010-01-01T03:07:22Z</time>
      </trkpt>
      <trkpt lat="37.13506900" lon="-8.88761725">
        <ele>113.00000</ele>
        <time>2010-01-01T03:07:34Z</time>
      </trkpt>
      <trkpt lat="37.13488630" lon="-8.88789444">
        <ele>105.00000</ele>
        <time>2010-01-01T03:07:53Z</time>
      </trkpt>
      <trkpt lat="37.13480790" lon="-8.88848201">
        <ele>99.000000</ele>
        <time>2010-01-01T03:08:09Z</time>
      </trkpt>
      <trkpt lat="37.13479510" lon="-8.88900479">
        <ele>92.000000</ele>
        <time>2010-01-01T03:08:44Z</time>
      </trkpt>
      <trkpt lat="37.13490160" lon="-8.89008874">
        <ele>79.000000</ele>
        <time>2010-01-01T03:08:54Z</time>
      </trkpt>
      <trkpt lat="37.13466000" lon="-8.89018907">
        <ele>78.000000</ele>
        <time>2010-01-01T03:09:16Z</time>
      </trkpt>
      <trkpt lat="37.13414190" lon="-8.89004339">
        <ele>82.000000</ele>
        <time>2010-01-01T03:09:25Z</time>
      </trkpt>
      <trkpt lat="37.13391310" lon="-8.89013006">
        <ele>83.000000</ele>
        <time>2010-01-01T03:09:44Z</time>
      </trkpt>
      <trkpt lat="37.13405930" lon="-8.89067463">
        <ele>84.000000</ele>
        <time>2010-01-01T03:09:59Z</time>
      </trkpt>
      <trkpt lat="37.13408530" lon="-8.89115408">
        <ele>95.000000</ele>
        <time>2010-01-01T03:10:26Z</time>
      </trkpt>
      <trkpt lat="37.13400260" lon="-8.89201280">
        <ele>106.00000</ele>
        <time>2010-01-01T03:10:48Z</time>
      </trkpt>
      <trkpt lat="37.13385400" lon="-8.89266667">
        <ele>115.00000</ele>
        <time>2010-01-01T03:11:09Z</time>
      </trkpt>
      <trkpt lat="37.13384870" lon="-8.89330504">
        <ele>123.00000</ele>
        <time>2010-01-01T03:11:18Z</time>
      </trkpt>
      <trkpt lat="37.13379030" lon="-8.89357854">
        <ele>125.00000</ele>
        <time>2010-01-01T03:11:37Z</time>
      </trkpt>
      <trkpt lat="37.13340910" lon="-8.89393184">
        <ele>129.00000</ele>
        <time>2010-01-01T03:11:46Z</time>
      </trkpt>
      <trkpt lat="37.13320360" lon="-8.89404843">
        <ele>129.00000</ele>
        <time>2010-01-01T03:12:23Z</time>
      </trkpt>
      <trkpt lat="37.13234550" lon="-8.89358776">
        <ele>131.00000</ele>
        <time>2010-01-01T03:13:08Z</time>
      </trkpt>
      <trkpt lat="37.13136890" lon="-8.89291067">
        <ele>130.00000</ele>
        <time>2010-01-01T03:14:33Z</time>
      </trkpt>
      <trkpt lat="37.12956370" lon="-8.89148399">
        <ele>131.00000</ele>
        <time>2010-01-01T03:15:01Z</time>
      </trkpt>
      <trkpt lat="37.12886940" lon="-8.89163017">
        <ele>135.00000</ele>
        <time>2010-01-01T03:16:22Z</time>
      </trkpt>
      <trkpt lat="37.12685270" lon="-8.89157326">
        <ele>137.00000</ele>
        <time>2010-01-01T03:16:40Z</time>
      </trkpt>
      <trkpt lat="37.12641640" lon="-8.89171474">
        <ele>137.00000</ele>
        <time>2010-01-01T03:16:56Z</time>
      </trkpt>
      <trkpt lat="37.12618980" lon="-8.89211137">
        <ele>136.00000</ele>
        <time>2010-01-01T03:17:49Z</time>
      </trkpt>
      <trkpt lat="37.12561990" lon="-8.89362364">
        <ele>135.00000</ele>
        <time>2010-01-01T03:18:19Z</time>
      </trkpt>
      <trkpt lat="37.12523740" lon="-8.89442897">
        <ele>135.00000</ele>
        <time>2010-01-01T03:19:09Z</time>
      </trkpt>
      <trkpt lat="37.12468640" lon="-8.89583705">
        <ele>133.00000</ele>
        <time>2010-01-01T03:19:19Z</time>
      </trkpt>
      <trkpt lat="37.12451530" lon="-8.89607316">
        <ele>133.00000</ele>
        <time>2010-01-01T03:19:42Z</time>
      </trkpt>
      <trkpt lat="37.12398150" lon="-8.89579639">
        <ele>134.00000</ele>
        <time>2010-01-01T03:21:47Z</time>
      </trkpt>
      <trkpt lat="37.12099720" lon="-8.89688629">
        <ele>133.00000</ele>
        <time>2010-01-01T03:22:59Z</time>
      </trkpt>
      <trkpt lat="37.11946300" lon="-8.89805741">
        <ele>135.00000</ele>
        <time>2010-01-01T03:24:38Z</time>
      </trkpt>
      <trkpt lat="37.11746580" lon="-8.89992884">
        <ele>134.00000</ele>
        <time>2010-01-01T03:25:06Z</time>
      </trkpt>
      <trkpt lat="37.11679680" lon="-8.90012129">
        <ele>135.00000</ele>
        <time>2010-01-01T03:25:27Z</time>
      </trkpt>
      <trkpt lat="37.11631170" lon="-8.90034911">
        <ele>136.00000</ele>
        <time>2010-01-01T03:26:08Z</time>
      </trkpt>
      <trkpt lat="37.11541720" lon="-8.90101220">
        <ele>135.00000</ele>
        <time>2010-01-01T03:26:14Z</time>
      </trkpt>
      <trkpt lat="37.11531810" lon="-8.90116701">
        <ele>136.00000</ele>
        <time>2010-01-01T03:26:16Z</time>
      </trkpt>
      <trkpt lat="37.11532570" lon="-8.90111370">
        <ele>136.00000</ele>
        <time>2010-01-01T03:26:30Z</time>
      </trkpt>
      <trkpt lat="37.11525810" lon="-8.90153884">
        <ele>137.00000</ele>
        <time>2010-01-01T03:26:42Z</time>
      </trkpt>
      <trkpt lat="37.11527570" lon="-8.90191451">
        <ele>136.00000</ele>
        <time>2010-01-01T03:27:40Z</time>
      </trkpt>
      <trkpt lat="37.11552440" lon="-8.90370581">
        <ele>127.00000</ele>
        <time>2010-01-01T03:28:02Z</time>
      </trkpt>
      <trkpt lat="37.11553730" lon="-8.90438399">
        <ele>124.00000</ele>
        <time>2010-01-01T03:28:21Z</time>
      </trkpt>
      <trkpt lat="37.11540310" lon="-8.90496301">
        <ele>126.00000</ele>
        <time>2010-01-01T03:29:09Z</time>
      </trkpt>
      <trkpt lat="37.11491980" lon="-8.90635281">
        <ele>132.00000</ele>
        <time>2010-01-01T03:29:18Z</time>
      </trkpt>
      <trkpt lat="37.11498850" lon="-8.90660150">
        <ele>133.00000</ele>
        <time>2010-01-01T03:29:49Z</time>
      </trkpt>
      <trkpt lat="37.11566010" lon="-8.90711364">
        <ele>127.00000</ele>
        <time>2010-01-01T03:30:28Z</time>
      </trkpt>
      <trkpt lat="37.11654180" lon="-8.90764421">
        <ele>128.00000</ele>
        <time>2010-01-01T03:31:13Z</time>
      </trkpt>
      <trkpt lat="37.11713530" lon="-8.90884425">
        <ele>130.00000</ele>
        <time>2010-01-01T03:31:28Z</time>
      </trkpt>
      <trkpt lat="37.11737420" lon="-8.90919520">
        <ele>132.00000</ele>
        <time>2010-01-01T03:33:22Z</time>
      </trkpt>
      <trkpt lat="37.11994450" lon="-8.91073077">
        <ele>129.00000</ele>
        <time>2010-01-01T03:34:37Z</time>
      </trkpt>
      <trkpt lat="37.12118120" lon="-8.91249298">
        <ele>127.00000</ele>
        <time>2010-01-01T03:35:23Z</time>
      </trkpt>
      <trkpt lat="37.12180730" lon="-8.91369913">
        <ele>130.00000</ele>
        <time>2010-01-01T03:36:06Z</time>
      </trkpt>
      <trkpt lat="37.12258170" lon="-8.91460949">
        <ele>127.00000</ele>
        <time>2010-01-01T03:36:15Z</time>
      </trkpt>
      <trkpt lat="37.12263980" lon="-8.91488324">
        <ele>127.00000</ele>
        <time>2010-01-01T03:36:21Z</time>
      </trkpt>
      <trkpt lat="37.12250640" lon="-8.91500403">
        <ele>129.00000</ele>
        <time>2010-01-01T03:37:00Z</time>
      </trkpt>
      <trkpt lat="37.12160270" lon="-8.91544056">
        <ele>129.00000</ele>
        <time>2010-01-01T03:37:16Z</time>
      </trkpt>
      <trkpt lat="37.12155950" lon="-8.91593350">
        <ele>127.00000</ele>
        <time>2010-01-01T03:37:34Z</time>
      </trkpt>
      <trkpt lat="37.12135290" lon="-8.91643247">
        <ele>125.00000</ele>
        <time>2010-01-01T03:38:08Z</time>
      </trkpt>
      <trkpt lat="37.12119510" lon="-8.91747996">
        <ele>124.00000</ele>
        <time>2010-01-01T03:38:18Z</time>
      </trkpt>
      <trkpt lat="37.12102410" lon="-8.91770300">
        <ele>124.00000</ele>
        <time>2010-01-01T03:38:36Z</time>
      </trkpt>
      <trkpt lat="37.12064890" lon="-8.91800802">
        <ele>122.00000</ele>
        <time>2010-01-01T03:39:15Z</time>
      </trkpt>
      <trkpt lat="37.12034080" lon="-8.91918241">
        <ele>122.00000</ele>
        <time>2010-01-01T03:39:32Z</time>
      </trkpt>
      <trkpt lat="37.12006360" lon="-8.91960511">
        <ele>121.00000</ele>
        <time>2010-01-01T03:40:13Z</time>
      </trkpt>
      <trkpt lat="37.11931220" lon="-8.92043734">
        <ele>117.00000</ele>
        <time>2010-01-01T03:40:23Z</time>
      </trkpt>
      <trkpt lat="37.11921020" lon="-8.92073029">
        <ele>116.00000</ele>
        <time>2010-01-01T03:40:45Z</time>
      </trkpt>
      <trkpt lat="37.11921600" lon="-8.92142373">
        <ele>112.00000</ele>
        <time>2010-01-01T03:41:08Z</time>
      </trkpt>
      <trkpt lat="37.11952130" lon="-8.92203477">
        <ele>104.00000</ele>
        <time>2010-01-01T03:41:18Z</time>
      </trkpt>
      <trkpt lat="37.11956810" lon="-8.92235412">
        <ele>100.00000</ele>
        <time>2010-01-01T03:41:37Z</time>
      </trkpt>
      <trkpt lat="37.11950530" lon="-8.92293532">
        <ele>99.000000</ele>
        <time>2010-01-01T03:41:51Z</time>
      </trkpt>
      <trkpt lat="37.11935240" lon="-8.92334612">
        <ele>103.00000</ele>
        <time>2010-01-01T03:41:58Z</time>
      </trkpt>
      <trkpt lat="37.11938040" lon="-8.92353446">
        <ele>104.00000</ele>
        <time>2010-01-01T03:42:22Z</time>
      </trkpt>
      <trkpt lat="37.11984520" lon="-8.92402346">
        <ele>98.000000</ele>
        <time>2010-01-01T03:42:30Z</time>
      </trkpt>
      <trkpt lat="37.11995080" lon="-8.92425689">
        <ele>97.000000</ele>
        <time>2010-01-01T03:43:13Z</time>
      </trkpt>
      <trkpt lat="37.12021130" lon="-8.92556196">
        <ele>86.000000</ele>
        <time>2010-01-01T03:43:30Z</time>
      </trkpt>
      <trkpt lat="37.12003460" lon="-8.92603503">
        <ele>91.000000</ele>
        <time>2010-01-01T03:43:59Z</time>
      </trkpt>
      <trkpt lat="37.11951600" lon="-8.92668387">
        <ele>79.000000</ele>
        <time>2010-01-01T03:44:02Z</time>
      </trkpt>
      <trkpt lat="37.11945940" lon="-8.92669661">
        <ele>78.000000</ele>
        <time>2010-01-01T03:44:44Z</time>
      </trkpt>
      <trkpt lat="37.11854990" lon="-8.92602162">
        <ele>74.000000</ele>
        <time>2010-01-01T03:44:56Z</time>
      </trkpt>
      <trkpt lat="37.11839470" lon="-8.92568710">
        <ele>70.000000</ele>
        <time>2010-01-01T03:45:18Z</time>
      </trkpt>
      <trkpt lat="37.11861340" lon="-8.92508151">
        <ele>77.000000</ele>
        <time>2010-01-01T03:45:27Z</time>
      </trkpt>
      <trkpt lat="37.11853140" lon="-8.92479853">
        <ele>77.000000</ele>
        <time>2010-01-01T03:45:32Z</time>
      </trkpt>
      <trkpt lat="37.11842150" lon="-8.92472494">
        <ele>74.000000</ele>
        <time>2010-01-01T03:45:54Z</time>
      </trkpt>
      <trkpt lat="37.11787520" lon="-8.92465822">
        <ele>65.000000</ele>
        <time>2010-01-01T03:46:04Z</time>
      </trkpt>
      <trkpt lat="37.11764640" lon="-8.92455596">
        <ele>62.000000</ele>
        <time>2010-01-01T03:46:32Z</time>
      </trkpt>
      <trkpt lat="37.11724200" lon="-8.92383352">
        <ele>54.000000</ele>
        <time>2010-01-01T03:47:01Z</time>
      </trkpt>
      <trkpt lat="37.11691540" lon="-8.92301595">
        <ele>45.000000</ele>
        <time>2010-01-01T03:47:35Z</time>
      </trkpt>
      <trkpt lat="37.11690890" lon="-8.92196319">
        <ele>45.000000</ele>
        <time>2010-01-01T03:47:40Z</time>
      </trkpt>
      <trkpt lat="37.11681280" lon="-8.92204600">
        <ele>43.000000</ele>
        <time>2010-01-01T03:47:59Z</time>
      </trkpt>
      <trkpt lat="37.11666180" lon="-8.92263055">
        <ele>38.000000</ele>
        <time>2010-01-01T03:48:26Z</time>
      </trkpt>
      <trkpt lat="37.11657450" lon="-8.92346866">
        <ele>33.000000</ele>
        <time>2010-01-01T03:49:26Z</time>
      </trkpt>
      <trkpt lat="37.11669290" lon="-8.92535291">
        <ele>25.000000</ele>
        <time>2010-01-01T03:50:24Z</time>
      </trkpt>
      <trkpt lat="37.11730280" lon="-8.92697883">
        <ele>16.000000</ele>
        <time>2010-01-01T03:50:59Z</time>
      </trkpt>
      <trkpt lat="37.11794950" lon="-8.92773983">
        <ele>16.000000</ele>
        <time>2010-01-01T03:51:13Z</time>
      </trkpt>
      <trkpt lat="37.11797560" lon="-8.92817434">
        <ele>14.000000</ele>
        <time>2010-01-01T03:51:18Z</time>
      </trkpt>
      <trkpt lat="37.11786750" lon="-8.92812212">
        <ele>14.000000</ele>
        <time>2010-01-01T03:51:22Z</time>
      </trkpt>
      <trkpt lat="37.11795640" lon="-8.92818398">
        <ele>14.000000</ele>
        <time>2010-01-01T03:51:26Z</time>
      </trkpt>
      <trkpt lat="37.11789610" lon="-8.92807795">
        <ele>13.000000</ele>
        <time>2010-01-01T03:51:47Z</time>
      </trkpt>
      <trkpt lat="37.11740910" lon="-8.92785181">
        <ele>19.000000</ele>
        <time>2010-01-01T03:52:32Z</time>
      </trkpt>
      <trkpt lat="37.11640870" lon="-8.92718821">
        <ele>16.000000</ele>
        <time>2010-01-01T03:53:19Z</time>
      </trkpt>
      <trkpt lat="37.11527180" lon="-8.92681270">
        <ele>34.000000</ele>
        <time>2010-01-01T03:53:51Z</time>
      </trkpt>
      <trkpt lat="37.11465630" lon="-8.92618532">
        <ele>44.000000</ele>
        <time>2010-01-01T03:54:07Z</time>
      </trkpt>
      <trkpt lat="37.11428520" lon="-8.92600201">
        <ele>49.000000</ele>
        <time>2010-01-01T03:54:44Z</time>
      </trkpt>
      <trkpt lat="37.11339420" lon="-8.92571132">
        <ele>61.000000</ele>
        <time>2010-01-01T03:55:13Z</time>
      </trkpt>
      <trkpt lat="37.11272900" lon="-8.92534906">
        <ele>68.000000</ele>
        <time>2010-01-01T03:55:26Z</time>
      </trkpt>
      <trkpt lat="37.11239670" lon="-8.92526448">
        <ele>73.000000</ele>
        <time>2010-01-01T03:55:52Z</time>
      </trkpt>
      <trkpt lat="37.11176740" lon="-8.92546196">
        <ele>85.000000</ele>
        <time>2010-01-01T03:56:22Z</time>
      </trkpt>
      <trkpt lat="37.11106580" lon="-8.92519106">
        <ele>84.000000</ele>
        <time>2010-01-01T03:56:30Z</time>
      </trkpt>
      <trkpt lat="37.11085170" lon="-8.92518133">
        <ele>85.000000</ele>
        <time>2010-01-01T03:56:39Z</time>
      </trkpt>
      <trkpt lat="37.11064440" lon="-8.92522450">
        <ele>87.000000</ele>
        <time>2010-01-01T03:56:46Z</time>
      </trkpt>
      <trkpt lat="37.11048090" lon="-8.92534386">
        <ele>89.000000</ele>
        <time>2010-01-01T03:57:00Z</time>
      </trkpt>
      <trkpt lat="37.11013820" lon="-8.92534528">
        <ele>92.000000</ele>
        <time>2010-01-01T03:57:06Z</time>
      </trkpt>
      <trkpt lat="37.11009680" lon="-8.92551669">
        <ele>94.000000</ele>
        <time>2010-01-01T03:57:27Z</time>
      </trkpt>
      <trkpt lat="37.11049380" lon="-8.92595314">
        <ele>94.000000</ele>
        <time>2010-01-01T03:57:43Z</time>
      </trkpt>
      <trkpt lat="37.11067630" lon="-8.92638950">
        <ele>92.000000</ele>
        <time>2010-01-01T03:57:50Z</time>
      </trkpt>
      <trkpt lat="37.11068000" lon="-8.92661682">
        <ele>93.000000</ele>
        <time>2010-01-01T03:58:10Z</time>
      </trkpt>
      <trkpt lat="37.11052030" lon="-8.92722912">
        <ele>101.00000</ele>
        <time>2010-01-01T03:58:18Z</time>
      </trkpt>
      <trkpt lat="37.11033820" lon="-8.92728922">
        <ele>104.00000</ele>
        <time>2010-01-01T03:58:27Z</time>
      </trkpt>
      <trkpt lat="37.11010860" lon="-8.92721311">
        <ele>106.00000</ele>
        <time>2010-01-01T03:58:39Z</time>
      </trkpt>
      <trkpt lat="37.10981870" lon="-8.92720959">
        <ele>107.00000</ele>
        <time>2010-01-01T03:59:09Z</time>
      </trkpt>
      <trkpt lat="37.10924280" lon="-8.92782390">
        <ele>105.00000</ele>
        <time>2010-01-01T03:59:57Z</time>
      </trkpt>
      <trkpt lat="37.10816720" lon="-8.92719836">
        <ele>102.00000</ele>
        <time>2010-01-01T04:00:14Z</time>
      </trkpt>
      <trkpt lat="37.10774750" lon="-8.92727564">
        <ele>104.00000</ele>
        <time>2010-01-01T04:00:28Z</time>
      </trkpt>
      <trkpt lat="37.10762240" lon="-8.92770018">
        <ele>104.00000</ele>
        <time>2010-01-01T04:00:35Z</time>
      </trkpt>
      <trkpt lat="37.10762930" lon="-8.92792146">
        <ele>103.00000</ele>
        <time>2010-01-01T04:01:00Z</time>
      </trkpt>
      <trkpt lat="37.10726260" lon="-8.92853099">
        <ele>103.00000</ele>
        <time>2010-01-01T04:01:07Z</time>
      </trkpt>
      <trkpt lat="37.10736740" lon="-8.92870861">
        <ele>101.00000</ele>
        <time>2010-01-01T04:01:21Z</time>
      </trkpt>
      <trkpt lat="37.10765180" lon="-8.92895805">
        <ele>98.000000</ele>
        <time>2010-01-01T04:01:39Z</time>
      </trkpt>
      <trkpt lat="37.10806660" lon="-8.92923583">
        <ele>93.000000</ele>
        <time>2010-01-01T04:01:56Z</time>
      </trkpt>
      <trkpt lat="37.10820020" lon="-8.92972516">
        <ele>91.000000</ele>
        <time>2010-01-01T04:02:45Z</time>
      </trkpt>
      <trkpt lat="37.10788860" lon="-8.93121748">
        <ele>94.000000</ele>
        <time>2010-01-01T04:02:50Z</time>
      </trkpt>
      <trkpt lat="37.10790180" lon="-8.93138126">
        <ele>93.000000</ele>
        <time>2010-01-01T04:03:13Z</time>
      </trkpt>
      <trkpt lat="37.10830770" lon="-8.93186347">
        <ele>88.000000</ele>
        <time>2010-01-01T04:03:27Z</time>
      </trkpt>
      <trkpt lat="37.10843060" lon="-8.93226723">
        <ele>84.000000</ele>
        <time>2010-01-01T04:03:43Z</time>
      </trkpt>
      <trkpt lat="37.10824280" lon="-8.93272169">
        <ele>85.000000</ele>
        <time>2010-01-01T04:03:53Z</time>
      </trkpt>
      <trkpt lat="37.10799400" lon="-8.93274474">
        <ele>85.000000</ele>
        <time>2010-01-01T04:04:07Z</time>
      </trkpt>
      <trkpt lat="37.10766190" lon="-8.93262807">
        <ele>85.000000</ele>
        <time>2010-01-01T04:04:59Z</time>
      </trkpt>
      <trkpt lat="37.10665440" lon="-8.93156424">
        <ele>79.000000</ele>
        <time>2010-01-01T04:05:17Z</time>
      </trkpt>
      <trkpt lat="37.10625770" lon="-8.93133692">
        <ele>74.000000</ele>
        <time>2010-01-01T04:05:34Z</time>
      </trkpt>
      <trkpt lat="37.10590920" lon="-8.93101288">
        <ele>65.000000</ele>
        <time>2010-01-01T04:05:44Z</time>
      </trkpt>
      <trkpt lat="37.10578360" lon="-8.93074926">
        <ele>63.000000</ele>
        <time>2010-01-01T04:05:53Z</time>
      </trkpt>
      <trkpt lat="37.10574910" lon="-8.93047216">
        <ele>65.000000</ele>
        <time>2010-01-01T04:06:07Z</time>
      </trkpt>
      <trkpt lat="37.10560770" lon="-8.93008324">
        <ele>65.000000</ele>
        <time>2010-01-01T04:06:44Z</time>
      </trkpt>
      <trkpt lat="37.10496900" lon="-8.92923591">
        <ele>52.000000</ele>
        <time>2010-01-01T04:07:08Z</time>
      </trkpt>
      <trkpt lat="37.10471430" lon="-8.92856134">
        <ele>51.000000</ele>
        <time>2010-01-01T04:07:34Z</time>
      </trkpt>
      <trkpt lat="37.10463940" lon="-8.92774787">
        <ele>53.000000</ele>
        <time>2010-01-01T04:07:41Z</time>
      </trkpt>
      <trkpt lat="37.10448720" lon="-8.92765978">
        <ele>54.000000</ele>
        <time>2010-01-01T04:08:17Z</time>
      </trkpt>
      <trkpt lat="37.10421840" lon="-8.92873509">
        <ele>46.000000</ele>
        <time>2010-01-01T04:08:45Z</time>
      </trkpt>
      <trkpt lat="37.10417730" lon="-8.92962978">
        <ele>38.000000</ele>
        <time>2010-01-01T04:10:05Z</time>
      </trkpt>
      <trkpt lat="37.10475850" lon="-8.93201904">
        <ele>27.000000</ele>
        <time>2010-01-01T04:10:54Z</time>
      </trkpt>
      <trkpt lat="37.10493150" lon="-8.93353583">
        <ele>16.000000</ele>
        <time>2010-01-01T04:11:10Z</time>
      </trkpt>
      <trkpt lat="37.10534060" lon="-8.93352602">
        <ele>16.000000</ele>
        <time>2010-01-01T04:11:33Z</time>
      </trkpt>
      <trkpt lat="37.10590500" lon="-8.93368243">
        <ele>19.000000</ele>
        <time>2010-01-01T04:12:42Z</time>
      </trkpt>
      <trkpt lat="37.10746010" lon="-8.93454794">
        <ele>24.000000</ele>
        <time>2010-01-01T04:13:56Z</time>
      </trkpt>
      <trkpt lat="37.10913150" lon="-8.93560867">
        <ele>14.000000</ele>
        <time>2010-01-01T04:14:06Z</time>
      </trkpt>
      <trkpt lat="37.10926790" lon="-8.93585435">
        <ele>13.000000</ele>
        <time>2010-01-01T04:14:13Z</time>
      </trkpt>
      <trkpt lat="37.10910510" lon="-8.93585879">
        <ele>12.000000</ele>
        <time>2010-01-01T04:14:20Z</time>
      </trkpt>
      <trkpt lat="37.10923320" lon="-8.93601327">
        <ele>12.000000</ele>
        <time>2010-01-01T04:14:27Z</time>
      </trkpt>
      <trkpt lat="37.10909960" lon="-8.93587396">
        <ele>12.000000</ele>
        <time>2010-01-01T04:14:29Z</time>
      </trkpt>
      <trkpt lat="37.10907080" lon="-8.93581235">
        <ele>12.000000</ele>
        <time>2010-01-01T04:14:31Z</time>
      </trkpt>
      <trkpt lat="37.10911370" lon="-8.93580347">
        <ele>12.000000</ele>
        <time>2010-01-01T04:14:34Z</time>
      </trkpt>
      <trkpt lat="37.10906570" lon="-8.93589274">
        <ele>11.000000</ele>
        <time>2010-01-01T04:14:41Z</time>
      </trkpt>
      <trkpt lat="37.10918570" lon="-8.93573239">
        <ele>13.000000</ele>
        <time>2010-01-01T04:14:46Z</time>
      </trkpt>
      <trkpt lat="37.10913100" lon="-8.93560339">
        <ele>14.000000</ele>
        <time>2010-01-01T04:15:49Z</time>
      </trkpt>
      <trkpt lat="37.10769400" lon="-8.93478440">
        <ele>23.000000</ele>
        <time>2010-01-01T04:16:08Z</time>
      </trkpt>
      <trkpt lat="37.10730450" lon="-8.93446161">
        <ele>22.000000</ele>
        <time>2010-01-01T04:17:09Z</time>
      </trkpt>
      <trkpt lat="37.10590750" lon="-8.93371059">
        <ele>19.000000</ele>
        <time>2010-01-01T04:17:34Z</time>
      </trkpt>
      <trkpt lat="37.10528270" lon="-8.93355620">
        <ele>16.000000</ele>
        <time>2010-01-01T04:17:50Z</time>
      </trkpt>
      <trkpt lat="37.10489370" lon="-8.93369550">
        <ele>17.000000</ele>
        <time>2010-01-01T04:17:57Z</time>
      </trkpt>
      <trkpt lat="37.10474870" lon="-8.93381805">
        <ele>19.000000</ele>
        <time>2010-01-01T04:18:20Z</time>
      </trkpt>
      <trkpt lat="37.10417380" lon="-8.93384185">
        <ele>24.000000</ele>
        <time>2010-01-01T04:18:43Z</time>
      </trkpt>
      <trkpt lat="37.10361010" lon="-8.93395442">
        <ele>28.000000</ele>
        <time>2010-01-01T04:19:18Z</time>
      </trkpt>
      <trkpt lat="37.10287000" lon="-8.93451467">
        <ele>37.000000</ele>
        <time>2010-01-01T04:20:01Z</time>
      </trkpt>
      <trkpt lat="37.10216830" lon="-8.93556517">
        <ele>56.000000</ele>
        <time>2010-01-01T04:20:07Z</time>
      </trkpt>
      <trkpt lat="37.10204320" lon="-8.93564882">
        <ele>58.000000</ele>
        <time>2010-01-01T04:20:27Z</time>
      </trkpt>
      <trkpt lat="37.10155960" lon="-8.93569752">
        <ele>53.000000</ele>
        <time>2010-01-01T04:20:34Z</time>
      </trkpt>
      <trkpt lat="37.10139720" lon="-8.93583440">
        <ele>54.000000</ele>
        <time>2010-01-01T04:20:54Z</time>
      </trkpt>
      <trkpt lat="37.10120040" lon="-8.93639381">
        <ele>63.000000</ele>
        <time>2010-01-01T04:21:03Z</time>
      </trkpt>
      <trkpt lat="37.10100490" lon="-8.93653261">
        <ele>66.000000</ele>
        <time>2010-01-01T04:21:19Z</time>
      </trkpt>
      <trkpt lat="37.10060290" lon="-8.93663093">
        <ele>70.000000</ele>
        <time>2010-01-01T04:21:35Z</time>
      </trkpt>
      <trkpt lat="37.10021170" lon="-8.93664367">
        <ele>75.000000</ele>
        <time>2010-01-01T04:21:52Z</time>
      </trkpt>
      <trkpt lat="37.09978300" lon="-8.93657217">
        <ele>77.000000</ele>
        <time>2010-01-01T04:22:09Z</time>
      </trkpt>
      <trkpt lat="37.09937790" lon="-8.93666647">
        <ele>83.000000</ele>
        <time>2010-01-01T04:22:31Z</time>
      </trkpt>
      <trkpt lat="37.09884620" lon="-8.93644577">
        <ele>88.000000</ele>
        <time>2010-01-01T04:22:48Z</time>
      </trkpt>
      <trkpt lat="37.09851670" lon="-8.93676630">
        <ele>94.000000</ele>
        <time>2010-01-01T04:23:02Z</time>
      </trkpt>
      <trkpt lat="37.09817530" lon="-8.93678633">
        <ele>97.000000</ele>
        <time>2010-01-01T04:23:31Z</time>
      </trkpt>
      <trkpt lat="37.09742710" lon="-8.93675448">
        <ele>103.00000</ele>
        <time>2010-01-01T04:23:47Z</time>
      </trkpt>
      <trkpt lat="37.09711180" lon="-8.93647687">
        <ele>104.00000</ele>
        <time>2010-01-01T04:24:44Z</time>
      </trkpt>
      <trkpt lat="37.09618320" lon="-8.93511607">
        <ele>94.000000</ele>
        <time>2010-01-01T04:25:28Z</time>
      </trkpt>
      <trkpt lat="37.09557400" lon="-8.93398594">
        <ele>93.000000</ele>
        <time>2010-01-01T04:25:33Z</time>
      </trkpt>
      <trkpt lat="37.09542930" lon="-8.93398669">
        <ele>96.000000</ele>
        <time>2010-01-01T04:25:43Z</time>
      </trkpt>
      <trkpt lat="37.09544490" lon="-8.93428048">
        <ele>94.000000</ele>
        <time>2010-01-01T04:25:50Z</time>
      </trkpt>
      <trkpt lat="37.09532300" lon="-8.93443412">
        <ele>93.000000</ele>
        <time>2010-01-01T04:26:01Z</time>
      </trkpt>
      <trkpt lat="37.09504230" lon="-8.93436396">
        <ele>99.000000</ele>
        <time>2010-01-01T04:26:27Z</time>
      </trkpt>
      <trkpt lat="37.09484170" lon="-8.93512009">
        <ele>86.000000</ele>
        <time>2010-01-01T04:26:42Z</time>
      </trkpt>
      <trkpt lat="37.09446340" lon="-8.93522914">
        <ele>84.000000</ele>
        <time>2010-01-01T04:27:19Z</time>
      </trkpt>
      <trkpt lat="37.09369720" lon="-8.93458725">
        <ele>90.000000</ele>
        <time>2010-01-01T04:27:29Z</time>
      </trkpt>
      <trkpt lat="37.09347880" lon="-8.93476336">
        <ele>85.000000</ele>
        <time>2010-01-01T04:27:37Z</time>
      </trkpt>
      <trkpt lat="37.09340630" lon="-8.93496377">
        <ele>81.000000</ele>
        <time>2010-01-01T04:27:48Z</time>
      </trkpt>
      <trkpt lat="37.09313190" lon="-8.93502043">
        <ele>81.000000</ele>
        <time>2010-01-01T04:28:15Z</time>
      </trkpt>
      <trkpt lat="37.09259610" lon="-8.93451157">
        <ele>85.000000</ele>
        <time>2010-01-01T04:28:27Z</time>
      </trkpt>
      <trkpt lat="37.09229130" lon="-8.93438550">
        <ele>84.000000</ele>
        <time>2010-01-01T04:28:56Z</time>
      </trkpt>
      <trkpt lat="37.09157310" lon="-8.93430227">
        <ele>75.000000</ele>
        <time>2010-01-01T04:29:02Z</time>
      </trkpt>
      <trkpt lat="37.09147310" lon="-8.93416766">
        <ele>78.000000</ele>
        <time>2010-01-01T04:29:26Z</time>
      </trkpt>
      <trkpt lat="37.09091990" lon="-8.93385442">
        <ele>83.000000</ele>
        <time>2010-01-01T04:29:34Z</time>
      </trkpt>
      <trkpt lat="37.09072700" lon="-8.93382299">
        <ele>82.000000</ele>
        <time>2010-01-01T04:29:40Z</time>
      </trkpt>
      <trkpt lat="37.09065800" lon="-8.93367346">
        <ele>86.000000</ele>
        <time>2010-01-01T04:29:52Z</time>
      </trkpt>
      <trkpt lat="37.09040370" lon="-8.93348093">
        <ele>91.000000</ele>
        <time>2010-01-01T04:30:06Z</time>
      </trkpt>
      <trkpt lat="37.09025650" lon="-8.93389466">
        <ele>80.000000</ele>
        <time>2010-01-01T04:30:26Z</time>
      </trkpt>
      <trkpt lat="37.08979990" lon="-8.93417445">
        <ele>76.000000</ele>
        <time>2010-01-01T04:30:38Z</time>
      </trkpt>
      <trkpt lat="37.08951390" lon="-8.93422516">
        <ele>76.000000</ele>
        <time>2010-01-01T04:31:07Z</time>
      </trkpt>
      <trkpt lat="37.08879610" lon="-8.93418576">
        <ele>78.000000</ele>
        <time>2010-01-01T04:31:22Z</time>
      </trkpt>
      <trkpt lat="37.08842300" lon="-8.93404176">
        <ele>86.000000</ele>
        <time>2010-01-01T04:31:47Z</time>
      </trkpt>
      <trkpt lat="37.08820540" lon="-8.93332695">
        <ele>85.000000</ele>
        <time>2010-01-01T04:32:05Z</time>
      </trkpt>
      <trkpt lat="37.08810570" lon="-8.93276151">
        <ele>87.000000</ele>
        <time>2010-01-01T04:32:13Z</time>
      </trkpt>
      <trkpt lat="37.08798740" lon="-8.93258691">
        <ele>89.000000</ele>
        <time>2010-01-01T04:32:30Z</time>
      </trkpt>
      <trkpt lat="37.08762840" lon="-8.93226949">
        <ele>91.000000</ele>
        <time>2010-01-01T04:32:35Z</time>
      </trkpt>
      <trkpt lat="37.08749830" lon="-8.93224359">
        <ele>92.000000</ele>
        <time>2010-01-01T04:33:00Z</time>
      </trkpt>
      <trkpt lat="37.08690210" lon="-8.93245884">
        <ele>101.00000</ele>
        <time>2010-01-01T04:33:27Z</time>
      </trkpt>
      <trkpt lat="37.08623180" lon="-8.93249614">
        <ele>110.00000</ele>
        <time>2010-01-01T04:34:04Z</time>
      </trkpt>
      <trkpt lat="37.08542940" lon="-8.93191980">
        <ele>114.00000</ele>
        <time>2010-01-01T04:34:19Z</time>
      </trkpt>
      <trkpt lat="37.08507200" lon="-8.93192600">
        <ele>117.00000</ele>
        <time>2010-01-01T04:34:31Z</time>
      </trkpt>
      <trkpt lat="37.08478680" lon="-8.93178309">
        <ele>120.00000</ele>
        <time>2010-01-01T04:35:11Z</time>
      </trkpt>
      <trkpt lat="37.08396150" lon="-8.93105277">
        <ele>121.00000</ele>
        <time>2010-01-01T04:35:28Z</time>
      </trkpt>
      <trkpt lat="37.08356730" lon="-8.93091782">
        <ele>123.00000</ele>
        <time>2010-01-01T04:35:51Z</time>
      </trkpt>
      <trkpt lat="37.08338800" lon="-8.93022950">
        <ele>123.00000</ele>
        <time>2010-01-01T04:36:05Z</time>
      </trkpt>
      <trkpt lat="37.08355840" lon="-8.92983757">
        <ele>123.00000</ele>
        <time>2010-01-01T04:36:21Z</time>
      </trkpt>
      <trkpt lat="37.08384910" lon="-8.92949625">
        <ele>125.00000</ele>
        <time>2010-01-01T04:36:27Z</time>
      </trkpt>
      <trkpt lat="37.08370340" lon="-8.92940506">
        <ele>125.00000</ele>
        <time>2010-01-01T04:36:41Z</time>
      </trkpt>
      <trkpt lat="37.08337330" lon="-8.92954009">
        <ele>123.00000</ele>
        <time>2010-01-01T04:36:58Z</time>
      </trkpt>
      <trkpt lat="37.08307370" lon="-8.92992314">
        <ele>125.00000</ele>
        <time>2010-01-01T04:37:19Z</time>
      </trkpt>
      <trkpt lat="37.08279990" lon="-8.93047241">
        <ele>128.00000</ele>
        <time>2010-01-01T04:38:25Z</time>
      </trkpt>
      <trkpt lat="37.08255270" lon="-8.93249874">
        <ele>132.00000</ele>
        <time>2010-01-01T04:38:47Z</time>
      </trkpt>
      <trkpt lat="37.08255160" lon="-8.93321220">
        <ele>131.00000</ele>
        <time>2010-01-01T04:39:31Z</time>
      </trkpt>
      <trkpt lat="37.08304610" lon="-8.93441962">
        <ele>132.00000</ele>
        <time>2010-01-01T04:40:21Z</time>
      </trkpt>
      <trkpt lat="37.08354200" lon="-8.93587849">
        <ele>131.00000</ele>
        <time>2010-01-01T04:40:34Z</time>
      </trkpt>
      <trkpt lat="37.08349640" lon="-8.93626330">
        <ele>131.00000</ele>
        <time>2010-01-01T04:41:04Z</time>
      </trkpt>
      <trkpt lat="37.08319550" lon="-8.93711708">
        <ele>131.00000</ele>
        <time>2010-01-01T04:41:40Z</time>
      </trkpt>
      <trkpt lat="37.08269030" lon="-8.93804613">
        <ele>132.00000</ele>
        <time>2010-01-01T04:41:56Z</time>
      </trkpt>
      <trkpt lat="37.08265830" lon="-8.93856866">
        <ele>132.00000</ele>
        <time>2010-01-01T04:42:12Z</time>
      </trkpt>
      <trkpt lat="37.08273220" lon="-8.93906420">
        <ele>133.00000</ele>
        <time>2010-01-01T04:42:32Z</time>
      </trkpt>
      <trkpt lat="37.08290470" lon="-8.93962905">
        <ele>136.00000</ele>
        <time>2010-01-01T04:44:07Z</time>
      </trkpt>
      <trkpt lat="37.08307050" lon="-8.94259625">
        <ele>141.00000</ele>
        <time>2010-01-01T04:44:45Z</time>
      </trkpt>
      <trkpt lat="37.08304290" lon="-8.94381037">
        <ele>142.00000</ele>
        <time>2010-01-01T04:45:10Z</time>
      </trkpt>
      <trkpt lat="37.08292960" lon="-8.94456733">
        <ele>145.00000</ele>
        <time>2010-01-01T04:45:48Z</time>
      </trkpt>
      <trkpt lat="37.08285240" lon="-8.94574172">
        <ele>146.00000</ele>
        <time>2010-01-01T04:46:27Z</time>
      </trkpt>
      <trkpt lat="37.08293830" lon="-8.94697420">
        <ele>147.00000</ele>
        <time>2010-01-01T04:46:39Z</time>
      </trkpt>
      <trkpt lat="37.08290780" lon="-8.94733194">
        <ele>148.00000</ele>
        <time>2010-01-01T04:46:56Z</time>
      </trkpt>
      <trkpt lat="37.08274770" lon="-8.94783946">
        <ele>148.00000</ele>
        <time>2010-01-01T04:47:05Z</time>
      </trkpt>
      <trkpt lat="37.08255160" lon="-8.94795564">
        <ele>148.00000</ele>
        <time>2010-01-01T04:47:29Z</time>
      </trkpt>
      <trkpt lat="37.08195780" lon="-8.94775765">
        <ele>146.00000</ele>
        <time>2010-01-01T04:47:44Z</time>
      </trkpt>
      <trkpt lat="37.08160400" lon="-8.94788531">
        <ele>144.00000</ele>
        <time>2010-01-01T04:48:03Z</time>
      </trkpt>
      <trkpt lat="37.08117800" lon="-8.94814255">
        <ele>144.00000</ele>
        <time>2010-01-01T04:48:58Z</time>
      </trkpt>
      <trkpt lat="37.08012510" lon="-8.94924444">
        <ele>141.00000</ele>
        <time>2010-01-01T04:49:38Z</time>
      </trkpt>
      <trkpt lat="37.07924150" lon="-8.94985925">
        <ele>138.00000</ele>
        <time>2010-01-01T04:50:09Z</time>
      </trkpt>
      <trkpt lat="37.07847440" lon="-8.94993628">
        <ele>136.00000</ele>
        <time>2010-01-01T04:50:38Z</time>
      </trkpt>
      <trkpt lat="37.07778110" lon="-8.95012051">
        <ele>136.00000</ele>
        <time>2010-01-01T04:50:51Z</time>
      </trkpt>
      <trkpt lat="37.07743460" lon="-8.95015245">
        <ele>135.00000</ele>
        <time>2010-01-01T04:51:16Z</time>
      </trkpt>
      <trkpt lat="37.07684800" lon="-8.95035881">
        <ele>134.00000</ele>
        <time>2010-01-01T04:52:21Z</time>
      </trkpt>
      <trkpt lat="37.07555630" lon="-8.95160537">
        <ele>130.00000</ele>
        <time>2010-01-01T04:52:49Z</time>
      </trkpt>
      <trkpt lat="37.07496930" lon="-8.95208071">
        <ele>128.00000</ele>
        <time>2010-01-01T04:53:04Z</time>
      </trkpt>
      <trkpt lat="37.07461230" lon="-8.95218875">
        <ele>126.00000</ele>
        <time>2010-01-01T04:53:26Z</time>
      </trkpt>
      <trkpt lat="37.07405330" lon="-8.95224700">
        <ele>126.00000</ele>
        <time>2010-01-01T04:54:20Z</time>
      </trkpt>
      <trkpt lat="37.07278230" lon="-8.95278604">
        <ele>121.00000</ele>
        <time>2010-01-01T04:55:03Z</time>
      </trkpt>
      <trkpt lat="37.07174190" lon="-8.95311654">
        <ele>119.00000</ele>
        <time>2010-01-01T04:55:30Z</time>
      </trkpt>
      <trkpt lat="37.07106330" lon="-8.95319391">
        <ele>121.00000</ele>
        <time>2010-01-01T04:56:06Z</time>
      </trkpt>
      <trkpt lat="37.07021140" lon="-8.95289098">
        <ele>119.00000</ele>
        <time>2010-01-01T04:56:13Z</time>
      </trkpt>
      <trkpt lat="37.07001820" lon="-8.95287263">
        <ele>117.00000</ele>
        <time>2010-01-01T04:56:22Z</time>
      </trkpt>
      <trkpt lat="37.06981720" lon="-8.95274606">
        <ele>116.00000</ele>
        <time>2010-01-01T04:56:36Z</time>
      </trkpt>
      <trkpt lat="37.06947200" lon="-8.95272553">
        <ele>116.00000</ele>
        <time>2010-01-01T04:57:19Z</time>
      </trkpt>
      <trkpt lat="37.06846780" lon="-8.95313842">
        <ele>108.00000</ele>
        <time>2010-01-01T04:57:35Z</time>
      </trkpt>
      <trkpt lat="37.06814770" lon="-8.95346003">
        <ele>109.00000</ele>
        <time>2010-01-01T04:58:01Z</time>
      </trkpt>
      <trkpt lat="37.06776430" lon="-8.95411214">
        <ele>112.00000</ele>
        <time>2010-01-01T04:59:11Z</time>
      </trkpt>
      <trkpt lat="37.06701690" lon="-8.95610989">
        <ele>110.00000</ele>
        <time>2010-01-01T04:59:24Z</time>
      </trkpt>
      <trkpt lat="37.06681550" lon="-8.95640920">
        <ele>110.00000</ele>
        <time>2010-01-01T04:59:49Z</time>
      </trkpt>
      <trkpt lat="37.06652570" lon="-8.95711731">
        <ele>108.00000</ele>
        <time>2010-01-01T05:00:26Z</time>
      </trkpt>
      <trkpt lat="37.06598280" lon="-8.95803999">
        <ele>107.00000</ele>
        <time>2010-01-01T05:00:35Z</time>
      </trkpt>
      <trkpt lat="37.06580670" lon="-8.95819698">
        <ele>107.00000</ele>
        <time>2010-01-01T05:01:09Z</time>
      </trkpt>
      <trkpt lat="37.06501010" lon="-8.95863125">
        <ele>104.00000</ele>
        <time>2010-01-01T05:02:30Z</time>
      </trkpt>
      <trkpt lat="37.06334520" lon="-8.96003253">
        <ele>98.000000</ele>
        <time>2010-01-01T05:02:38Z</time>
      </trkpt>
      <trkpt lat="37.06320010" lon="-8.96021811">
        <ele>97.000000</ele>
        <time>2010-01-01T05:02:50Z</time>
      </trkpt>
      <trkpt lat="37.06312480" lon="-8.96059848">
        <ele>95.000000</ele>
        <time>2010-01-01T05:03:17Z</time>
      </trkpt>
      <trkpt lat="37.06321880" lon="-8.96143583">
        <ele>94.000000</ele>
        <time>2010-01-01T05:03:35Z</time>
      </trkpt>
      <trkpt lat="37.06308540" lon="-8.96195056">
        <ele>94.000000</ele>
        <time>2010-01-01T05:03:50Z</time>
      </trkpt>
      <trkpt lat="37.06288100" lon="-8.96235533">
        <ele>95.000000</ele>
        <time>2010-01-01T05:03:58Z</time>
      </trkpt>
      <trkpt lat="37.06292330" lon="-8.96260712">
        <ele>97.000000</ele>
        <time>2010-01-01T05:04:10Z</time>
      </trkpt>
      <trkpt lat="37.06306600" lon="-8.96292898">
        <ele>98.000000</ele>
        <time>2010-01-01T05:04:32Z</time>
      </trkpt>
      <trkpt lat="37.06353220" lon="-8.96328044">
        <ele>96.000000</ele>
        <time>2010-01-01T05:04:44Z</time>
      </trkpt>
      <trkpt lat="37.06373420" lon="-8.96358755">
        <ele>97.000000</ele>
        <time>2010-01-01T05:06:35Z</time>
      </trkpt>
      <trkpt lat="37.06230130" lon="-8.96654326">
        <ele>93.000000</ele>
        <time>2010-01-01T05:07:51Z</time>
      </trkpt>
      <trkpt lat="37.06148090" lon="-8.96869355">
        <ele>90.000000</ele>
        <time>2010-01-01T05:08:06Z</time>
      </trkpt>
      <trkpt lat="37.06140700" lon="-8.96916118">
        <ele>90.000000</ele>
        <time>2010-01-01T05:08:14Z</time>
      </trkpt>
      <trkpt lat="37.06131210" lon="-8.96938556">
        <ele>90.000000</ele>
        <time>2010-01-01T05:08:25Z</time>
      </trkpt>
      <trkpt lat="37.06111050" lon="-8.96958011">
        <ele>90.000000</ele>
        <time>2010-01-01T05:08:33Z</time>
      </trkpt>
      <trkpt lat="37.06091420" lon="-8.96966636">
        <ele>90.000000</ele>
        <time>2010-01-01T05:08:43Z</time>
      </trkpt>
      <trkpt lat="37.06067330" lon="-8.96975395">
        <ele>90.000000</ele>
        <time>2010-01-01T05:09:04Z</time>
      </trkpt>
      <trkpt lat="37.06013910" lon="-8.96977683">
        <ele>92.000000</ele>
        <time>2010-01-01T05:10:24Z</time>
      </trkpt>
      <trkpt lat="37.05822340" lon="-8.97045166">
        <ele>89.000000</ele>
        <time>2010-01-01T05:11:14Z</time>
      </trkpt>
      <trkpt lat="37.05697000" lon="-8.97050161">
        <ele>85.000000</ele>
        <time>2010-01-01T05:11:34Z</time>
      </trkpt>
      <trkpt lat="37.05648570" lon="-8.97038485">
        <ele>84.000000</ele>
        <time>2010-01-01T05:14:54Z</time>
      </trkpt>
      <trkpt lat="37.05147910" lon="-8.97045509">
        <ele>79.000000</ele>
        <time>2010-01-01T05:15:23Z</time>
      </trkpt>
      <trkpt lat="37.05081240" lon="-8.97015418">
        <ele>77.000000</ele>
        <time>2010-01-01T05:16:35Z</time>
      </trkpt>
      <trkpt lat="37.04919280" lon="-8.96917660">
        <ele>78.000000</ele>
        <time>2010-01-01T05:16:50Z</time>
      </trkpt>
      <trkpt lat="37.04899460" lon="-8.96878165">
        <ele>76.000000</ele>
        <time>2010-01-01T05:17:34Z</time>
      </trkpt>
      <trkpt lat="37.04898000" lon="-8.96738975">
        <ele>74.000000</ele>
        <time>2010-01-01T05:17:46Z</time>
      </trkpt>
      <trkpt lat="37.04877770" lon="-8.96711868">
        <ele>73.000000</ele>
        <time>2010-01-01T05:17:53Z</time>
      </trkpt>
      <trkpt lat="37.04862810" lon="-8.96701860">
        <ele>73.000000</ele>
        <time>2010-01-01T05:18:09Z</time>
      </trkpt>
      <trkpt lat="37.04822090" lon="-8.96693922">
        <ele>71.000000</ele>
        <time>2010-01-01T05:29:46Z</time>
      </trkpt>
      <trkpt lat="37.03084480" lon="-8.96839046">
        <ele>51.000000</ele>
        <time>2010-01-01T05:30:20Z</time>
      </trkpt>
      <trkpt lat="37.03003800" lon="-8.96868224">
        <ele>53.000000</ele>
        <time>2010-01-01T05:30:45Z</time>
      </trkpt>
      <trkpt lat="37.02960020" lon="-8.96922371">
        <ele>51.000000</ele>
        <time>2010-01-01T05:31:45Z</time>
      </trkpt>
      <trkpt lat="37.02899830" lon="-8.97095591">
        <ele>47.000000</ele>
        <time>2010-01-01T05:32:00Z</time>
      </trkpt>
      <trkpt lat="37.02879320" lon="-8.97134441">
        <ele>48.000000</ele>
        <time>2010-01-01T05:32:15Z</time>
      </trkpt>
      <trkpt lat="37.02845830" lon="-8.97154910">
        <ele>48.000000</ele>
        <time>2010-01-01T05:32:47Z</time>
      </trkpt>
      <trkpt lat="37.02766300" lon="-8.97150526">
        <ele>45.000000</ele>
        <time>2010-01-01T05:32:54Z</time>
      </trkpt>
      <trkpt lat="37.02752750" lon="-8.97167340">
        <ele>45.000000</ele>
        <time>2010-01-01T05:34:36Z</time>
      </trkpt>
      <trkpt lat="37.02728320" lon="-8.97483866">
        <ele>53.000000</ele>
        <time>2010-01-01T05:35:14Z</time>
      </trkpt>
      <trkpt lat="37.02729270" lon="-8.97603618">
        <ele>48.000000</ele>
        <time>2010-01-01T05:37:57Z</time>
      </trkpt>
      <trkpt lat="37.02816750" lon="-8.98099819">
        <ele>49.000000</ele>
        <time>2010-01-01T05:38:34Z</time>
      </trkpt>
      <trkpt lat="37.02830470" lon="-8.98215891">
        <ele>54.000000</ele>
        <time>2010-01-01T05:39:11Z</time>
      </trkpt>
      <trkpt lat="37.02827430" lon="-8.98331528">
        <ele>56.000000</ele>
        <time>2010-01-01T05:39:37Z</time>
      </trkpt>
      <trkpt lat="37.02815760" lon="-8.98412078">
        <ele>52.000000</ele>
        <time>2010-01-01T05:42:43Z</time>
      </trkpt>
      <trkpt lat="37.02600170" lon="-8.98927917">
        <ele>57.000000</ele>
        <time>2010-01-01T05:46:30Z</time>
      </trkpt>
      <trkpt lat="37.02338380" lon="-8.99556811">
        <ele>44.000000</ele>
        <time>2010-01-01T05:46:34Z</time>
      </trkpt>
      <trkpt lat="37.02337390" lon="-8.99544918">
        <ele>43.000000</ele>
        <time>2010-01-01T05:48:26Z</time>
      </trkpt>
      <trkpt lat="37.02470640" lon="-8.99234544">
        <ele>61.000000</ele>
        <time>2010-01-01T05:53:26Z</time>
      </trkpt>
      <trkpt lat="37.02811700" lon="-8.98401165">
        <ele>50.000000</ele>
        <time>2010-01-01T05:53:54Z</time>
      </trkpt>
      <trkpt lat="37.02821600" lon="-8.98314303">
        <ele>55.000000</ele>
        <time>2010-01-01T05:54:25Z</time>
      </trkpt>
      <trkpt lat="37.02823800" lon="-8.98217878">
        <ele>55.000000</ele>
        <time>2010-01-01T05:54:50Z</time>
      </trkpt>
      <trkpt lat="37.02816970" lon="-8.98138409">
        <ele>50.000000</ele>
        <time>2010-01-01T05:57:26Z</time>
      </trkpt>
      <trkpt lat="37.02733620" lon="-8.97661521">
        <ele>48.000000</ele>
        <time>2010-01-01T05:58:04Z</time>
      </trkpt>
      <trkpt lat="37.02719510" lon="-8.97544811">
        <ele>45.000000</ele>
        <time>2010-01-01T06:01:41Z</time>
      </trkpt>
      <trkpt lat="37.02766640" lon="-8.96867578">
        <ele>46.000000</ele>
        <time>2010-01-01T06:03:44Z</time>
      </trkpt>
      <trkpt lat="37.02759060" lon="-8.96482740">
        <ele>44.000000</ele>
        <time>2010-01-01T06:04:23Z</time>
      </trkpt>
      <trkpt lat="37.02753640" lon="-8.96362393">
        <ele>39.000000</ele>
        <time>2010-01-01T06:04:33Z</time>
      </trkpt>
      <trkpt lat="37.02743070" lon="-8.96331673">
        <ele>41.000000</ele>
        <time>2010-01-01T06:04:39Z</time>
      </trkpt>
      <trkpt lat="37.02735230" lon="-8.96317977">
        <ele>42.000000</ele>
        <time>2010-01-01T06:05:07Z</time>
      </trkpt>
      <trkpt lat="37.02676850" lon="-8.96267049">
        <ele>43.000000</ele>
        <time>2010-01-01T06:11:55Z</time>
      </trkpt>
      <trkpt lat="37.01812140" lon="-8.95591853">
        <ele>23.000000</ele>
        <time>2010-01-01T06:18:45Z</time>
      </trkpt>
      <trkpt lat="37.00966210" lon="-8.94871076">
        <ele>22.000000</ele>
        <time>2010-01-01T06:19:14Z</time>
      </trkpt>
      <trkpt lat="37.00912430" lon="-8.94809050">
        <ele>30.000000</ele>
        <time>2010-01-01T06:20:09Z</time>
      </trkpt>
      <trkpt lat="37.00833250" lon="-8.94666323">
        <ele>28.000000</ele>
        <time>2010-01-01T06:21:04Z</time>
      </trkpt>
      <trkpt lat="37.00768560" lon="-8.94518014">
        <ele>29.000000</ele>
        <time>2010-01-01T06:21:19Z</time>
      </trkpt>
      <trkpt lat="37.00729950" lon="-8.94513328">
        <ele>28.000000</ele>
        <time>2010-01-01T06:22:14Z</time>
      </trkpt>
      <trkpt lat="37.00601040" lon="-8.94572169">
        <ele>27.000000</ele>
        <time>2010-01-01T06:22:15Z</time>
      </trkpt>
      <trkpt lat="37.00602000" lon="-8.94576000">
        <ele>27.000000</ele>
        <time>2010-01-01T06:25:09Z</time>
      </trkpt>
      <trkpt lat="37.00195000" lon="-8.94767000">
        <ele>33.000000</ele>
        <time>2010-01-01T06:25:10Z</time>
      </trkpt>
      <trkpt lat="37.00195000" lon="-8.94768000">
        <ele>33.000000</ele>
        <time>2010-01-01T06:25:22Z</time>
      </trkpt>
      <trkpt lat="37.00165000" lon="-8.94781000">
        <ele>36.000000</ele>
        <time>2010-01-01T06:25:25Z</time>
      </trkpt>
      <trkpt lat="37.00159000" lon="-8.94781000">
        <ele>35.000000</ele>
        <time>2010-01-01T06:25:29Z</time>
      </trkpt>
      <trkpt lat="37.00151000" lon="-8.94773000">
        <ele>34.000000</ele>
        <time>2010-01-01T06:25:58Z</time>
      </trkpt>
      <trkpt lat="37.00089000" lon="-8.94821000">
        <ele>29.000000</ele>
        <time>2010-01-01T06:26:11Z</time>
      </trkpt>
      <trkpt lat="37.00058000" lon="-8.94831000">
        <ele>33.000000</ele>
        <time>2010-01-01T06:26:11Z</time>
      </trkpt>
      <trkpt lat="37.00057000" lon="-8.94831000">
        <ele>33.000000</ele>
        <time>2010-01-01T06:26:24Z</time>
      </trkpt>
      <trkpt lat="37.00089000" lon="-8.94821000">
        <ele>29.000000</ele>
        <time>2010-01-01T06:26:54Z</time>
      </trkpt>
      <trkpt lat="37.00151000" lon="-8.94773000">
        <ele>34.000000</ele>
        <time>2010-01-01T06:26:57Z</time>
      </trkpt>
      <trkpt lat="37.00149000" lon="-8.94762000">
        <ele>34.000000</ele>
        <time>2010-01-01T06:27:01Z</time>
      </trkpt>
      <trkpt lat="37.00153000" lon="-8.94751000">
        <ele>33.000000</ele>
        <time>2010-01-01T06:29:16Z</time>
      </trkpt>
      <trkpt lat="37.00415000" lon="-8.94484000">
        <ele>23.000000</ele>
        <time>2010-01-01T06:29:21Z</time>
      </trkpt>
      <trkpt lat="37.00424000" lon="-8.94476000">
        <ele>24.000000</ele>
        <time>2010-01-01T06:29:25Z</time>
      </trkpt>
      <trkpt lat="37.00435000" lon="-8.94475000">
        <ele>24.000000</ele>
        <time>2010-01-01T06:29:28Z</time>
      </trkpt>
      <trkpt lat="37.00442000" lon="-8.94477000">
        <ele>24.000000</ele>
        <time>2010-01-01T06:30:28Z</time>
      </trkpt>
      <trkpt lat="37.00575000" lon="-8.94563000">
        <ele>25.000000</ele>
        <time>2010-01-01T06:30:35Z</time>
      </trkpt>
      <trkpt lat="37.00580000" lon="-8.94586000">
        <ele>25.000000</ele>
        <time>2010-01-01T06:30:51Z</time>
      </trkpt>
      <trkpt lat="37.00544000" lon="-8.94603000">
        <ele>24.000000</ele>
        <time>2010-01-01T06:30:51Z</time>
      </trkpt>
      <trkpt lat="37.00544000" lon="-8.94604000">
        <ele>24.000000</ele>
        <time>2010-01-01T06:32:15Z</time>
      </trkpt>
      <trkpt lat="37.00349000" lon="-8.94695000">
        <ele>24.000000</ele>
        <time>2010-01-01T06:32:50Z</time>
      </trkpt>
      <trkpt lat="37.00305000" lon="-8.94597000">
        <ele>27.000000</ele>
        <time>2010-01-01T06:33:47Z</time>
      </trkpt>
      <trkpt lat="37.00415000" lon="-8.94484000">
        <ele>23.000000</ele>
        <time>2010-01-01T06:33:52Z</time>
      </trkpt>
      <trkpt lat="37.00424000" lon="-8.94476000">
        <ele>24.000000</ele>
        <time>2010-01-01T06:33:56Z</time>
      </trkpt>
      <trkpt lat="37.00435000" lon="-8.94475000">
        <ele>24.000000</ele>
        <time>2010-01-01T06:33:59Z</time>
      </trkpt>
      <trkpt lat="37.00442000" lon="-8.94477000">
        <ele>24.000000</ele>
        <time>2010-01-01T06:34:56Z</time>
      </trkpt>
      <trkpt lat="37.00568000" lon="-8.94558000">
        <ele>25.000000</ele>
        <time>2010-01-01T06:35:08Z</time>
      </trkpt>
      <trkpt lat="37.00594000" lon="-8.94579000">
        <ele>26.000000</ele>
        <time>2010-01-01T06:35:34Z</time>
      </trkpt>
      <trkpt lat="37.00656000" lon="-8.94552000">
        <ele>31.000000</ele>
        <time>2010-01-01T06:36:07Z</time>
      </trkpt>
      <trkpt lat="37.00729000" lon="-8.94509000">
        <ele>28.000000</ele>
        <time>2010-01-01T06:36:10Z</time>
      </trkpt>
      <trkpt lat="37.00736000" lon="-8.94504000">
        <ele>28.000000</ele>
        <time>2010-01-01T06:36:16Z</time>
      </trkpt>
      <trkpt lat="37.00746000" lon="-8.94492000">
        <ele>29.000000</ele>
        <time>2010-01-01T06:36:24Z</time>
      </trkpt>
      <trkpt lat="37.00758000" lon="-8.94472000">
        <ele>29.000000</ele>
        <time>2010-01-01T06:36:27Z</time>
      </trkpt>
      <trkpt lat="37.00766000" lon="-8.94468000">
        <ele>30.000000</ele>
        <time>2010-01-01T06:36:29Z</time>
      </trkpt>
      <trkpt lat="37.00770000" lon="-8.94468000">
        <ele>31.000000</ele>
        <time>2010-01-01T06:36:32Z</time>
      </trkpt>
      <trkpt lat="37.00779000" lon="-8.94472000">
        <ele>32.000000</ele>
        <time>2010-01-01T06:36:37Z</time>
      </trkpt>
      <trkpt lat="37.00785000" lon="-8.94483000">
        <ele>31.000000</ele>
        <time>2010-01-01T06:36:50Z</time>
      </trkpt>
      <trkpt lat="37.00783000" lon="-8.94526000">
        <ele>29.000000</ele>
        <time>2010-01-01T06:36:57Z</time>
      </trkpt>
      <trkpt lat="37.00786000" lon="-8.94545000">
        <ele>28.000000</ele>
        <time>2010-01-01T06:37:07Z</time>
      </trkpt>
      <trkpt lat="37.00796000" lon="-8.94576000">
        <ele>29.000000</ele>
        <time>2010-01-01T06:37:24Z</time>
      </trkpt>
      <trkpt lat="37.00812000" lon="-8.94624000">
        <ele>29.000000</ele>
        <time>2010-01-01T06:37:36Z</time>
      </trkpt>
      <trkpt lat="37.00828000" lon="-8.94656000">
        <ele>28.000000</ele>
        <time>2010-01-01T06:38:40Z</time>
      </trkpt>
      <trkpt lat="37.00922000" lon="-8.94819000">
        <ele>29.000000</ele>
        <time>2010-01-01T06:38:53Z</time>
      </trkpt>
      <trkpt lat="37.00944000" lon="-8.94846000">
        <ele>23.000000</ele>
        <time>2010-01-01T06:39:35Z</time>
      </trkpt>
      <trkpt lat="37.01031000" lon="-8.94921000">
        <ele>22.000000</ele>
        <time>2010-01-01T06:43:13Z</time>
      </trkpt>
      <trkpt lat="37.01480000" lon="-8.95308000">
        <ele>15.000000</ele>
        <time>2010-01-01T06:43:43Z</time>
      </trkpt>
      <trkpt lat="37.01514000" lon="-8.95226000">
        <ele>19.000000</ele>
        <time>2010-01-01T06:43:43Z</time>
      </trkpt>
      <trkpt lat="37.01514000" lon="-8.95227000">
        <ele>19.000000</ele>
        <time>2010-01-01T06:43:53Z</time>
      </trkpt>
      <trkpt lat="37.01525000" lon="-8.95199000">
        <ele>19.000000</ele>
        <time>2010-01-01T06:44:11Z</time>
      </trkpt>
      <trkpt lat="37.01526000" lon="-8.95142000">
        <ele>20.000000</ele>
        <time>2010-01-01T06:45:31Z</time>
      </trkpt>
      <trkpt lat="37.01562000" lon="-8.94895000">
        <ele>16.000000</ele>
        <time>2010-01-01T06:45:39Z</time>
      </trkpt>
      <trkpt lat="37.01554000" lon="-8.94875000">
        <ele>16.000000</ele>
        <time>2010-01-01T06:45:59Z</time>
      </trkpt>
      <trkpt lat="37.01569000" lon="-8.94813000">
        <ele>13.000000</ele>
        <time>2010-01-01T06:46:21Z</time>
      </trkpt>
      <trkpt lat="37.01619000" lon="-8.94788000">
        <ele>14.000000</ele>
        <time>2010-01-01T06:46:38Z</time>
      </trkpt>
      <trkpt lat="37.01641000" lon="-8.94742000">
        <ele>14.000000</ele>
        <time>2010-01-01T06:46:55Z</time>
      </trkpt>
      <trkpt lat="37.01683000" lon="-8.94738000">
        <ele>15.000000</ele>
        <time>2010-01-01T06:46:59Z</time>
      </trkpt>
      <trkpt lat="37.01693000" lon="-8.94733000">
        <ele>15.000000</ele>
        <time>2010-01-01T06:46:59Z</time>
      </trkpt>
      <trkpt lat="37.01692000" lon="-8.94733000">
        <ele>15.000000</ele>
        <time>2010-01-01T06:47:11Z</time>
      </trkpt>
      <trkpt lat="37.01720000" lon="-8.94721000">
        <ele>14.000000</ele>
        <time>2010-01-01T06:47:21Z</time>
      </trkpt>
      <trkpt lat="37.01743000" lon="-8.94722000">
        <ele>14.000000</ele>
        <time>2010-01-01T06:47:27Z</time>
      </trkpt>
      <trkpt lat="37.01758000" lon="-8.94714000">
        <ele>13.000000</ele>
        <time>2010-01-01T06:47:34Z</time>
      </trkpt>
      <trkpt lat="37.01769000" lon="-8.94698000">
        <ele>13.000000</ele>
        <time>2010-01-01T06:47:55Z</time>
      </trkpt>
      <trkpt lat="37.01780000" lon="-8.94634000">
        <ele>9.0000000</ele>
        <time>2010-01-01T06:48:08Z</time>
      </trkpt>
      <trkpt lat="37.01781000" lon="-8.94594000">
        <ele>9.0000000</ele>
        <time>2010-01-01T06:48:29Z</time>
      </trkpt>
      <trkpt lat="37.01834000" lon="-8.94582000">
        <ele>11.000000</ele>
        <time>2010-01-01T06:48:34Z</time>
      </trkpt>
      <trkpt lat="37.01846000" lon="-8.94588000">
        <ele>10.000000</ele>
        <time>2010-01-01T06:48:38Z</time>
      </trkpt>
      <trkpt lat="37.01847000" lon="-8.94600000">
        <ele>10.000000</ele>
        <time>2010-01-01T06:48:44Z</time>
      </trkpt>
      <trkpt lat="37.01860000" lon="-8.94609000">
        <ele>10.000000</ele>
        <time>2010-01-01T06:49:01Z</time>
      </trkpt>
      <trkpt lat="37.01900000" lon="-8.94628000">
        <ele>11.000000</ele>
        <time>2010-01-01T06:49:06Z</time>
      </trkpt>
      <trkpt lat="37.01911000" lon="-8.94630000">
        <ele>11.000000</ele>
        <time>2010-01-01T06:49:20Z</time>
      </trkpt>
      <trkpt lat="37.01947000" lon="-8.94632000">
        <ele>11.000000</ele>
        <time>2010-01-01T06:49:32Z</time>
      </trkpt>
      <trkpt lat="37.01976000" lon="-8.94638000">
        <ele>13.000000</ele>
        <time>2010-01-01T06:49:37Z</time>
      </trkpt>
      <trkpt lat="37.01987000" lon="-8.94645000">
        <ele>13.000000</ele>
        <time>2010-01-01T06:49:40Z</time>
      </trkpt>
      <trkpt lat="37.01991000" lon="-8.94652000">
        <ele>14.000000</ele>
        <time>2010-01-01T06:49:51Z</time>
      </trkpt>
      <trkpt lat="37.02013000" lon="-8.94673000">
        <ele>15.000000</ele>
        <time>2010-01-01T06:49:54Z</time>
      </trkpt>
      <trkpt lat="37.02021000" lon="-8.94679000">
        <ele>16.000000</ele>
        <time>2010-01-01T06:49:59Z</time>
      </trkpt>
      <trkpt lat="37.02028000" lon="-8.94689000">
        <ele>16.000000</ele>
        <time>2010-01-01T06:50:20Z</time>
      </trkpt>
      <trkpt lat="37.02070000" lon="-8.94729000">
        <ele>15.000000</ele>
        <time>2010-01-01T06:50:24Z</time>
      </trkpt>
      <trkpt lat="37.02074000" lon="-8.94740000">
        <ele>15.000000</ele>
        <time>2010-01-01T06:50:35Z</time>
      </trkpt>
      <trkpt lat="37.02094000" lon="-8.94766000">
        <ele>15.000000</ele>
        <time>2010-01-01T06:50:40Z</time>
      </trkpt>
      <trkpt lat="37.02103000" lon="-8.94775000">
        <ele>15.000000</ele>
        <time>2010-01-01T06:50:43Z</time>
      </trkpt>
      <trkpt lat="37.02111000" lon="-8.94776000">
        <ele>15.000000</ele>
        <time>2010-01-01T06:50:50Z</time>
      </trkpt>
      <trkpt lat="37.02124000" lon="-8.94791000">
        <ele>17.000000</ele>
        <time>2010-01-01T06:51:11Z</time>
      </trkpt>
      <trkpt lat="37.02151000" lon="-8.94734000">
        <ele>20.000000</ele>
        <time>2010-01-01T06:51:36Z</time>
      </trkpt>
      <trkpt lat="37.02188000" lon="-8.94670000">
        <ele>22.000000</ele>
        <time>2010-01-01T06:51:37Z</time>
      </trkpt>
      <trkpt lat="37.02187000" lon="-8.94670000">
        <ele>22.000000</ele>
        <time>2010-01-01T06:51:55Z</time>
      </trkpt>
      <trkpt lat="37.02213000" lon="-8.94625000">
        <ele>23.000000</ele>
        <time>2010-01-01T06:52:18Z</time>
      </trkpt>
      <trkpt lat="37.02255000" lon="-8.94575000">
        <ele>25.000000</ele>
        <time>2010-01-01T06:52:30Z</time>
      </trkpt>
      <trkpt lat="37.02281000" lon="-8.94554000">
        <ele>25.000000</ele>
        <time>2010-01-01T06:52:38Z</time>
      </trkpt>
      <trkpt lat="37.02301000" lon="-8.94554000">
        <ele>25.000000</ele>
      </trkpt>
    </trkseg>
  </trk>
</gpx>
